<?xml version="1.0" encoding="UTF-8" standalone="no" ?>
<gpx xmlns="http://www.topografix.com/GPX/1/1" xmlns:xsi="http://www.w3.org/2001/XMLSchema-instance" xsi:schemaLocation="http://www.topografix.com/GPX/1/1 http://www.topografix.com/GPX/1/1/gpx.xsd" version="1.1" creator="VisuGPX - https://www.visugpx.com">
  <metadata>
    <name>2017-05-03 Bike ride-Amberieux-Rance O</name>
    <desc><![CDATA[2017-05-03 Bike ride-Amberieux-Rance O]]></desc>
  </metadata>
  <wpt lat="45.92437" lon="4.73728">
    <ele>174</ele>
    <name><![CDATA[2017-05-03 10:17 (Start)]]></name>
  </wpt>
  <wpt lat="45.9246" lon="4.73701">
    <ele>174</ele>
    <name><![CDATA[2017-05-03 10:17 (End)]]></name>
    <desc><![CDATA[Created by Google My Tracks on Android  Name: 2017-05-03 10:17 Activity type: biking Description: - Total distance: 34.72 km (21.6 mi) Total time: 1:43:14 Moving time: 1:38:50 Average speed: 20.18 km/h (12.5 mi/h) Average moving speed: 21.08 km/h (13.1 mi/h) Max speed: 46.55 km/h (28.9 mi/h) Average pace: 2:58 min/km (4:47 min/mi) Average moving pace: 2:51 min/km (4:35 min/mi) Fastest pace: 1:17 min/km (2:04 min/mi) Max elevation: 292 m (958 ft) Min elevation: 169 m (553 ft) Elevation gain: 569 m (1868 ft) Max grade: 17 % Min grade: -34 % Recorded: 03/05/2017 10:17]]></desc>
  </wpt>
  <trk>
    <name><![CDATA[2017-05-03 10:17]]></name>
    <trkseg>
      <trkpt lat="45.92437" lon="4.73728">
        <ele>174</ele>
        <time>2017-05-03T08:17:14.025Z</time>
      </trkpt>
      <trkpt lat="45.92439" lon="4.73727">
        <ele>174</ele>
        <time>2017-05-03T08:17:32Z</time>
      </trkpt>
      <trkpt lat="45.92445" lon="4.73717">
        <ele>174</ele>
        <time>2017-05-03T08:17:33Z</time>
      </trkpt>
      <trkpt lat="45.92447" lon="4.73716">
        <ele>174</ele>
        <time>2017-05-03T08:17:37Z</time>
      </trkpt>
      <trkpt lat="45.92456" lon="4.7371">
        <ele>174</ele>
        <time>2017-05-03T08:17:38Z</time>
      </trkpt>
      <trkpt lat="45.92463" lon="4.73702">
        <ele>174</ele>
        <time>2017-05-03T08:17:46Z</time>
      </trkpt>
      <trkpt lat="45.92464" lon="4.737">
        <ele>174</ele>
        <time>2017-05-03T08:17:47Z</time>
      </trkpt>
      <trkpt lat="45.92464" lon="4.73688">
        <ele>174</ele>
        <time>2017-05-03T08:17:51Z</time>
      </trkpt>
      <trkpt lat="45.92464" lon="4.73683">
        <ele>174</ele>
        <time>2017-05-03T08:17:52Z</time>
      </trkpt>
      <trkpt lat="45.92466" lon="4.73674">
        <ele>174</ele>
        <time>2017-05-03T08:17:54Z</time>
      </trkpt>
      <trkpt lat="45.92467" lon="4.7367">
        <ele>174</ele>
        <time>2017-05-03T08:17:55Z</time>
      </trkpt>
      <trkpt lat="45.92468" lon="4.73659">
        <ele>174</ele>
        <time>2017-05-03T08:17:57Z</time>
      </trkpt>
      <trkpt lat="45.92469" lon="4.73654">
        <ele>174</ele>
        <time>2017-05-03T08:17:58Z</time>
      </trkpt>
      <trkpt lat="45.92473" lon="4.73645">
        <ele>174</ele>
        <time>2017-05-03T08:18:00Z</time>
      </trkpt>
      <trkpt lat="45.92476" lon="4.73641">
        <ele>174</ele>
        <time>2017-05-03T08:18:01Z</time>
      </trkpt>
      <trkpt lat="45.92484" lon="4.7364">
        <ele>174</ele>
        <time>2017-05-03T08:18:03Z</time>
      </trkpt>
      <trkpt lat="45.92488" lon="4.73639">
        <ele>174</ele>
        <time>2017-05-03T08:18:04Z</time>
      </trkpt>
      <trkpt lat="45.92493" lon="4.73639">
        <ele>174</ele>
        <time>2017-05-03T08:18:05Z</time>
      </trkpt>
      <trkpt lat="45.92498" lon="4.73639">
        <ele>174</ele>
        <time>2017-05-03T08:18:06Z</time>
      </trkpt>
      <trkpt lat="45.92506" lon="4.73638">
        <ele>174</ele>
        <time>2017-05-03T08:18:08Z</time>
      </trkpt>
      <trkpt lat="45.92511" lon="4.73638">
        <ele>174</ele>
        <time>2017-05-03T08:18:09Z</time>
      </trkpt>
      <trkpt lat="45.92515" lon="4.73638">
        <ele>173</ele>
        <time>2017-05-03T08:18:10Z</time>
      </trkpt>
      <trkpt lat="45.9252" lon="4.73637">
        <ele>173</ele>
        <time>2017-05-03T08:18:11Z</time>
      </trkpt>
      <trkpt lat="45.92525" lon="4.73638">
        <ele>173</ele>
        <time>2017-05-03T08:18:12Z</time>
      </trkpt>
      <trkpt lat="45.9253" lon="4.73637">
        <ele>173</ele>
        <time>2017-05-03T08:18:13Z</time>
      </trkpt>
      <trkpt lat="45.92535" lon="4.73637">
        <ele>173</ele>
        <time>2017-05-03T08:18:14Z</time>
      </trkpt>
      <trkpt lat="45.9254" lon="4.73636">
        <ele>173</ele>
        <time>2017-05-03T08:18:15Z</time>
      </trkpt>
      <trkpt lat="45.92545" lon="4.73635">
        <ele>173</ele>
        <time>2017-05-03T08:18:16Z</time>
      </trkpt>
      <trkpt lat="45.92551" lon="4.73633">
        <ele>173</ele>
        <time>2017-05-03T08:18:17Z</time>
      </trkpt>
      <trkpt lat="45.92556" lon="4.73632">
        <ele>173</ele>
        <time>2017-05-03T08:18:18Z</time>
      </trkpt>
      <trkpt lat="45.92561" lon="4.7363">
        <ele>173</ele>
        <time>2017-05-03T08:18:19Z</time>
      </trkpt>
      <trkpt lat="45.92567" lon="4.73628">
        <ele>173</ele>
        <time>2017-05-03T08:18:20Z</time>
      </trkpt>
      <trkpt lat="45.92572" lon="4.73627">
        <ele>173</ele>
        <time>2017-05-03T08:18:21Z</time>
      </trkpt>
      <trkpt lat="45.92577" lon="4.73625">
        <ele>173</ele>
        <time>2017-05-03T08:18:22Z</time>
      </trkpt>
      <trkpt lat="45.92581" lon="4.73625">
        <ele>173</ele>
        <time>2017-05-03T08:18:23Z</time>
      </trkpt>
      <trkpt lat="45.92587" lon="4.73625">
        <ele>172</ele>
        <time>2017-05-03T08:18:24Z</time>
      </trkpt>
      <trkpt lat="45.92591" lon="4.73624">
        <ele>173</ele>
        <time>2017-05-03T08:18:25Z</time>
      </trkpt>
      <trkpt lat="45.92596" lon="4.73624">
        <ele>173</ele>
        <time>2017-05-03T08:18:26Z</time>
      </trkpt>
      <trkpt lat="45.92601" lon="4.73624">
        <ele>173</ele>
        <time>2017-05-03T08:18:27Z</time>
      </trkpt>
      <trkpt lat="45.9261" lon="4.73627">
        <ele>173</ele>
        <time>2017-05-03T08:18:29Z</time>
      </trkpt>
      <trkpt lat="45.92614" lon="4.7363">
        <ele>173</ele>
        <time>2017-05-03T08:18:30Z</time>
      </trkpt>
      <trkpt lat="45.92618" lon="4.73634">
        <ele>173</ele>
        <time>2017-05-03T08:18:31Z</time>
      </trkpt>
      <trkpt lat="45.92621" lon="4.73639">
        <ele>173</ele>
        <time>2017-05-03T08:18:32Z</time>
      </trkpt>
      <trkpt lat="45.92624" lon="4.73644">
        <ele>173</ele>
        <time>2017-05-03T08:18:33Z</time>
      </trkpt>
      <trkpt lat="45.92626" lon="4.73651">
        <ele>173</ele>
        <time>2017-05-03T08:18:34Z</time>
      </trkpt>
      <trkpt lat="45.92629" lon="4.73658">
        <ele>173</ele>
        <time>2017-05-03T08:18:35Z</time>
      </trkpt>
      <trkpt lat="45.92632" lon="4.73665">
        <ele>173</ele>
        <time>2017-05-03T08:18:36Z</time>
      </trkpt>
      <trkpt lat="45.92635" lon="4.73672">
        <ele>173</ele>
        <time>2017-05-03T08:18:37Z</time>
      </trkpt>
      <trkpt lat="45.92638" lon="4.73678">
        <ele>173</ele>
        <time>2017-05-03T08:18:38Z</time>
      </trkpt>
      <trkpt lat="45.92642" lon="4.73683">
        <ele>173</ele>
        <time>2017-05-03T08:18:39Z</time>
      </trkpt>
      <trkpt lat="45.92647" lon="4.73688">
        <ele>173</ele>
        <time>2017-05-03T08:18:40Z</time>
      </trkpt>
      <trkpt lat="45.92651" lon="4.73693">
        <ele>173</ele>
        <time>2017-05-03T08:18:41Z</time>
      </trkpt>
      <trkpt lat="45.92656" lon="4.73697">
        <ele>173</ele>
        <time>2017-05-03T08:18:42Z</time>
      </trkpt>
      <trkpt lat="45.92661" lon="4.73701">
        <ele>173</ele>
        <time>2017-05-03T08:18:43Z</time>
      </trkpt>
      <trkpt lat="45.92666" lon="4.73704">
        <ele>173</ele>
        <time>2017-05-03T08:18:44Z</time>
      </trkpt>
      <trkpt lat="45.92671" lon="4.73706">
        <ele>174</ele>
        <time>2017-05-03T08:18:45Z</time>
      </trkpt>
      <trkpt lat="45.92677" lon="4.73709">
        <ele>173</ele>
        <time>2017-05-03T08:18:46Z</time>
      </trkpt>
      <trkpt lat="45.92683" lon="4.73711">
        <ele>173</ele>
        <time>2017-05-03T08:18:47Z</time>
      </trkpt>
      <trkpt lat="45.92688" lon="4.73712">
        <ele>173</ele>
        <time>2017-05-03T08:18:48Z</time>
      </trkpt>
      <trkpt lat="45.92694" lon="4.73714">
        <ele>173</ele>
        <time>2017-05-03T08:18:49Z</time>
      </trkpt>
      <trkpt lat="45.92699" lon="4.73714">
        <ele>173</ele>
        <time>2017-05-03T08:18:50Z</time>
      </trkpt>
      <trkpt lat="45.92705" lon="4.73715">
        <ele>173</ele>
        <time>2017-05-03T08:18:51Z</time>
      </trkpt>
      <trkpt lat="45.92711" lon="4.73716">
        <ele>173</ele>
        <time>2017-05-03T08:18:52Z</time>
      </trkpt>
      <trkpt lat="45.92716" lon="4.73718">
        <ele>173</ele>
        <time>2017-05-03T08:18:53Z</time>
      </trkpt>
      <trkpt lat="45.92722" lon="4.73719">
        <ele>173</ele>
        <time>2017-05-03T08:18:54Z</time>
      </trkpt>
      <trkpt lat="45.92727" lon="4.7372">
        <ele>173</ele>
        <time>2017-05-03T08:18:55Z</time>
      </trkpt>
      <trkpt lat="45.92732" lon="4.73721">
        <ele>173</ele>
        <time>2017-05-03T08:18:56Z</time>
      </trkpt>
      <trkpt lat="45.92738" lon="4.73722">
        <ele>173</ele>
        <time>2017-05-03T08:18:57Z</time>
      </trkpt>
      <trkpt lat="45.92744" lon="4.73722">
        <ele>173</ele>
        <time>2017-05-03T08:18:58Z</time>
      </trkpt>
      <trkpt lat="45.92749" lon="4.73723">
        <ele>173</ele>
        <time>2017-05-03T08:18:59Z</time>
      </trkpt>
      <trkpt lat="45.92754" lon="4.73724">
        <ele>172</ele>
        <time>2017-05-03T08:19:00Z</time>
      </trkpt>
      <trkpt lat="45.92759" lon="4.73727">
        <ele>172</ele>
        <time>2017-05-03T08:19:01Z</time>
      </trkpt>
      <trkpt lat="45.92763" lon="4.73729">
        <ele>172</ele>
        <time>2017-05-03T08:19:02Z</time>
      </trkpt>
      <trkpt lat="45.92772" lon="4.73731">
        <ele>172</ele>
        <time>2017-05-03T08:19:04Z</time>
      </trkpt>
      <trkpt lat="45.92775" lon="4.7373">
        <ele>172</ele>
        <time>2017-05-03T08:19:05Z</time>
      </trkpt>
      <trkpt lat="45.92781" lon="4.73723">
        <ele>172</ele>
        <time>2017-05-03T08:19:07Z</time>
      </trkpt>
      <trkpt lat="45.92781" lon="4.73717">
        <ele>172</ele>
        <time>2017-05-03T08:19:08Z</time>
      </trkpt>
      <trkpt lat="45.92784" lon="4.73704">
        <ele>172</ele>
        <time>2017-05-03T08:19:10Z</time>
      </trkpt>
      <trkpt lat="45.92785" lon="4.73698">
        <ele>172</ele>
        <time>2017-05-03T08:19:11Z</time>
      </trkpt>
      <trkpt lat="45.92787" lon="4.73691">
        <ele>172</ele>
        <time>2017-05-03T08:19:12Z</time>
      </trkpt>
      <trkpt lat="45.92789" lon="4.73685">
        <ele>172</ele>
        <time>2017-05-03T08:19:13Z</time>
      </trkpt>
      <trkpt lat="45.92791" lon="4.73678">
        <ele>172</ele>
        <time>2017-05-03T08:19:14Z</time>
      </trkpt>
      <trkpt lat="45.92792" lon="4.73671">
        <ele>172</ele>
        <time>2017-05-03T08:19:15Z</time>
      </trkpt>
      <trkpt lat="45.92794" lon="4.73664">
        <ele>172</ele>
        <time>2017-05-03T08:19:16Z</time>
      </trkpt>
      <trkpt lat="45.92796" lon="4.73657">
        <ele>172</ele>
        <time>2017-05-03T08:19:17Z</time>
      </trkpt>
      <trkpt lat="45.92797" lon="4.7365">
        <ele>172</ele>
        <time>2017-05-03T08:19:18Z</time>
      </trkpt>
      <trkpt lat="45.92799" lon="4.73643">
        <ele>172</ele>
        <time>2017-05-03T08:19:19Z</time>
      </trkpt>
      <trkpt lat="45.92802" lon="4.73637">
        <ele>172</ele>
        <time>2017-05-03T08:19:20Z</time>
      </trkpt>
      <trkpt lat="45.92805" lon="4.73633">
        <ele>172</ele>
        <time>2017-05-03T08:19:21Z</time>
      </trkpt>
      <trkpt lat="45.92812" lon="4.73627">
        <ele>172</ele>
        <time>2017-05-03T08:19:23Z</time>
      </trkpt>
      <trkpt lat="45.92815" lon="4.73623">
        <ele>172</ele>
        <time>2017-05-03T08:19:24Z</time>
      </trkpt>
      <trkpt lat="45.92817" lon="4.73616">
        <ele>172</ele>
        <time>2017-05-03T08:19:25Z</time>
      </trkpt>
      <trkpt lat="45.92817" lon="4.73609">
        <ele>172</ele>
        <time>2017-05-03T08:19:26Z</time>
      </trkpt>
      <trkpt lat="45.92816" lon="4.73602">
        <ele>172</ele>
        <time>2017-05-03T08:19:27Z</time>
      </trkpt>
      <trkpt lat="45.92816" lon="4.73595">
        <ele>171</ele>
        <time>2017-05-03T08:19:28Z</time>
      </trkpt>
      <trkpt lat="45.92816" lon="4.73588">
        <ele>171</ele>
        <time>2017-05-03T08:19:29Z</time>
      </trkpt>
      <trkpt lat="45.92816" lon="4.73581">
        <ele>171</ele>
        <time>2017-05-03T08:19:30Z</time>
      </trkpt>
      <trkpt lat="45.92817" lon="4.73573">
        <ele>171</ele>
        <time>2017-05-03T08:19:31Z</time>
      </trkpt>
      <trkpt lat="45.92817" lon="4.73566">
        <ele>171</ele>
        <time>2017-05-03T08:19:32Z</time>
      </trkpt>
      <trkpt lat="45.92818" lon="4.73559">
        <ele>171</ele>
        <time>2017-05-03T08:19:33Z</time>
      </trkpt>
      <trkpt lat="45.92818" lon="4.73551">
        <ele>171</ele>
        <time>2017-05-03T08:19:34Z</time>
      </trkpt>
      <trkpt lat="45.92819" lon="4.73543">
        <ele>171</ele>
        <time>2017-05-03T08:19:35Z</time>
      </trkpt>
      <trkpt lat="45.9282" lon="4.73536">
        <ele>172</ele>
        <time>2017-05-03T08:19:36Z</time>
      </trkpt>
      <trkpt lat="45.92821" lon="4.73528">
        <ele>172</ele>
        <time>2017-05-03T08:19:37Z</time>
      </trkpt>
      <trkpt lat="45.92821" lon="4.7352">
        <ele>172</ele>
        <time>2017-05-03T08:19:38Z</time>
      </trkpt>
      <trkpt lat="45.92822" lon="4.73512">
        <ele>172</ele>
        <time>2017-05-03T08:19:39Z</time>
      </trkpt>
      <trkpt lat="45.92822" lon="4.73504">
        <ele>172</ele>
        <time>2017-05-03T08:19:40Z</time>
      </trkpt>
      <trkpt lat="45.92823" lon="4.73496">
        <ele>172</ele>
        <time>2017-05-03T08:19:41Z</time>
      </trkpt>
      <trkpt lat="45.92824" lon="4.73488">
        <ele>172</ele>
        <time>2017-05-03T08:19:42Z</time>
      </trkpt>
      <trkpt lat="45.92825" lon="4.73479">
        <ele>172</ele>
        <time>2017-05-03T08:19:43Z</time>
      </trkpt>
      <trkpt lat="45.92826" lon="4.73471">
        <ele>172</ele>
        <time>2017-05-03T08:19:44Z</time>
      </trkpt>
      <trkpt lat="45.92827" lon="4.73463">
        <ele>172</ele>
        <time>2017-05-03T08:19:45Z</time>
      </trkpt>
      <trkpt lat="45.92829" lon="4.73455">
        <ele>172</ele>
        <time>2017-05-03T08:19:46Z</time>
      </trkpt>
      <trkpt lat="45.9283" lon="4.73447">
        <ele>172</ele>
        <time>2017-05-03T08:19:47Z</time>
      </trkpt>
      <trkpt lat="45.92831" lon="4.73438">
        <ele>172</ele>
        <time>2017-05-03T08:19:48Z</time>
      </trkpt>
      <trkpt lat="45.92832" lon="4.7343">
        <ele>172</ele>
        <time>2017-05-03T08:19:49Z</time>
      </trkpt>
      <trkpt lat="45.92833" lon="4.73422">
        <ele>172</ele>
        <time>2017-05-03T08:19:50Z</time>
      </trkpt>
      <trkpt lat="45.92834" lon="4.73414">
        <ele>172</ele>
        <time>2017-05-03T08:19:51Z</time>
      </trkpt>
      <trkpt lat="45.92835" lon="4.73405">
        <ele>172</ele>
        <time>2017-05-03T08:19:52Z</time>
      </trkpt>
      <trkpt lat="45.92836" lon="4.73397">
        <ele>172</ele>
        <time>2017-05-03T08:19:53Z</time>
      </trkpt>
      <trkpt lat="45.92837" lon="4.73388">
        <ele>172</ele>
        <time>2017-05-03T08:19:54Z</time>
      </trkpt>
      <trkpt lat="45.92838" lon="4.7338">
        <ele>172</ele>
        <time>2017-05-03T08:19:55Z</time>
      </trkpt>
      <trkpt lat="45.9284" lon="4.73372">
        <ele>171</ele>
        <time>2017-05-03T08:19:56Z</time>
      </trkpt>
      <trkpt lat="45.92841" lon="4.73363">
        <ele>171</ele>
        <time>2017-05-03T08:19:57Z</time>
      </trkpt>
      <trkpt lat="45.92842" lon="4.73354">
        <ele>171</ele>
        <time>2017-05-03T08:19:58Z</time>
      </trkpt>
      <trkpt lat="45.92843" lon="4.73346">
        <ele>171</ele>
        <time>2017-05-03T08:19:59Z</time>
      </trkpt>
      <trkpt lat="45.92843" lon="4.73337">
        <ele>171</ele>
        <time>2017-05-03T08:20:00Z</time>
      </trkpt>
      <trkpt lat="45.92844" lon="4.73328">
        <ele>171</ele>
        <time>2017-05-03T08:20:01Z</time>
      </trkpt>
      <trkpt lat="45.92845" lon="4.73319">
        <ele>171</ele>
        <time>2017-05-03T08:20:02Z</time>
      </trkpt>
      <trkpt lat="45.92846" lon="4.73311">
        <ele>171</ele>
        <time>2017-05-03T08:20:03Z</time>
      </trkpt>
      <trkpt lat="45.92847" lon="4.73302">
        <ele>171</ele>
        <time>2017-05-03T08:20:04Z</time>
      </trkpt>
      <trkpt lat="45.92848" lon="4.73293">
        <ele>171</ele>
        <time>2017-05-03T08:20:05Z</time>
      </trkpt>
      <trkpt lat="45.92849" lon="4.73284">
        <ele>171</ele>
        <time>2017-05-03T08:20:06Z</time>
      </trkpt>
      <trkpt lat="45.92851" lon="4.73275">
        <ele>171</ele>
        <time>2017-05-03T08:20:07Z</time>
      </trkpt>
      <trkpt lat="45.92852" lon="4.73266">
        <ele>171</ele>
        <time>2017-05-03T08:20:08Z</time>
      </trkpt>
      <trkpt lat="45.92853" lon="4.73258">
        <ele>171</ele>
        <time>2017-05-03T08:20:09Z</time>
      </trkpt>
      <trkpt lat="45.92854" lon="4.73249">
        <ele>171</ele>
        <time>2017-05-03T08:20:10Z</time>
      </trkpt>
      <trkpt lat="45.92855" lon="4.7324">
        <ele>171</ele>
        <time>2017-05-03T08:20:11Z</time>
      </trkpt>
      <trkpt lat="45.92856" lon="4.73232">
        <ele>171</ele>
        <time>2017-05-03T08:20:12Z</time>
      </trkpt>
      <trkpt lat="45.92858" lon="4.73223">
        <ele>171</ele>
        <time>2017-05-03T08:20:13Z</time>
      </trkpt>
      <trkpt lat="45.92859" lon="4.73215">
        <ele>171</ele>
        <time>2017-05-03T08:20:14Z</time>
      </trkpt>
      <trkpt lat="45.9286" lon="4.73206">
        <ele>171</ele>
        <time>2017-05-03T08:20:15Z</time>
      </trkpt>
      <trkpt lat="45.9286" lon="4.73197">
        <ele>171</ele>
        <time>2017-05-03T08:20:16Z</time>
      </trkpt>
      <trkpt lat="45.92861" lon="4.73189">
        <ele>171</ele>
        <time>2017-05-03T08:20:17Z</time>
      </trkpt>
      <trkpt lat="45.92862" lon="4.7318">
        <ele>171</ele>
        <time>2017-05-03T08:20:18Z</time>
      </trkpt>
      <trkpt lat="45.92863" lon="4.73171">
        <ele>171</ele>
        <time>2017-05-03T08:20:19Z</time>
      </trkpt>
      <trkpt lat="45.92864" lon="4.73162">
        <ele>171</ele>
        <time>2017-05-03T08:20:20Z</time>
      </trkpt>
      <trkpt lat="45.92866" lon="4.73154">
        <ele>171</ele>
        <time>2017-05-03T08:20:21Z</time>
      </trkpt>
      <trkpt lat="45.92867" lon="4.73145">
        <ele>171</ele>
        <time>2017-05-03T08:20:22Z</time>
      </trkpt>
      <trkpt lat="45.92868" lon="4.73136">
        <ele>171</ele>
        <time>2017-05-03T08:20:23Z</time>
      </trkpt>
      <trkpt lat="45.9287" lon="4.73128">
        <ele>171</ele>
        <time>2017-05-03T08:20:24Z</time>
      </trkpt>
      <trkpt lat="45.92872" lon="4.73119">
        <ele>171</ele>
        <time>2017-05-03T08:20:25Z</time>
      </trkpt>
      <trkpt lat="45.92874" lon="4.73111">
        <ele>172</ele>
        <time>2017-05-03T08:20:26Z</time>
      </trkpt>
      <trkpt lat="45.92876" lon="4.73102">
        <ele>172</ele>
        <time>2017-05-03T08:20:27Z</time>
      </trkpt>
      <trkpt lat="45.92879" lon="4.73094">
        <ele>172</ele>
        <time>2017-05-03T08:20:28Z</time>
      </trkpt>
      <trkpt lat="45.92882" lon="4.73087">
        <ele>172</ele>
        <time>2017-05-03T08:20:29Z</time>
      </trkpt>
      <trkpt lat="45.92886" lon="4.73079">
        <ele>172</ele>
        <time>2017-05-03T08:20:30Z</time>
      </trkpt>
      <trkpt lat="45.92889" lon="4.73072">
        <ele>172</ele>
        <time>2017-05-03T08:20:31Z</time>
      </trkpt>
      <trkpt lat="45.92893" lon="4.73065">
        <ele>172</ele>
        <time>2017-05-03T08:20:32Z</time>
      </trkpt>
      <trkpt lat="45.92896" lon="4.73058">
        <ele>172</ele>
        <time>2017-05-03T08:20:33Z</time>
      </trkpt>
      <trkpt lat="45.929" lon="4.73051">
        <ele>172</ele>
        <time>2017-05-03T08:20:34Z</time>
      </trkpt>
      <trkpt lat="45.92904" lon="4.73044">
        <ele>172</ele>
        <time>2017-05-03T08:20:35Z</time>
      </trkpt>
      <trkpt lat="45.92908" lon="4.73037">
        <ele>172</ele>
        <time>2017-05-03T08:20:36Z</time>
      </trkpt>
      <trkpt lat="45.92913" lon="4.73031">
        <ele>172</ele>
        <time>2017-05-03T08:20:37Z</time>
      </trkpt>
      <trkpt lat="45.92917" lon="4.73025">
        <ele>172</ele>
        <time>2017-05-03T08:20:38Z</time>
      </trkpt>
      <trkpt lat="45.92922" lon="4.73019">
        <ele>172</ele>
        <time>2017-05-03T08:20:39Z</time>
      </trkpt>
      <trkpt lat="45.92926" lon="4.73013">
        <ele>172</ele>
        <time>2017-05-03T08:20:40Z</time>
      </trkpt>
      <trkpt lat="45.92931" lon="4.73007">
        <ele>171</ele>
        <time>2017-05-03T08:20:41Z</time>
      </trkpt>
      <trkpt lat="45.92936" lon="4.73001">
        <ele>171</ele>
        <time>2017-05-03T08:20:42Z</time>
      </trkpt>
      <trkpt lat="45.92941" lon="4.72996">
        <ele>171</ele>
        <time>2017-05-03T08:20:43Z</time>
      </trkpt>
      <trkpt lat="45.92946" lon="4.7299">
        <ele>171</ele>
        <time>2017-05-03T08:20:44Z</time>
      </trkpt>
      <trkpt lat="45.92951" lon="4.72984">
        <ele>171</ele>
        <time>2017-05-03T08:20:45Z</time>
      </trkpt>
      <trkpt lat="45.92957" lon="4.72978">
        <ele>171</ele>
        <time>2017-05-03T08:20:46Z</time>
      </trkpt>
      <trkpt lat="45.92962" lon="4.72972">
        <ele>171</ele>
        <time>2017-05-03T08:20:47Z</time>
      </trkpt>
      <trkpt lat="45.92967" lon="4.72966">
        <ele>171</ele>
        <time>2017-05-03T08:20:48Z</time>
      </trkpt>
      <trkpt lat="45.92971" lon="4.7296">
        <ele>171</ele>
        <time>2017-05-03T08:20:49Z</time>
      </trkpt>
      <trkpt lat="45.92976" lon="4.72954">
        <ele>171</ele>
        <time>2017-05-03T08:20:50Z</time>
      </trkpt>
      <trkpt lat="45.92981" lon="4.72948">
        <ele>171</ele>
        <time>2017-05-03T08:20:51Z</time>
      </trkpt>
      <trkpt lat="45.92986" lon="4.72942">
        <ele>171</ele>
        <time>2017-05-03T08:20:52Z</time>
      </trkpt>
      <trkpt lat="45.92991" lon="4.72936">
        <ele>171</ele>
        <time>2017-05-03T08:20:53Z</time>
      </trkpt>
      <trkpt lat="45.92996" lon="4.7293">
        <ele>171</ele>
        <time>2017-05-03T08:20:54Z</time>
      </trkpt>
      <trkpt lat="45.93001" lon="4.72924">
        <ele>171</ele>
        <time>2017-05-03T08:20:55Z</time>
      </trkpt>
      <trkpt lat="45.93006" lon="4.72918">
        <ele>171</ele>
        <time>2017-05-03T08:20:56Z</time>
      </trkpt>
      <trkpt lat="45.93011" lon="4.72912">
        <ele>171</ele>
        <time>2017-05-03T08:20:57Z</time>
      </trkpt>
      <trkpt lat="45.93015" lon="4.72906">
        <ele>171</ele>
        <time>2017-05-03T08:20:58Z</time>
      </trkpt>
      <trkpt lat="45.9302" lon="4.729">
        <ele>172</ele>
        <time>2017-05-03T08:20:59Z</time>
      </trkpt>
      <trkpt lat="45.93025" lon="4.72894">
        <ele>172</ele>
        <time>2017-05-03T08:21:00Z</time>
      </trkpt>
      <trkpt lat="45.93031" lon="4.72888">
        <ele>172</ele>
        <time>2017-05-03T08:21:01Z</time>
      </trkpt>
      <trkpt lat="45.93036" lon="4.72882">
        <ele>172</ele>
        <time>2017-05-03T08:21:02Z</time>
      </trkpt>
      <trkpt lat="45.93041" lon="4.72876">
        <ele>172</ele>
        <time>2017-05-03T08:21:03Z</time>
      </trkpt>
      <trkpt lat="45.93046" lon="4.7287">
        <ele>172</ele>
        <time>2017-05-03T08:21:04Z</time>
      </trkpt>
      <trkpt lat="45.93051" lon="4.72864">
        <ele>172</ele>
        <time>2017-05-03T08:21:05Z</time>
      </trkpt>
      <trkpt lat="45.93057" lon="4.72858">
        <ele>172</ele>
        <time>2017-05-03T08:21:06Z</time>
      </trkpt>
      <trkpt lat="45.93062" lon="4.72852">
        <ele>172</ele>
        <time>2017-05-03T08:21:07Z</time>
      </trkpt>
      <trkpt lat="45.93067" lon="4.72846">
        <ele>172</ele>
        <time>2017-05-03T08:21:08Z</time>
      </trkpt>
      <trkpt lat="45.93072" lon="4.72841">
        <ele>173</ele>
        <time>2017-05-03T08:21:09Z</time>
      </trkpt>
      <trkpt lat="45.93077" lon="4.72836">
        <ele>173</ele>
        <time>2017-05-03T08:21:10Z</time>
      </trkpt>
      <trkpt lat="45.93082" lon="4.72831">
        <ele>173</ele>
        <time>2017-05-03T08:21:11Z</time>
      </trkpt>
      <trkpt lat="45.93086" lon="4.72826">
        <ele>172</ele>
        <time>2017-05-03T08:21:12Z</time>
      </trkpt>
      <trkpt lat="45.93091" lon="4.72821">
        <ele>172</ele>
        <time>2017-05-03T08:21:13Z</time>
      </trkpt>
      <trkpt lat="45.93096" lon="4.72809">
        <ele>172</ele>
        <time>2017-05-03T08:21:14Z</time>
      </trkpt>
      <trkpt lat="45.93101" lon="4.72803">
        <ele>171</ele>
        <time>2017-05-03T08:21:15Z</time>
      </trkpt>
      <trkpt lat="45.93106" lon="4.72799">
        <ele>171</ele>
        <time>2017-05-03T08:21:16Z</time>
      </trkpt>
      <trkpt lat="45.93111" lon="4.72794">
        <ele>171</ele>
        <time>2017-05-03T08:21:17Z</time>
      </trkpt>
      <trkpt lat="45.93116" lon="4.72789">
        <ele>171</ele>
        <time>2017-05-03T08:21:18Z</time>
      </trkpt>
      <trkpt lat="45.93121" lon="4.72784">
        <ele>171</ele>
        <time>2017-05-03T08:21:19Z</time>
      </trkpt>
      <trkpt lat="45.93126" lon="4.72779">
        <ele>171</ele>
        <time>2017-05-03T08:21:20Z</time>
      </trkpt>
      <trkpt lat="45.93131" lon="4.72774">
        <ele>171</ele>
        <time>2017-05-03T08:21:21Z</time>
      </trkpt>
      <trkpt lat="45.93135" lon="4.72768">
        <ele>171</ele>
        <time>2017-05-03T08:21:22Z</time>
      </trkpt>
      <trkpt lat="45.9314" lon="4.72763">
        <ele>171</ele>
        <time>2017-05-03T08:21:23Z</time>
      </trkpt>
      <trkpt lat="45.93144" lon="4.72757">
        <ele>171</ele>
        <time>2017-05-03T08:21:24Z</time>
      </trkpt>
      <trkpt lat="45.93149" lon="4.72752">
        <ele>170</ele>
        <time>2017-05-03T08:21:25Z</time>
      </trkpt>
      <trkpt lat="45.93154" lon="4.72746">
        <ele>170</ele>
        <time>2017-05-03T08:21:26Z</time>
      </trkpt>
      <trkpt lat="45.93159" lon="4.7274">
        <ele>170</ele>
        <time>2017-05-03T08:21:27Z</time>
      </trkpt>
      <trkpt lat="45.93163" lon="4.72735">
        <ele>170</ele>
        <time>2017-05-03T08:21:28Z</time>
      </trkpt>
      <trkpt lat="45.93168" lon="4.72729">
        <ele>170</ele>
        <time>2017-05-03T08:21:29Z</time>
      </trkpt>
      <trkpt lat="45.93173" lon="4.72723">
        <ele>170</ele>
        <time>2017-05-03T08:21:30Z</time>
      </trkpt>
      <trkpt lat="45.93177" lon="4.72717">
        <ele>169</ele>
        <time>2017-05-03T08:21:31Z</time>
      </trkpt>
      <trkpt lat="45.93182" lon="4.72711">
        <ele>169</ele>
        <time>2017-05-03T08:21:32Z</time>
      </trkpt>
      <trkpt lat="45.93187" lon="4.72706">
        <ele>169</ele>
        <time>2017-05-03T08:21:33Z</time>
      </trkpt>
      <trkpt lat="45.93193" lon="4.727">
        <ele>169</ele>
        <time>2017-05-03T08:21:34Z</time>
      </trkpt>
      <trkpt lat="45.93198" lon="4.72694">
        <ele>169</ele>
        <time>2017-05-03T08:21:35Z</time>
      </trkpt>
      <trkpt lat="45.93202" lon="4.72689">
        <ele>169</ele>
        <time>2017-05-03T08:21:36Z</time>
      </trkpt>
      <trkpt lat="45.93207" lon="4.72683">
        <ele>169</ele>
        <time>2017-05-03T08:21:37Z</time>
      </trkpt>
      <trkpt lat="45.93212" lon="4.72677">
        <ele>169</ele>
        <time>2017-05-03T08:21:38Z</time>
      </trkpt>
      <trkpt lat="45.93217" lon="4.72672">
        <ele>169</ele>
        <time>2017-05-03T08:21:39Z</time>
      </trkpt>
      <trkpt lat="45.93222" lon="4.72666">
        <ele>170</ele>
        <time>2017-05-03T08:21:40Z</time>
      </trkpt>
      <trkpt lat="45.93226" lon="4.7266">
        <ele>170</ele>
        <time>2017-05-03T08:21:41Z</time>
      </trkpt>
      <trkpt lat="45.93231" lon="4.72655">
        <ele>170</ele>
        <time>2017-05-03T08:21:42Z</time>
      </trkpt>
      <trkpt lat="45.93236" lon="4.7265">
        <ele>170</ele>
        <time>2017-05-03T08:21:43Z</time>
      </trkpt>
      <trkpt lat="45.93241" lon="4.72644">
        <ele>170</ele>
        <time>2017-05-03T08:21:44Z</time>
      </trkpt>
      <trkpt lat="45.93245" lon="4.72639">
        <ele>170</ele>
        <time>2017-05-03T08:21:45Z</time>
      </trkpt>
      <trkpt lat="45.9325" lon="4.72633">
        <ele>170</ele>
        <time>2017-05-03T08:21:46Z</time>
      </trkpt>
      <trkpt lat="45.93255" lon="4.72628">
        <ele>170</ele>
        <time>2017-05-03T08:21:47Z</time>
      </trkpt>
      <trkpt lat="45.93259" lon="4.72623">
        <ele>170</ele>
        <time>2017-05-03T08:21:48Z</time>
      </trkpt>
      <trkpt lat="45.93264" lon="4.72617">
        <ele>170</ele>
        <time>2017-05-03T08:21:49Z</time>
      </trkpt>
      <trkpt lat="45.93269" lon="4.72612">
        <ele>170</ele>
        <time>2017-05-03T08:21:50Z</time>
      </trkpt>
      <trkpt lat="45.93273" lon="4.72606">
        <ele>170</ele>
        <time>2017-05-03T08:21:51Z</time>
      </trkpt>
      <trkpt lat="45.93277" lon="4.72601">
        <ele>170</ele>
        <time>2017-05-03T08:21:52Z</time>
      </trkpt>
      <trkpt lat="45.93282" lon="4.72595">
        <ele>170</ele>
        <time>2017-05-03T08:21:53Z</time>
      </trkpt>
      <trkpt lat="45.93286" lon="4.7259">
        <ele>170</ele>
        <time>2017-05-03T08:21:54Z</time>
      </trkpt>
      <trkpt lat="45.93291" lon="4.72584">
        <ele>170</ele>
        <time>2017-05-03T08:21:55Z</time>
      </trkpt>
      <trkpt lat="45.93296" lon="4.72579">
        <ele>171</ele>
        <time>2017-05-03T08:21:56Z</time>
      </trkpt>
      <trkpt lat="45.933" lon="4.72574">
        <ele>171</ele>
        <time>2017-05-03T08:21:57Z</time>
      </trkpt>
      <trkpt lat="45.93305" lon="4.72568">
        <ele>171</ele>
        <time>2017-05-03T08:21:58Z</time>
      </trkpt>
      <trkpt lat="45.9331" lon="4.72562">
        <ele>171</ele>
        <time>2017-05-03T08:21:59Z</time>
      </trkpt>
      <trkpt lat="45.93315" lon="4.72556">
        <ele>172</ele>
        <time>2017-05-03T08:22:00Z</time>
      </trkpt>
      <trkpt lat="45.9332" lon="4.7255">
        <ele>172</ele>
        <time>2017-05-03T08:22:01Z</time>
      </trkpt>
      <trkpt lat="45.93325" lon="4.72544">
        <ele>172</ele>
        <time>2017-05-03T08:22:02Z</time>
      </trkpt>
      <trkpt lat="45.9333" lon="4.72538">
        <ele>172</ele>
        <time>2017-05-03T08:22:03Z</time>
      </trkpt>
      <trkpt lat="45.93335" lon="4.72533">
        <ele>172</ele>
        <time>2017-05-03T08:22:04Z</time>
      </trkpt>
      <trkpt lat="45.9334" lon="4.72527">
        <ele>172</ele>
        <time>2017-05-03T08:22:05Z</time>
      </trkpt>
      <trkpt lat="45.93344" lon="4.72522">
        <ele>172</ele>
        <time>2017-05-03T08:22:06Z</time>
      </trkpt>
      <trkpt lat="45.93349" lon="4.72517">
        <ele>172</ele>
        <time>2017-05-03T08:22:07Z</time>
      </trkpt>
      <trkpt lat="45.93354" lon="4.72511">
        <ele>172</ele>
        <time>2017-05-03T08:22:08Z</time>
      </trkpt>
      <trkpt lat="45.93358" lon="4.72506">
        <ele>172</ele>
        <time>2017-05-03T08:22:09Z</time>
      </trkpt>
      <trkpt lat="45.93363" lon="4.72501">
        <ele>172</ele>
        <time>2017-05-03T08:22:10Z</time>
      </trkpt>
      <trkpt lat="45.93367" lon="4.72495">
        <ele>173</ele>
        <time>2017-05-03T08:22:11Z</time>
      </trkpt>
      <trkpt lat="45.93372" lon="4.7249">
        <ele>173</ele>
        <time>2017-05-03T08:22:12Z</time>
      </trkpt>
      <trkpt lat="45.93377" lon="4.72484">
        <ele>173</ele>
        <time>2017-05-03T08:22:13Z</time>
      </trkpt>
      <trkpt lat="45.93381" lon="4.72479">
        <ele>173</ele>
        <time>2017-05-03T08:22:14Z</time>
      </trkpt>
      <trkpt lat="45.93386" lon="4.72473">
        <ele>173</ele>
        <time>2017-05-03T08:22:15Z</time>
      </trkpt>
      <trkpt lat="45.9339" lon="4.72467">
        <ele>173</ele>
        <time>2017-05-03T08:22:16Z</time>
      </trkpt>
      <trkpt lat="45.93393" lon="4.72461">
        <ele>173</ele>
        <time>2017-05-03T08:22:17Z</time>
      </trkpt>
      <trkpt lat="45.93396" lon="4.72454">
        <ele>173</ele>
        <time>2017-05-03T08:22:18Z</time>
      </trkpt>
      <trkpt lat="45.93398" lon="4.72447">
        <ele>173</ele>
        <time>2017-05-03T08:22:19Z</time>
      </trkpt>
      <trkpt lat="45.934" lon="4.7244">
        <ele>173</ele>
        <time>2017-05-03T08:22:20Z</time>
      </trkpt>
      <trkpt lat="45.93403" lon="4.72433">
        <ele>173</ele>
        <time>2017-05-03T08:22:21Z</time>
      </trkpt>
      <trkpt lat="45.93407" lon="4.72426">
        <ele>174</ele>
        <time>2017-05-03T08:22:22Z</time>
      </trkpt>
      <trkpt lat="45.93411" lon="4.72421">
        <ele>174</ele>
        <time>2017-05-03T08:22:23Z</time>
      </trkpt>
      <trkpt lat="45.93416" lon="4.72416">
        <ele>174</ele>
        <time>2017-05-03T08:22:24Z</time>
      </trkpt>
      <trkpt lat="45.9342" lon="4.72413">
        <ele>174</ele>
        <time>2017-05-03T08:22:25Z</time>
      </trkpt>
      <trkpt lat="45.93425" lon="4.7241">
        <ele>174</ele>
        <time>2017-05-03T08:22:26Z</time>
      </trkpt>
      <trkpt lat="45.9343" lon="4.72407">
        <ele>174</ele>
        <time>2017-05-03T08:22:27Z</time>
      </trkpt>
      <trkpt lat="45.93436" lon="4.72404">
        <ele>174</ele>
        <time>2017-05-03T08:22:28Z</time>
      </trkpt>
      <trkpt lat="45.93441" lon="4.72401">
        <ele>173</ele>
        <time>2017-05-03T08:22:29Z</time>
      </trkpt>
      <trkpt lat="45.93446" lon="4.72398">
        <ele>173</ele>
        <time>2017-05-03T08:22:30Z</time>
      </trkpt>
      <trkpt lat="45.93451" lon="4.72394">
        <ele>173</ele>
        <time>2017-05-03T08:22:31Z</time>
      </trkpt>
      <trkpt lat="45.93456" lon="4.72389">
        <ele>173</ele>
        <time>2017-05-03T08:22:32Z</time>
      </trkpt>
      <trkpt lat="45.93461" lon="4.72384">
        <ele>173</ele>
        <time>2017-05-03T08:22:33Z</time>
      </trkpt>
      <trkpt lat="45.93465" lon="4.72379">
        <ele>173</ele>
        <time>2017-05-03T08:22:34Z</time>
      </trkpt>
      <trkpt lat="45.93469" lon="4.72373">
        <ele>173</ele>
        <time>2017-05-03T08:22:35Z</time>
      </trkpt>
      <trkpt lat="45.93473" lon="4.72368">
        <ele>173</ele>
        <time>2017-05-03T08:22:36Z</time>
      </trkpt>
      <trkpt lat="45.93477" lon="4.72362">
        <ele>173</ele>
        <time>2017-05-03T08:22:37Z</time>
      </trkpt>
      <trkpt lat="45.93481" lon="4.72357">
        <ele>173</ele>
        <time>2017-05-03T08:22:38Z</time>
      </trkpt>
      <trkpt lat="45.93485" lon="4.72351">
        <ele>173</ele>
        <time>2017-05-03T08:22:39Z</time>
      </trkpt>
      <trkpt lat="45.93488" lon="4.72345">
        <ele>173</ele>
        <time>2017-05-03T08:22:40Z</time>
      </trkpt>
      <trkpt lat="45.93492" lon="4.72339">
        <ele>173</ele>
        <time>2017-05-03T08:22:41Z</time>
      </trkpt>
      <trkpt lat="45.93496" lon="4.72334">
        <ele>173</ele>
        <time>2017-05-03T08:22:42Z</time>
      </trkpt>
      <trkpt lat="45.93499" lon="4.72329">
        <ele>173</ele>
        <time>2017-05-03T08:22:43Z</time>
      </trkpt>
      <trkpt lat="45.93503" lon="4.72324">
        <ele>173</ele>
        <time>2017-05-03T08:22:44Z</time>
      </trkpt>
      <trkpt lat="45.93506" lon="4.72318">
        <ele>173</ele>
        <time>2017-05-03T08:22:45Z</time>
      </trkpt>
      <trkpt lat="45.93509" lon="4.72312">
        <ele>173</ele>
        <time>2017-05-03T08:22:46Z</time>
      </trkpt>
      <trkpt lat="45.93513" lon="4.72307">
        <ele>173</ele>
        <time>2017-05-03T08:22:47Z</time>
      </trkpt>
      <trkpt lat="45.93516" lon="4.72301">
        <ele>172</ele>
        <time>2017-05-03T08:22:48Z</time>
      </trkpt>
      <trkpt lat="45.93519" lon="4.72295">
        <ele>172</ele>
        <time>2017-05-03T08:22:49Z</time>
      </trkpt>
      <trkpt lat="45.93521" lon="4.72289">
        <ele>172</ele>
        <time>2017-05-03T08:22:50Z</time>
      </trkpt>
      <trkpt lat="45.93524" lon="4.72283">
        <ele>172</ele>
        <time>2017-05-03T08:22:51Z</time>
      </trkpt>
      <trkpt lat="45.93526" lon="4.72277">
        <ele>172</ele>
        <time>2017-05-03T08:22:52Z</time>
      </trkpt>
      <trkpt lat="45.93528" lon="4.72271">
        <ele>172</ele>
        <time>2017-05-03T08:22:53Z</time>
      </trkpt>
      <trkpt lat="45.93531" lon="4.72265">
        <ele>172</ele>
        <time>2017-05-03T08:22:54Z</time>
      </trkpt>
      <trkpt lat="45.93534" lon="4.7226">
        <ele>172</ele>
        <time>2017-05-03T08:22:55Z</time>
      </trkpt>
      <trkpt lat="45.93536" lon="4.72254">
        <ele>172</ele>
        <time>2017-05-03T08:22:56Z</time>
      </trkpt>
      <trkpt lat="45.93538" lon="4.72248">
        <ele>172</ele>
        <time>2017-05-03T08:22:57Z</time>
      </trkpt>
      <trkpt lat="45.93541" lon="4.72242">
        <ele>172</ele>
        <time>2017-05-03T08:22:58Z</time>
      </trkpt>
      <trkpt lat="45.93543" lon="4.72236">
        <ele>172</ele>
        <time>2017-05-03T08:22:59Z</time>
      </trkpt>
      <trkpt lat="45.93547" lon="4.7223">
        <ele>172</ele>
        <time>2017-05-03T08:23:00Z</time>
      </trkpt>
      <trkpt lat="45.9355" lon="4.72227">
        <ele>172</ele>
        <time>2017-05-03T08:23:01Z</time>
      </trkpt>
      <trkpt lat="45.93555" lon="4.72226">
        <ele>173</ele>
        <time>2017-05-03T08:23:02Z</time>
      </trkpt>
      <trkpt lat="45.9356" lon="4.72227">
        <ele>173</ele>
        <time>2017-05-03T08:23:03Z</time>
      </trkpt>
      <trkpt lat="45.93565" lon="4.7223">
        <ele>173</ele>
        <time>2017-05-03T08:23:04Z</time>
      </trkpt>
      <trkpt lat="45.93569" lon="4.72234">
        <ele>173</ele>
        <time>2017-05-03T08:23:05Z</time>
      </trkpt>
      <trkpt lat="45.93573" lon="4.72238">
        <ele>173</ele>
        <time>2017-05-03T08:23:06Z</time>
      </trkpt>
      <trkpt lat="45.93577" lon="4.72243">
        <ele>173</ele>
        <time>2017-05-03T08:23:07Z</time>
      </trkpt>
      <trkpt lat="45.93581" lon="4.72247">
        <ele>173</ele>
        <time>2017-05-03T08:23:08Z</time>
      </trkpt>
      <trkpt lat="45.93585" lon="4.72252">
        <ele>173</ele>
        <time>2017-05-03T08:23:09Z</time>
      </trkpt>
      <trkpt lat="45.9359" lon="4.72256">
        <ele>173</ele>
        <time>2017-05-03T08:23:10Z</time>
      </trkpt>
      <trkpt lat="45.93594" lon="4.7226">
        <ele>173</ele>
        <time>2017-05-03T08:23:11Z</time>
      </trkpt>
      <trkpt lat="45.93599" lon="4.72264">
        <ele>173</ele>
        <time>2017-05-03T08:23:12Z</time>
      </trkpt>
      <trkpt lat="45.93603" lon="4.72268">
        <ele>173</ele>
        <time>2017-05-03T08:23:13Z</time>
      </trkpt>
      <trkpt lat="45.93607" lon="4.72272">
        <ele>172</ele>
        <time>2017-05-03T08:23:14Z</time>
      </trkpt>
      <trkpt lat="45.93612" lon="4.72277">
        <ele>172</ele>
        <time>2017-05-03T08:23:15Z</time>
      </trkpt>
      <trkpt lat="45.93616" lon="4.72281">
        <ele>172</ele>
        <time>2017-05-03T08:23:16Z</time>
      </trkpt>
      <trkpt lat="45.93621" lon="4.72285">
        <ele>172</ele>
        <time>2017-05-03T08:23:17Z</time>
      </trkpt>
      <trkpt lat="45.93625" lon="4.72289">
        <ele>172</ele>
        <time>2017-05-03T08:23:18Z</time>
      </trkpt>
      <trkpt lat="45.93629" lon="4.72292">
        <ele>172</ele>
        <time>2017-05-03T08:23:19Z</time>
      </trkpt>
      <trkpt lat="45.93633" lon="4.72296">
        <ele>172</ele>
        <time>2017-05-03T08:23:20Z</time>
      </trkpt>
      <trkpt lat="45.9364" lon="4.72303">
        <ele>172</ele>
        <time>2017-05-03T08:23:22Z</time>
      </trkpt>
      <trkpt lat="45.93644" lon="4.72306">
        <ele>172</ele>
        <time>2017-05-03T08:23:23Z</time>
      </trkpt>
      <trkpt lat="45.93647" lon="4.7231">
        <ele>172</ele>
        <time>2017-05-03T08:23:24Z</time>
      </trkpt>
      <trkpt lat="45.93651" lon="4.72314">
        <ele>172</ele>
        <time>2017-05-03T08:23:25Z</time>
      </trkpt>
      <trkpt lat="45.93658" lon="4.72321">
        <ele>172</ele>
        <time>2017-05-03T08:23:27Z</time>
      </trkpt>
      <trkpt lat="45.93661" lon="4.72324">
        <ele>171</ele>
        <time>2017-05-03T08:23:28Z</time>
      </trkpt>
      <trkpt lat="45.93667" lon="4.7233">
        <ele>171</ele>
        <time>2017-05-03T08:23:30Z</time>
      </trkpt>
      <trkpt lat="45.9367" lon="4.72333">
        <ele>171</ele>
        <time>2017-05-03T08:23:31Z</time>
      </trkpt>
      <trkpt lat="45.93675" lon="4.72342">
        <ele>171</ele>
        <time>2017-05-03T08:23:34Z</time>
      </trkpt>
      <trkpt lat="45.93675" lon="4.72343">
        <ele>171</ele>
        <time>2017-05-03T08:23:35Z</time>
      </trkpt>
      <trkpt lat="45.93676" lon="4.72344">
        <ele>171</ele>
        <time>2017-05-03T08:25:28Z</time>
      </trkpt>
      <trkpt lat="45.93676" lon="4.72344">
        <ele>171</ele>
        <time>2017-05-03T08:25:29Z</time>
      </trkpt>
      <trkpt lat="45.93684" lon="4.72346">
        <ele>171</ele>
        <time>2017-05-03T08:25:35Z</time>
      </trkpt>
      <trkpt lat="45.93686" lon="4.72347">
        <ele>171</ele>
        <time>2017-05-03T08:25:36Z</time>
      </trkpt>
      <trkpt lat="45.93688" lon="4.72353">
        <ele>171</ele>
        <time>2017-05-03T08:25:37Z</time>
      </trkpt>
      <trkpt lat="45.93693" lon="4.72356">
        <ele>171</ele>
        <time>2017-05-03T08:25:38Z</time>
      </trkpt>
      <trkpt lat="45.93697" lon="4.72361">
        <ele>171</ele>
        <time>2017-05-03T08:25:39Z</time>
      </trkpt>
      <trkpt lat="45.93701" lon="4.72365">
        <ele>171</ele>
        <time>2017-05-03T08:25:40Z</time>
      </trkpt>
      <trkpt lat="45.93705" lon="4.72371">
        <ele>171</ele>
        <time>2017-05-03T08:25:41Z</time>
      </trkpt>
      <trkpt lat="45.93708" lon="4.72376">
        <ele>172</ele>
        <time>2017-05-03T08:25:42Z</time>
      </trkpt>
      <trkpt lat="45.93712" lon="4.72381">
        <ele>171</ele>
        <time>2017-05-03T08:25:43Z</time>
      </trkpt>
      <trkpt lat="45.93717" lon="4.72385">
        <ele>171</ele>
        <time>2017-05-03T08:25:44Z</time>
      </trkpt>
      <trkpt lat="45.93721" lon="4.72389">
        <ele>171</ele>
        <time>2017-05-03T08:25:45Z</time>
      </trkpt>
      <trkpt lat="45.93726" lon="4.72393">
        <ele>171</ele>
        <time>2017-05-03T08:25:46Z</time>
      </trkpt>
      <trkpt lat="45.93731" lon="4.72397">
        <ele>171</ele>
        <time>2017-05-03T08:25:47Z</time>
      </trkpt>
      <trkpt lat="45.93735" lon="4.72401">
        <ele>171</ele>
        <time>2017-05-03T08:25:48Z</time>
      </trkpt>
      <trkpt lat="45.93739" lon="4.72404">
        <ele>171</ele>
        <time>2017-05-03T08:25:49Z</time>
      </trkpt>
      <trkpt lat="45.93743" lon="4.72408">
        <ele>171</ele>
        <time>2017-05-03T08:25:50Z</time>
      </trkpt>
      <trkpt lat="45.93748" lon="4.72412">
        <ele>171</ele>
        <time>2017-05-03T08:25:51Z</time>
      </trkpt>
      <trkpt lat="45.93752" lon="4.72415">
        <ele>171</ele>
        <time>2017-05-03T08:25:52Z</time>
      </trkpt>
      <trkpt lat="45.93756" lon="4.72419">
        <ele>171</ele>
        <time>2017-05-03T08:25:53Z</time>
      </trkpt>
      <trkpt lat="45.9376" lon="4.72423">
        <ele>171</ele>
        <time>2017-05-03T08:25:54Z</time>
      </trkpt>
      <trkpt lat="45.93764" lon="4.72427">
        <ele>171</ele>
        <time>2017-05-03T08:25:55Z</time>
      </trkpt>
      <trkpt lat="45.93769" lon="4.72431">
        <ele>171</ele>
        <time>2017-05-03T08:25:56Z</time>
      </trkpt>
      <trkpt lat="45.93773" lon="4.72436">
        <ele>171</ele>
        <time>2017-05-03T08:25:57Z</time>
      </trkpt>
      <trkpt lat="45.93778" lon="4.7244">
        <ele>172</ele>
        <time>2017-05-03T08:25:58Z</time>
      </trkpt>
      <trkpt lat="45.93783" lon="4.72444">
        <ele>172</ele>
        <time>2017-05-03T08:25:59Z</time>
      </trkpt>
      <trkpt lat="45.93788" lon="4.72449">
        <ele>172</ele>
        <time>2017-05-03T08:26:00Z</time>
      </trkpt>
      <trkpt lat="45.93793" lon="4.72453">
        <ele>172</ele>
        <time>2017-05-03T08:26:01Z</time>
      </trkpt>
      <trkpt lat="45.93797" lon="4.72456">
        <ele>172</ele>
        <time>2017-05-03T08:26:02Z</time>
      </trkpt>
      <trkpt lat="45.93802" lon="4.72461">
        <ele>172</ele>
        <time>2017-05-03T08:26:03Z</time>
      </trkpt>
      <trkpt lat="45.93806" lon="4.72466">
        <ele>172</ele>
        <time>2017-05-03T08:26:04Z</time>
      </trkpt>
      <trkpt lat="45.9381" lon="4.7247">
        <ele>172</ele>
        <time>2017-05-03T08:26:05Z</time>
      </trkpt>
      <trkpt lat="45.93816" lon="4.72474">
        <ele>172</ele>
        <time>2017-05-03T08:26:06Z</time>
      </trkpt>
      <trkpt lat="45.93821" lon="4.72478">
        <ele>173</ele>
        <time>2017-05-03T08:26:07Z</time>
      </trkpt>
      <trkpt lat="45.93826" lon="4.7248">
        <ele>173</ele>
        <time>2017-05-03T08:26:08Z</time>
      </trkpt>
      <trkpt lat="45.93831" lon="4.72483">
        <ele>173</ele>
        <time>2017-05-03T08:26:09Z</time>
      </trkpt>
      <trkpt lat="45.93836" lon="4.72486">
        <ele>173</ele>
        <time>2017-05-03T08:26:10Z</time>
      </trkpt>
      <trkpt lat="45.93844" lon="4.72489">
        <ele>173</ele>
        <time>2017-05-03T08:26:12Z</time>
      </trkpt>
      <trkpt lat="45.93846" lon="4.72501">
        <ele>174</ele>
        <time>2017-05-03T08:26:13Z</time>
      </trkpt>
      <trkpt lat="45.93851" lon="4.72508">
        <ele>174</ele>
        <time>2017-05-03T08:26:14Z</time>
      </trkpt>
      <trkpt lat="45.93863" lon="4.72514">
        <ele>173</ele>
        <time>2017-05-03T08:26:15Z</time>
      </trkpt>
      <trkpt lat="45.9387" lon="4.72517">
        <ele>173</ele>
        <time>2017-05-03T08:26:16Z</time>
      </trkpt>
      <trkpt lat="45.93875" lon="4.72517">
        <ele>173</ele>
        <time>2017-05-03T08:26:17Z</time>
      </trkpt>
      <trkpt lat="45.93879" lon="4.72514">
        <ele>173</ele>
        <time>2017-05-03T08:26:18Z</time>
      </trkpt>
      <trkpt lat="45.93883" lon="4.72509">
        <ele>173</ele>
        <time>2017-05-03T08:26:19Z</time>
      </trkpt>
      <trkpt lat="45.93886" lon="4.72503">
        <ele>173</ele>
        <time>2017-05-03T08:26:20Z</time>
      </trkpt>
      <trkpt lat="45.93889" lon="4.72497">
        <ele>172</ele>
        <time>2017-05-03T08:26:21Z</time>
      </trkpt>
      <trkpt lat="45.93894" lon="4.72492">
        <ele>172</ele>
        <time>2017-05-03T08:26:22Z</time>
      </trkpt>
      <trkpt lat="45.93898" lon="4.72487">
        <ele>172</ele>
        <time>2017-05-03T08:26:23Z</time>
      </trkpt>
      <trkpt lat="45.93903" lon="4.72482">
        <ele>172</ele>
        <time>2017-05-03T08:26:24Z</time>
      </trkpt>
      <trkpt lat="45.93908" lon="4.72477">
        <ele>172</ele>
        <time>2017-05-03T08:26:25Z</time>
      </trkpt>
      <trkpt lat="45.93912" lon="4.72471">
        <ele>172</ele>
        <time>2017-05-03T08:26:26Z</time>
      </trkpt>
      <trkpt lat="45.93917" lon="4.72466">
        <ele>172</ele>
        <time>2017-05-03T08:26:27Z</time>
      </trkpt>
      <trkpt lat="45.93922" lon="4.7246">
        <ele>171</ele>
        <time>2017-05-03T08:26:28Z</time>
      </trkpt>
      <trkpt lat="45.93926" lon="4.72454">
        <ele>171</ele>
        <time>2017-05-03T08:26:29Z</time>
      </trkpt>
      <trkpt lat="45.93931" lon="4.72448">
        <ele>171</ele>
        <time>2017-05-03T08:26:30Z</time>
      </trkpt>
      <trkpt lat="45.93936" lon="4.72442">
        <ele>171</ele>
        <time>2017-05-03T08:26:31Z</time>
      </trkpt>
      <trkpt lat="45.93941" lon="4.72436">
        <ele>171</ele>
        <time>2017-05-03T08:26:32Z</time>
      </trkpt>
      <trkpt lat="45.93946" lon="4.7243">
        <ele>171</ele>
        <time>2017-05-03T08:26:33Z</time>
      </trkpt>
      <trkpt lat="45.93951" lon="4.72423">
        <ele>171</ele>
        <time>2017-05-03T08:26:34Z</time>
      </trkpt>
      <trkpt lat="45.93956" lon="4.72417">
        <ele>171</ele>
        <time>2017-05-03T08:26:35Z</time>
      </trkpt>
      <trkpt lat="45.93962" lon="4.72411">
        <ele>171</ele>
        <time>2017-05-03T08:26:36Z</time>
      </trkpt>
      <trkpt lat="45.93967" lon="4.72405">
        <ele>171</ele>
        <time>2017-05-03T08:26:37Z</time>
      </trkpt>
      <trkpt lat="45.93972" lon="4.72399">
        <ele>171</ele>
        <time>2017-05-03T08:26:38Z</time>
      </trkpt>
      <trkpt lat="45.93976" lon="4.72393">
        <ele>171</ele>
        <time>2017-05-03T08:26:39Z</time>
      </trkpt>
      <trkpt lat="45.93981" lon="4.72387">
        <ele>171</ele>
        <time>2017-05-03T08:26:40Z</time>
      </trkpt>
      <trkpt lat="45.93986" lon="4.72382">
        <ele>171</ele>
        <time>2017-05-03T08:26:41Z</time>
      </trkpt>
      <trkpt lat="45.93991" lon="4.72376">
        <ele>171</ele>
        <time>2017-05-03T08:26:42Z</time>
      </trkpt>
      <trkpt lat="45.93996" lon="4.7237">
        <ele>171</ele>
        <time>2017-05-03T08:26:43Z</time>
      </trkpt>
      <trkpt lat="45.94001" lon="4.72365">
        <ele>171</ele>
        <time>2017-05-03T08:26:44Z</time>
      </trkpt>
      <trkpt lat="45.94005" lon="4.72359">
        <ele>171</ele>
        <time>2017-05-03T08:26:45Z</time>
      </trkpt>
      <trkpt lat="45.9401" lon="4.72354">
        <ele>171</ele>
        <time>2017-05-03T08:26:46Z</time>
      </trkpt>
      <trkpt lat="45.94014" lon="4.72348">
        <ele>171</ele>
        <time>2017-05-03T08:26:47Z</time>
      </trkpt>
      <trkpt lat="45.94019" lon="4.72342">
        <ele>171</ele>
        <time>2017-05-03T08:26:48Z</time>
      </trkpt>
      <trkpt lat="45.94024" lon="4.72335">
        <ele>171</ele>
        <time>2017-05-03T08:26:49Z</time>
      </trkpt>
      <trkpt lat="45.94029" lon="4.7233">
        <ele>171</ele>
        <time>2017-05-03T08:26:50Z</time>
      </trkpt>
      <trkpt lat="45.94034" lon="4.72324">
        <ele>171</ele>
        <time>2017-05-03T08:26:51Z</time>
      </trkpt>
      <trkpt lat="45.94038" lon="4.72318">
        <ele>171</ele>
        <time>2017-05-03T08:26:52Z</time>
      </trkpt>
      <trkpt lat="45.94043" lon="4.72312">
        <ele>171</ele>
        <time>2017-05-03T08:26:53Z</time>
      </trkpt>
      <trkpt lat="45.94047" lon="4.72307">
        <ele>171</ele>
        <time>2017-05-03T08:26:54Z</time>
      </trkpt>
      <trkpt lat="45.94051" lon="4.72301">
        <ele>171</ele>
        <time>2017-05-03T08:26:55Z</time>
      </trkpt>
      <trkpt lat="45.94055" lon="4.72295">
        <ele>171</ele>
        <time>2017-05-03T08:26:56Z</time>
      </trkpt>
      <trkpt lat="45.94059" lon="4.7229">
        <ele>171</ele>
        <time>2017-05-03T08:26:57Z</time>
      </trkpt>
      <trkpt lat="45.94063" lon="4.72284">
        <ele>171</ele>
        <time>2017-05-03T08:26:58Z</time>
      </trkpt>
      <trkpt lat="45.94068" lon="4.72279">
        <ele>171</ele>
        <time>2017-05-03T08:26:59Z</time>
      </trkpt>
      <trkpt lat="45.94073" lon="4.72275">
        <ele>171</ele>
        <time>2017-05-03T08:27:00Z</time>
      </trkpt>
      <trkpt lat="45.94078" lon="4.72271">
        <ele>171</ele>
        <time>2017-05-03T08:27:01Z</time>
      </trkpt>
      <trkpt lat="45.94083" lon="4.72269">
        <ele>171</ele>
        <time>2017-05-03T08:27:02Z</time>
      </trkpt>
      <trkpt lat="45.94089" lon="4.72267">
        <ele>171</ele>
        <time>2017-05-03T08:27:03Z</time>
      </trkpt>
      <trkpt lat="45.94095" lon="4.72266">
        <ele>171</ele>
        <time>2017-05-03T08:27:04Z</time>
      </trkpt>
      <trkpt lat="45.94101" lon="4.72266">
        <ele>171</ele>
        <time>2017-05-03T08:27:05Z</time>
      </trkpt>
      <trkpt lat="45.94107" lon="4.72267">
        <ele>171</ele>
        <time>2017-05-03T08:27:06Z</time>
      </trkpt>
      <trkpt lat="45.94113" lon="4.72269">
        <ele>171</ele>
        <time>2017-05-03T08:27:07Z</time>
      </trkpt>
      <trkpt lat="45.94118" lon="4.72271">
        <ele>171</ele>
        <time>2017-05-03T08:27:08Z</time>
      </trkpt>
      <trkpt lat="45.94124" lon="4.72274">
        <ele>171</ele>
        <time>2017-05-03T08:27:09Z</time>
      </trkpt>
      <trkpt lat="45.94129" lon="4.72277">
        <ele>171</ele>
        <time>2017-05-03T08:27:10Z</time>
      </trkpt>
      <trkpt lat="45.94135" lon="4.7228">
        <ele>171</ele>
        <time>2017-05-03T08:27:11Z</time>
      </trkpt>
      <trkpt lat="45.9414" lon="4.72283">
        <ele>171</ele>
        <time>2017-05-03T08:27:12Z</time>
      </trkpt>
      <trkpt lat="45.94146" lon="4.72285">
        <ele>171</ele>
        <time>2017-05-03T08:27:13Z</time>
      </trkpt>
      <trkpt lat="45.94152" lon="4.72287">
        <ele>171</ele>
        <time>2017-05-03T08:27:14Z</time>
      </trkpt>
      <trkpt lat="45.94158" lon="4.72289">
        <ele>171</ele>
        <time>2017-05-03T08:27:15Z</time>
      </trkpt>
      <trkpt lat="45.94164" lon="4.7229">
        <ele>171</ele>
        <time>2017-05-03T08:27:16Z</time>
      </trkpt>
      <trkpt lat="45.9417" lon="4.72291">
        <ele>171</ele>
        <time>2017-05-03T08:27:17Z</time>
      </trkpt>
      <trkpt lat="45.94176" lon="4.72292">
        <ele>171</ele>
        <time>2017-05-03T08:27:18Z</time>
      </trkpt>
      <trkpt lat="45.94182" lon="4.72292">
        <ele>171</ele>
        <time>2017-05-03T08:27:19Z</time>
      </trkpt>
      <trkpt lat="45.94188" lon="4.72292">
        <ele>171</ele>
        <time>2017-05-03T08:27:20Z</time>
      </trkpt>
      <trkpt lat="45.94193" lon="4.72292">
        <ele>171</ele>
        <time>2017-05-03T08:27:21Z</time>
      </trkpt>
      <trkpt lat="45.94199" lon="4.72292">
        <ele>171</ele>
        <time>2017-05-03T08:27:22Z</time>
      </trkpt>
      <trkpt lat="45.94204" lon="4.72291">
        <ele>171</ele>
        <time>2017-05-03T08:27:23Z</time>
      </trkpt>
      <trkpt lat="45.94209" lon="4.72291">
        <ele>171</ele>
        <time>2017-05-03T08:27:24Z</time>
      </trkpt>
      <trkpt lat="45.94215" lon="4.7229">
        <ele>171</ele>
        <time>2017-05-03T08:27:25Z</time>
      </trkpt>
      <trkpt lat="45.9422" lon="4.7229">
        <ele>171</ele>
        <time>2017-05-03T08:27:26Z</time>
      </trkpt>
      <trkpt lat="45.94225" lon="4.72289">
        <ele>171</ele>
        <time>2017-05-03T08:27:27Z</time>
      </trkpt>
      <trkpt lat="45.94231" lon="4.72287">
        <ele>171</ele>
        <time>2017-05-03T08:27:28Z</time>
      </trkpt>
      <trkpt lat="45.94236" lon="4.72285">
        <ele>171</ele>
        <time>2017-05-03T08:27:29Z</time>
      </trkpt>
      <trkpt lat="45.94241" lon="4.72283">
        <ele>171</ele>
        <time>2017-05-03T08:27:30Z</time>
      </trkpt>
      <trkpt lat="45.94246" lon="4.72281">
        <ele>171</ele>
        <time>2017-05-03T08:27:31Z</time>
      </trkpt>
      <trkpt lat="45.94251" lon="4.72279">
        <ele>171</ele>
        <time>2017-05-03T08:27:32Z</time>
      </trkpt>
      <trkpt lat="45.94256" lon="4.72276">
        <ele>171</ele>
        <time>2017-05-03T08:27:33Z</time>
      </trkpt>
      <trkpt lat="45.94261" lon="4.72274">
        <ele>171</ele>
        <time>2017-05-03T08:27:34Z</time>
      </trkpt>
      <trkpt lat="45.94266" lon="4.72273">
        <ele>171</ele>
        <time>2017-05-03T08:27:35Z</time>
      </trkpt>
      <trkpt lat="45.94271" lon="4.72274">
        <ele>171</ele>
        <time>2017-05-03T08:27:36Z</time>
      </trkpt>
      <trkpt lat="45.94275" lon="4.72278">
        <ele>171</ele>
        <time>2017-05-03T08:27:37Z</time>
      </trkpt>
      <trkpt lat="45.94278" lon="4.72284">
        <ele>171</ele>
        <time>2017-05-03T08:27:38Z</time>
      </trkpt>
      <trkpt lat="45.9428" lon="4.7229">
        <ele>171</ele>
        <time>2017-05-03T08:27:39Z</time>
      </trkpt>
      <trkpt lat="45.94283" lon="4.72297">
        <ele>171</ele>
        <time>2017-05-03T08:27:40Z</time>
      </trkpt>
      <trkpt lat="45.94285" lon="4.72304">
        <ele>171</ele>
        <time>2017-05-03T08:27:41Z</time>
      </trkpt>
      <trkpt lat="45.94289" lon="4.7231">
        <ele>171</ele>
        <time>2017-05-03T08:27:42Z</time>
      </trkpt>
      <trkpt lat="45.94292" lon="4.72317">
        <ele>171</ele>
        <time>2017-05-03T08:27:43Z</time>
      </trkpt>
      <trkpt lat="45.94295" lon="4.72324">
        <ele>171</ele>
        <time>2017-05-03T08:27:44Z</time>
      </trkpt>
      <trkpt lat="45.94298" lon="4.7233">
        <ele>171</ele>
        <time>2017-05-03T08:27:45Z</time>
      </trkpt>
      <trkpt lat="45.94301" lon="4.72336">
        <ele>172</ele>
        <time>2017-05-03T08:27:46Z</time>
      </trkpt>
      <trkpt lat="45.94304" lon="4.72341">
        <ele>172</ele>
        <time>2017-05-03T08:27:47Z</time>
      </trkpt>
      <trkpt lat="45.94307" lon="4.72347">
        <ele>172</ele>
        <time>2017-05-03T08:27:48Z</time>
      </trkpt>
      <trkpt lat="45.9431" lon="4.72353">
        <ele>172</ele>
        <time>2017-05-03T08:27:49Z</time>
      </trkpt>
      <trkpt lat="45.94312" lon="4.72359">
        <ele>172</ele>
        <time>2017-05-03T08:27:50Z</time>
      </trkpt>
      <trkpt lat="45.94314" lon="4.72365">
        <ele>172</ele>
        <time>2017-05-03T08:27:51Z</time>
      </trkpt>
      <trkpt lat="45.94316" lon="4.72371">
        <ele>172</ele>
        <time>2017-05-03T08:27:52Z</time>
      </trkpt>
      <trkpt lat="45.94318" lon="4.72377">
        <ele>172</ele>
        <time>2017-05-03T08:27:53Z</time>
      </trkpt>
      <trkpt lat="45.94321" lon="4.72384">
        <ele>172</ele>
        <time>2017-05-03T08:27:54Z</time>
      </trkpt>
      <trkpt lat="45.94323" lon="4.7239">
        <ele>172</ele>
        <time>2017-05-03T08:27:55Z</time>
      </trkpt>
      <trkpt lat="45.94326" lon="4.72396">
        <ele>172</ele>
        <time>2017-05-03T08:27:56Z</time>
      </trkpt>
      <trkpt lat="45.94329" lon="4.72403">
        <ele>173</ele>
        <time>2017-05-03T08:27:57Z</time>
      </trkpt>
      <trkpt lat="45.94331" lon="4.72409">
        <ele>173</ele>
        <time>2017-05-03T08:27:58Z</time>
      </trkpt>
      <trkpt lat="45.94334" lon="4.72416">
        <ele>173</ele>
        <time>2017-05-03T08:27:59Z</time>
      </trkpt>
      <trkpt lat="45.94337" lon="4.72422">
        <ele>173</ele>
        <time>2017-05-03T08:28:00Z</time>
      </trkpt>
      <trkpt lat="45.9434" lon="4.72429">
        <ele>173</ele>
        <time>2017-05-03T08:28:01Z</time>
      </trkpt>
      <trkpt lat="45.94344" lon="4.72435">
        <ele>173</ele>
        <time>2017-05-03T08:28:02Z</time>
      </trkpt>
      <trkpt lat="45.94347" lon="4.72441">
        <ele>173</ele>
        <time>2017-05-03T08:28:03Z</time>
      </trkpt>
      <trkpt lat="45.9435" lon="4.72448">
        <ele>173</ele>
        <time>2017-05-03T08:28:04Z</time>
      </trkpt>
      <trkpt lat="45.94352" lon="4.72454">
        <ele>173</ele>
        <time>2017-05-03T08:28:05Z</time>
      </trkpt>
      <trkpt lat="45.94355" lon="4.72461">
        <ele>173</ele>
        <time>2017-05-03T08:28:06Z</time>
      </trkpt>
      <trkpt lat="45.94358" lon="4.72468">
        <ele>173</ele>
        <time>2017-05-03T08:28:07Z</time>
      </trkpt>
      <trkpt lat="45.94361" lon="4.72475">
        <ele>173</ele>
        <time>2017-05-03T08:28:08Z</time>
      </trkpt>
      <trkpt lat="45.94364" lon="4.72482">
        <ele>173</ele>
        <time>2017-05-03T08:28:09Z</time>
      </trkpt>
      <trkpt lat="45.94366" lon="4.7249">
        <ele>173</ele>
        <time>2017-05-03T08:28:10Z</time>
      </trkpt>
      <trkpt lat="45.94369" lon="4.72497">
        <ele>173</ele>
        <time>2017-05-03T08:28:11Z</time>
      </trkpt>
      <trkpt lat="45.94371" lon="4.72504">
        <ele>173</ele>
        <time>2017-05-03T08:28:12Z</time>
      </trkpt>
      <trkpt lat="45.94374" lon="4.72511">
        <ele>173</ele>
        <time>2017-05-03T08:28:13Z</time>
      </trkpt>
      <trkpt lat="45.94376" lon="4.72519">
        <ele>174</ele>
        <time>2017-05-03T08:28:14Z</time>
      </trkpt>
      <trkpt lat="45.94378" lon="4.72526">
        <ele>174</ele>
        <time>2017-05-03T08:28:15Z</time>
      </trkpt>
      <trkpt lat="45.9438" lon="4.72532">
        <ele>174</ele>
        <time>2017-05-03T08:28:16Z</time>
      </trkpt>
      <trkpt lat="45.94382" lon="4.7254">
        <ele>174</ele>
        <time>2017-05-03T08:28:17Z</time>
      </trkpt>
      <trkpt lat="45.94383" lon="4.72547">
        <ele>173</ele>
        <time>2017-05-03T08:28:18Z</time>
      </trkpt>
      <trkpt lat="45.94385" lon="4.72555">
        <ele>173</ele>
        <time>2017-05-03T08:28:19Z</time>
      </trkpt>
      <trkpt lat="45.94386" lon="4.72563">
        <ele>173</ele>
        <time>2017-05-03T08:28:20Z</time>
      </trkpt>
      <trkpt lat="45.94387" lon="4.7257">
        <ele>173</ele>
        <time>2017-05-03T08:28:21Z</time>
      </trkpt>
      <trkpt lat="45.94389" lon="4.72578">
        <ele>173</ele>
        <time>2017-05-03T08:28:22Z</time>
      </trkpt>
      <trkpt lat="45.9439" lon="4.72587">
        <ele>173</ele>
        <time>2017-05-03T08:28:23Z</time>
      </trkpt>
      <trkpt lat="45.94391" lon="4.72595">
        <ele>173</ele>
        <time>2017-05-03T08:28:24Z</time>
      </trkpt>
      <trkpt lat="45.94392" lon="4.72603">
        <ele>173</ele>
        <time>2017-05-03T08:28:25Z</time>
      </trkpt>
      <trkpt lat="45.94393" lon="4.72611">
        <ele>173</ele>
        <time>2017-05-03T08:28:26Z</time>
      </trkpt>
      <trkpt lat="45.94394" lon="4.72618">
        <ele>173</ele>
        <time>2017-05-03T08:28:27Z</time>
      </trkpt>
      <trkpt lat="45.94395" lon="4.72626">
        <ele>174</ele>
        <time>2017-05-03T08:28:28Z</time>
      </trkpt>
      <trkpt lat="45.94396" lon="4.72634">
        <ele>174</ele>
        <time>2017-05-03T08:28:29Z</time>
      </trkpt>
      <trkpt lat="45.94397" lon="4.72643">
        <ele>174</ele>
        <time>2017-05-03T08:28:30Z</time>
      </trkpt>
      <trkpt lat="45.94398" lon="4.72651">
        <ele>174</ele>
        <time>2017-05-03T08:28:31Z</time>
      </trkpt>
      <trkpt lat="45.944" lon="4.72659">
        <ele>174</ele>
        <time>2017-05-03T08:28:32Z</time>
      </trkpt>
      <trkpt lat="45.94401" lon="4.72667">
        <ele>173</ele>
        <time>2017-05-03T08:28:33Z</time>
      </trkpt>
      <trkpt lat="45.94402" lon="4.72676">
        <ele>173</ele>
        <time>2017-05-03T08:28:34Z</time>
      </trkpt>
      <trkpt lat="45.94403" lon="4.72684">
        <ele>173</ele>
        <time>2017-05-03T08:28:35Z</time>
      </trkpt>
      <trkpt lat="45.94404" lon="4.72692">
        <ele>173</ele>
        <time>2017-05-03T08:28:36Z</time>
      </trkpt>
      <trkpt lat="45.94405" lon="4.727">
        <ele>172</ele>
        <time>2017-05-03T08:28:37Z</time>
      </trkpt>
      <trkpt lat="45.94406" lon="4.72707">
        <ele>172</ele>
        <time>2017-05-03T08:28:38Z</time>
      </trkpt>
      <trkpt lat="45.94406" lon="4.72715">
        <ele>172</ele>
        <time>2017-05-03T08:28:39Z</time>
      </trkpt>
      <trkpt lat="45.94407" lon="4.72722">
        <ele>172</ele>
        <time>2017-05-03T08:28:40Z</time>
      </trkpt>
      <trkpt lat="45.94408" lon="4.72729">
        <ele>172</ele>
        <time>2017-05-03T08:28:41Z</time>
      </trkpt>
      <trkpt lat="45.94409" lon="4.72736">
        <ele>172</ele>
        <time>2017-05-03T08:28:42Z</time>
      </trkpt>
      <trkpt lat="45.9441" lon="4.72743">
        <ele>171</ele>
        <time>2017-05-03T08:28:43Z</time>
      </trkpt>
      <trkpt lat="45.94411" lon="4.72749">
        <ele>171</ele>
        <time>2017-05-03T08:28:44Z</time>
      </trkpt>
      <trkpt lat="45.94412" lon="4.72756">
        <ele>170</ele>
        <time>2017-05-03T08:28:45Z</time>
      </trkpt>
      <trkpt lat="45.94413" lon="4.72763">
        <ele>170</ele>
        <time>2017-05-03T08:28:46Z</time>
      </trkpt>
      <trkpt lat="45.94414" lon="4.7277">
        <ele>169</ele>
        <time>2017-05-03T08:28:47Z</time>
      </trkpt>
      <trkpt lat="45.94415" lon="4.72776">
        <ele>169</ele>
        <time>2017-05-03T08:28:48Z</time>
      </trkpt>
      <trkpt lat="45.94416" lon="4.72783">
        <ele>169</ele>
        <time>2017-05-03T08:28:49Z</time>
      </trkpt>
      <trkpt lat="45.94417" lon="4.72796">
        <ele>168</ele>
        <time>2017-05-03T08:28:51Z</time>
      </trkpt>
      <trkpt lat="45.94418" lon="4.72802">
        <ele>167</ele>
        <time>2017-05-03T08:28:52Z</time>
      </trkpt>
      <trkpt lat="45.9442" lon="4.72814">
        <ele>167</ele>
        <time>2017-05-03T08:28:54Z</time>
      </trkpt>
      <trkpt lat="45.94421" lon="4.7282">
        <ele>167</ele>
        <time>2017-05-03T08:28:55Z</time>
      </trkpt>
      <trkpt lat="45.94422" lon="4.72833">
        <ele>166</ele>
        <time>2017-05-03T08:28:57Z</time>
      </trkpt>
      <trkpt lat="45.94423" lon="4.72839">
        <ele>166</ele>
        <time>2017-05-03T08:28:58Z</time>
      </trkpt>
      <trkpt lat="45.94425" lon="4.72852">
        <ele>166</ele>
        <time>2017-05-03T08:29:00Z</time>
      </trkpt>
      <trkpt lat="45.94426" lon="4.72858">
        <ele>166</ele>
        <time>2017-05-03T08:29:01Z</time>
      </trkpt>
      <trkpt lat="45.94427" lon="4.7287">
        <ele>166</ele>
        <time>2017-05-03T08:29:03Z</time>
      </trkpt>
      <trkpt lat="45.94428" lon="4.72876">
        <ele>166</ele>
        <time>2017-05-03T08:29:04Z</time>
      </trkpt>
      <trkpt lat="45.9443" lon="4.72888">
        <ele>166</ele>
        <time>2017-05-03T08:29:06Z</time>
      </trkpt>
      <trkpt lat="45.9443" lon="4.72894">
        <ele>166</ele>
        <time>2017-05-03T08:29:07Z</time>
      </trkpt>
      <trkpt lat="45.94431" lon="4.72906">
        <ele>166</ele>
        <time>2017-05-03T08:29:09Z</time>
      </trkpt>
      <trkpt lat="45.94432" lon="4.72912">
        <ele>166</ele>
        <time>2017-05-03T08:29:10Z</time>
      </trkpt>
      <trkpt lat="45.94434" lon="4.72924">
        <ele>167</ele>
        <time>2017-05-03T08:29:12Z</time>
      </trkpt>
      <trkpt lat="45.94434" lon="4.7293">
        <ele>167</ele>
        <time>2017-05-03T08:29:13Z</time>
      </trkpt>
      <trkpt lat="45.94435" lon="4.72937">
        <ele>167</ele>
        <time>2017-05-03T08:29:14Z</time>
      </trkpt>
      <trkpt lat="45.94436" lon="4.72944">
        <ele>167</ele>
        <time>2017-05-03T08:29:15Z</time>
      </trkpt>
      <trkpt lat="45.94437" lon="4.72951">
        <ele>167</ele>
        <time>2017-05-03T08:29:16Z</time>
      </trkpt>
      <trkpt lat="45.94438" lon="4.72959">
        <ele>167</ele>
        <time>2017-05-03T08:29:17Z</time>
      </trkpt>
      <trkpt lat="45.9444" lon="4.72967">
        <ele>167</ele>
        <time>2017-05-03T08:29:18Z</time>
      </trkpt>
      <trkpt lat="45.94441" lon="4.72975">
        <ele>167</ele>
        <time>2017-05-03T08:29:19Z</time>
      </trkpt>
      <trkpt lat="45.94442" lon="4.72984">
        <ele>167</ele>
        <time>2017-05-03T08:29:20Z</time>
      </trkpt>
      <trkpt lat="45.94443" lon="4.72993">
        <ele>167</ele>
        <time>2017-05-03T08:29:21Z</time>
      </trkpt>
      <trkpt lat="45.94444" lon="4.73002">
        <ele>168</ele>
        <time>2017-05-03T08:29:22Z</time>
      </trkpt>
      <trkpt lat="45.94445" lon="4.73011">
        <ele>169</ele>
        <time>2017-05-03T08:29:23Z</time>
      </trkpt>
      <trkpt lat="45.94446" lon="4.73021">
        <ele>169</ele>
        <time>2017-05-03T08:29:24Z</time>
      </trkpt>
      <trkpt lat="45.94447" lon="4.73031">
        <ele>169</ele>
        <time>2017-05-03T08:29:25Z</time>
      </trkpt>
      <trkpt lat="45.94449" lon="4.73041">
        <ele>169</ele>
        <time>2017-05-03T08:29:26Z</time>
      </trkpt>
      <trkpt lat="45.9445" lon="4.73052">
        <ele>169</ele>
        <time>2017-05-03T08:29:27Z</time>
      </trkpt>
      <trkpt lat="45.94452" lon="4.73062">
        <ele>170</ele>
        <time>2017-05-03T08:29:28Z</time>
      </trkpt>
      <trkpt lat="45.94454" lon="4.73073">
        <ele>170</ele>
        <time>2017-05-03T08:29:29Z</time>
      </trkpt>
      <trkpt lat="45.94455" lon="4.73084">
        <ele>171</ele>
        <time>2017-05-03T08:29:30Z</time>
      </trkpt>
      <trkpt lat="45.94457" lon="4.73095">
        <ele>171</ele>
        <time>2017-05-03T08:29:31Z</time>
      </trkpt>
      <trkpt lat="45.94458" lon="4.73105">
        <ele>171</ele>
        <time>2017-05-03T08:29:32Z</time>
      </trkpt>
      <trkpt lat="45.94459" lon="4.73115">
        <ele>172</ele>
        <time>2017-05-03T08:29:33Z</time>
      </trkpt>
      <trkpt lat="45.9446" lon="4.73124">
        <ele>172</ele>
        <time>2017-05-03T08:29:34Z</time>
      </trkpt>
      <trkpt lat="45.94462" lon="4.73134">
        <ele>172</ele>
        <time>2017-05-03T08:29:35Z</time>
      </trkpt>
      <trkpt lat="45.94463" lon="4.73142">
        <ele>172</ele>
        <time>2017-05-03T08:29:36Z</time>
      </trkpt>
      <trkpt lat="45.94464" lon="4.73151">
        <ele>172</ele>
        <time>2017-05-03T08:29:37Z</time>
      </trkpt>
      <trkpt lat="45.94465" lon="4.73159">
        <ele>172</ele>
        <time>2017-05-03T08:29:38Z</time>
      </trkpt>
      <trkpt lat="45.94466" lon="4.73167">
        <ele>174</ele>
        <time>2017-05-03T08:29:39Z</time>
      </trkpt>
      <trkpt lat="45.94467" lon="4.73175">
        <ele>174</ele>
        <time>2017-05-03T08:29:40Z</time>
      </trkpt>
      <trkpt lat="45.94468" lon="4.73183">
        <ele>174</ele>
        <time>2017-05-03T08:29:41Z</time>
      </trkpt>
      <trkpt lat="45.94469" lon="4.7319">
        <ele>174</ele>
        <time>2017-05-03T08:29:42Z</time>
      </trkpt>
      <trkpt lat="45.9447" lon="4.73197">
        <ele>174</ele>
        <time>2017-05-03T08:29:43Z</time>
      </trkpt>
      <trkpt lat="45.94471" lon="4.73204">
        <ele>174</ele>
        <time>2017-05-03T08:29:44Z</time>
      </trkpt>
      <trkpt lat="45.94472" lon="4.73211">
        <ele>175</ele>
        <time>2017-05-03T08:29:45Z</time>
      </trkpt>
      <trkpt lat="45.94473" lon="4.73218">
        <ele>175</ele>
        <time>2017-05-03T08:29:46Z</time>
      </trkpt>
      <trkpt lat="45.94474" lon="4.73225">
        <ele>175</ele>
        <time>2017-05-03T08:29:47Z</time>
      </trkpt>
      <trkpt lat="45.94475" lon="4.73231">
        <ele>175</ele>
        <time>2017-05-03T08:29:48Z</time>
      </trkpt>
      <trkpt lat="45.94476" lon="4.73238">
        <ele>175</ele>
        <time>2017-05-03T08:29:49Z</time>
      </trkpt>
      <trkpt lat="45.94477" lon="4.73244">
        <ele>175</ele>
        <time>2017-05-03T08:29:50Z</time>
      </trkpt>
      <trkpt lat="45.94478" lon="4.7325">
        <ele>176</ele>
        <time>2017-05-03T08:29:51Z</time>
      </trkpt>
      <trkpt lat="45.9448" lon="4.73257">
        <ele>177</ele>
        <time>2017-05-03T08:29:52Z</time>
      </trkpt>
      <trkpt lat="45.94481" lon="4.73263">
        <ele>177</ele>
        <time>2017-05-03T08:29:53Z</time>
      </trkpt>
      <trkpt lat="45.94482" lon="4.7327">
        <ele>177</ele>
        <time>2017-05-03T08:29:54Z</time>
      </trkpt>
      <trkpt lat="45.94483" lon="4.73277">
        <ele>177</ele>
        <time>2017-05-03T08:29:55Z</time>
      </trkpt>
      <trkpt lat="45.94485" lon="4.73289">
        <ele>177</ele>
        <time>2017-05-03T08:29:57Z</time>
      </trkpt>
      <trkpt lat="45.94486" lon="4.73294">
        <ele>177</ele>
        <time>2017-05-03T08:29:58Z</time>
      </trkpt>
      <trkpt lat="45.94487" lon="4.73306">
        <ele>177</ele>
        <time>2017-05-03T08:30:00Z</time>
      </trkpt>
      <trkpt lat="45.94488" lon="4.73311">
        <ele>177</ele>
        <time>2017-05-03T08:30:01Z</time>
      </trkpt>
      <trkpt lat="45.9449" lon="4.73323">
        <ele>177</ele>
        <time>2017-05-03T08:30:03Z</time>
      </trkpt>
      <trkpt lat="45.9449" lon="4.73329">
        <ele>177</ele>
        <time>2017-05-03T08:30:04Z</time>
      </trkpt>
      <trkpt lat="45.94491" lon="4.73341">
        <ele>178</ele>
        <time>2017-05-03T08:30:06Z</time>
      </trkpt>
      <trkpt lat="45.94491" lon="4.73347">
        <ele>178</ele>
        <time>2017-05-03T08:30:07Z</time>
      </trkpt>
      <trkpt lat="45.94492" lon="4.73358">
        <ele>179</ele>
        <time>2017-05-03T08:30:09Z</time>
      </trkpt>
      <trkpt lat="45.94492" lon="4.73364">
        <ele>179</ele>
        <time>2017-05-03T08:30:10Z</time>
      </trkpt>
      <trkpt lat="45.94493" lon="4.73376">
        <ele>179</ele>
        <time>2017-05-03T08:30:12Z</time>
      </trkpt>
      <trkpt lat="45.94493" lon="4.73382">
        <ele>179</ele>
        <time>2017-05-03T08:30:13Z</time>
      </trkpt>
      <trkpt lat="45.94494" lon="4.73393">
        <ele>179</ele>
        <time>2017-05-03T08:30:15Z</time>
      </trkpt>
      <trkpt lat="45.94494" lon="4.73399">
        <ele>180</ele>
        <time>2017-05-03T08:30:16Z</time>
      </trkpt>
      <trkpt lat="45.94495" lon="4.7341">
        <ele>180</ele>
        <time>2017-05-03T08:30:18Z</time>
      </trkpt>
      <trkpt lat="45.94495" lon="4.73416">
        <ele>180</ele>
        <time>2017-05-03T08:30:19Z</time>
      </trkpt>
      <trkpt lat="45.94496" lon="4.73427">
        <ele>181</ele>
        <time>2017-05-03T08:30:21Z</time>
      </trkpt>
      <trkpt lat="45.94496" lon="4.73433">
        <ele>181</ele>
        <time>2017-05-03T08:30:22Z</time>
      </trkpt>
      <trkpt lat="45.94496" lon="4.73444">
        <ele>181</ele>
        <time>2017-05-03T08:30:24Z</time>
      </trkpt>
      <trkpt lat="45.94496" lon="4.73449">
        <ele>182</ele>
        <time>2017-05-03T08:30:25Z</time>
      </trkpt>
      <trkpt lat="45.94497" lon="4.7346">
        <ele>182</ele>
        <time>2017-05-03T08:30:27Z</time>
      </trkpt>
      <trkpt lat="45.94497" lon="4.73466">
        <ele>182</ele>
        <time>2017-05-03T08:30:28Z</time>
      </trkpt>
      <trkpt lat="45.94498" lon="4.73476">
        <ele>182</ele>
        <time>2017-05-03T08:30:30Z</time>
      </trkpt>
      <trkpt lat="45.94499" lon="4.73482">
        <ele>182</ele>
        <time>2017-05-03T08:30:31Z</time>
      </trkpt>
      <trkpt lat="45.94499" lon="4.73493">
        <ele>183</ele>
        <time>2017-05-03T08:30:33Z</time>
      </trkpt>
      <trkpt lat="45.94499" lon="4.73499">
        <ele>183</ele>
        <time>2017-05-03T08:30:34Z</time>
      </trkpt>
      <trkpt lat="45.94498" lon="4.7351">
        <ele>184</ele>
        <time>2017-05-03T08:30:36Z</time>
      </trkpt>
      <trkpt lat="45.94498" lon="4.73516">
        <ele>184</ele>
        <time>2017-05-03T08:30:37Z</time>
      </trkpt>
      <trkpt lat="45.94498" lon="4.73527">
        <ele>184</ele>
        <time>2017-05-03T08:30:39Z</time>
      </trkpt>
      <trkpt lat="45.94498" lon="4.73532">
        <ele>184</ele>
        <time>2017-05-03T08:30:40Z</time>
      </trkpt>
      <trkpt lat="45.94499" lon="4.73542">
        <ele>184</ele>
        <time>2017-05-03T08:30:42Z</time>
      </trkpt>
      <trkpt lat="45.94498" lon="4.73547">
        <ele>185</ele>
        <time>2017-05-03T08:30:43Z</time>
      </trkpt>
      <trkpt lat="45.94497" lon="4.73557">
        <ele>185</ele>
        <time>2017-05-03T08:30:45Z</time>
      </trkpt>
      <trkpt lat="45.94497" lon="4.73562">
        <ele>185</ele>
        <time>2017-05-03T08:30:46Z</time>
      </trkpt>
      <trkpt lat="45.94497" lon="4.73573">
        <ele>185</ele>
        <time>2017-05-03T08:30:48Z</time>
      </trkpt>
      <trkpt lat="45.94496" lon="4.73579">
        <ele>185</ele>
        <time>2017-05-03T08:30:49Z</time>
      </trkpt>
      <trkpt lat="45.94496" lon="4.7359">
        <ele>185</ele>
        <time>2017-05-03T08:30:51Z</time>
      </trkpt>
      <trkpt lat="45.94496" lon="4.73595">
        <ele>185</ele>
        <time>2017-05-03T08:30:52Z</time>
      </trkpt>
      <trkpt lat="45.94495" lon="4.73607">
        <ele>186</ele>
        <time>2017-05-03T08:30:54Z</time>
      </trkpt>
      <trkpt lat="45.94495" lon="4.73613">
        <ele>186</ele>
        <time>2017-05-03T08:30:55Z</time>
      </trkpt>
      <trkpt lat="45.94494" lon="4.7362">
        <ele>186</ele>
        <time>2017-05-03T08:30:56Z</time>
      </trkpt>
      <trkpt lat="45.94493" lon="4.73626">
        <ele>186</ele>
        <time>2017-05-03T08:30:57Z</time>
      </trkpt>
      <trkpt lat="45.94492" lon="4.73633">
        <ele>186</ele>
        <time>2017-05-03T08:30:58Z</time>
      </trkpt>
      <trkpt lat="45.94491" lon="4.73639">
        <ele>186</ele>
        <time>2017-05-03T08:30:59Z</time>
      </trkpt>
      <trkpt lat="45.9449" lon="4.73646">
        <ele>186</ele>
        <time>2017-05-03T08:31:00Z</time>
      </trkpt>
      <trkpt lat="45.94488" lon="4.73653">
        <ele>186</ele>
        <time>2017-05-03T08:31:01Z</time>
      </trkpt>
      <trkpt lat="45.94487" lon="4.73659">
        <ele>185</ele>
        <time>2017-05-03T08:31:02Z</time>
      </trkpt>
      <trkpt lat="45.94486" lon="4.73666">
        <ele>185</ele>
        <time>2017-05-03T08:31:03Z</time>
      </trkpt>
      <trkpt lat="45.94484" lon="4.73678">
        <ele>186</ele>
        <time>2017-05-03T08:31:05Z</time>
      </trkpt>
      <trkpt lat="45.94483" lon="4.73685">
        <ele>186</ele>
        <time>2017-05-03T08:31:06Z</time>
      </trkpt>
      <trkpt lat="45.94482" lon="4.73692">
        <ele>186</ele>
        <time>2017-05-03T08:31:07Z</time>
      </trkpt>
      <trkpt lat="45.94481" lon="4.73699">
        <ele>186</ele>
        <time>2017-05-03T08:31:08Z</time>
      </trkpt>
      <trkpt lat="45.9448" lon="4.73705">
        <ele>186</ele>
        <time>2017-05-03T08:31:09Z</time>
      </trkpt>
      <trkpt lat="45.94479" lon="4.73712">
        <ele>186</ele>
        <time>2017-05-03T08:31:10Z</time>
      </trkpt>
      <trkpt lat="45.94478" lon="4.73719">
        <ele>186</ele>
        <time>2017-05-03T08:31:11Z</time>
      </trkpt>
      <trkpt lat="45.94477" lon="4.73725">
        <ele>186</ele>
        <time>2017-05-03T08:31:12Z</time>
      </trkpt>
      <trkpt lat="45.94477" lon="4.73732">
        <ele>186</ele>
        <time>2017-05-03T08:31:13Z</time>
      </trkpt>
      <trkpt lat="45.94476" lon="4.73739">
        <ele>186</ele>
        <time>2017-05-03T08:31:14Z</time>
      </trkpt>
      <trkpt lat="45.94473" lon="4.7375">
        <ele>186</ele>
        <time>2017-05-03T08:31:16Z</time>
      </trkpt>
      <trkpt lat="45.94472" lon="4.73757">
        <ele>186</ele>
        <time>2017-05-03T08:31:17Z</time>
      </trkpt>
      <trkpt lat="45.94472" lon="4.73764">
        <ele>186</ele>
        <time>2017-05-03T08:31:18Z</time>
      </trkpt>
      <trkpt lat="45.94474" lon="4.7377">
        <ele>186</ele>
        <time>2017-05-03T08:31:19Z</time>
      </trkpt>
      <trkpt lat="45.94477" lon="4.73775">
        <ele>186</ele>
        <time>2017-05-03T08:31:20Z</time>
      </trkpt>
      <trkpt lat="45.94481" lon="4.73778">
        <ele>186</ele>
        <time>2017-05-03T08:31:21Z</time>
      </trkpt>
      <trkpt lat="45.94489" lon="4.73783">
        <ele>186</ele>
        <time>2017-05-03T08:31:23Z</time>
      </trkpt>
      <trkpt lat="45.94493" lon="4.73786">
        <ele>186</ele>
        <time>2017-05-03T08:31:24Z</time>
      </trkpt>
      <trkpt lat="45.94496" lon="4.7379">
        <ele>186</ele>
        <time>2017-05-03T08:31:25Z</time>
      </trkpt>
      <trkpt lat="45.945" lon="4.73794">
        <ele>185</ele>
        <time>2017-05-03T08:31:26Z</time>
      </trkpt>
      <trkpt lat="45.94503" lon="4.73798">
        <ele>186</ele>
        <time>2017-05-03T08:31:27Z</time>
      </trkpt>
      <trkpt lat="45.94507" lon="4.73802">
        <ele>186</ele>
        <time>2017-05-03T08:31:28Z</time>
      </trkpt>
      <trkpt lat="45.94511" lon="4.73806">
        <ele>186</ele>
        <time>2017-05-03T08:31:29Z</time>
      </trkpt>
      <trkpt lat="45.94515" lon="4.7381">
        <ele>186</ele>
        <time>2017-05-03T08:31:30Z</time>
      </trkpt>
      <trkpt lat="45.94519" lon="4.73814">
        <ele>186</ele>
        <time>2017-05-03T08:31:31Z</time>
      </trkpt>
      <trkpt lat="45.94523" lon="4.73818">
        <ele>186</ele>
        <time>2017-05-03T08:31:32Z</time>
      </trkpt>
      <trkpt lat="45.94527" lon="4.73821">
        <ele>186</ele>
        <time>2017-05-03T08:31:33Z</time>
      </trkpt>
      <trkpt lat="45.94531" lon="4.73825">
        <ele>186</ele>
        <time>2017-05-03T08:31:34Z</time>
      </trkpt>
      <trkpt lat="45.94535" lon="4.73829">
        <ele>186</ele>
        <time>2017-05-03T08:31:35Z</time>
      </trkpt>
      <trkpt lat="45.94539" lon="4.73832">
        <ele>186</ele>
        <time>2017-05-03T08:31:36Z</time>
      </trkpt>
      <trkpt lat="45.94543" lon="4.73836">
        <ele>186</ele>
        <time>2017-05-03T08:31:37Z</time>
      </trkpt>
      <trkpt lat="45.94547" lon="4.7384">
        <ele>186</ele>
        <time>2017-05-03T08:31:38Z</time>
      </trkpt>
      <trkpt lat="45.94551" lon="4.73844">
        <ele>186</ele>
        <time>2017-05-03T08:31:39Z</time>
      </trkpt>
      <trkpt lat="45.94555" lon="4.73848">
        <ele>186</ele>
        <time>2017-05-03T08:31:40Z</time>
      </trkpt>
      <trkpt lat="45.94559" lon="4.73852">
        <ele>186</ele>
        <time>2017-05-03T08:31:41Z</time>
      </trkpt>
      <trkpt lat="45.94563" lon="4.73856">
        <ele>186</ele>
        <time>2017-05-03T08:31:42Z</time>
      </trkpt>
      <trkpt lat="45.94566" lon="4.7386">
        <ele>186</ele>
        <time>2017-05-03T08:31:43Z</time>
      </trkpt>
      <trkpt lat="45.94571" lon="4.73864">
        <ele>186</ele>
        <time>2017-05-03T08:31:44Z</time>
      </trkpt>
      <trkpt lat="45.94575" lon="4.73868">
        <ele>186</ele>
        <time>2017-05-03T08:31:45Z</time>
      </trkpt>
      <trkpt lat="45.94579" lon="4.73873">
        <ele>186</ele>
        <time>2017-05-03T08:31:46Z</time>
      </trkpt>
      <trkpt lat="45.94583" lon="4.73877">
        <ele>186</ele>
        <time>2017-05-03T08:31:47Z</time>
      </trkpt>
      <trkpt lat="45.94586" lon="4.73882">
        <ele>187</ele>
        <time>2017-05-03T08:31:48Z</time>
      </trkpt>
      <trkpt lat="45.9459" lon="4.73887">
        <ele>187</ele>
        <time>2017-05-03T08:31:49Z</time>
      </trkpt>
      <trkpt lat="45.94594" lon="4.73891">
        <ele>187</ele>
        <time>2017-05-03T08:31:50Z</time>
      </trkpt>
      <trkpt lat="45.94599" lon="4.73896">
        <ele>187</ele>
        <time>2017-05-03T08:31:51Z</time>
      </trkpt>
      <trkpt lat="45.94603" lon="4.73901">
        <ele>187</ele>
        <time>2017-05-03T08:31:52Z</time>
      </trkpt>
      <trkpt lat="45.94606" lon="4.73906">
        <ele>187</ele>
        <time>2017-05-03T08:31:53Z</time>
      </trkpt>
      <trkpt lat="45.9461" lon="4.7391">
        <ele>187</ele>
        <time>2017-05-03T08:31:54Z</time>
      </trkpt>
      <trkpt lat="45.94614" lon="4.73915">
        <ele>187</ele>
        <time>2017-05-03T08:31:55Z</time>
      </trkpt>
      <trkpt lat="45.94617" lon="4.73919">
        <ele>187</ele>
        <time>2017-05-03T08:31:56Z</time>
      </trkpt>
      <trkpt lat="45.94621" lon="4.73924">
        <ele>187</ele>
        <time>2017-05-03T08:31:57Z</time>
      </trkpt>
      <trkpt lat="45.94624" lon="4.73928">
        <ele>187</ele>
        <time>2017-05-03T08:31:58Z</time>
      </trkpt>
      <trkpt lat="45.94628" lon="4.73932">
        <ele>187</ele>
        <time>2017-05-03T08:31:59Z</time>
      </trkpt>
      <trkpt lat="45.94631" lon="4.73937">
        <ele>187</ele>
        <time>2017-05-03T08:32:00Z</time>
      </trkpt>
      <trkpt lat="45.94638" lon="4.73945">
        <ele>187</ele>
        <time>2017-05-03T08:32:02Z</time>
      </trkpt>
      <trkpt lat="45.94641" lon="4.73949">
        <ele>187</ele>
        <time>2017-05-03T08:32:03Z</time>
      </trkpt>
      <trkpt lat="45.94645" lon="4.73953">
        <ele>187</ele>
        <time>2017-05-03T08:32:04Z</time>
      </trkpt>
      <trkpt lat="45.94648" lon="4.73957">
        <ele>187</ele>
        <time>2017-05-03T08:32:05Z</time>
      </trkpt>
      <trkpt lat="45.94651" lon="4.73962">
        <ele>187</ele>
        <time>2017-05-03T08:32:06Z</time>
      </trkpt>
      <trkpt lat="45.94654" lon="4.73967">
        <ele>187</ele>
        <time>2017-05-03T08:32:07Z</time>
      </trkpt>
      <trkpt lat="45.94658" lon="4.73971">
        <ele>187</ele>
        <time>2017-05-03T08:32:08Z</time>
      </trkpt>
      <trkpt lat="45.94661" lon="4.73977">
        <ele>187</ele>
        <time>2017-05-03T08:32:09Z</time>
      </trkpt>
      <trkpt lat="45.94665" lon="4.73982">
        <ele>187</ele>
        <time>2017-05-03T08:32:10Z</time>
      </trkpt>
      <trkpt lat="45.94669" lon="4.73987">
        <ele>187</ele>
        <time>2017-05-03T08:32:11Z</time>
      </trkpt>
      <trkpt lat="45.94672" lon="4.73992">
        <ele>187</ele>
        <time>2017-05-03T08:32:12Z</time>
      </trkpt>
      <trkpt lat="45.94676" lon="4.73997">
        <ele>187</ele>
        <time>2017-05-03T08:32:13Z</time>
      </trkpt>
      <trkpt lat="45.94679" lon="4.74002">
        <ele>187</ele>
        <time>2017-05-03T08:32:14Z</time>
      </trkpt>
      <trkpt lat="45.94683" lon="4.74007">
        <ele>187</ele>
        <time>2017-05-03T08:32:15Z</time>
      </trkpt>
      <trkpt lat="45.94687" lon="4.74012">
        <ele>187</ele>
        <time>2017-05-03T08:32:16Z</time>
      </trkpt>
      <trkpt lat="45.94691" lon="4.74017">
        <ele>187</ele>
        <time>2017-05-03T08:32:17Z</time>
      </trkpt>
      <trkpt lat="45.94694" lon="4.74021">
        <ele>187</ele>
        <time>2017-05-03T08:32:18Z</time>
      </trkpt>
      <trkpt lat="45.94698" lon="4.74026">
        <ele>187</ele>
        <time>2017-05-03T08:32:19Z</time>
      </trkpt>
      <trkpt lat="45.94701" lon="4.74031">
        <ele>187</ele>
        <time>2017-05-03T08:32:20Z</time>
      </trkpt>
      <trkpt lat="45.94704" lon="4.74035">
        <ele>187</ele>
        <time>2017-05-03T08:32:21Z</time>
      </trkpt>
      <trkpt lat="45.94708" lon="4.7404">
        <ele>187</ele>
        <time>2017-05-03T08:32:22Z</time>
      </trkpt>
      <trkpt lat="45.94711" lon="4.74045">
        <ele>187</ele>
        <time>2017-05-03T08:32:23Z</time>
      </trkpt>
      <trkpt lat="45.94715" lon="4.74049">
        <ele>187</ele>
        <time>2017-05-03T08:32:24Z</time>
      </trkpt>
      <trkpt lat="45.94718" lon="4.74054">
        <ele>187</ele>
        <time>2017-05-03T08:32:25Z</time>
      </trkpt>
      <trkpt lat="45.94722" lon="4.74059">
        <ele>188</ele>
        <time>2017-05-03T08:32:26Z</time>
      </trkpt>
      <trkpt lat="45.94726" lon="4.74064">
        <ele>188</ele>
        <time>2017-05-03T08:32:27Z</time>
      </trkpt>
      <trkpt lat="45.94729" lon="4.74068">
        <ele>188</ele>
        <time>2017-05-03T08:32:28Z</time>
      </trkpt>
      <trkpt lat="45.94733" lon="4.74073">
        <ele>188</ele>
        <time>2017-05-03T08:32:29Z</time>
      </trkpt>
      <trkpt lat="45.94736" lon="4.74078">
        <ele>188</ele>
        <time>2017-05-03T08:32:30Z</time>
      </trkpt>
      <trkpt lat="45.9474" lon="4.74082">
        <ele>188</ele>
        <time>2017-05-03T08:32:31Z</time>
      </trkpt>
      <trkpt lat="45.94743" lon="4.74087">
        <ele>188</ele>
        <time>2017-05-03T08:32:32Z</time>
      </trkpt>
      <trkpt lat="45.94747" lon="4.74092">
        <ele>188</ele>
        <time>2017-05-03T08:32:33Z</time>
      </trkpt>
      <trkpt lat="45.94751" lon="4.74097">
        <ele>189</ele>
        <time>2017-05-03T08:32:34Z</time>
      </trkpt>
      <trkpt lat="45.94754" lon="4.74102">
        <ele>189</ele>
        <time>2017-05-03T08:32:35Z</time>
      </trkpt>
      <trkpt lat="45.94758" lon="4.74107">
        <ele>189</ele>
        <time>2017-05-03T08:32:36Z</time>
      </trkpt>
      <trkpt lat="45.94761" lon="4.74112">
        <ele>189</ele>
        <time>2017-05-03T08:32:37Z</time>
      </trkpt>
      <trkpt lat="45.94765" lon="4.74117">
        <ele>189</ele>
        <time>2017-05-03T08:32:38Z</time>
      </trkpt>
      <trkpt lat="45.94768" lon="4.74122">
        <ele>189</ele>
        <time>2017-05-03T08:32:39Z</time>
      </trkpt>
      <trkpt lat="45.94772" lon="4.74126">
        <ele>189</ele>
        <time>2017-05-03T08:32:40Z</time>
      </trkpt>
      <trkpt lat="45.94775" lon="4.74131">
        <ele>189</ele>
        <time>2017-05-03T08:32:41Z</time>
      </trkpt>
      <trkpt lat="45.94779" lon="4.74136">
        <ele>189</ele>
        <time>2017-05-03T08:32:42Z</time>
      </trkpt>
      <trkpt lat="45.94783" lon="4.74141">
        <ele>189</ele>
        <time>2017-05-03T08:32:43Z</time>
      </trkpt>
      <trkpt lat="45.94786" lon="4.74146">
        <ele>189</ele>
        <time>2017-05-03T08:32:44Z</time>
      </trkpt>
      <trkpt lat="45.94789" lon="4.74152">
        <ele>189</ele>
        <time>2017-05-03T08:32:45Z</time>
      </trkpt>
      <trkpt lat="45.94793" lon="4.74157">
        <ele>189</ele>
        <time>2017-05-03T08:32:46Z</time>
      </trkpt>
      <trkpt lat="45.94796" lon="4.74162">
        <ele>189</ele>
        <time>2017-05-03T08:32:47Z</time>
      </trkpt>
      <trkpt lat="45.948" lon="4.74167">
        <ele>189</ele>
        <time>2017-05-03T08:32:48Z</time>
      </trkpt>
      <trkpt lat="45.94803" lon="4.74173">
        <ele>189</ele>
        <time>2017-05-03T08:32:49Z</time>
      </trkpt>
      <trkpt lat="45.94806" lon="4.74178">
        <ele>189</ele>
        <time>2017-05-03T08:32:50Z</time>
      </trkpt>
      <trkpt lat="45.94809" lon="4.74183">
        <ele>189</ele>
        <time>2017-05-03T08:32:51Z</time>
      </trkpt>
      <trkpt lat="45.94813" lon="4.74189">
        <ele>189</ele>
        <time>2017-05-03T08:32:52Z</time>
      </trkpt>
      <trkpt lat="45.94816" lon="4.74195">
        <ele>189</ele>
        <time>2017-05-03T08:32:53Z</time>
      </trkpt>
      <trkpt lat="45.94819" lon="4.74201">
        <ele>189</ele>
        <time>2017-05-03T08:32:54Z</time>
      </trkpt>
      <trkpt lat="45.94822" lon="4.74207">
        <ele>188</ele>
        <time>2017-05-03T08:32:55Z</time>
      </trkpt>
      <trkpt lat="45.94826" lon="4.74213">
        <ele>188</ele>
        <time>2017-05-03T08:32:56Z</time>
      </trkpt>
      <trkpt lat="45.9483" lon="4.74219">
        <ele>188</ele>
        <time>2017-05-03T08:32:57Z</time>
      </trkpt>
      <trkpt lat="45.94833" lon="4.74226">
        <ele>189</ele>
        <time>2017-05-03T08:32:58Z</time>
      </trkpt>
      <trkpt lat="45.94836" lon="4.74233">
        <ele>190</ele>
        <time>2017-05-03T08:32:59Z</time>
      </trkpt>
      <trkpt lat="45.94839" lon="4.74239">
        <ele>190</ele>
        <time>2017-05-03T08:33:00Z</time>
      </trkpt>
      <trkpt lat="45.94842" lon="4.74245">
        <ele>189</ele>
        <time>2017-05-03T08:33:01Z</time>
      </trkpt>
      <trkpt lat="45.94845" lon="4.74251">
        <ele>190</ele>
        <time>2017-05-03T08:33:02Z</time>
      </trkpt>
      <trkpt lat="45.94849" lon="4.74257">
        <ele>190</ele>
        <time>2017-05-03T08:33:03Z</time>
      </trkpt>
      <trkpt lat="45.94851" lon="4.74263">
        <ele>190</ele>
        <time>2017-05-03T08:33:04Z</time>
      </trkpt>
      <trkpt lat="45.94854" lon="4.74269">
        <ele>190</ele>
        <time>2017-05-03T08:33:05Z</time>
      </trkpt>
      <trkpt lat="45.94857" lon="4.74275">
        <ele>190</ele>
        <time>2017-05-03T08:33:06Z</time>
      </trkpt>
      <trkpt lat="45.9486" lon="4.7428">
        <ele>190</ele>
        <time>2017-05-03T08:33:07Z</time>
      </trkpt>
      <trkpt lat="45.94862" lon="4.74286">
        <ele>191</ele>
        <time>2017-05-03T08:33:08Z</time>
      </trkpt>
      <trkpt lat="45.94865" lon="4.74292">
        <ele>191</ele>
        <time>2017-05-03T08:33:09Z</time>
      </trkpt>
      <trkpt lat="45.94868" lon="4.74298">
        <ele>191</ele>
        <time>2017-05-03T08:33:10Z</time>
      </trkpt>
      <trkpt lat="45.94871" lon="4.74303">
        <ele>191</ele>
        <time>2017-05-03T08:33:11Z</time>
      </trkpt>
      <trkpt lat="45.94874" lon="4.74309">
        <ele>191</ele>
        <time>2017-05-03T08:33:12Z</time>
      </trkpt>
      <trkpt lat="45.94877" lon="4.74315">
        <ele>191</ele>
        <time>2017-05-03T08:33:13Z</time>
      </trkpt>
      <trkpt lat="45.9488" lon="4.74321">
        <ele>191</ele>
        <time>2017-05-03T08:33:14Z</time>
      </trkpt>
      <trkpt lat="45.94883" lon="4.74327">
        <ele>191</ele>
        <time>2017-05-03T08:33:15Z</time>
      </trkpt>
      <trkpt lat="45.94886" lon="4.74333">
        <ele>191</ele>
        <time>2017-05-03T08:33:16Z</time>
      </trkpt>
      <trkpt lat="45.94889" lon="4.74339">
        <ele>191</ele>
        <time>2017-05-03T08:33:17Z</time>
      </trkpt>
      <trkpt lat="45.94892" lon="4.74346">
        <ele>191</ele>
        <time>2017-05-03T08:33:18Z</time>
      </trkpt>
      <trkpt lat="45.94895" lon="4.74352">
        <ele>191</ele>
        <time>2017-05-03T08:33:19Z</time>
      </trkpt>
      <trkpt lat="45.94898" lon="4.74358">
        <ele>191</ele>
        <time>2017-05-03T08:33:20Z</time>
      </trkpt>
      <trkpt lat="45.94901" lon="4.74364">
        <ele>191</ele>
        <time>2017-05-03T08:33:21Z</time>
      </trkpt>
      <trkpt lat="45.94905" lon="4.74371">
        <ele>191</ele>
        <time>2017-05-03T08:33:22Z</time>
      </trkpt>
      <trkpt lat="45.94908" lon="4.74377">
        <ele>191</ele>
        <time>2017-05-03T08:33:23Z</time>
      </trkpt>
      <trkpt lat="45.94911" lon="4.74383">
        <ele>191</ele>
        <time>2017-05-03T08:33:24Z</time>
      </trkpt>
      <trkpt lat="45.94914" lon="4.74389">
        <ele>191</ele>
        <time>2017-05-03T08:33:25Z</time>
      </trkpt>
      <trkpt lat="45.94917" lon="4.74395">
        <ele>192</ele>
        <time>2017-05-03T08:33:26Z</time>
      </trkpt>
      <trkpt lat="45.9492" lon="4.74401">
        <ele>192</ele>
        <time>2017-05-03T08:33:27Z</time>
      </trkpt>
      <trkpt lat="45.94923" lon="4.74406">
        <ele>192</ele>
        <time>2017-05-03T08:33:28Z</time>
      </trkpt>
      <trkpt lat="45.94926" lon="4.74412">
        <ele>192</ele>
        <time>2017-05-03T08:33:29Z</time>
      </trkpt>
      <trkpt lat="45.94929" lon="4.74418">
        <ele>192</ele>
        <time>2017-05-03T08:33:30Z</time>
      </trkpt>
      <trkpt lat="45.94931" lon="4.74424">
        <ele>192</ele>
        <time>2017-05-03T08:33:31Z</time>
      </trkpt>
      <trkpt lat="45.94934" lon="4.74429">
        <ele>192</ele>
        <time>2017-05-03T08:33:32Z</time>
      </trkpt>
      <trkpt lat="45.94937" lon="4.74435">
        <ele>192</ele>
        <time>2017-05-03T08:33:33Z</time>
      </trkpt>
      <trkpt lat="45.9494" lon="4.74441">
        <ele>192</ele>
        <time>2017-05-03T08:33:34Z</time>
      </trkpt>
      <trkpt lat="45.94943" lon="4.74447">
        <ele>192</ele>
        <time>2017-05-03T08:33:35Z</time>
      </trkpt>
      <trkpt lat="45.94946" lon="4.74453">
        <ele>192</ele>
        <time>2017-05-03T08:33:36Z</time>
      </trkpt>
      <trkpt lat="45.94949" lon="4.74459">
        <ele>193</ele>
        <time>2017-05-03T08:33:37Z</time>
      </trkpt>
      <trkpt lat="45.94952" lon="4.74464">
        <ele>193</ele>
        <time>2017-05-03T08:33:38Z</time>
      </trkpt>
      <trkpt lat="45.94955" lon="4.7447">
        <ele>193</ele>
        <time>2017-05-03T08:33:39Z</time>
      </trkpt>
      <trkpt lat="45.94958" lon="4.74475">
        <ele>193</ele>
        <time>2017-05-03T08:33:40Z</time>
      </trkpt>
      <trkpt lat="45.94961" lon="4.74481">
        <ele>193</ele>
        <time>2017-05-03T08:33:41Z</time>
      </trkpt>
      <trkpt lat="45.94964" lon="4.74487">
        <ele>193</ele>
        <time>2017-05-03T08:33:42Z</time>
      </trkpt>
      <trkpt lat="45.94967" lon="4.74493">
        <ele>193</ele>
        <time>2017-05-03T08:33:43Z</time>
      </trkpt>
      <trkpt lat="45.94971" lon="4.74499">
        <ele>193</ele>
        <time>2017-05-03T08:33:44Z</time>
      </trkpt>
      <trkpt lat="45.94974" lon="4.74505">
        <ele>193</ele>
        <time>2017-05-03T08:33:45Z</time>
      </trkpt>
      <trkpt lat="45.94977" lon="4.74512">
        <ele>193</ele>
        <time>2017-05-03T08:33:46Z</time>
      </trkpt>
      <trkpt lat="45.9498" lon="4.74518">
        <ele>193</ele>
        <time>2017-05-03T08:33:47Z</time>
      </trkpt>
      <trkpt lat="45.94983" lon="4.74525">
        <ele>193</ele>
        <time>2017-05-03T08:33:48Z</time>
      </trkpt>
      <trkpt lat="45.94986" lon="4.74531">
        <ele>193</ele>
        <time>2017-05-03T08:33:49Z</time>
      </trkpt>
      <trkpt lat="45.94989" lon="4.74537">
        <ele>193</ele>
        <time>2017-05-03T08:33:50Z</time>
      </trkpt>
      <trkpt lat="45.94992" lon="4.74543">
        <ele>193</ele>
        <time>2017-05-03T08:33:51Z</time>
      </trkpt>
      <trkpt lat="45.94995" lon="4.74549">
        <ele>193</ele>
        <time>2017-05-03T08:33:52Z</time>
      </trkpt>
      <trkpt lat="45.94999" lon="4.74555">
        <ele>193</ele>
        <time>2017-05-03T08:33:53Z</time>
      </trkpt>
      <trkpt lat="45.95002" lon="4.74561">
        <ele>194</ele>
        <time>2017-05-03T08:33:54Z</time>
      </trkpt>
      <trkpt lat="45.95005" lon="4.74567">
        <ele>194</ele>
        <time>2017-05-03T08:33:55Z</time>
      </trkpt>
      <trkpt lat="45.95008" lon="4.74573">
        <ele>194</ele>
        <time>2017-05-03T08:33:56Z</time>
      </trkpt>
      <trkpt lat="45.95011" lon="4.74579">
        <ele>194</ele>
        <time>2017-05-03T08:33:57Z</time>
      </trkpt>
      <trkpt lat="45.95015" lon="4.74584">
        <ele>194</ele>
        <time>2017-05-03T08:33:58Z</time>
      </trkpt>
      <trkpt lat="45.95018" lon="4.7459">
        <ele>194</ele>
        <time>2017-05-03T08:33:59Z</time>
      </trkpt>
      <trkpt lat="45.95021" lon="4.74595">
        <ele>194</ele>
        <time>2017-05-03T08:34:00Z</time>
      </trkpt>
      <trkpt lat="45.95024" lon="4.74601">
        <ele>194</ele>
        <time>2017-05-03T08:34:01Z</time>
      </trkpt>
      <trkpt lat="45.95026" lon="4.74606">
        <ele>194</ele>
        <time>2017-05-03T08:34:02Z</time>
      </trkpt>
      <trkpt lat="45.95029" lon="4.74612">
        <ele>194</ele>
        <time>2017-05-03T08:34:03Z</time>
      </trkpt>
      <trkpt lat="45.95032" lon="4.74618">
        <ele>194</ele>
        <time>2017-05-03T08:34:04Z</time>
      </trkpt>
      <trkpt lat="45.95036" lon="4.74624">
        <ele>194</ele>
        <time>2017-05-03T08:34:05Z</time>
      </trkpt>
      <trkpt lat="45.9504" lon="4.7463">
        <ele>194</ele>
        <time>2017-05-03T08:34:06Z</time>
      </trkpt>
      <trkpt lat="45.95043" lon="4.74637">
        <ele>194</ele>
        <time>2017-05-03T08:34:07Z</time>
      </trkpt>
      <trkpt lat="45.95047" lon="4.74643">
        <ele>194</ele>
        <time>2017-05-03T08:34:08Z</time>
      </trkpt>
      <trkpt lat="45.9505" lon="4.7465">
        <ele>194</ele>
        <time>2017-05-03T08:34:09Z</time>
      </trkpt>
      <trkpt lat="45.95054" lon="4.74656">
        <ele>194</ele>
        <time>2017-05-03T08:34:10Z</time>
      </trkpt>
      <trkpt lat="45.95057" lon="4.74662">
        <ele>194</ele>
        <time>2017-05-03T08:34:11Z</time>
      </trkpt>
      <trkpt lat="45.95061" lon="4.74668">
        <ele>194</ele>
        <time>2017-05-03T08:34:12Z</time>
      </trkpt>
      <trkpt lat="45.95064" lon="4.74674">
        <ele>194</ele>
        <time>2017-05-03T08:34:13Z</time>
      </trkpt>
      <trkpt lat="45.95068" lon="4.74679">
        <ele>194</ele>
        <time>2017-05-03T08:34:14Z</time>
      </trkpt>
      <trkpt lat="45.95071" lon="4.74685">
        <ele>194</ele>
        <time>2017-05-03T08:34:15Z</time>
      </trkpt>
      <trkpt lat="45.95074" lon="4.74691">
        <ele>194</ele>
        <time>2017-05-03T08:34:16Z</time>
      </trkpt>
      <trkpt lat="45.95077" lon="4.74697">
        <ele>194</ele>
        <time>2017-05-03T08:34:17Z</time>
      </trkpt>
      <trkpt lat="45.9508" lon="4.74702">
        <ele>194</ele>
        <time>2017-05-03T08:34:18Z</time>
      </trkpt>
      <trkpt lat="45.95084" lon="4.74707">
        <ele>194</ele>
        <time>2017-05-03T08:34:19Z</time>
      </trkpt>
      <trkpt lat="45.95086" lon="4.74714">
        <ele>194</ele>
        <time>2017-05-03T08:34:20Z</time>
      </trkpt>
      <trkpt lat="45.9509" lon="4.7472">
        <ele>194</ele>
        <time>2017-05-03T08:34:21Z</time>
      </trkpt>
      <trkpt lat="45.95093" lon="4.74725">
        <ele>194</ele>
        <time>2017-05-03T08:34:22Z</time>
      </trkpt>
      <trkpt lat="45.95096" lon="4.74731">
        <ele>194</ele>
        <time>2017-05-03T08:34:23Z</time>
      </trkpt>
      <trkpt lat="45.951" lon="4.74736">
        <ele>194</ele>
        <time>2017-05-03T08:34:24Z</time>
      </trkpt>
      <trkpt lat="45.95103" lon="4.74742">
        <ele>194</ele>
        <time>2017-05-03T08:34:25Z</time>
      </trkpt>
      <trkpt lat="45.95107" lon="4.74747">
        <ele>194</ele>
        <time>2017-05-03T08:34:26Z</time>
      </trkpt>
      <trkpt lat="45.9511" lon="4.74753">
        <ele>194</ele>
        <time>2017-05-03T08:34:27Z</time>
      </trkpt>
      <trkpt lat="45.95114" lon="4.74758">
        <ele>194</ele>
        <time>2017-05-03T08:34:28Z</time>
      </trkpt>
      <trkpt lat="45.95117" lon="4.74764">
        <ele>194</ele>
        <time>2017-05-03T08:34:29Z</time>
      </trkpt>
      <trkpt lat="45.95121" lon="4.74769">
        <ele>194</ele>
        <time>2017-05-03T08:34:30Z</time>
      </trkpt>
      <trkpt lat="45.95124" lon="4.74775">
        <ele>194</ele>
        <time>2017-05-03T08:34:31Z</time>
      </trkpt>
      <trkpt lat="45.95128" lon="4.74781">
        <ele>194</ele>
        <time>2017-05-03T08:34:32Z</time>
      </trkpt>
      <trkpt lat="45.95131" lon="4.74786">
        <ele>194</ele>
        <time>2017-05-03T08:34:33Z</time>
      </trkpt>
      <trkpt lat="45.95135" lon="4.74792">
        <ele>194</ele>
        <time>2017-05-03T08:34:34Z</time>
      </trkpt>
      <trkpt lat="45.95139" lon="4.74798">
        <ele>194</ele>
        <time>2017-05-03T08:34:35Z</time>
      </trkpt>
      <trkpt lat="45.95143" lon="4.74804">
        <ele>194</ele>
        <time>2017-05-03T08:34:36Z</time>
      </trkpt>
      <trkpt lat="45.95147" lon="4.7481">
        <ele>194</ele>
        <time>2017-05-03T08:34:37Z</time>
      </trkpt>
      <trkpt lat="45.9515" lon="4.74816">
        <ele>194</ele>
        <time>2017-05-03T08:34:38Z</time>
      </trkpt>
      <trkpt lat="45.95154" lon="4.74822">
        <ele>194</ele>
        <time>2017-05-03T08:34:39Z</time>
      </trkpt>
      <trkpt lat="45.95158" lon="4.74828">
        <ele>194</ele>
        <time>2017-05-03T08:34:40Z</time>
      </trkpt>
      <trkpt lat="45.95161" lon="4.74834">
        <ele>194</ele>
        <time>2017-05-03T08:34:41Z</time>
      </trkpt>
      <trkpt lat="45.95165" lon="4.7484">
        <ele>194</ele>
        <time>2017-05-03T08:34:42Z</time>
      </trkpt>
      <trkpt lat="45.95169" lon="4.74846">
        <ele>194</ele>
        <time>2017-05-03T08:34:43Z</time>
      </trkpt>
      <trkpt lat="45.95172" lon="4.74852">
        <ele>194</ele>
        <time>2017-05-03T08:34:44Z</time>
      </trkpt>
      <trkpt lat="45.95176" lon="4.74858">
        <ele>194</ele>
        <time>2017-05-03T08:34:45Z</time>
      </trkpt>
      <trkpt lat="45.9518" lon="4.74864">
        <ele>194</ele>
        <time>2017-05-03T08:34:46Z</time>
      </trkpt>
      <trkpt lat="45.95184" lon="4.7487">
        <ele>194</ele>
        <time>2017-05-03T08:34:47Z</time>
      </trkpt>
      <trkpt lat="45.95188" lon="4.74876">
        <ele>194</ele>
        <time>2017-05-03T08:34:48Z</time>
      </trkpt>
      <trkpt lat="45.95191" lon="4.74882">
        <ele>194</ele>
        <time>2017-05-03T08:34:49Z</time>
      </trkpt>
      <trkpt lat="45.95195" lon="4.74888">
        <ele>194</ele>
        <time>2017-05-03T08:34:50Z</time>
      </trkpt>
      <trkpt lat="45.95198" lon="4.74894">
        <ele>194</ele>
        <time>2017-05-03T08:34:51Z</time>
      </trkpt>
      <trkpt lat="45.95202" lon="4.74899">
        <ele>194</ele>
        <time>2017-05-03T08:34:52Z</time>
      </trkpt>
      <trkpt lat="45.95205" lon="4.74904">
        <ele>194</ele>
        <time>2017-05-03T08:34:53Z</time>
      </trkpt>
      <trkpt lat="45.95208" lon="4.74909">
        <ele>194</ele>
        <time>2017-05-03T08:34:54Z</time>
      </trkpt>
      <trkpt lat="45.95211" lon="4.74914">
        <ele>193</ele>
        <time>2017-05-03T08:34:55Z</time>
      </trkpt>
      <trkpt lat="45.95215" lon="4.74919">
        <ele>192</ele>
        <time>2017-05-03T08:34:56Z</time>
      </trkpt>
      <trkpt lat="45.95218" lon="4.74925">
        <ele>192</ele>
        <time>2017-05-03T08:34:57Z</time>
      </trkpt>
      <trkpt lat="45.95222" lon="4.74932">
        <ele>192</ele>
        <time>2017-05-03T08:34:58Z</time>
      </trkpt>
      <trkpt lat="45.95226" lon="4.74938">
        <ele>192</ele>
        <time>2017-05-03T08:34:59Z</time>
      </trkpt>
      <trkpt lat="45.9523" lon="4.74944">
        <ele>192</ele>
        <time>2017-05-03T08:35:00Z</time>
      </trkpt>
      <trkpt lat="45.95234" lon="4.74951">
        <ele>192</ele>
        <time>2017-05-03T08:35:01Z</time>
      </trkpt>
      <trkpt lat="45.95238" lon="4.74957">
        <ele>192</ele>
        <time>2017-05-03T08:35:02Z</time>
      </trkpt>
      <trkpt lat="45.95243" lon="4.74963">
        <ele>191</ele>
        <time>2017-05-03T08:35:03Z</time>
      </trkpt>
      <trkpt lat="45.95246" lon="4.7497">
        <ele>191</ele>
        <time>2017-05-03T08:35:04Z</time>
      </trkpt>
      <trkpt lat="45.9525" lon="4.74976">
        <ele>192</ele>
        <time>2017-05-03T08:35:05Z</time>
      </trkpt>
      <trkpt lat="45.95254" lon="4.74982">
        <ele>192</ele>
        <time>2017-05-03T08:35:06Z</time>
      </trkpt>
      <trkpt lat="45.95257" lon="4.74988">
        <ele>192</ele>
        <time>2017-05-03T08:35:07Z</time>
      </trkpt>
      <trkpt lat="45.95261" lon="4.74994">
        <ele>192</ele>
        <time>2017-05-03T08:35:08Z</time>
      </trkpt>
      <trkpt lat="45.95265" lon="4.74999">
        <ele>192</ele>
        <time>2017-05-03T08:35:09Z</time>
      </trkpt>
      <trkpt lat="45.95268" lon="4.75005">
        <ele>191</ele>
        <time>2017-05-03T08:35:10Z</time>
      </trkpt>
      <trkpt lat="45.95272" lon="4.75011">
        <ele>191</ele>
        <time>2017-05-03T08:35:11Z</time>
      </trkpt>
      <trkpt lat="45.95276" lon="4.75017">
        <ele>191</ele>
        <time>2017-05-03T08:35:12Z</time>
      </trkpt>
      <trkpt lat="45.95279" lon="4.75023">
        <ele>191</ele>
        <time>2017-05-03T08:35:13Z</time>
      </trkpt>
      <trkpt lat="45.95283" lon="4.75028">
        <ele>191</ele>
        <time>2017-05-03T08:35:14Z</time>
      </trkpt>
      <trkpt lat="45.95287" lon="4.75034">
        <ele>191</ele>
        <time>2017-05-03T08:35:15Z</time>
      </trkpt>
      <trkpt lat="45.95291" lon="4.7504">
        <ele>191</ele>
        <time>2017-05-03T08:35:16Z</time>
      </trkpt>
      <trkpt lat="45.95295" lon="4.75046">
        <ele>191</ele>
        <time>2017-05-03T08:35:17Z</time>
      </trkpt>
      <trkpt lat="45.95299" lon="4.75052">
        <ele>191</ele>
        <time>2017-05-03T08:35:18Z</time>
      </trkpt>
      <trkpt lat="45.95303" lon="4.75059">
        <ele>191</ele>
        <time>2017-05-03T08:35:19Z</time>
      </trkpt>
      <trkpt lat="45.95307" lon="4.75066">
        <ele>192</ele>
        <time>2017-05-03T08:35:20Z</time>
      </trkpt>
      <trkpt lat="45.95311" lon="4.75073">
        <ele>192</ele>
        <time>2017-05-03T08:35:21Z</time>
      </trkpt>
      <trkpt lat="45.95316" lon="4.7508">
        <ele>192</ele>
        <time>2017-05-03T08:35:22Z</time>
      </trkpt>
      <trkpt lat="45.9532" lon="4.75087">
        <ele>191</ele>
        <time>2017-05-03T08:35:23Z</time>
      </trkpt>
      <trkpt lat="45.95325" lon="4.75093">
        <ele>191</ele>
        <time>2017-05-03T08:35:24Z</time>
      </trkpt>
      <trkpt lat="45.95329" lon="4.751">
        <ele>190</ele>
        <time>2017-05-03T08:35:25Z</time>
      </trkpt>
      <trkpt lat="45.95333" lon="4.75107">
        <ele>190</ele>
        <time>2017-05-03T08:35:26Z</time>
      </trkpt>
      <trkpt lat="45.95337" lon="4.75113">
        <ele>192</ele>
        <time>2017-05-03T08:35:27Z</time>
      </trkpt>
      <trkpt lat="45.95341" lon="4.7512">
        <ele>191</ele>
        <time>2017-05-03T08:35:28Z</time>
      </trkpt>
      <trkpt lat="45.95345" lon="4.75126">
        <ele>191</ele>
        <time>2017-05-03T08:35:29Z</time>
      </trkpt>
      <trkpt lat="45.95349" lon="4.75132">
        <ele>191</ele>
        <time>2017-05-03T08:35:30Z</time>
      </trkpt>
      <trkpt lat="45.95353" lon="4.75138">
        <ele>191</ele>
        <time>2017-05-03T08:35:31Z</time>
      </trkpt>
      <trkpt lat="45.95357" lon="4.75145">
        <ele>191</ele>
        <time>2017-05-03T08:35:32Z</time>
      </trkpt>
      <trkpt lat="45.95361" lon="4.75151">
        <ele>191</ele>
        <time>2017-05-03T08:35:33Z</time>
      </trkpt>
      <trkpt lat="45.95365" lon="4.75157">
        <ele>191</ele>
        <time>2017-05-03T08:35:34Z</time>
      </trkpt>
      <trkpt lat="45.95369" lon="4.75164">
        <ele>191</ele>
        <time>2017-05-03T08:35:35Z</time>
      </trkpt>
      <trkpt lat="45.95373" lon="4.7517">
        <ele>189</ele>
        <time>2017-05-03T08:35:36Z</time>
      </trkpt>
      <trkpt lat="45.95378" lon="4.75177">
        <ele>189</ele>
        <time>2017-05-03T08:35:37Z</time>
      </trkpt>
      <trkpt lat="45.95382" lon="4.75184">
        <ele>189</ele>
        <time>2017-05-03T08:35:38Z</time>
      </trkpt>
      <trkpt lat="45.95386" lon="4.75191">
        <ele>189</ele>
        <time>2017-05-03T08:35:39Z</time>
      </trkpt>
      <trkpt lat="45.9539" lon="4.75198">
        <ele>189</ele>
        <time>2017-05-03T08:35:40Z</time>
      </trkpt>
      <trkpt lat="45.95394" lon="4.75205">
        <ele>188</ele>
        <time>2017-05-03T08:35:41Z</time>
      </trkpt>
      <trkpt lat="45.95398" lon="4.75213">
        <ele>188</ele>
        <time>2017-05-03T08:35:42Z</time>
      </trkpt>
      <trkpt lat="45.95402" lon="4.7522">
        <ele>188</ele>
        <time>2017-05-03T08:35:43Z</time>
      </trkpt>
      <trkpt lat="45.95406" lon="4.75227">
        <ele>188</ele>
        <time>2017-05-03T08:35:44Z</time>
      </trkpt>
      <trkpt lat="45.95411" lon="4.75235">
        <ele>189</ele>
        <time>2017-05-03T08:35:45Z</time>
      </trkpt>
      <trkpt lat="45.95415" lon="4.75242">
        <ele>189</ele>
        <time>2017-05-03T08:35:46Z</time>
      </trkpt>
      <trkpt lat="45.95419" lon="4.75249">
        <ele>189</ele>
        <time>2017-05-03T08:35:47Z</time>
      </trkpt>
      <trkpt lat="45.95422" lon="4.75255">
        <ele>189</ele>
        <time>2017-05-03T08:35:48Z</time>
      </trkpt>
      <trkpt lat="45.95426" lon="4.75263">
        <ele>189</ele>
        <time>2017-05-03T08:35:49Z</time>
      </trkpt>
      <trkpt lat="45.9543" lon="4.7527">
        <ele>189</ele>
        <time>2017-05-03T08:35:50Z</time>
      </trkpt>
      <trkpt lat="45.95434" lon="4.75277">
        <ele>188</ele>
        <time>2017-05-03T08:35:51Z</time>
      </trkpt>
      <trkpt lat="45.95438" lon="4.75285">
        <ele>188</ele>
        <time>2017-05-03T08:35:52Z</time>
      </trkpt>
      <trkpt lat="45.95442" lon="4.75292">
        <ele>188</ele>
        <time>2017-05-03T08:35:53Z</time>
      </trkpt>
      <trkpt lat="45.95447" lon="4.75299">
        <ele>188</ele>
        <time>2017-05-03T08:35:54Z</time>
      </trkpt>
      <trkpt lat="45.95451" lon="4.75307">
        <ele>188</ele>
        <time>2017-05-03T08:35:55Z</time>
      </trkpt>
      <trkpt lat="45.95455" lon="4.75315">
        <ele>188</ele>
        <time>2017-05-03T08:35:56Z</time>
      </trkpt>
      <trkpt lat="45.95459" lon="4.75323">
        <ele>188</ele>
        <time>2017-05-03T08:35:57Z</time>
      </trkpt>
      <trkpt lat="45.95463" lon="4.7533">
        <ele>188</ele>
        <time>2017-05-03T08:35:58Z</time>
      </trkpt>
      <trkpt lat="45.95466" lon="4.75338">
        <ele>185</ele>
        <time>2017-05-03T08:35:59Z</time>
      </trkpt>
      <trkpt lat="45.9547" lon="4.75346">
        <ele>186</ele>
        <time>2017-05-03T08:36:00Z</time>
      </trkpt>
      <trkpt lat="45.95474" lon="4.75354">
        <ele>186</ele>
        <time>2017-05-03T08:36:01Z</time>
      </trkpt>
      <trkpt lat="45.95478" lon="4.75361">
        <ele>185</ele>
        <time>2017-05-03T08:36:02Z</time>
      </trkpt>
      <trkpt lat="45.95482" lon="4.75369">
        <ele>185</ele>
        <time>2017-05-03T08:36:03Z</time>
      </trkpt>
      <trkpt lat="45.95486" lon="4.75377">
        <ele>185</ele>
        <time>2017-05-03T08:36:04Z</time>
      </trkpt>
      <trkpt lat="45.95489" lon="4.75385">
        <ele>185</ele>
        <time>2017-05-03T08:36:05Z</time>
      </trkpt>
      <trkpt lat="45.95493" lon="4.75393">
        <ele>185</ele>
        <time>2017-05-03T08:36:06Z</time>
      </trkpt>
      <trkpt lat="45.95496" lon="4.75401">
        <ele>185</ele>
        <time>2017-05-03T08:36:07Z</time>
      </trkpt>
      <trkpt lat="45.95498" lon="4.7541">
        <ele>185</ele>
        <time>2017-05-03T08:36:08Z</time>
      </trkpt>
      <trkpt lat="45.95501" lon="4.75419">
        <ele>185</ele>
        <time>2017-05-03T08:36:09Z</time>
      </trkpt>
      <trkpt lat="45.95503" lon="4.75428">
        <ele>186</ele>
        <time>2017-05-03T08:36:10Z</time>
      </trkpt>
      <trkpt lat="45.95504" lon="4.75437">
        <ele>186</ele>
        <time>2017-05-03T08:36:11Z</time>
      </trkpt>
      <trkpt lat="45.95505" lon="4.75446">
        <ele>186</ele>
        <time>2017-05-03T08:36:12Z</time>
      </trkpt>
      <trkpt lat="45.95505" lon="4.75456">
        <ele>186</ele>
        <time>2017-05-03T08:36:13Z</time>
      </trkpt>
      <trkpt lat="45.95504" lon="4.75466">
        <ele>186</ele>
        <time>2017-05-03T08:36:14Z</time>
      </trkpt>
      <trkpt lat="45.95504" lon="4.75475">
        <ele>186</ele>
        <time>2017-05-03T08:36:15Z</time>
      </trkpt>
      <trkpt lat="45.95504" lon="4.75484">
        <ele>186</ele>
        <time>2017-05-03T08:36:16Z</time>
      </trkpt>
      <trkpt lat="45.95506" lon="4.75492">
        <ele>185</ele>
        <time>2017-05-03T08:36:17Z</time>
      </trkpt>
      <trkpt lat="45.95509" lon="4.75499">
        <ele>185</ele>
        <time>2017-05-03T08:36:18Z</time>
      </trkpt>
      <trkpt lat="45.95514" lon="4.75504">
        <ele>185</ele>
        <time>2017-05-03T08:36:19Z</time>
      </trkpt>
      <trkpt lat="45.95518" lon="4.75508">
        <ele>185</ele>
        <time>2017-05-03T08:36:20Z</time>
      </trkpt>
      <trkpt lat="45.95523" lon="4.75511">
        <ele>185</ele>
        <time>2017-05-03T08:36:21Z</time>
      </trkpt>
      <trkpt lat="45.95528" lon="4.75515">
        <ele>185</ele>
        <time>2017-05-03T08:36:22Z</time>
      </trkpt>
      <trkpt lat="45.95533" lon="4.7552">
        <ele>185</ele>
        <time>2017-05-03T08:36:23Z</time>
      </trkpt>
      <trkpt lat="45.95538" lon="4.75524">
        <ele>186</ele>
        <time>2017-05-03T08:36:24Z</time>
      </trkpt>
      <trkpt lat="45.95544" lon="4.75529">
        <ele>186</ele>
        <time>2017-05-03T08:36:25Z</time>
      </trkpt>
      <trkpt lat="45.95549" lon="4.75534">
        <ele>186</ele>
        <time>2017-05-03T08:36:26Z</time>
      </trkpt>
      <trkpt lat="45.95555" lon="4.75538">
        <ele>186</ele>
        <time>2017-05-03T08:36:27Z</time>
      </trkpt>
      <trkpt lat="45.9556" lon="4.75543">
        <ele>186</ele>
        <time>2017-05-03T08:36:28Z</time>
      </trkpt>
      <trkpt lat="45.95565" lon="4.75547">
        <ele>186</ele>
        <time>2017-05-03T08:36:29Z</time>
      </trkpt>
      <trkpt lat="45.95569" lon="4.75552">
        <ele>186</ele>
        <time>2017-05-03T08:36:30Z</time>
      </trkpt>
      <trkpt lat="45.95573" lon="4.75557">
        <ele>186</ele>
        <time>2017-05-03T08:36:31Z</time>
      </trkpt>
      <trkpt lat="45.95576" lon="4.75562">
        <ele>186</ele>
        <time>2017-05-03T08:36:32Z</time>
      </trkpt>
      <trkpt lat="45.9558" lon="4.75567">
        <ele>186</ele>
        <time>2017-05-03T08:36:33Z</time>
      </trkpt>
      <trkpt lat="45.95584" lon="4.75572">
        <ele>187</ele>
        <time>2017-05-03T08:36:34Z</time>
      </trkpt>
      <trkpt lat="45.95587" lon="4.75577">
        <ele>187</ele>
        <time>2017-05-03T08:36:35Z</time>
      </trkpt>
      <trkpt lat="45.9559" lon="4.75583">
        <ele>187</ele>
        <time>2017-05-03T08:36:36Z</time>
      </trkpt>
      <trkpt lat="45.95592" lon="4.7559">
        <ele>187</ele>
        <time>2017-05-03T08:36:37Z</time>
      </trkpt>
      <trkpt lat="45.95595" lon="4.75596">
        <ele>187</ele>
        <time>2017-05-03T08:36:38Z</time>
      </trkpt>
      <trkpt lat="45.95597" lon="4.75603">
        <ele>187</ele>
        <time>2017-05-03T08:36:39Z</time>
      </trkpt>
      <trkpt lat="45.956" lon="4.75609">
        <ele>187</ele>
        <time>2017-05-03T08:36:40Z</time>
      </trkpt>
      <trkpt lat="45.95602" lon="4.75616">
        <ele>187</ele>
        <time>2017-05-03T08:36:41Z</time>
      </trkpt>
      <trkpt lat="45.95604" lon="4.75623">
        <ele>188</ele>
        <time>2017-05-03T08:36:42Z</time>
      </trkpt>
      <trkpt lat="45.95606" lon="4.7563">
        <ele>188</ele>
        <time>2017-05-03T08:36:43Z</time>
      </trkpt>
      <trkpt lat="45.95608" lon="4.75637">
        <ele>188</ele>
        <time>2017-05-03T08:36:44Z</time>
      </trkpt>
      <trkpt lat="45.9561" lon="4.75644">
        <ele>188</ele>
        <time>2017-05-03T08:36:45Z</time>
      </trkpt>
      <trkpt lat="45.95612" lon="4.75651">
        <ele>188</ele>
        <time>2017-05-03T08:36:46Z</time>
      </trkpt>
      <trkpt lat="45.95613" lon="4.75659">
        <ele>188</ele>
        <time>2017-05-03T08:36:47Z</time>
      </trkpt>
      <trkpt lat="45.95615" lon="4.75666">
        <ele>188</ele>
        <time>2017-05-03T08:36:48Z</time>
      </trkpt>
      <trkpt lat="45.95616" lon="4.75674">
        <ele>187</ele>
        <time>2017-05-03T08:36:49Z</time>
      </trkpt>
      <trkpt lat="45.95617" lon="4.75682">
        <ele>187</ele>
        <time>2017-05-03T08:36:50Z</time>
      </trkpt>
      <trkpt lat="45.95618" lon="4.7569">
        <ele>187</ele>
        <time>2017-05-03T08:36:51Z</time>
      </trkpt>
      <trkpt lat="45.95619" lon="4.75699">
        <ele>187</ele>
        <time>2017-05-03T08:36:52Z</time>
      </trkpt>
      <trkpt lat="45.9562" lon="4.75707">
        <ele>187</ele>
        <time>2017-05-03T08:36:53Z</time>
      </trkpt>
      <trkpt lat="45.95622" lon="4.75716">
        <ele>187</ele>
        <time>2017-05-03T08:36:54Z</time>
      </trkpt>
      <trkpt lat="45.95623" lon="4.75724">
        <ele>187</ele>
        <time>2017-05-03T08:36:55Z</time>
      </trkpt>
      <trkpt lat="45.95624" lon="4.75732">
        <ele>187</ele>
        <time>2017-05-03T08:36:56Z</time>
      </trkpt>
      <trkpt lat="45.95626" lon="4.7574">
        <ele>187</ele>
        <time>2017-05-03T08:36:57Z</time>
      </trkpt>
      <trkpt lat="45.95627" lon="4.75748">
        <ele>187</ele>
        <time>2017-05-03T08:36:58Z</time>
      </trkpt>
      <trkpt lat="45.95628" lon="4.75756">
        <ele>185</ele>
        <time>2017-05-03T08:36:59Z</time>
      </trkpt>
      <trkpt lat="45.95629" lon="4.75764">
        <ele>185</ele>
        <time>2017-05-03T08:37:00Z</time>
      </trkpt>
      <trkpt lat="45.9563" lon="4.75773">
        <ele>185</ele>
        <time>2017-05-03T08:37:01Z</time>
      </trkpt>
      <trkpt lat="45.95631" lon="4.75781">
        <ele>185</ele>
        <time>2017-05-03T08:37:02Z</time>
      </trkpt>
      <trkpt lat="45.95633" lon="4.75789">
        <ele>185</ele>
        <time>2017-05-03T08:37:03Z</time>
      </trkpt>
      <trkpt lat="45.95634" lon="4.75798">
        <ele>185</ele>
        <time>2017-05-03T08:37:04Z</time>
      </trkpt>
      <trkpt lat="45.95636" lon="4.75806">
        <ele>185</ele>
        <time>2017-05-03T08:37:05Z</time>
      </trkpt>
      <trkpt lat="45.95637" lon="4.75815">
        <ele>185</ele>
        <time>2017-05-03T08:37:06Z</time>
      </trkpt>
      <trkpt lat="45.95639" lon="4.75823">
        <ele>185</ele>
        <time>2017-05-03T08:37:07Z</time>
      </trkpt>
      <trkpt lat="45.95641" lon="4.75832">
        <ele>185</ele>
        <time>2017-05-03T08:37:08Z</time>
      </trkpt>
      <trkpt lat="45.95643" lon="4.7584">
        <ele>184</ele>
        <time>2017-05-03T08:37:09Z</time>
      </trkpt>
      <trkpt lat="45.95645" lon="4.75849">
        <ele>184</ele>
        <time>2017-05-03T08:37:10Z</time>
      </trkpt>
      <trkpt lat="45.95647" lon="4.75857">
        <ele>184</ele>
        <time>2017-05-03T08:37:11Z</time>
      </trkpt>
      <trkpt lat="45.9565" lon="4.75866">
        <ele>184</ele>
        <time>2017-05-03T08:37:12Z</time>
      </trkpt>
      <trkpt lat="45.95652" lon="4.75874">
        <ele>184</ele>
        <time>2017-05-03T08:37:13Z</time>
      </trkpt>
      <trkpt lat="45.95655" lon="4.75883">
        <ele>184</ele>
        <time>2017-05-03T08:37:14Z</time>
      </trkpt>
      <trkpt lat="45.95658" lon="4.75891">
        <ele>184</ele>
        <time>2017-05-03T08:37:15Z</time>
      </trkpt>
      <trkpt lat="45.95661" lon="4.75899">
        <ele>184</ele>
        <time>2017-05-03T08:37:16Z</time>
      </trkpt>
      <trkpt lat="45.95664" lon="4.75907">
        <ele>184</ele>
        <time>2017-05-03T08:37:17Z</time>
      </trkpt>
      <trkpt lat="45.95667" lon="4.75915">
        <ele>184</ele>
        <time>2017-05-03T08:37:18Z</time>
      </trkpt>
      <trkpt lat="45.9567" lon="4.75923">
        <ele>184</ele>
        <time>2017-05-03T08:37:19Z</time>
      </trkpt>
      <trkpt lat="45.95673" lon="4.7593">
        <ele>185</ele>
        <time>2017-05-03T08:37:20Z</time>
      </trkpt>
      <trkpt lat="45.95676" lon="4.75938">
        <ele>185</ele>
        <time>2017-05-03T08:37:21Z</time>
      </trkpt>
      <trkpt lat="45.95679" lon="4.75945">
        <ele>185</ele>
        <time>2017-05-03T08:37:22Z</time>
      </trkpt>
      <trkpt lat="45.95682" lon="4.75951">
        <ele>185</ele>
        <time>2017-05-03T08:37:23Z</time>
      </trkpt>
      <trkpt lat="45.95685" lon="4.75958">
        <ele>185</ele>
        <time>2017-05-03T08:37:24Z</time>
      </trkpt>
      <trkpt lat="45.95688" lon="4.75964">
        <ele>185</ele>
        <time>2017-05-03T08:37:25Z</time>
      </trkpt>
      <trkpt lat="45.95691" lon="4.75971">
        <ele>185</ele>
        <time>2017-05-03T08:37:26Z</time>
      </trkpt>
      <trkpt lat="45.95694" lon="4.75977">
        <ele>185</ele>
        <time>2017-05-03T08:37:27Z</time>
      </trkpt>
      <trkpt lat="45.95698" lon="4.75984">
        <ele>185</ele>
        <time>2017-05-03T08:37:28Z</time>
      </trkpt>
      <trkpt lat="45.95701" lon="4.7599">
        <ele>185</ele>
        <time>2017-05-03T08:37:29Z</time>
      </trkpt>
      <trkpt lat="45.95704" lon="4.75997">
        <ele>185</ele>
        <time>2017-05-03T08:37:30Z</time>
      </trkpt>
      <trkpt lat="45.95706" lon="4.76003">
        <ele>184</ele>
        <time>2017-05-03T08:37:31Z</time>
      </trkpt>
      <trkpt lat="45.95709" lon="4.7601">
        <ele>184</ele>
        <time>2017-05-03T08:37:32Z</time>
      </trkpt>
      <trkpt lat="45.95712" lon="4.76016">
        <ele>184</ele>
        <time>2017-05-03T08:37:33Z</time>
      </trkpt>
      <trkpt lat="45.95715" lon="4.76022">
        <ele>184</ele>
        <time>2017-05-03T08:37:34Z</time>
      </trkpt>
      <trkpt lat="45.95718" lon="4.76028">
        <ele>184</ele>
        <time>2017-05-03T08:37:35Z</time>
      </trkpt>
      <trkpt lat="45.95721" lon="4.76034">
        <ele>184</ele>
        <time>2017-05-03T08:37:36Z</time>
      </trkpt>
      <trkpt lat="45.95724" lon="4.76041">
        <ele>184</ele>
        <time>2017-05-03T08:37:37Z</time>
      </trkpt>
      <trkpt lat="45.95727" lon="4.76047">
        <ele>184</ele>
        <time>2017-05-03T08:37:38Z</time>
      </trkpt>
      <trkpt lat="45.9573" lon="4.76053">
        <ele>184</ele>
        <time>2017-05-03T08:37:39Z</time>
      </trkpt>
      <trkpt lat="45.95733" lon="4.7606">
        <ele>184</ele>
        <time>2017-05-03T08:37:40Z</time>
      </trkpt>
      <trkpt lat="45.95735" lon="4.76066">
        <ele>184</ele>
        <time>2017-05-03T08:37:41Z</time>
      </trkpt>
      <trkpt lat="45.95738" lon="4.76072">
        <ele>185</ele>
        <time>2017-05-03T08:37:42Z</time>
      </trkpt>
      <trkpt lat="45.95741" lon="4.76079">
        <ele>185</ele>
        <time>2017-05-03T08:37:43Z</time>
      </trkpt>
      <trkpt lat="45.95743" lon="4.76086">
        <ele>185</ele>
        <time>2017-05-03T08:37:44Z</time>
      </trkpt>
      <trkpt lat="45.95746" lon="4.76092">
        <ele>185</ele>
        <time>2017-05-03T08:37:45Z</time>
      </trkpt>
      <trkpt lat="45.95748" lon="4.76099">
        <ele>184</ele>
        <time>2017-05-03T08:37:46Z</time>
      </trkpt>
      <trkpt lat="45.9575" lon="4.76106">
        <ele>184</ele>
        <time>2017-05-03T08:37:47Z</time>
      </trkpt>
      <trkpt lat="45.95751" lon="4.76113">
        <ele>186</ele>
        <time>2017-05-03T08:37:48Z</time>
      </trkpt>
      <trkpt lat="45.95752" lon="4.7612">
        <ele>186</ele>
        <time>2017-05-03T08:37:49Z</time>
      </trkpt>
      <trkpt lat="45.95754" lon="4.76128">
        <ele>186</ele>
        <time>2017-05-03T08:37:50Z</time>
      </trkpt>
      <trkpt lat="45.95755" lon="4.76135">
        <ele>186</ele>
        <time>2017-05-03T08:37:51Z</time>
      </trkpt>
      <trkpt lat="45.95756" lon="4.76143">
        <ele>186</ele>
        <time>2017-05-03T08:37:52Z</time>
      </trkpt>
      <trkpt lat="45.95756" lon="4.7615">
        <ele>186</ele>
        <time>2017-05-03T08:37:53Z</time>
      </trkpt>
      <trkpt lat="45.95757" lon="4.76158">
        <ele>185</ele>
        <time>2017-05-03T08:37:54Z</time>
      </trkpt>
      <trkpt lat="45.95757" lon="4.76166">
        <ele>185</ele>
        <time>2017-05-03T08:37:55Z</time>
      </trkpt>
      <trkpt lat="45.95758" lon="4.76175">
        <ele>185</ele>
        <time>2017-05-03T08:37:56Z</time>
      </trkpt>
      <trkpt lat="45.95758" lon="4.76183">
        <ele>185</ele>
        <time>2017-05-03T08:37:57Z</time>
      </trkpt>
      <trkpt lat="45.95759" lon="4.76191">
        <ele>186</ele>
        <time>2017-05-03T08:37:58Z</time>
      </trkpt>
      <trkpt lat="45.95759" lon="4.76199">
        <ele>186</ele>
        <time>2017-05-03T08:37:59Z</time>
      </trkpt>
      <trkpt lat="45.9576" lon="4.76207">
        <ele>186</ele>
        <time>2017-05-03T08:38:00Z</time>
      </trkpt>
      <trkpt lat="45.9576" lon="4.76215">
        <ele>186</ele>
        <time>2017-05-03T08:38:01Z</time>
      </trkpt>
      <trkpt lat="45.95761" lon="4.76224">
        <ele>186</ele>
        <time>2017-05-03T08:38:02Z</time>
      </trkpt>
      <trkpt lat="45.95761" lon="4.76232">
        <ele>186</ele>
        <time>2017-05-03T08:38:03Z</time>
      </trkpt>
      <trkpt lat="45.95762" lon="4.7624">
        <ele>185</ele>
        <time>2017-05-03T08:38:04Z</time>
      </trkpt>
      <trkpt lat="45.95762" lon="4.76248">
        <ele>185</ele>
        <time>2017-05-03T08:38:05Z</time>
      </trkpt>
      <trkpt lat="45.95763" lon="4.76256">
        <ele>185</ele>
        <time>2017-05-03T08:38:06Z</time>
      </trkpt>
      <trkpt lat="45.95763" lon="4.76264">
        <ele>185</ele>
        <time>2017-05-03T08:38:07Z</time>
      </trkpt>
      <trkpt lat="45.95763" lon="4.76272">
        <ele>185</ele>
        <time>2017-05-03T08:38:08Z</time>
      </trkpt>
      <trkpt lat="45.95764" lon="4.7628">
        <ele>186</ele>
        <time>2017-05-03T08:38:09Z</time>
      </trkpt>
      <trkpt lat="45.95764" lon="4.76287">
        <ele>186</ele>
        <time>2017-05-03T08:38:10Z</time>
      </trkpt>
      <trkpt lat="45.95765" lon="4.76295">
        <ele>186</ele>
        <time>2017-05-03T08:38:11Z</time>
      </trkpt>
      <trkpt lat="45.95765" lon="4.76302">
        <ele>186</ele>
        <time>2017-05-03T08:38:12Z</time>
      </trkpt>
      <trkpt lat="45.95765" lon="4.76308">
        <ele>185</ele>
        <time>2017-05-03T08:38:13Z</time>
      </trkpt>
      <trkpt lat="45.95766" lon="4.76315">
        <ele>185</ele>
        <time>2017-05-03T08:38:14Z</time>
      </trkpt>
      <trkpt lat="45.95766" lon="4.76322">
        <ele>185</ele>
        <time>2017-05-03T08:38:15Z</time>
      </trkpt>
      <trkpt lat="45.95766" lon="4.7633">
        <ele>185</ele>
        <time>2017-05-03T08:38:16Z</time>
      </trkpt>
      <trkpt lat="45.95767" lon="4.76337">
        <ele>185</ele>
        <time>2017-05-03T08:38:17Z</time>
      </trkpt>
      <trkpt lat="45.95767" lon="4.76345">
        <ele>186</ele>
        <time>2017-05-03T08:38:18Z</time>
      </trkpt>
      <trkpt lat="45.95767" lon="4.76353">
        <ele>186</ele>
        <time>2017-05-03T08:38:19Z</time>
      </trkpt>
      <trkpt lat="45.95768" lon="4.76361">
        <ele>186</ele>
        <time>2017-05-03T08:38:20Z</time>
      </trkpt>
      <trkpt lat="45.95768" lon="4.76369">
        <ele>186</ele>
        <time>2017-05-03T08:38:21Z</time>
      </trkpt>
      <trkpt lat="45.95768" lon="4.76376">
        <ele>186</ele>
        <time>2017-05-03T08:38:22Z</time>
      </trkpt>
      <trkpt lat="45.95769" lon="4.76384">
        <ele>186</ele>
        <time>2017-05-03T08:38:23Z</time>
      </trkpt>
      <trkpt lat="45.9577" lon="4.76391">
        <ele>186</ele>
        <time>2017-05-03T08:38:24Z</time>
      </trkpt>
      <trkpt lat="45.9577" lon="4.76399">
        <ele>186</ele>
        <time>2017-05-03T08:38:25Z</time>
      </trkpt>
      <trkpt lat="45.95771" lon="4.76406">
        <ele>186</ele>
        <time>2017-05-03T08:38:26Z</time>
      </trkpt>
      <trkpt lat="45.95771" lon="4.76413">
        <ele>186</ele>
        <time>2017-05-03T08:38:27Z</time>
      </trkpt>
      <trkpt lat="45.95772" lon="4.7642">
        <ele>186</ele>
        <time>2017-05-03T08:38:28Z</time>
      </trkpt>
      <trkpt lat="45.95772" lon="4.76427">
        <ele>186</ele>
        <time>2017-05-03T08:38:29Z</time>
      </trkpt>
      <trkpt lat="45.95773" lon="4.76434">
        <ele>186</ele>
        <time>2017-05-03T08:38:30Z</time>
      </trkpt>
      <trkpt lat="45.95774" lon="4.76441">
        <ele>186</ele>
        <time>2017-05-03T08:38:31Z</time>
      </trkpt>
      <trkpt lat="45.95775" lon="4.76447">
        <ele>186</ele>
        <time>2017-05-03T08:38:32Z</time>
      </trkpt>
      <trkpt lat="45.95775" lon="4.76454">
        <ele>186</ele>
        <time>2017-05-03T08:38:33Z</time>
      </trkpt>
      <trkpt lat="45.95776" lon="4.76461">
        <ele>186</ele>
        <time>2017-05-03T08:38:34Z</time>
      </trkpt>
      <trkpt lat="45.95778" lon="4.76468">
        <ele>186</ele>
        <time>2017-05-03T08:38:35Z</time>
      </trkpt>
      <trkpt lat="45.95779" lon="4.76474">
        <ele>186</ele>
        <time>2017-05-03T08:38:36Z</time>
      </trkpt>
      <trkpt lat="45.95779" lon="4.76481">
        <ele>186</ele>
        <time>2017-05-03T08:38:37Z</time>
      </trkpt>
      <trkpt lat="45.9578" lon="4.76488">
        <ele>186</ele>
        <time>2017-05-03T08:38:38Z</time>
      </trkpt>
      <trkpt lat="45.95781" lon="4.76495">
        <ele>186</ele>
        <time>2017-05-03T08:38:39Z</time>
      </trkpt>
      <trkpt lat="45.95782" lon="4.76502">
        <ele>186</ele>
        <time>2017-05-03T08:38:40Z</time>
      </trkpt>
      <trkpt lat="45.95783" lon="4.76509">
        <ele>186</ele>
        <time>2017-05-03T08:38:41Z</time>
      </trkpt>
      <trkpt lat="45.95784" lon="4.76516">
        <ele>187</ele>
        <time>2017-05-03T08:38:42Z</time>
      </trkpt>
      <trkpt lat="45.95785" lon="4.76523">
        <ele>187</ele>
        <time>2017-05-03T08:38:43Z</time>
      </trkpt>
      <trkpt lat="45.95786" lon="4.7653">
        <ele>187</ele>
        <time>2017-05-03T08:38:44Z</time>
      </trkpt>
      <trkpt lat="45.95787" lon="4.76536">
        <ele>187</ele>
        <time>2017-05-03T08:38:45Z</time>
      </trkpt>
      <trkpt lat="45.95788" lon="4.76543">
        <ele>187</ele>
        <time>2017-05-03T08:38:46Z</time>
      </trkpt>
      <trkpt lat="45.95789" lon="4.7655">
        <ele>187</ele>
        <time>2017-05-03T08:38:47Z</time>
      </trkpt>
      <trkpt lat="45.9579" lon="4.76557">
        <ele>187</ele>
        <time>2017-05-03T08:38:48Z</time>
      </trkpt>
      <trkpt lat="45.95791" lon="4.76564">
        <ele>187</ele>
        <time>2017-05-03T08:38:49Z</time>
      </trkpt>
      <trkpt lat="45.95792" lon="4.76572">
        <ele>187</ele>
        <time>2017-05-03T08:38:50Z</time>
      </trkpt>
      <trkpt lat="45.95794" lon="4.76579">
        <ele>187</ele>
        <time>2017-05-03T08:38:51Z</time>
      </trkpt>
      <trkpt lat="45.95795" lon="4.76587">
        <ele>187</ele>
        <time>2017-05-03T08:38:52Z</time>
      </trkpt>
      <trkpt lat="45.95796" lon="4.76594">
        <ele>187</ele>
        <time>2017-05-03T08:38:53Z</time>
      </trkpt>
      <trkpt lat="45.95797" lon="4.76602">
        <ele>187</ele>
        <time>2017-05-03T08:38:54Z</time>
      </trkpt>
      <trkpt lat="45.95798" lon="4.76609">
        <ele>187</ele>
        <time>2017-05-03T08:38:55Z</time>
      </trkpt>
      <trkpt lat="45.95799" lon="4.76615">
        <ele>188</ele>
        <time>2017-05-03T08:38:56Z</time>
      </trkpt>
      <trkpt lat="45.958" lon="4.76622">
        <ele>188</ele>
        <time>2017-05-03T08:38:57Z</time>
      </trkpt>
      <trkpt lat="45.95801" lon="4.76629">
        <ele>188</ele>
        <time>2017-05-03T08:38:58Z</time>
      </trkpt>
      <trkpt lat="45.95802" lon="4.76636">
        <ele>188</ele>
        <time>2017-05-03T08:38:59Z</time>
      </trkpt>
      <trkpt lat="45.95803" lon="4.76642">
        <ele>188</ele>
        <time>2017-05-03T08:39:00Z</time>
      </trkpt>
      <trkpt lat="45.95804" lon="4.76649">
        <ele>188</ele>
        <time>2017-05-03T08:39:01Z</time>
      </trkpt>
      <trkpt lat="45.95805" lon="4.76655">
        <ele>188</ele>
        <time>2017-05-03T08:39:02Z</time>
      </trkpt>
      <trkpt lat="45.95806" lon="4.76662">
        <ele>188</ele>
        <time>2017-05-03T08:39:03Z</time>
      </trkpt>
      <trkpt lat="45.95807" lon="4.76669">
        <ele>189</ele>
        <time>2017-05-03T08:39:04Z</time>
      </trkpt>
      <trkpt lat="45.95808" lon="4.76676">
        <ele>189</ele>
        <time>2017-05-03T08:39:05Z</time>
      </trkpt>
      <trkpt lat="45.95809" lon="4.76683">
        <ele>189</ele>
        <time>2017-05-03T08:39:06Z</time>
      </trkpt>
      <trkpt lat="45.9581" lon="4.76689">
        <ele>189</ele>
        <time>2017-05-03T08:39:07Z</time>
      </trkpt>
      <trkpt lat="45.95811" lon="4.76696">
        <ele>189</ele>
        <time>2017-05-03T08:39:08Z</time>
      </trkpt>
      <trkpt lat="45.95812" lon="4.76703">
        <ele>189</ele>
        <time>2017-05-03T08:39:09Z</time>
      </trkpt>
      <trkpt lat="45.95813" lon="4.7671">
        <ele>189</ele>
        <time>2017-05-03T08:39:10Z</time>
      </trkpt>
      <trkpt lat="45.95814" lon="4.76717">
        <ele>189</ele>
        <time>2017-05-03T08:39:11Z</time>
      </trkpt>
      <trkpt lat="45.95815" lon="4.76724">
        <ele>189</ele>
        <time>2017-05-03T08:39:12Z</time>
      </trkpt>
      <trkpt lat="45.95816" lon="4.76731">
        <ele>190</ele>
        <time>2017-05-03T08:39:13Z</time>
      </trkpt>
      <trkpt lat="45.95817" lon="4.76738">
        <ele>190</ele>
        <time>2017-05-03T08:39:14Z</time>
      </trkpt>
      <trkpt lat="45.95818" lon="4.76745">
        <ele>190</ele>
        <time>2017-05-03T08:39:15Z</time>
      </trkpt>
      <trkpt lat="45.9582" lon="4.76758">
        <ele>190</ele>
        <time>2017-05-03T08:39:17Z</time>
      </trkpt>
      <trkpt lat="45.95821" lon="4.76763">
        <ele>190</ele>
        <time>2017-05-03T08:39:18Z</time>
      </trkpt>
      <trkpt lat="45.95823" lon="4.76776">
        <ele>190</ele>
        <time>2017-05-03T08:39:20Z</time>
      </trkpt>
      <trkpt lat="45.95824" lon="4.76782">
        <ele>190</ele>
        <time>2017-05-03T08:39:21Z</time>
      </trkpt>
      <trkpt lat="45.95824" lon="4.7679">
        <ele>190</ele>
        <time>2017-05-03T08:39:22Z</time>
      </trkpt>
      <trkpt lat="45.95825" lon="4.76798">
        <ele>190</ele>
        <time>2017-05-03T08:39:23Z</time>
      </trkpt>
      <trkpt lat="45.95825" lon="4.76806">
        <ele>190</ele>
        <time>2017-05-03T08:39:24Z</time>
      </trkpt>
      <trkpt lat="45.95825" lon="4.76814">
        <ele>190</ele>
        <time>2017-05-03T08:39:25Z</time>
      </trkpt>
      <trkpt lat="45.95825" lon="4.76822">
        <ele>190</ele>
        <time>2017-05-03T08:39:26Z</time>
      </trkpt>
      <trkpt lat="45.95824" lon="4.7683">
        <ele>190</ele>
        <time>2017-05-03T08:39:27Z</time>
      </trkpt>
      <trkpt lat="45.95823" lon="4.76838">
        <ele>190</ele>
        <time>2017-05-03T08:39:28Z</time>
      </trkpt>
      <trkpt lat="45.95822" lon="4.76846">
        <ele>190</ele>
        <time>2017-05-03T08:39:29Z</time>
      </trkpt>
      <trkpt lat="45.95821" lon="4.76853">
        <ele>189</ele>
        <time>2017-05-03T08:39:30Z</time>
      </trkpt>
      <trkpt lat="45.9582" lon="4.7686">
        <ele>189</ele>
        <time>2017-05-03T08:39:31Z</time>
      </trkpt>
      <trkpt lat="45.95818" lon="4.76868">
        <ele>189</ele>
        <time>2017-05-03T08:39:32Z</time>
      </trkpt>
      <trkpt lat="45.95817" lon="4.76875">
        <ele>189</ele>
        <time>2017-05-03T08:39:33Z</time>
      </trkpt>
      <trkpt lat="45.95815" lon="4.76882">
        <ele>189</ele>
        <time>2017-05-03T08:39:34Z</time>
      </trkpt>
      <trkpt lat="45.95814" lon="4.76889">
        <ele>189</ele>
        <time>2017-05-03T08:39:35Z</time>
      </trkpt>
      <trkpt lat="45.95812" lon="4.76896">
        <ele>189</ele>
        <time>2017-05-03T08:39:36Z</time>
      </trkpt>
      <trkpt lat="45.95811" lon="4.76904">
        <ele>189</ele>
        <time>2017-05-03T08:39:37Z</time>
      </trkpt>
      <trkpt lat="45.9581" lon="4.76911">
        <ele>189</ele>
        <time>2017-05-03T08:39:38Z</time>
      </trkpt>
      <trkpt lat="45.95808" lon="4.76918">
        <ele>189</ele>
        <time>2017-05-03T08:39:39Z</time>
      </trkpt>
      <trkpt lat="45.95806" lon="4.76926">
        <ele>189</ele>
        <time>2017-05-03T08:39:40Z</time>
      </trkpt>
      <trkpt lat="45.95805" lon="4.76933">
        <ele>189</ele>
        <time>2017-05-03T08:39:41Z</time>
      </trkpt>
      <trkpt lat="45.95803" lon="4.7694">
        <ele>189</ele>
        <time>2017-05-03T08:39:42Z</time>
      </trkpt>
      <trkpt lat="45.95802" lon="4.76947">
        <ele>189</ele>
        <time>2017-05-03T08:39:43Z</time>
      </trkpt>
      <trkpt lat="45.958" lon="4.76954">
        <ele>189</ele>
        <time>2017-05-03T08:39:44Z</time>
      </trkpt>
      <trkpt lat="45.95799" lon="4.76961">
        <ele>189</ele>
        <time>2017-05-03T08:39:45Z</time>
      </trkpt>
      <trkpt lat="45.95798" lon="4.76968">
        <ele>189</ele>
        <time>2017-05-03T08:39:46Z</time>
      </trkpt>
      <trkpt lat="45.95797" lon="4.76975">
        <ele>189</ele>
        <time>2017-05-03T08:39:47Z</time>
      </trkpt>
      <trkpt lat="45.95796" lon="4.76982">
        <ele>189</ele>
        <time>2017-05-03T08:39:48Z</time>
      </trkpt>
      <trkpt lat="45.95796" lon="4.76989">
        <ele>189</ele>
        <time>2017-05-03T08:39:49Z</time>
      </trkpt>
      <trkpt lat="45.95795" lon="4.76996">
        <ele>189</ele>
        <time>2017-05-03T08:39:50Z</time>
      </trkpt>
      <trkpt lat="45.95796" lon="4.77003">
        <ele>190</ele>
        <time>2017-05-03T08:39:51Z</time>
      </trkpt>
      <trkpt lat="45.95796" lon="4.77011">
        <ele>190</ele>
        <time>2017-05-03T08:39:52Z</time>
      </trkpt>
      <trkpt lat="45.95797" lon="4.77017">
        <ele>190</ele>
        <time>2017-05-03T08:39:53Z</time>
      </trkpt>
      <trkpt lat="45.95799" lon="4.77024">
        <ele>190</ele>
        <time>2017-05-03T08:39:54Z</time>
      </trkpt>
      <trkpt lat="45.95801" lon="4.77031">
        <ele>190</ele>
        <time>2017-05-03T08:39:55Z</time>
      </trkpt>
      <trkpt lat="45.95803" lon="4.77037">
        <ele>190</ele>
        <time>2017-05-03T08:39:56Z</time>
      </trkpt>
      <trkpt lat="45.95805" lon="4.77043">
        <ele>190</ele>
        <time>2017-05-03T08:39:57Z</time>
      </trkpt>
      <trkpt lat="45.95808" lon="4.77049">
        <ele>190</ele>
        <time>2017-05-03T08:39:58Z</time>
      </trkpt>
      <trkpt lat="45.95811" lon="4.77054">
        <ele>190</ele>
        <time>2017-05-03T08:39:59Z</time>
      </trkpt>
      <trkpt lat="45.95814" lon="4.7706">
        <ele>190</ele>
        <time>2017-05-03T08:40:00Z</time>
      </trkpt>
      <trkpt lat="45.95817" lon="4.77066">
        <ele>190</ele>
        <time>2017-05-03T08:40:01Z</time>
      </trkpt>
      <trkpt lat="45.9582" lon="4.77072">
        <ele>191</ele>
        <time>2017-05-03T08:40:02Z</time>
      </trkpt>
      <trkpt lat="45.95823" lon="4.77079">
        <ele>191</ele>
        <time>2017-05-03T08:40:03Z</time>
      </trkpt>
      <trkpt lat="45.95825" lon="4.77085">
        <ele>191</ele>
        <time>2017-05-03T08:40:04Z</time>
      </trkpt>
      <trkpt lat="45.95828" lon="4.77091">
        <ele>191</ele>
        <time>2017-05-03T08:40:05Z</time>
      </trkpt>
      <trkpt lat="45.9583" lon="4.77097">
        <ele>191</ele>
        <time>2017-05-03T08:40:06Z</time>
      </trkpt>
      <trkpt lat="45.95833" lon="4.77104">
        <ele>190</ele>
        <time>2017-05-03T08:40:07Z</time>
      </trkpt>
      <trkpt lat="45.95834" lon="4.7711">
        <ele>193</ele>
        <time>2017-05-03T08:40:08Z</time>
      </trkpt>
      <trkpt lat="45.95836" lon="4.77116">
        <ele>193</ele>
        <time>2017-05-03T08:40:09Z</time>
      </trkpt>
      <trkpt lat="45.95838" lon="4.77122">
        <ele>193</ele>
        <time>2017-05-03T08:40:10Z</time>
      </trkpt>
      <trkpt lat="45.9584" lon="4.77128">
        <ele>193</ele>
        <time>2017-05-03T08:40:11Z</time>
      </trkpt>
      <trkpt lat="45.95842" lon="4.77135">
        <ele>193</ele>
        <time>2017-05-03T08:40:12Z</time>
      </trkpt>
      <trkpt lat="45.95844" lon="4.77141">
        <ele>192</ele>
        <time>2017-05-03T08:40:13Z</time>
      </trkpt>
      <trkpt lat="45.95846" lon="4.77148">
        <ele>192</ele>
        <time>2017-05-03T08:40:14Z</time>
      </trkpt>
      <trkpt lat="45.95847" lon="4.77154">
        <ele>192</ele>
        <time>2017-05-03T08:40:15Z</time>
      </trkpt>
      <trkpt lat="45.95849" lon="4.7716">
        <ele>192</ele>
        <time>2017-05-03T08:40:16Z</time>
      </trkpt>
      <trkpt lat="45.9585" lon="4.77167">
        <ele>192</ele>
        <time>2017-05-03T08:40:17Z</time>
      </trkpt>
      <trkpt lat="45.95852" lon="4.77173">
        <ele>192</ele>
        <time>2017-05-03T08:40:18Z</time>
      </trkpt>
      <trkpt lat="45.95854" lon="4.7718">
        <ele>192</ele>
        <time>2017-05-03T08:40:19Z</time>
      </trkpt>
      <trkpt lat="45.95856" lon="4.77187">
        <ele>192</ele>
        <time>2017-05-03T08:40:20Z</time>
      </trkpt>
      <trkpt lat="45.95858" lon="4.77193">
        <ele>192</ele>
        <time>2017-05-03T08:40:21Z</time>
      </trkpt>
      <trkpt lat="45.95859" lon="4.772">
        <ele>192</ele>
        <time>2017-05-03T08:40:22Z</time>
      </trkpt>
      <trkpt lat="45.95861" lon="4.77207">
        <ele>192</ele>
        <time>2017-05-03T08:40:23Z</time>
      </trkpt>
      <trkpt lat="45.95863" lon="4.77214">
        <ele>192</ele>
        <time>2017-05-03T08:40:24Z</time>
      </trkpt>
      <trkpt lat="45.95864" lon="4.7722">
        <ele>192</ele>
        <time>2017-05-03T08:40:25Z</time>
      </trkpt>
      <trkpt lat="45.95865" lon="4.77227">
        <ele>192</ele>
        <time>2017-05-03T08:40:26Z</time>
      </trkpt>
      <trkpt lat="45.95867" lon="4.77234">
        <ele>193</ele>
        <time>2017-05-03T08:40:27Z</time>
      </trkpt>
      <trkpt lat="45.95869" lon="4.7724">
        <ele>193</ele>
        <time>2017-05-03T08:40:28Z</time>
      </trkpt>
      <trkpt lat="45.9587" lon="4.77247">
        <ele>193</ele>
        <time>2017-05-03T08:40:29Z</time>
      </trkpt>
      <trkpt lat="45.95871" lon="4.77253">
        <ele>192</ele>
        <time>2017-05-03T08:40:30Z</time>
      </trkpt>
      <trkpt lat="45.95873" lon="4.7726">
        <ele>192</ele>
        <time>2017-05-03T08:40:31Z</time>
      </trkpt>
      <trkpt lat="45.95874" lon="4.77266">
        <ele>193</ele>
        <time>2017-05-03T08:40:32Z</time>
      </trkpt>
      <trkpt lat="45.95876" lon="4.77273">
        <ele>193</ele>
        <time>2017-05-03T08:40:33Z</time>
      </trkpt>
      <trkpt lat="45.95877" lon="4.7728">
        <ele>193</ele>
        <time>2017-05-03T08:40:34Z</time>
      </trkpt>
      <trkpt lat="45.95878" lon="4.77287">
        <ele>193</ele>
        <time>2017-05-03T08:40:35Z</time>
      </trkpt>
      <trkpt lat="45.9588" lon="4.77293">
        <ele>193</ele>
        <time>2017-05-03T08:40:36Z</time>
      </trkpt>
      <trkpt lat="45.95882" lon="4.773">
        <ele>193</ele>
        <time>2017-05-03T08:40:37Z</time>
      </trkpt>
      <trkpt lat="45.95883" lon="4.77306">
        <ele>193</ele>
        <time>2017-05-03T08:40:38Z</time>
      </trkpt>
      <trkpt lat="45.95885" lon="4.77313">
        <ele>193</ele>
        <time>2017-05-03T08:40:39Z</time>
      </trkpt>
      <trkpt lat="45.95886" lon="4.77319">
        <ele>193</ele>
        <time>2017-05-03T08:40:40Z</time>
      </trkpt>
      <trkpt lat="45.95888" lon="4.77325">
        <ele>193</ele>
        <time>2017-05-03T08:40:41Z</time>
      </trkpt>
      <trkpt lat="45.95892" lon="4.77336">
        <ele>193</ele>
        <time>2017-05-03T08:40:43Z</time>
      </trkpt>
      <trkpt lat="45.95894" lon="4.77342">
        <ele>193</ele>
        <time>2017-05-03T08:40:44Z</time>
      </trkpt>
      <trkpt lat="45.95898" lon="4.77353">
        <ele>193</ele>
        <time>2017-05-03T08:40:46Z</time>
      </trkpt>
      <trkpt lat="45.959" lon="4.77358">
        <ele>193</ele>
        <time>2017-05-03T08:40:47Z</time>
      </trkpt>
      <trkpt lat="45.95902" lon="4.77364">
        <ele>193</ele>
        <time>2017-05-03T08:40:48Z</time>
      </trkpt>
      <trkpt lat="45.95905" lon="4.7737">
        <ele>193</ele>
        <time>2017-05-03T08:40:49Z</time>
      </trkpt>
      <trkpt lat="45.95907" lon="4.77376">
        <ele>193</ele>
        <time>2017-05-03T08:40:50Z</time>
      </trkpt>
      <trkpt lat="45.95909" lon="4.77383">
        <ele>193</ele>
        <time>2017-05-03T08:40:51Z</time>
      </trkpt>
      <trkpt lat="45.95911" lon="4.7739">
        <ele>193</ele>
        <time>2017-05-03T08:40:52Z</time>
      </trkpt>
      <trkpt lat="45.95913" lon="4.77396">
        <ele>193</ele>
        <time>2017-05-03T08:40:53Z</time>
      </trkpt>
      <trkpt lat="45.95915" lon="4.77401">
        <ele>193</ele>
        <time>2017-05-03T08:40:54Z</time>
      </trkpt>
      <trkpt lat="45.95917" lon="4.77408">
        <ele>195</ele>
        <time>2017-05-03T08:40:55Z</time>
      </trkpt>
      <trkpt lat="45.95919" lon="4.77413">
        <ele>195</ele>
        <time>2017-05-03T08:40:56Z</time>
      </trkpt>
      <trkpt lat="45.95921" lon="4.77419">
        <ele>194</ele>
        <time>2017-05-03T08:40:57Z</time>
      </trkpt>
      <trkpt lat="45.95925" lon="4.7743">
        <ele>195</ele>
        <time>2017-05-03T08:40:59Z</time>
      </trkpt>
      <trkpt lat="45.95927" lon="4.77436">
        <ele>195</ele>
        <time>2017-05-03T08:41:00Z</time>
      </trkpt>
      <trkpt lat="45.9593" lon="4.77446">
        <ele>195</ele>
        <time>2017-05-03T08:41:02Z</time>
      </trkpt>
      <trkpt lat="45.95931" lon="4.77452">
        <ele>195</ele>
        <time>2017-05-03T08:41:03Z</time>
      </trkpt>
      <trkpt lat="45.95935" lon="4.77463">
        <ele>195</ele>
        <time>2017-05-03T08:41:05Z</time>
      </trkpt>
      <trkpt lat="45.95937" lon="4.77469">
        <ele>195</ele>
        <time>2017-05-03T08:41:06Z</time>
      </trkpt>
      <trkpt lat="45.95939" lon="4.77475">
        <ele>195</ele>
        <time>2017-05-03T08:41:07Z</time>
      </trkpt>
      <trkpt lat="45.95941" lon="4.77481">
        <ele>195</ele>
        <time>2017-05-03T08:41:08Z</time>
      </trkpt>
      <trkpt lat="45.95943" lon="4.77487">
        <ele>195</ele>
        <time>2017-05-03T08:41:09Z</time>
      </trkpt>
      <trkpt lat="45.95945" lon="4.77492">
        <ele>195</ele>
        <time>2017-05-03T08:41:10Z</time>
      </trkpt>
      <trkpt lat="45.95949" lon="4.77503">
        <ele>194</ele>
        <time>2017-05-03T08:41:12Z</time>
      </trkpt>
      <trkpt lat="45.95952" lon="4.77507">
        <ele>194</ele>
        <time>2017-05-03T08:41:13Z</time>
      </trkpt>
      <trkpt lat="45.95956" lon="4.77517">
        <ele>195</ele>
        <time>2017-05-03T08:41:15Z</time>
      </trkpt>
      <trkpt lat="45.95958" lon="4.77522">
        <ele>195</ele>
        <time>2017-05-03T08:41:16Z</time>
      </trkpt>
      <trkpt lat="45.95962" lon="4.77531">
        <ele>195</ele>
        <time>2017-05-03T08:41:18Z</time>
      </trkpt>
      <trkpt lat="45.95965" lon="4.77536">
        <ele>195</ele>
        <time>2017-05-03T08:41:19Z</time>
      </trkpt>
      <trkpt lat="45.95969" lon="4.77544">
        <ele>195</ele>
        <time>2017-05-03T08:41:21Z</time>
      </trkpt>
      <trkpt lat="45.95971" lon="4.77548">
        <ele>195</ele>
        <time>2017-05-03T08:41:22Z</time>
      </trkpt>
      <trkpt lat="45.95974" lon="4.77557">
        <ele>195</ele>
        <time>2017-05-03T08:41:24Z</time>
      </trkpt>
      <trkpt lat="45.95977" lon="4.77562">
        <ele>195</ele>
        <time>2017-05-03T08:41:25Z</time>
      </trkpt>
      <trkpt lat="45.95981" lon="4.77573">
        <ele>196</ele>
        <time>2017-05-03T08:41:27Z</time>
      </trkpt>
      <trkpt lat="45.95983" lon="4.77578">
        <ele>196</ele>
        <time>2017-05-03T08:41:28Z</time>
      </trkpt>
      <trkpt lat="45.95985" lon="4.77585">
        <ele>195</ele>
        <time>2017-05-03T08:41:29Z</time>
      </trkpt>
      <trkpt lat="45.95987" lon="4.77591">
        <ele>195</ele>
        <time>2017-05-03T08:41:30Z</time>
      </trkpt>
      <trkpt lat="45.95989" lon="4.77597">
        <ele>195</ele>
        <time>2017-05-03T08:41:31Z</time>
      </trkpt>
      <trkpt lat="45.95993" lon="4.77601">
        <ele>195</ele>
        <time>2017-05-03T08:41:32Z</time>
      </trkpt>
      <trkpt lat="45.95997" lon="4.77605">
        <ele>195</ele>
        <time>2017-05-03T08:41:33Z</time>
      </trkpt>
      <trkpt lat="45.96" lon="4.77609">
        <ele>198</ele>
        <time>2017-05-03T08:41:34Z</time>
      </trkpt>
      <trkpt lat="45.96007" lon="4.77615">
        <ele>199</ele>
        <time>2017-05-03T08:41:36Z</time>
      </trkpt>
      <trkpt lat="45.96011" lon="4.77619">
        <ele>199</ele>
        <time>2017-05-03T08:41:37Z</time>
      </trkpt>
      <trkpt lat="45.96017" lon="4.77627">
        <ele>199</ele>
        <time>2017-05-03T08:41:39Z</time>
      </trkpt>
      <trkpt lat="45.9602" lon="4.77632">
        <ele>199</ele>
        <time>2017-05-03T08:41:40Z</time>
      </trkpt>
      <trkpt lat="45.96027" lon="4.77639">
        <ele>199</ele>
        <time>2017-05-03T08:41:42Z</time>
      </trkpt>
      <trkpt lat="45.96031" lon="4.77642">
        <ele>199</ele>
        <time>2017-05-03T08:41:43Z</time>
      </trkpt>
      <trkpt lat="45.96037" lon="4.7765">
        <ele>199</ele>
        <time>2017-05-03T08:41:45Z</time>
      </trkpt>
      <trkpt lat="45.9604" lon="4.77655">
        <ele>199</ele>
        <time>2017-05-03T08:41:46Z</time>
      </trkpt>
      <trkpt lat="45.96046" lon="4.77663">
        <ele>199</ele>
        <time>2017-05-03T08:41:48Z</time>
      </trkpt>
      <trkpt lat="45.96049" lon="4.77668">
        <ele>197</ele>
        <time>2017-05-03T08:41:49Z</time>
      </trkpt>
      <trkpt lat="45.96056" lon="4.77677">
        <ele>197</ele>
        <time>2017-05-03T08:41:51Z</time>
      </trkpt>
      <trkpt lat="45.96059" lon="4.77681">
        <ele>197</ele>
        <time>2017-05-03T08:41:52Z</time>
      </trkpt>
      <trkpt lat="45.96065" lon="4.7769">
        <ele>197</ele>
        <time>2017-05-03T08:41:54Z</time>
      </trkpt>
      <trkpt lat="45.96068" lon="4.77695">
        <ele>197</ele>
        <time>2017-05-03T08:41:55Z</time>
      </trkpt>
      <trkpt lat="45.96072" lon="4.77699">
        <ele>197</ele>
        <time>2017-05-03T08:41:56Z</time>
      </trkpt>
      <trkpt lat="45.96075" lon="4.77704">
        <ele>197</ele>
        <time>2017-05-03T08:41:57Z</time>
      </trkpt>
      <trkpt lat="45.96077" lon="4.77709">
        <ele>197</ele>
        <time>2017-05-03T08:41:58Z</time>
      </trkpt>
      <trkpt lat="45.9608" lon="4.77714">
        <ele>196</ele>
        <time>2017-05-03T08:41:59Z</time>
      </trkpt>
      <trkpt lat="45.96086" lon="4.77724">
        <ele>199</ele>
        <time>2017-05-03T08:42:01Z</time>
      </trkpt>
      <trkpt lat="45.96089" lon="4.77729">
        <ele>198</ele>
        <time>2017-05-03T08:42:02Z</time>
      </trkpt>
      <trkpt lat="45.96092" lon="4.77734">
        <ele>198</ele>
        <time>2017-05-03T08:42:03Z</time>
      </trkpt>
      <trkpt lat="45.96095" lon="4.77739">
        <ele>198</ele>
        <time>2017-05-03T08:42:04Z</time>
      </trkpt>
      <trkpt lat="45.96101" lon="4.77748">
        <ele>198</ele>
        <time>2017-05-03T08:42:06Z</time>
      </trkpt>
      <trkpt lat="45.96103" lon="4.77753">
        <ele>196</ele>
        <time>2017-05-03T08:42:07Z</time>
      </trkpt>
      <trkpt lat="45.96108" lon="4.77763">
        <ele>197</ele>
        <time>2017-05-03T08:42:09Z</time>
      </trkpt>
      <trkpt lat="45.96111" lon="4.77768">
        <ele>197</ele>
        <time>2017-05-03T08:42:10Z</time>
      </trkpt>
      <trkpt lat="45.96117" lon="4.77777">
        <ele>197</ele>
        <time>2017-05-03T08:42:12Z</time>
      </trkpt>
      <trkpt lat="45.9612" lon="4.77782">
        <ele>197</ele>
        <time>2017-05-03T08:42:13Z</time>
      </trkpt>
      <trkpt lat="45.96126" lon="4.7779">
        <ele>197</ele>
        <time>2017-05-03T08:42:15Z</time>
      </trkpt>
      <trkpt lat="45.96129" lon="4.77795">
        <ele>197</ele>
        <time>2017-05-03T08:42:16Z</time>
      </trkpt>
      <trkpt lat="45.96134" lon="4.77804">
        <ele>197</ele>
        <time>2017-05-03T08:42:18Z</time>
      </trkpt>
      <trkpt lat="45.96137" lon="4.77809">
        <ele>197</ele>
        <time>2017-05-03T08:42:19Z</time>
      </trkpt>
      <trkpt lat="45.96143" lon="4.77819">
        <ele>198</ele>
        <time>2017-05-03T08:42:21Z</time>
      </trkpt>
      <trkpt lat="45.96145" lon="4.77824">
        <ele>198</ele>
        <time>2017-05-03T08:42:22Z</time>
      </trkpt>
      <trkpt lat="45.96148" lon="4.7783">
        <ele>198</ele>
        <time>2017-05-03T08:42:23Z</time>
      </trkpt>
      <trkpt lat="45.96151" lon="4.77835">
        <ele>197</ele>
        <time>2017-05-03T08:42:24Z</time>
      </trkpt>
      <trkpt lat="45.96157" lon="4.77844">
        <ele>197</ele>
        <time>2017-05-03T08:42:26Z</time>
      </trkpt>
      <trkpt lat="45.9616" lon="4.77849">
        <ele>196</ele>
        <time>2017-05-03T08:42:27Z</time>
      </trkpt>
      <trkpt lat="45.96163" lon="4.77855">
        <ele>196</ele>
        <time>2017-05-03T08:42:28Z</time>
      </trkpt>
      <trkpt lat="45.96166" lon="4.77861">
        <ele>196</ele>
        <time>2017-05-03T08:42:29Z</time>
      </trkpt>
      <trkpt lat="45.9617" lon="4.77866">
        <ele>201</ele>
        <time>2017-05-03T08:42:30Z</time>
      </trkpt>
      <trkpt lat="45.96173" lon="4.77872">
        <ele>201</ele>
        <time>2017-05-03T08:42:31Z</time>
      </trkpt>
      <trkpt lat="45.96177" lon="4.77878">
        <ele>201</ele>
        <time>2017-05-03T08:42:32Z</time>
      </trkpt>
      <trkpt lat="45.9618" lon="4.77883">
        <ele>201</ele>
        <time>2017-05-03T08:42:33Z</time>
      </trkpt>
      <trkpt lat="45.96183" lon="4.77888">
        <ele>201</ele>
        <time>2017-05-03T08:42:34Z</time>
      </trkpt>
      <trkpt lat="45.96186" lon="4.77893">
        <ele>200</ele>
        <time>2017-05-03T08:42:35Z</time>
      </trkpt>
      <trkpt lat="45.96189" lon="4.77898">
        <ele>200</ele>
        <time>2017-05-03T08:42:36Z</time>
      </trkpt>
      <trkpt lat="45.96191" lon="4.77903">
        <ele>200</ele>
        <time>2017-05-03T08:42:37Z</time>
      </trkpt>
      <trkpt lat="45.96195" lon="4.77908">
        <ele>201</ele>
        <time>2017-05-03T08:42:38Z</time>
      </trkpt>
      <trkpt lat="45.96198" lon="4.77914">
        <ele>201</ele>
        <time>2017-05-03T08:42:39Z</time>
      </trkpt>
      <trkpt lat="45.96201" lon="4.77919">
        <ele>198</ele>
        <time>2017-05-03T08:42:40Z</time>
      </trkpt>
      <trkpt lat="45.96205" lon="4.77924">
        <ele>198</ele>
        <time>2017-05-03T08:42:41Z</time>
      </trkpt>
      <trkpt lat="45.96208" lon="4.77929">
        <ele>199</ele>
        <time>2017-05-03T08:42:42Z</time>
      </trkpt>
      <trkpt lat="45.96211" lon="4.77934">
        <ele>199</ele>
        <time>2017-05-03T08:42:43Z</time>
      </trkpt>
      <trkpt lat="45.96215" lon="4.77939">
        <ele>199</ele>
        <time>2017-05-03T08:42:44Z</time>
      </trkpt>
      <trkpt lat="45.96218" lon="4.77943">
        <ele>199</ele>
        <time>2017-05-03T08:42:45Z</time>
      </trkpt>
      <trkpt lat="45.96222" lon="4.77948">
        <ele>199</ele>
        <time>2017-05-03T08:42:46Z</time>
      </trkpt>
      <trkpt lat="45.96225" lon="4.77952">
        <ele>199</ele>
        <time>2017-05-03T08:42:47Z</time>
      </trkpt>
      <trkpt lat="45.96229" lon="4.77956">
        <ele>199</ele>
        <time>2017-05-03T08:42:48Z</time>
      </trkpt>
      <trkpt lat="45.96233" lon="4.7796">
        <ele>199</ele>
        <time>2017-05-03T08:42:49Z</time>
      </trkpt>
      <trkpt lat="45.96237" lon="4.77965">
        <ele>199</ele>
        <time>2017-05-03T08:42:50Z</time>
      </trkpt>
      <trkpt lat="45.96241" lon="4.77969">
        <ele>198</ele>
        <time>2017-05-03T08:42:51Z</time>
      </trkpt>
      <trkpt lat="45.96245" lon="4.77973">
        <ele>198</ele>
        <time>2017-05-03T08:42:52Z</time>
      </trkpt>
      <trkpt lat="45.96249" lon="4.77977">
        <ele>198</ele>
        <time>2017-05-03T08:42:53Z</time>
      </trkpt>
      <trkpt lat="45.96253" lon="4.77981">
        <ele>202</ele>
        <time>2017-05-03T08:42:54Z</time>
      </trkpt>
      <trkpt lat="45.96257" lon="4.77985">
        <ele>201</ele>
        <time>2017-05-03T08:42:55Z</time>
      </trkpt>
      <trkpt lat="45.96265" lon="4.77991">
        <ele>201</ele>
        <time>2017-05-03T08:42:57Z</time>
      </trkpt>
      <trkpt lat="45.96269" lon="4.77995">
        <ele>202</ele>
        <time>2017-05-03T08:42:58Z</time>
      </trkpt>
      <trkpt lat="45.96273" lon="4.77998">
        <ele>202</ele>
        <time>2017-05-03T08:42:59Z</time>
      </trkpt>
      <trkpt lat="45.96278" lon="4.78002">
        <ele>198</ele>
        <time>2017-05-03T08:43:00Z</time>
      </trkpt>
      <trkpt lat="45.96282" lon="4.78005">
        <ele>198</ele>
        <time>2017-05-03T08:43:01Z</time>
      </trkpt>
      <trkpt lat="45.96286" lon="4.78009">
        <ele>199</ele>
        <time>2017-05-03T08:43:02Z</time>
      </trkpt>
      <trkpt lat="45.96289" lon="4.78013">
        <ele>199</ele>
        <time>2017-05-03T08:43:03Z</time>
      </trkpt>
      <trkpt lat="45.96293" lon="4.78017">
        <ele>199</ele>
        <time>2017-05-03T08:43:04Z</time>
      </trkpt>
      <trkpt lat="45.96298" lon="4.78023">
        <ele>199</ele>
        <time>2017-05-03T08:43:05Z</time>
      </trkpt>
      <trkpt lat="45.96304" lon="4.7803">
        <ele>199</ele>
        <time>2017-05-03T08:43:06Z</time>
      </trkpt>
      <trkpt lat="45.96309" lon="4.78036">
        <ele>199</ele>
        <time>2017-05-03T08:43:07Z</time>
      </trkpt>
      <trkpt lat="45.96313" lon="4.78042">
        <ele>199</ele>
        <time>2017-05-03T08:43:08Z</time>
      </trkpt>
      <trkpt lat="45.96318" lon="4.78047">
        <ele>199</ele>
        <time>2017-05-03T08:43:09Z</time>
      </trkpt>
      <trkpt lat="45.96322" lon="4.78053">
        <ele>199</ele>
        <time>2017-05-03T08:43:10Z</time>
      </trkpt>
      <trkpt lat="45.96326" lon="4.78059">
        <ele>199</ele>
        <time>2017-05-03T08:43:11Z</time>
      </trkpt>
      <trkpt lat="45.9633" lon="4.78065">
        <ele>198</ele>
        <time>2017-05-03T08:43:12Z</time>
      </trkpt>
      <trkpt lat="45.96335" lon="4.7807">
        <ele>200</ele>
        <time>2017-05-03T08:43:13Z</time>
      </trkpt>
      <trkpt lat="45.96338" lon="4.78075">
        <ele>200</ele>
        <time>2017-05-03T08:43:14Z</time>
      </trkpt>
      <trkpt lat="45.96342" lon="4.78079">
        <ele>200</ele>
        <time>2017-05-03T08:43:15Z</time>
      </trkpt>
      <trkpt lat="45.96345" lon="4.78083">
        <ele>200</ele>
        <time>2017-05-03T08:43:16Z</time>
      </trkpt>
      <trkpt lat="45.96349" lon="4.78088">
        <ele>199</ele>
        <time>2017-05-03T08:43:17Z</time>
      </trkpt>
      <trkpt lat="45.96353" lon="4.78091">
        <ele>199</ele>
        <time>2017-05-03T08:43:18Z</time>
      </trkpt>
      <trkpt lat="45.96357" lon="4.78096">
        <ele>199</ele>
        <time>2017-05-03T08:43:19Z</time>
      </trkpt>
      <trkpt lat="45.9636" lon="4.781">
        <ele>199</ele>
        <time>2017-05-03T08:43:20Z</time>
      </trkpt>
      <trkpt lat="45.96365" lon="4.78104">
        <ele>199</ele>
        <time>2017-05-03T08:43:21Z</time>
      </trkpt>
      <trkpt lat="45.96369" lon="4.78108">
        <ele>199</ele>
        <time>2017-05-03T08:43:22Z</time>
      </trkpt>
      <trkpt lat="45.96373" lon="4.78111">
        <ele>199</ele>
        <time>2017-05-03T08:43:23Z</time>
      </trkpt>
      <trkpt lat="45.96378" lon="4.78114">
        <ele>199</ele>
        <time>2017-05-03T08:43:24Z</time>
      </trkpt>
      <trkpt lat="45.96382" lon="4.78117">
        <ele>199</ele>
        <time>2017-05-03T08:43:25Z</time>
      </trkpt>
      <trkpt lat="45.96386" lon="4.78121">
        <ele>199</ele>
        <time>2017-05-03T08:43:26Z</time>
      </trkpt>
      <trkpt lat="45.9639" lon="4.78125">
        <ele>199</ele>
        <time>2017-05-03T08:43:27Z</time>
      </trkpt>
      <trkpt lat="45.96394" lon="4.78129">
        <ele>199</ele>
        <time>2017-05-03T08:43:28Z</time>
      </trkpt>
      <trkpt lat="45.96397" lon="4.78132">
        <ele>199</ele>
        <time>2017-05-03T08:43:29Z</time>
      </trkpt>
      <trkpt lat="45.96402" lon="4.78136">
        <ele>199</ele>
        <time>2017-05-03T08:43:30Z</time>
      </trkpt>
      <trkpt lat="45.96406" lon="4.78139">
        <ele>199</ele>
        <time>2017-05-03T08:43:31Z</time>
      </trkpt>
      <trkpt lat="45.9641" lon="4.78142">
        <ele>199</ele>
        <time>2017-05-03T08:43:32Z</time>
      </trkpt>
      <trkpt lat="45.96414" lon="4.78145">
        <ele>199</ele>
        <time>2017-05-03T08:43:33Z</time>
      </trkpt>
      <trkpt lat="45.96418" lon="4.78149">
        <ele>202</ele>
        <time>2017-05-03T08:43:34Z</time>
      </trkpt>
      <trkpt lat="45.96423" lon="4.78152">
        <ele>201</ele>
        <time>2017-05-03T08:43:35Z</time>
      </trkpt>
      <trkpt lat="45.96427" lon="4.78156">
        <ele>201</ele>
        <time>2017-05-03T08:43:36Z</time>
      </trkpt>
      <trkpt lat="45.9643" lon="4.7816">
        <ele>201</ele>
        <time>2017-05-03T08:43:37Z</time>
      </trkpt>
      <trkpt lat="45.96433" lon="4.78165">
        <ele>202</ele>
        <time>2017-05-03T08:43:38Z</time>
      </trkpt>
      <trkpt lat="45.96437" lon="4.78169">
        <ele>199</ele>
        <time>2017-05-03T08:43:39Z</time>
      </trkpt>
      <trkpt lat="45.96441" lon="4.78173">
        <ele>199</ele>
        <time>2017-05-03T08:43:40Z</time>
      </trkpt>
      <trkpt lat="45.96445" lon="4.78176">
        <ele>199</ele>
        <time>2017-05-03T08:43:41Z</time>
      </trkpt>
      <trkpt lat="45.96449" lon="4.7818">
        <ele>199</ele>
        <time>2017-05-03T08:43:42Z</time>
      </trkpt>
      <trkpt lat="45.96454" lon="4.78183">
        <ele>199</ele>
        <time>2017-05-03T08:43:43Z</time>
      </trkpt>
      <trkpt lat="45.96458" lon="4.78187">
        <ele>200</ele>
        <time>2017-05-03T08:43:44Z</time>
      </trkpt>
      <trkpt lat="45.96462" lon="4.78189">
        <ele>200</ele>
        <time>2017-05-03T08:43:45Z</time>
      </trkpt>
      <trkpt lat="45.96467" lon="4.78191">
        <ele>200</ele>
        <time>2017-05-03T08:43:46Z</time>
      </trkpt>
      <trkpt lat="45.96472" lon="4.78193">
        <ele>200</ele>
        <time>2017-05-03T08:43:47Z</time>
      </trkpt>
      <trkpt lat="45.96476" lon="4.78195">
        <ele>200</ele>
        <time>2017-05-03T08:43:48Z</time>
      </trkpt>
      <trkpt lat="45.96481" lon="4.78197">
        <ele>200</ele>
        <time>2017-05-03T08:43:49Z</time>
      </trkpt>
      <trkpt lat="45.96485" lon="4.782">
        <ele>200</ele>
        <time>2017-05-03T08:43:50Z</time>
      </trkpt>
      <trkpt lat="45.96489" lon="4.78203">
        <ele>200</ele>
        <time>2017-05-03T08:43:51Z</time>
      </trkpt>
      <trkpt lat="45.96493" lon="4.78206">
        <ele>200</ele>
        <time>2017-05-03T08:43:52Z</time>
      </trkpt>
      <trkpt lat="45.96497" lon="4.7821">
        <ele>200</ele>
        <time>2017-05-03T08:43:53Z</time>
      </trkpt>
      <trkpt lat="45.965" lon="4.78214">
        <ele>204</ele>
        <time>2017-05-03T08:43:54Z</time>
      </trkpt>
      <trkpt lat="45.96503" lon="4.78219">
        <ele>204</ele>
        <time>2017-05-03T08:43:55Z</time>
      </trkpt>
      <trkpt lat="45.96507" lon="4.78224">
        <ele>204</ele>
        <time>2017-05-03T08:43:56Z</time>
      </trkpt>
      <trkpt lat="45.9651" lon="4.78229">
        <ele>203</ele>
        <time>2017-05-03T08:43:57Z</time>
      </trkpt>
      <trkpt lat="45.96513" lon="4.78235">
        <ele>203</ele>
        <time>2017-05-03T08:43:58Z</time>
      </trkpt>
      <trkpt lat="45.96516" lon="4.7824">
        <ele>203</ele>
        <time>2017-05-03T08:43:59Z</time>
      </trkpt>
      <trkpt lat="45.96519" lon="4.78245">
        <ele>203</ele>
        <time>2017-05-03T08:44:00Z</time>
      </trkpt>
      <trkpt lat="45.96522" lon="4.7825">
        <ele>203</ele>
        <time>2017-05-03T08:44:01Z</time>
      </trkpt>
      <trkpt lat="45.96526" lon="4.78255">
        <ele>200</ele>
        <time>2017-05-03T08:44:02Z</time>
      </trkpt>
      <trkpt lat="45.96528" lon="4.7826">
        <ele>200</ele>
        <time>2017-05-03T08:44:03Z</time>
      </trkpt>
      <trkpt lat="45.96531" lon="4.78265">
        <ele>200</ele>
        <time>2017-05-03T08:44:04Z</time>
      </trkpt>
      <trkpt lat="45.96535" lon="4.7827">
        <ele>200</ele>
        <time>2017-05-03T08:44:05Z</time>
      </trkpt>
      <trkpt lat="45.96537" lon="4.78275">
        <ele>200</ele>
        <time>2017-05-03T08:44:06Z</time>
      </trkpt>
      <trkpt lat="45.96541" lon="4.78279">
        <ele>200</ele>
        <time>2017-05-03T08:44:07Z</time>
      </trkpt>
      <trkpt lat="45.96545" lon="4.78284">
        <ele>200</ele>
        <time>2017-05-03T08:44:08Z</time>
      </trkpt>
      <trkpt lat="45.96549" lon="4.78289">
        <ele>200</ele>
        <time>2017-05-03T08:44:09Z</time>
      </trkpt>
      <trkpt lat="45.96553" lon="4.78292">
        <ele>200</ele>
        <time>2017-05-03T08:44:10Z</time>
      </trkpt>
      <trkpt lat="45.96557" lon="4.78297">
        <ele>200</ele>
        <time>2017-05-03T08:44:11Z</time>
      </trkpt>
      <trkpt lat="45.9656" lon="4.78301">
        <ele>200</ele>
        <time>2017-05-03T08:44:12Z</time>
      </trkpt>
      <trkpt lat="45.96564" lon="4.78305">
        <ele>200</ele>
        <time>2017-05-03T08:44:13Z</time>
      </trkpt>
      <trkpt lat="45.96567" lon="4.78309">
        <ele>200</ele>
        <time>2017-05-03T08:44:14Z</time>
      </trkpt>
      <trkpt lat="45.96571" lon="4.78313">
        <ele>199</ele>
        <time>2017-05-03T08:44:15Z</time>
      </trkpt>
      <trkpt lat="45.96576" lon="4.78318">
        <ele>199</ele>
        <time>2017-05-03T08:44:16Z</time>
      </trkpt>
      <trkpt lat="45.96579" lon="4.78322">
        <ele>199</ele>
        <time>2017-05-03T08:44:17Z</time>
      </trkpt>
      <trkpt lat="45.96583" lon="4.78326">
        <ele>199</ele>
        <time>2017-05-03T08:44:18Z</time>
      </trkpt>
      <trkpt lat="45.96587" lon="4.7833">
        <ele>200</ele>
        <time>2017-05-03T08:44:19Z</time>
      </trkpt>
      <trkpt lat="45.96591" lon="4.78334">
        <ele>199</ele>
        <time>2017-05-03T08:44:20Z</time>
      </trkpt>
      <trkpt lat="45.96595" lon="4.78338">
        <ele>199</ele>
        <time>2017-05-03T08:44:21Z</time>
      </trkpt>
      <trkpt lat="45.96599" lon="4.78342">
        <ele>200</ele>
        <time>2017-05-03T08:44:22Z</time>
      </trkpt>
      <trkpt lat="45.96604" lon="4.78345">
        <ele>200</ele>
        <time>2017-05-03T08:44:23Z</time>
      </trkpt>
      <trkpt lat="45.96608" lon="4.78349">
        <ele>200</ele>
        <time>2017-05-03T08:44:24Z</time>
      </trkpt>
      <trkpt lat="45.96611" lon="4.78353">
        <ele>200</ele>
        <time>2017-05-03T08:44:25Z</time>
      </trkpt>
      <trkpt lat="45.96615" lon="4.78357">
        <ele>201</ele>
        <time>2017-05-03T08:44:26Z</time>
      </trkpt>
      <trkpt lat="45.96622" lon="4.78363">
        <ele>201</ele>
        <time>2017-05-03T08:44:28Z</time>
      </trkpt>
      <trkpt lat="45.96626" lon="4.78366">
        <ele>201</ele>
        <time>2017-05-03T08:44:29Z</time>
      </trkpt>
      <trkpt lat="45.96633" lon="4.78373">
        <ele>201</ele>
        <time>2017-05-03T08:44:31Z</time>
      </trkpt>
      <trkpt lat="45.96637" lon="4.78377">
        <ele>201</ele>
        <time>2017-05-03T08:44:32Z</time>
      </trkpt>
      <trkpt lat="45.96644" lon="4.78383">
        <ele>201</ele>
        <time>2017-05-03T08:44:34Z</time>
      </trkpt>
      <trkpt lat="45.96648" lon="4.78386">
        <ele>201</ele>
        <time>2017-05-03T08:44:35Z</time>
      </trkpt>
      <trkpt lat="45.96652" lon="4.7839">
        <ele>201</ele>
        <time>2017-05-03T08:44:36Z</time>
      </trkpt>
      <trkpt lat="45.96655" lon="4.78394">
        <ele>201</ele>
        <time>2017-05-03T08:44:37Z</time>
      </trkpt>
      <trkpt lat="45.96659" lon="4.78398">
        <ele>201</ele>
        <time>2017-05-03T08:44:38Z</time>
      </trkpt>
      <trkpt lat="45.96662" lon="4.78403">
        <ele>201</ele>
        <time>2017-05-03T08:44:39Z</time>
      </trkpt>
      <trkpt lat="45.96669" lon="4.78409">
        <ele>203</ele>
        <time>2017-05-03T08:44:41Z</time>
      </trkpt>
      <trkpt lat="45.96673" lon="4.78412">
        <ele>203</ele>
        <time>2017-05-03T08:44:42Z</time>
      </trkpt>
      <trkpt lat="45.9668" lon="4.78417">
        <ele>203</ele>
        <time>2017-05-03T08:44:44Z</time>
      </trkpt>
      <trkpt lat="45.96684" lon="4.7842">
        <ele>202</ele>
        <time>2017-05-03T08:44:45Z</time>
      </trkpt>
      <trkpt lat="45.96691" lon="4.78427">
        <ele>202</ele>
        <time>2017-05-03T08:44:47Z</time>
      </trkpt>
      <trkpt lat="45.96694" lon="4.78431">
        <ele>202</ele>
        <time>2017-05-03T08:44:48Z</time>
      </trkpt>
      <trkpt lat="45.96698" lon="4.78435">
        <ele>203</ele>
        <time>2017-05-03T08:44:49Z</time>
      </trkpt>
      <trkpt lat="45.96702" lon="4.78439">
        <ele>203</ele>
        <time>2017-05-03T08:44:50Z</time>
      </trkpt>
      <trkpt lat="45.96709" lon="4.78446">
        <ele>203</ele>
        <time>2017-05-03T08:44:52Z</time>
      </trkpt>
      <trkpt lat="45.96712" lon="4.7845">
        <ele>203</ele>
        <time>2017-05-03T08:44:53Z</time>
      </trkpt>
      <trkpt lat="45.96717" lon="4.78454">
        <ele>203</ele>
        <time>2017-05-03T08:44:54Z</time>
      </trkpt>
      <trkpt lat="45.96721" lon="4.78458">
        <ele>203</ele>
        <time>2017-05-03T08:44:55Z</time>
      </trkpt>
      <trkpt lat="45.96725" lon="4.78462">
        <ele>203</ele>
        <time>2017-05-03T08:44:56Z</time>
      </trkpt>
      <trkpt lat="45.96729" lon="4.78466">
        <ele>203</ele>
        <time>2017-05-03T08:44:57Z</time>
      </trkpt>
      <trkpt lat="45.96734" lon="4.7847">
        <ele>203</ele>
        <time>2017-05-03T08:44:58Z</time>
      </trkpt>
      <trkpt lat="45.96738" lon="4.78474">
        <ele>203</ele>
        <time>2017-05-03T08:44:59Z</time>
      </trkpt>
      <trkpt lat="45.96743" lon="4.78477">
        <ele>203</ele>
        <time>2017-05-03T08:45:00Z</time>
      </trkpt>
      <trkpt lat="45.96747" lon="4.78482">
        <ele>203</ele>
        <time>2017-05-03T08:45:01Z</time>
      </trkpt>
      <trkpt lat="45.96751" lon="4.78486">
        <ele>204</ele>
        <time>2017-05-03T08:45:02Z</time>
      </trkpt>
      <trkpt lat="45.96755" lon="4.7849">
        <ele>204</ele>
        <time>2017-05-03T08:45:03Z</time>
      </trkpt>
      <trkpt lat="45.96759" lon="4.78495">
        <ele>204</ele>
        <time>2017-05-03T08:45:04Z</time>
      </trkpt>
      <trkpt lat="45.96763" lon="4.78501">
        <ele>203</ele>
        <time>2017-05-03T08:45:05Z</time>
      </trkpt>
      <trkpt lat="45.96767" lon="4.78506">
        <ele>203</ele>
        <time>2017-05-03T08:45:06Z</time>
      </trkpt>
      <trkpt lat="45.9677" lon="4.78511">
        <ele>203</ele>
        <time>2017-05-03T08:45:07Z</time>
      </trkpt>
      <trkpt lat="45.96774" lon="4.78517">
        <ele>203</ele>
        <time>2017-05-03T08:45:08Z</time>
      </trkpt>
      <trkpt lat="45.96777" lon="4.78522">
        <ele>203</ele>
        <time>2017-05-03T08:45:09Z</time>
      </trkpt>
      <trkpt lat="45.96781" lon="4.78528">
        <ele>203</ele>
        <time>2017-05-03T08:45:10Z</time>
      </trkpt>
      <trkpt lat="45.96785" lon="4.78534">
        <ele>203</ele>
        <time>2017-05-03T08:45:11Z</time>
      </trkpt>
      <trkpt lat="45.96788" lon="4.78539">
        <ele>203</ele>
        <time>2017-05-03T08:45:12Z</time>
      </trkpt>
      <trkpt lat="45.96792" lon="4.78543">
        <ele>203</ele>
        <time>2017-05-03T08:45:13Z</time>
      </trkpt>
      <trkpt lat="45.96795" lon="4.78549">
        <ele>203</ele>
        <time>2017-05-03T08:45:14Z</time>
      </trkpt>
      <trkpt lat="45.96799" lon="4.78554">
        <ele>203</ele>
        <time>2017-05-03T08:45:15Z</time>
      </trkpt>
      <trkpt lat="45.96802" lon="4.7856">
        <ele>203</ele>
        <time>2017-05-03T08:45:16Z</time>
      </trkpt>
      <trkpt lat="45.96806" lon="4.78566">
        <ele>203</ele>
        <time>2017-05-03T08:45:17Z</time>
      </trkpt>
      <trkpt lat="45.96809" lon="4.78571">
        <ele>203</ele>
        <time>2017-05-03T08:45:18Z</time>
      </trkpt>
      <trkpt lat="45.96813" lon="4.78576">
        <ele>203</ele>
        <time>2017-05-03T08:45:19Z</time>
      </trkpt>
      <trkpt lat="45.96816" lon="4.78581">
        <ele>203</ele>
        <time>2017-05-03T08:45:20Z</time>
      </trkpt>
      <trkpt lat="45.96819" lon="4.78586">
        <ele>202</ele>
        <time>2017-05-03T08:45:21Z</time>
      </trkpt>
      <trkpt lat="45.96821" lon="4.78592">
        <ele>202</ele>
        <time>2017-05-03T08:45:22Z</time>
      </trkpt>
      <trkpt lat="45.96823" lon="4.78598">
        <ele>202</ele>
        <time>2017-05-03T08:45:23Z</time>
      </trkpt>
      <trkpt lat="45.96825" lon="4.78604">
        <ele>202</ele>
        <time>2017-05-03T08:45:24Z</time>
      </trkpt>
      <trkpt lat="45.96827" lon="4.78611">
        <ele>202</ele>
        <time>2017-05-03T08:45:25Z</time>
      </trkpt>
      <trkpt lat="45.96829" lon="4.78617">
        <ele>202</ele>
        <time>2017-05-03T08:45:26Z</time>
      </trkpt>
      <trkpt lat="45.96831" lon="4.78624">
        <ele>201</ele>
        <time>2017-05-03T08:45:27Z</time>
      </trkpt>
      <trkpt lat="45.96833" lon="4.7863">
        <ele>201</ele>
        <time>2017-05-03T08:45:28Z</time>
      </trkpt>
      <trkpt lat="45.96836" lon="4.78636">
        <ele>203</ele>
        <time>2017-05-03T08:45:29Z</time>
      </trkpt>
      <trkpt lat="45.96839" lon="4.78642">
        <ele>203</ele>
        <time>2017-05-03T08:45:30Z</time>
      </trkpt>
      <trkpt lat="45.96841" lon="4.78648">
        <ele>203</ele>
        <time>2017-05-03T08:45:31Z</time>
      </trkpt>
      <trkpt lat="45.96844" lon="4.78654">
        <ele>202</ele>
        <time>2017-05-03T08:45:32Z</time>
      </trkpt>
      <trkpt lat="45.96846" lon="4.7866">
        <ele>202</ele>
        <time>2017-05-03T08:45:33Z</time>
      </trkpt>
      <trkpt lat="45.96849" lon="4.78665">
        <ele>202</ele>
        <time>2017-05-03T08:45:34Z</time>
      </trkpt>
      <trkpt lat="45.96852" lon="4.78671">
        <ele>202</ele>
        <time>2017-05-03T08:45:35Z</time>
      </trkpt>
      <trkpt lat="45.96854" lon="4.78676">
        <ele>202</ele>
        <time>2017-05-03T08:45:36Z</time>
      </trkpt>
      <trkpt lat="45.96857" lon="4.78681">
        <ele>202</ele>
        <time>2017-05-03T08:45:37Z</time>
      </trkpt>
      <trkpt lat="45.9686" lon="4.78687">
        <ele>202</ele>
        <time>2017-05-03T08:45:38Z</time>
      </trkpt>
      <trkpt lat="45.96863" lon="4.78692">
        <ele>202</ele>
        <time>2017-05-03T08:45:39Z</time>
      </trkpt>
      <trkpt lat="45.96865" lon="4.78698">
        <ele>202</ele>
        <time>2017-05-03T08:45:40Z</time>
      </trkpt>
      <trkpt lat="45.96867" lon="4.78704">
        <ele>202</ele>
        <time>2017-05-03T08:45:41Z</time>
      </trkpt>
      <trkpt lat="45.9687" lon="4.78709">
        <ele>202</ele>
        <time>2017-05-03T08:45:42Z</time>
      </trkpt>
      <trkpt lat="45.96873" lon="4.78714">
        <ele>202</ele>
        <time>2017-05-03T08:45:43Z</time>
      </trkpt>
      <trkpt lat="45.96876" lon="4.7872">
        <ele>202</ele>
        <time>2017-05-03T08:45:44Z</time>
      </trkpt>
      <trkpt lat="45.96878" lon="4.78725">
        <ele>202</ele>
        <time>2017-05-03T08:45:45Z</time>
      </trkpt>
      <trkpt lat="45.96883" lon="4.78736">
        <ele>202</ele>
        <time>2017-05-03T08:45:47Z</time>
      </trkpt>
      <trkpt lat="45.96885" lon="4.78742">
        <ele>202</ele>
        <time>2017-05-03T08:45:48Z</time>
      </trkpt>
      <trkpt lat="45.96887" lon="4.78748">
        <ele>202</ele>
        <time>2017-05-03T08:45:49Z</time>
      </trkpt>
      <trkpt lat="45.96889" lon="4.78754">
        <ele>201</ele>
        <time>2017-05-03T08:45:50Z</time>
      </trkpt>
      <trkpt lat="45.96891" lon="4.7876">
        <ele>201</ele>
        <time>2017-05-03T08:45:51Z</time>
      </trkpt>
      <trkpt lat="45.96894" lon="4.78766">
        <ele>201</ele>
        <time>2017-05-03T08:45:52Z</time>
      </trkpt>
      <trkpt lat="45.96896" lon="4.78771">
        <ele>201</ele>
        <time>2017-05-03T08:45:53Z</time>
      </trkpt>
      <trkpt lat="45.96899" lon="4.78777">
        <ele>201</ele>
        <time>2017-05-03T08:45:54Z</time>
      </trkpt>
      <trkpt lat="45.96902" lon="4.78782">
        <ele>201</ele>
        <time>2017-05-03T08:45:55Z</time>
      </trkpt>
      <trkpt lat="45.96904" lon="4.78788">
        <ele>201</ele>
        <time>2017-05-03T08:45:56Z</time>
      </trkpt>
      <trkpt lat="45.96907" lon="4.78793">
        <ele>201</ele>
        <time>2017-05-03T08:45:57Z</time>
      </trkpt>
      <trkpt lat="45.9691" lon="4.78798">
        <ele>201</ele>
        <time>2017-05-03T08:45:58Z</time>
      </trkpt>
      <trkpt lat="45.96913" lon="4.78804">
        <ele>200</ele>
        <time>2017-05-03T08:45:59Z</time>
      </trkpt>
      <trkpt lat="45.96916" lon="4.78809">
        <ele>200</ele>
        <time>2017-05-03T08:46:00Z</time>
      </trkpt>
      <trkpt lat="45.96919" lon="4.78815">
        <ele>202</ele>
        <time>2017-05-03T08:46:01Z</time>
      </trkpt>
      <trkpt lat="45.96923" lon="4.7882">
        <ele>202</ele>
        <time>2017-05-03T08:46:02Z</time>
      </trkpt>
      <trkpt lat="45.96926" lon="4.78825">
        <ele>202</ele>
        <time>2017-05-03T08:46:03Z</time>
      </trkpt>
      <trkpt lat="45.9693" lon="4.78829">
        <ele>202</ele>
        <time>2017-05-03T08:46:04Z</time>
      </trkpt>
      <trkpt lat="45.96934" lon="4.78834">
        <ele>201</ele>
        <time>2017-05-03T08:46:05Z</time>
      </trkpt>
      <trkpt lat="45.96938" lon="4.78839">
        <ele>202</ele>
        <time>2017-05-03T08:46:06Z</time>
      </trkpt>
      <trkpt lat="45.96941" lon="4.78843">
        <ele>202</ele>
        <time>2017-05-03T08:46:07Z</time>
      </trkpt>
      <trkpt lat="45.96945" lon="4.78848">
        <ele>202</ele>
        <time>2017-05-03T08:46:08Z</time>
      </trkpt>
      <trkpt lat="45.96949" lon="4.78852">
        <ele>202</ele>
        <time>2017-05-03T08:46:09Z</time>
      </trkpt>
      <trkpt lat="45.96952" lon="4.78857">
        <ele>203</ele>
        <time>2017-05-03T08:46:10Z</time>
      </trkpt>
      <trkpt lat="45.96956" lon="4.78861">
        <ele>203</ele>
        <time>2017-05-03T08:46:11Z</time>
      </trkpt>
      <trkpt lat="45.96961" lon="4.78865">
        <ele>203</ele>
        <time>2017-05-03T08:46:12Z</time>
      </trkpt>
      <trkpt lat="45.96964" lon="4.78869">
        <ele>203</ele>
        <time>2017-05-03T08:46:13Z</time>
      </trkpt>
      <trkpt lat="45.96968" lon="4.78873">
        <ele>203</ele>
        <time>2017-05-03T08:46:14Z</time>
      </trkpt>
      <trkpt lat="45.96972" lon="4.78878">
        <ele>203</ele>
        <time>2017-05-03T08:46:15Z</time>
      </trkpt>
      <trkpt lat="45.96975" lon="4.78882">
        <ele>203</ele>
        <time>2017-05-03T08:46:16Z</time>
      </trkpt>
      <trkpt lat="45.96979" lon="4.78886">
        <ele>203</ele>
        <time>2017-05-03T08:46:17Z</time>
      </trkpt>
      <trkpt lat="45.96982" lon="4.7889">
        <ele>203</ele>
        <time>2017-05-03T08:46:18Z</time>
      </trkpt>
      <trkpt lat="45.96989" lon="4.78899">
        <ele>203</ele>
        <time>2017-05-03T08:46:20Z</time>
      </trkpt>
      <trkpt lat="45.96992" lon="4.78903">
        <ele>204</ele>
        <time>2017-05-03T08:46:21Z</time>
      </trkpt>
      <trkpt lat="45.96999" lon="4.78912">
        <ele>204</ele>
        <time>2017-05-03T08:46:23Z</time>
      </trkpt>
      <trkpt lat="45.97002" lon="4.78916">
        <ele>204</ele>
        <time>2017-05-03T08:46:24Z</time>
      </trkpt>
      <trkpt lat="45.97008" lon="4.78925">
        <ele>204</ele>
        <time>2017-05-03T08:46:26Z</time>
      </trkpt>
      <trkpt lat="45.97011" lon="4.78929">
        <ele>205</ele>
        <time>2017-05-03T08:46:27Z</time>
      </trkpt>
      <trkpt lat="45.97017" lon="4.78937">
        <ele>205</ele>
        <time>2017-05-03T08:46:29Z</time>
      </trkpt>
      <trkpt lat="45.9702" lon="4.78942">
        <ele>205</ele>
        <time>2017-05-03T08:46:30Z</time>
      </trkpt>
      <trkpt lat="45.97025" lon="4.78951">
        <ele>205</ele>
        <time>2017-05-03T08:46:32Z</time>
      </trkpt>
      <trkpt lat="45.97028" lon="4.78956">
        <ele>205</ele>
        <time>2017-05-03T08:46:33Z</time>
      </trkpt>
      <trkpt lat="45.97033" lon="4.78965">
        <ele>205</ele>
        <time>2017-05-03T08:46:35Z</time>
      </trkpt>
      <trkpt lat="45.97035" lon="4.78969">
        <ele>205</ele>
        <time>2017-05-03T08:46:36Z</time>
      </trkpt>
      <trkpt lat="45.97039" lon="4.7898">
        <ele>204</ele>
        <time>2017-05-03T08:46:38Z</time>
      </trkpt>
      <trkpt lat="45.97041" lon="4.78985">
        <ele>204</ele>
        <time>2017-05-03T08:46:39Z</time>
      </trkpt>
      <trkpt lat="45.97046" lon="4.78995">
        <ele>204</ele>
        <time>2017-05-03T08:46:41Z</time>
      </trkpt>
      <trkpt lat="45.97049" lon="4.78999">
        <ele>204</ele>
        <time>2017-05-03T08:46:42Z</time>
      </trkpt>
      <trkpt lat="45.97051" lon="4.79005">
        <ele>203</ele>
        <time>2017-05-03T08:46:43Z</time>
      </trkpt>
      <trkpt lat="45.97052" lon="4.79012">
        <ele>203</ele>
        <time>2017-05-03T08:46:44Z</time>
      </trkpt>
      <trkpt lat="45.97054" lon="4.79018">
        <ele>203</ele>
        <time>2017-05-03T08:46:45Z</time>
      </trkpt>
      <trkpt lat="45.97056" lon="4.79024">
        <ele>203</ele>
        <time>2017-05-03T08:46:46Z</time>
      </trkpt>
      <trkpt lat="45.97059" lon="4.79031">
        <ele>203</ele>
        <time>2017-05-03T08:46:47Z</time>
      </trkpt>
      <trkpt lat="45.97062" lon="4.79035">
        <ele>203</ele>
        <time>2017-05-03T08:46:48Z</time>
      </trkpt>
      <trkpt lat="45.97063" lon="4.79041">
        <ele>203</ele>
        <time>2017-05-03T08:46:49Z</time>
      </trkpt>
      <trkpt lat="45.97065" lon="4.79048">
        <ele>203</ele>
        <time>2017-05-03T08:46:50Z</time>
      </trkpt>
      <trkpt lat="45.97066" lon="4.79054">
        <ele>203</ele>
        <time>2017-05-03T08:46:51Z</time>
      </trkpt>
      <trkpt lat="45.97066" lon="4.79062">
        <ele>203</ele>
        <time>2017-05-03T08:46:52Z</time>
      </trkpt>
      <trkpt lat="45.97067" lon="4.79068">
        <ele>203</ele>
        <time>2017-05-03T08:46:53Z</time>
      </trkpt>
      <trkpt lat="45.97069" lon="4.79075">
        <ele>204</ele>
        <time>2017-05-03T08:46:54Z</time>
      </trkpt>
      <trkpt lat="45.9707" lon="4.79082">
        <ele>204</ele>
        <time>2017-05-03T08:46:55Z</time>
      </trkpt>
      <trkpt lat="45.97072" lon="4.79089">
        <ele>204</ele>
        <time>2017-05-03T08:46:56Z</time>
      </trkpt>
      <trkpt lat="45.97073" lon="4.79096">
        <ele>204</ele>
        <time>2017-05-03T08:46:57Z</time>
      </trkpt>
      <trkpt lat="45.97074" lon="4.79103">
        <ele>204</ele>
        <time>2017-05-03T08:46:58Z</time>
      </trkpt>
      <trkpt lat="45.97076" lon="4.79109">
        <ele>204</ele>
        <time>2017-05-03T08:46:59Z</time>
      </trkpt>
      <trkpt lat="45.97078" lon="4.79116">
        <ele>204</ele>
        <time>2017-05-03T08:47:00Z</time>
      </trkpt>
      <trkpt lat="45.97082" lon="4.79127">
        <ele>204</ele>
        <time>2017-05-03T08:47:02Z</time>
      </trkpt>
      <trkpt lat="45.97085" lon="4.79132">
        <ele>206</ele>
        <time>2017-05-03T08:47:03Z</time>
      </trkpt>
      <trkpt lat="45.97087" lon="4.79137">
        <ele>206</ele>
        <time>2017-05-03T08:47:04Z</time>
      </trkpt>
      <trkpt lat="45.97091" lon="4.79142">
        <ele>206</ele>
        <time>2017-05-03T08:47:05Z</time>
      </trkpt>
      <trkpt lat="45.97096" lon="4.7915">
        <ele>206</ele>
        <time>2017-05-03T08:47:07Z</time>
      </trkpt>
      <trkpt lat="45.97099" lon="4.79155">
        <ele>206</ele>
        <time>2017-05-03T08:47:08Z</time>
      </trkpt>
      <trkpt lat="45.97102" lon="4.7916">
        <ele>206</ele>
        <time>2017-05-03T08:47:09Z</time>
      </trkpt>
      <trkpt lat="45.97105" lon="4.79165">
        <ele>206</ele>
        <time>2017-05-03T08:47:10Z</time>
      </trkpt>
      <trkpt lat="45.97108" lon="4.79171">
        <ele>205</ele>
        <time>2017-05-03T08:47:11Z</time>
      </trkpt>
      <trkpt lat="45.9711" lon="4.79176">
        <ele>205</ele>
        <time>2017-05-03T08:47:12Z</time>
      </trkpt>
      <trkpt lat="45.97113" lon="4.79182">
        <ele>205</ele>
        <time>2017-05-03T08:47:13Z</time>
      </trkpt>
      <trkpt lat="45.97115" lon="4.79188">
        <ele>205</ele>
        <time>2017-05-03T08:47:14Z</time>
      </trkpt>
      <trkpt lat="45.97119" lon="4.79199">
        <ele>205</ele>
        <time>2017-05-03T08:47:16Z</time>
      </trkpt>
      <trkpt lat="45.97122" lon="4.79205">
        <ele>205</ele>
        <time>2017-05-03T08:47:17Z</time>
      </trkpt>
      <trkpt lat="45.97124" lon="4.79212">
        <ele>205</ele>
        <time>2017-05-03T08:47:18Z</time>
      </trkpt>
      <trkpt lat="45.97127" lon="4.79219">
        <ele>205</ele>
        <time>2017-05-03T08:47:19Z</time>
      </trkpt>
      <trkpt lat="45.9713" lon="4.79226">
        <ele>205</ele>
        <time>2017-05-03T08:47:20Z</time>
      </trkpt>
      <trkpt lat="45.97133" lon="4.79233">
        <ele>205</ele>
        <time>2017-05-03T08:47:21Z</time>
      </trkpt>
      <trkpt lat="45.97136" lon="4.79239">
        <ele>205</ele>
        <time>2017-05-03T08:47:22Z</time>
      </trkpt>
      <trkpt lat="45.97138" lon="4.79246">
        <ele>205</ele>
        <time>2017-05-03T08:47:23Z</time>
      </trkpt>
      <trkpt lat="45.97141" lon="4.79252">
        <ele>204</ele>
        <time>2017-05-03T08:47:24Z</time>
      </trkpt>
      <trkpt lat="45.97143" lon="4.79258">
        <ele>204</ele>
        <time>2017-05-03T08:47:25Z</time>
      </trkpt>
      <trkpt lat="45.97146" lon="4.79263">
        <ele>204</ele>
        <time>2017-05-03T08:47:26Z</time>
      </trkpt>
      <trkpt lat="45.97148" lon="4.79269">
        <ele>204</ele>
        <time>2017-05-03T08:47:27Z</time>
      </trkpt>
      <trkpt lat="45.97152" lon="4.7928">
        <ele>204</ele>
        <time>2017-05-03T08:47:29Z</time>
      </trkpt>
      <trkpt lat="45.97155" lon="4.79286">
        <ele>204</ele>
        <time>2017-05-03T08:47:30Z</time>
      </trkpt>
      <trkpt lat="45.97159" lon="4.79297">
        <ele>204</ele>
        <time>2017-05-03T08:47:32Z</time>
      </trkpt>
      <trkpt lat="45.97161" lon="4.79303">
        <ele>204</ele>
        <time>2017-05-03T08:47:33Z</time>
      </trkpt>
      <trkpt lat="45.97164" lon="4.79314">
        <ele>205</ele>
        <time>2017-05-03T08:47:35Z</time>
      </trkpt>
      <trkpt lat="45.97166" lon="4.79319">
        <ele>205</ele>
        <time>2017-05-03T08:47:36Z</time>
      </trkpt>
      <trkpt lat="45.97171" lon="4.7933">
        <ele>206</ele>
        <time>2017-05-03T08:47:38Z</time>
      </trkpt>
      <trkpt lat="45.97174" lon="4.79335">
        <ele>206</ele>
        <time>2017-05-03T08:47:39Z</time>
      </trkpt>
      <trkpt lat="45.97179" lon="4.79345">
        <ele>206</ele>
        <time>2017-05-03T08:47:41Z</time>
      </trkpt>
      <trkpt lat="45.97181" lon="4.7935">
        <ele>207</ele>
        <time>2017-05-03T08:47:42Z</time>
      </trkpt>
      <trkpt lat="45.97185" lon="4.79361">
        <ele>207</ele>
        <time>2017-05-03T08:47:44Z</time>
      </trkpt>
      <trkpt lat="45.97188" lon="4.79366">
        <ele>207</ele>
        <time>2017-05-03T08:47:45Z</time>
      </trkpt>
      <trkpt lat="45.97191" lon="4.79372">
        <ele>207</ele>
        <time>2017-05-03T08:47:46Z</time>
      </trkpt>
      <trkpt lat="45.97193" lon="4.79377">
        <ele>207</ele>
        <time>2017-05-03T08:47:47Z</time>
      </trkpt>
      <trkpt lat="45.97198" lon="4.79388">
        <ele>207</ele>
        <time>2017-05-03T08:47:49Z</time>
      </trkpt>
      <trkpt lat="45.972" lon="4.79393">
        <ele>207</ele>
        <time>2017-05-03T08:47:50Z</time>
      </trkpt>
      <trkpt lat="45.97203" lon="4.79398">
        <ele>207</ele>
        <time>2017-05-03T08:47:51Z</time>
      </trkpt>
      <trkpt lat="45.97205" lon="4.79404">
        <ele>208</ele>
        <time>2017-05-03T08:47:52Z</time>
      </trkpt>
      <trkpt lat="45.97208" lon="4.79411">
        <ele>208</ele>
        <time>2017-05-03T08:47:53Z</time>
      </trkpt>
      <trkpt lat="45.9721" lon="4.79417">
        <ele>208</ele>
        <time>2017-05-03T08:47:54Z</time>
      </trkpt>
      <trkpt lat="45.97213" lon="4.79422">
        <ele>208</ele>
        <time>2017-05-03T08:47:55Z</time>
      </trkpt>
      <trkpt lat="45.97215" lon="4.79428">
        <ele>208</ele>
        <time>2017-05-03T08:47:56Z</time>
      </trkpt>
      <trkpt lat="45.97218" lon="4.79434">
        <ele>208</ele>
        <time>2017-05-03T08:47:57Z</time>
      </trkpt>
      <trkpt lat="45.9722" lon="4.7944">
        <ele>208</ele>
        <time>2017-05-03T08:47:58Z</time>
      </trkpt>
      <trkpt lat="45.97224" lon="4.7945">
        <ele>209</ele>
        <time>2017-05-03T08:48:00Z</time>
      </trkpt>
      <trkpt lat="45.97226" lon="4.79456">
        <ele>209</ele>
        <time>2017-05-03T08:48:01Z</time>
      </trkpt>
      <trkpt lat="45.9723" lon="4.79466">
        <ele>209</ele>
        <time>2017-05-03T08:48:03Z</time>
      </trkpt>
      <trkpt lat="45.97232" lon="4.79471">
        <ele>209</ele>
        <time>2017-05-03T08:48:04Z</time>
      </trkpt>
      <trkpt lat="45.97235" lon="4.79482">
        <ele>209</ele>
        <time>2017-05-03T08:48:06Z</time>
      </trkpt>
      <trkpt lat="45.97236" lon="4.79487">
        <ele>210</ele>
        <time>2017-05-03T08:48:07Z</time>
      </trkpt>
      <trkpt lat="45.97239" lon="4.79498">
        <ele>210</ele>
        <time>2017-05-03T08:48:09Z</time>
      </trkpt>
      <trkpt lat="45.9724" lon="4.79504">
        <ele>210</ele>
        <time>2017-05-03T08:48:10Z</time>
      </trkpt>
      <trkpt lat="45.97242" lon="4.79516">
        <ele>210</ele>
        <time>2017-05-03T08:48:12Z</time>
      </trkpt>
      <trkpt lat="45.97243" lon="4.79522">
        <ele>210</ele>
        <time>2017-05-03T08:48:13Z</time>
      </trkpt>
      <trkpt lat="45.97245" lon="4.79534">
        <ele>210</ele>
        <time>2017-05-03T08:48:15Z</time>
      </trkpt>
      <trkpt lat="45.97246" lon="4.7954">
        <ele>210</ele>
        <time>2017-05-03T08:48:16Z</time>
      </trkpt>
      <trkpt lat="45.97249" lon="4.79552">
        <ele>210</ele>
        <time>2017-05-03T08:48:18Z</time>
      </trkpt>
      <trkpt lat="45.9725" lon="4.79558">
        <ele>213</ele>
        <time>2017-05-03T08:48:19Z</time>
      </trkpt>
      <trkpt lat="45.97251" lon="4.79565">
        <ele>213</ele>
        <time>2017-05-03T08:48:20Z</time>
      </trkpt>
      <trkpt lat="45.97252" lon="4.79572">
        <ele>212</ele>
        <time>2017-05-03T08:48:21Z</time>
      </trkpt>
      <trkpt lat="45.97253" lon="4.79579">
        <ele>211</ele>
        <time>2017-05-03T08:48:22Z</time>
      </trkpt>
      <trkpt lat="45.97254" lon="4.79586">
        <ele>211</ele>
        <time>2017-05-03T08:48:23Z</time>
      </trkpt>
      <trkpt lat="45.97254" lon="4.79593">
        <ele>212</ele>
        <time>2017-05-03T08:48:24Z</time>
      </trkpt>
      <trkpt lat="45.97252" lon="4.796">
        <ele>212</ele>
        <time>2017-05-03T08:48:25Z</time>
      </trkpt>
      <trkpt lat="45.97251" lon="4.79607">
        <ele>213</ele>
        <time>2017-05-03T08:48:26Z</time>
      </trkpt>
      <trkpt lat="45.97251" lon="4.79614">
        <ele>213</ele>
        <time>2017-05-03T08:48:27Z</time>
      </trkpt>
      <trkpt lat="45.97251" lon="4.79621">
        <ele>213</ele>
        <time>2017-05-03T08:48:28Z</time>
      </trkpt>
      <trkpt lat="45.97251" lon="4.79628">
        <ele>213</ele>
        <time>2017-05-03T08:48:29Z</time>
      </trkpt>
      <trkpt lat="45.97251" lon="4.79635">
        <ele>212</ele>
        <time>2017-05-03T08:48:30Z</time>
      </trkpt>
      <trkpt lat="45.97252" lon="4.79642">
        <ele>212</ele>
        <time>2017-05-03T08:48:31Z</time>
      </trkpt>
      <trkpt lat="45.97252" lon="4.79648">
        <ele>211</ele>
        <time>2017-05-03T08:48:32Z</time>
      </trkpt>
      <trkpt lat="45.97252" lon="4.79655">
        <ele>211</ele>
        <time>2017-05-03T08:48:33Z</time>
      </trkpt>
      <trkpt lat="45.97251" lon="4.79666">
        <ele>208</ele>
        <time>2017-05-03T08:48:35Z</time>
      </trkpt>
      <trkpt lat="45.97251" lon="4.79673">
        <ele>209</ele>
        <time>2017-05-03T08:48:36Z</time>
      </trkpt>
      <trkpt lat="45.9725" lon="4.79679">
        <ele>208</ele>
        <time>2017-05-03T08:48:37Z</time>
      </trkpt>
      <trkpt lat="45.97249" lon="4.79686">
        <ele>208</ele>
        <time>2017-05-03T08:48:38Z</time>
      </trkpt>
      <trkpt lat="45.97248" lon="4.79692">
        <ele>208</ele>
        <time>2017-05-03T08:48:39Z</time>
      </trkpt>
      <trkpt lat="45.97247" lon="4.79698">
        <ele>208</ele>
        <time>2017-05-03T08:48:40Z</time>
      </trkpt>
      <trkpt lat="45.97246" lon="4.79705">
        <ele>208</ele>
        <time>2017-05-03T08:48:41Z</time>
      </trkpt>
      <trkpt lat="45.97245" lon="4.79712">
        <ele>209</ele>
        <time>2017-05-03T08:48:42Z</time>
      </trkpt>
      <trkpt lat="45.97244" lon="4.79719">
        <ele>209</ele>
        <time>2017-05-03T08:48:43Z</time>
      </trkpt>
      <trkpt lat="45.97243" lon="4.79726">
        <ele>209</ele>
        <time>2017-05-03T08:48:44Z</time>
      </trkpt>
      <trkpt lat="45.97242" lon="4.79733">
        <ele>209</ele>
        <time>2017-05-03T08:48:45Z</time>
      </trkpt>
      <trkpt lat="45.9724" lon="4.79741">
        <ele>209</ele>
        <time>2017-05-03T08:48:46Z</time>
      </trkpt>
      <trkpt lat="45.97238" lon="4.79748">
        <ele>209</ele>
        <time>2017-05-03T08:48:47Z</time>
      </trkpt>
      <trkpt lat="45.97238" lon="4.79755">
        <ele>209</ele>
        <time>2017-05-03T08:48:48Z</time>
      </trkpt>
      <trkpt lat="45.97237" lon="4.79762">
        <ele>209</ele>
        <time>2017-05-03T08:48:49Z</time>
      </trkpt>
      <trkpt lat="45.97236" lon="4.79768">
        <ele>210</ele>
        <time>2017-05-03T08:48:50Z</time>
      </trkpt>
      <trkpt lat="45.97235" lon="4.79775">
        <ele>210</ele>
        <time>2017-05-03T08:48:51Z</time>
      </trkpt>
      <trkpt lat="45.97235" lon="4.79782">
        <ele>210</ele>
        <time>2017-05-03T08:48:52Z</time>
      </trkpt>
      <trkpt lat="45.97234" lon="4.79789">
        <ele>210</ele>
        <time>2017-05-03T08:48:53Z</time>
      </trkpt>
      <trkpt lat="45.97233" lon="4.79796">
        <ele>210</ele>
        <time>2017-05-03T08:48:54Z</time>
      </trkpt>
      <trkpt lat="45.97233" lon="4.79803">
        <ele>210</ele>
        <time>2017-05-03T08:48:55Z</time>
      </trkpt>
      <trkpt lat="45.97233" lon="4.7981">
        <ele>210</ele>
        <time>2017-05-03T08:48:56Z</time>
      </trkpt>
      <trkpt lat="45.97233" lon="4.79817">
        <ele>211</ele>
        <time>2017-05-03T08:48:57Z</time>
      </trkpt>
      <trkpt lat="45.97233" lon="4.79825">
        <ele>211</ele>
        <time>2017-05-03T08:48:58Z</time>
      </trkpt>
      <trkpt lat="45.97233" lon="4.79832">
        <ele>211</ele>
        <time>2017-05-03T08:48:59Z</time>
      </trkpt>
      <trkpt lat="45.97233" lon="4.79839">
        <ele>211</ele>
        <time>2017-05-03T08:49:00Z</time>
      </trkpt>
      <trkpt lat="45.97233" lon="4.79846">
        <ele>211</ele>
        <time>2017-05-03T08:49:01Z</time>
      </trkpt>
      <trkpt lat="45.97234" lon="4.79853">
        <ele>211</ele>
        <time>2017-05-03T08:49:02Z</time>
      </trkpt>
      <trkpt lat="45.97236" lon="4.79865">
        <ele>211</ele>
        <time>2017-05-03T08:49:04Z</time>
      </trkpt>
      <trkpt lat="45.97238" lon="4.79871">
        <ele>211</ele>
        <time>2017-05-03T08:49:05Z</time>
      </trkpt>
      <trkpt lat="45.97241" lon="4.79881">
        <ele>211</ele>
        <time>2017-05-03T08:49:07Z</time>
      </trkpt>
      <trkpt lat="45.97242" lon="4.79886">
        <ele>211</ele>
        <time>2017-05-03T08:49:08Z</time>
      </trkpt>
      <trkpt lat="45.97245" lon="4.79896">
        <ele>211</ele>
        <time>2017-05-03T08:49:10Z</time>
      </trkpt>
      <trkpt lat="45.97247" lon="4.799">
        <ele>211</ele>
        <time>2017-05-03T08:49:11Z</time>
      </trkpt>
      <trkpt lat="45.97249" lon="4.7991">
        <ele>212</ele>
        <time>2017-05-03T08:49:14Z</time>
      </trkpt>
      <trkpt lat="45.97249" lon="4.79912">
        <ele>212</ele>
        <time>2017-05-03T08:49:15Z</time>
      </trkpt>
      <trkpt lat="45.97257" lon="4.7992">
        <ele>212</ele>
        <time>2017-05-03T08:49:22Z</time>
      </trkpt>
      <trkpt lat="45.97258" lon="4.7992">
        <ele>212</ele>
        <time>2017-05-03T08:49:23Z</time>
      </trkpt>
      <trkpt lat="45.97266" lon="4.7992">
        <ele>212</ele>
        <time>2017-05-03T08:49:26Z</time>
      </trkpt>
      <trkpt lat="45.97269" lon="4.79919">
        <ele>212</ele>
        <time>2017-05-03T08:49:27Z</time>
      </trkpt>
      <trkpt lat="45.97276" lon="4.79918">
        <ele>212</ele>
        <time>2017-05-03T08:49:29Z</time>
      </trkpt>
      <trkpt lat="45.97279" lon="4.79918">
        <ele>212</ele>
        <time>2017-05-03T08:49:30Z</time>
      </trkpt>
      <trkpt lat="45.97286" lon="4.79917">
        <ele>212</ele>
        <time>2017-05-03T08:49:32Z</time>
      </trkpt>
      <trkpt lat="45.9729" lon="4.79917">
        <ele>213</ele>
        <time>2017-05-03T08:49:33Z</time>
      </trkpt>
      <trkpt lat="45.97297" lon="4.79915">
        <ele>213</ele>
        <time>2017-05-03T08:49:35Z</time>
      </trkpt>
      <trkpt lat="45.97301" lon="4.79914">
        <ele>213</ele>
        <time>2017-05-03T08:49:36Z</time>
      </trkpt>
      <trkpt lat="45.97308" lon="4.79912">
        <ele>213</ele>
        <time>2017-05-03T08:49:38Z</time>
      </trkpt>
      <trkpt lat="45.97312" lon="4.79912">
        <ele>213</ele>
        <time>2017-05-03T08:49:39Z</time>
      </trkpt>
      <trkpt lat="45.97319" lon="4.79912">
        <ele>213</ele>
        <time>2017-05-03T08:49:41Z</time>
      </trkpt>
      <trkpt lat="45.97322" lon="4.79911">
        <ele>213</ele>
        <time>2017-05-03T08:49:42Z</time>
      </trkpt>
      <trkpt lat="45.97329" lon="4.7991">
        <ele>213</ele>
        <time>2017-05-03T08:49:44Z</time>
      </trkpt>
      <trkpt lat="45.97332" lon="4.7991">
        <ele>213</ele>
        <time>2017-05-03T08:49:45Z</time>
      </trkpt>
      <trkpt lat="45.9734" lon="4.79908">
        <ele>215</ele>
        <time>2017-05-03T08:51:03Z</time>
      </trkpt>
      <trkpt lat="45.97342" lon="4.79907">
        <ele>215</ele>
        <time>2017-05-03T08:51:04Z</time>
      </trkpt>
      <trkpt lat="45.9735" lon="4.79904">
        <ele>216</ele>
        <time>2017-05-03T08:51:10Z</time>
      </trkpt>
      <trkpt lat="45.97352" lon="4.79904">
        <ele>216</ele>
        <time>2017-05-03T08:51:11Z</time>
      </trkpt>
      <trkpt lat="45.97357" lon="4.79897">
        <ele>216</ele>
        <time>2017-05-03T08:51:14Z</time>
      </trkpt>
      <trkpt lat="45.9736" lon="4.79896">
        <ele>217</ele>
        <time>2017-05-03T08:51:15Z</time>
      </trkpt>
      <trkpt lat="45.97367" lon="4.79895">
        <ele>217</ele>
        <time>2017-05-03T08:51:17Z</time>
      </trkpt>
      <trkpt lat="45.9737" lon="4.79895">
        <ele>217</ele>
        <time>2017-05-03T08:51:18Z</time>
      </trkpt>
      <trkpt lat="45.97378" lon="4.79894">
        <ele>217</ele>
        <time>2017-05-03T08:51:20Z</time>
      </trkpt>
      <trkpt lat="45.97381" lon="4.79894">
        <ele>217</ele>
        <time>2017-05-03T08:51:21Z</time>
      </trkpt>
      <trkpt lat="45.97389" lon="4.79895">
        <ele>217</ele>
        <time>2017-05-03T08:51:23Z</time>
      </trkpt>
      <trkpt lat="45.97393" lon="4.79895">
        <ele>217</ele>
        <time>2017-05-03T08:51:24Z</time>
      </trkpt>
      <trkpt lat="45.97401" lon="4.79895">
        <ele>217</ele>
        <time>2017-05-03T08:51:26Z</time>
      </trkpt>
      <trkpt lat="45.97404" lon="4.79896">
        <ele>217</ele>
        <time>2017-05-03T08:51:27Z</time>
      </trkpt>
      <trkpt lat="45.97411" lon="4.79895">
        <ele>217</ele>
        <time>2017-05-03T08:51:29Z</time>
      </trkpt>
      <trkpt lat="45.97415" lon="4.79894">
        <ele>217</ele>
        <time>2017-05-03T08:51:30Z</time>
      </trkpt>
      <trkpt lat="45.97423" lon="4.79894">
        <ele>219</ele>
        <time>2017-05-03T08:51:32Z</time>
      </trkpt>
      <trkpt lat="45.97427" lon="4.79893">
        <ele>220</ele>
        <time>2017-05-03T08:51:33Z</time>
      </trkpt>
      <trkpt lat="45.97435" lon="4.79893">
        <ele>220</ele>
        <time>2017-05-03T08:51:35Z</time>
      </trkpt>
      <trkpt lat="45.97439" lon="4.79893">
        <ele>220</ele>
        <time>2017-05-03T08:51:36Z</time>
      </trkpt>
      <trkpt lat="45.97443" lon="4.79893">
        <ele>220</ele>
        <time>2017-05-03T08:51:37Z</time>
      </trkpt>
      <trkpt lat="45.97449" lon="4.79896">
        <ele>220</ele>
        <time>2017-05-03T08:51:38Z</time>
      </trkpt>
      <trkpt lat="45.97453" lon="4.79896">
        <ele>220</ele>
        <time>2017-05-03T08:51:39Z</time>
      </trkpt>
      <trkpt lat="45.97458" lon="4.79896">
        <ele>220</ele>
        <time>2017-05-03T08:51:40Z</time>
      </trkpt>
      <trkpt lat="45.97466" lon="4.79896">
        <ele>220</ele>
        <time>2017-05-03T08:51:42Z</time>
      </trkpt>
      <trkpt lat="45.9747" lon="4.79896">
        <ele>221</ele>
        <time>2017-05-03T08:51:43Z</time>
      </trkpt>
      <trkpt lat="45.97478" lon="4.79896">
        <ele>221</ele>
        <time>2017-05-03T08:51:45Z</time>
      </trkpt>
      <trkpt lat="45.97481" lon="4.79896">
        <ele>221</ele>
        <time>2017-05-03T08:51:46Z</time>
      </trkpt>
      <trkpt lat="45.97489" lon="4.79895">
        <ele>221</ele>
        <time>2017-05-03T08:51:48Z</time>
      </trkpt>
      <trkpt lat="45.97493" lon="4.79895">
        <ele>221</ele>
        <time>2017-05-03T08:51:49Z</time>
      </trkpt>
      <trkpt lat="45.975" lon="4.79894">
        <ele>221</ele>
        <time>2017-05-03T08:51:51Z</time>
      </trkpt>
      <trkpt lat="45.97504" lon="4.79894">
        <ele>221</ele>
        <time>2017-05-03T08:51:52Z</time>
      </trkpt>
      <trkpt lat="45.97511" lon="4.79894">
        <ele>221</ele>
        <time>2017-05-03T08:51:54Z</time>
      </trkpt>
      <trkpt lat="45.97515" lon="4.79894">
        <ele>221</ele>
        <time>2017-05-03T08:51:55Z</time>
      </trkpt>
      <trkpt lat="45.97522" lon="4.79892">
        <ele>221</ele>
        <time>2017-05-03T08:51:57Z</time>
      </trkpt>
      <trkpt lat="45.97526" lon="4.79891">
        <ele>221</ele>
        <time>2017-05-03T08:51:58Z</time>
      </trkpt>
      <trkpt lat="45.97534" lon="4.7989">
        <ele>221</ele>
        <time>2017-05-03T08:52:00Z</time>
      </trkpt>
      <trkpt lat="45.97538" lon="4.79889">
        <ele>221</ele>
        <time>2017-05-03T08:52:01Z</time>
      </trkpt>
      <trkpt lat="45.97545" lon="4.79887">
        <ele>221</ele>
        <time>2017-05-03T08:52:03Z</time>
      </trkpt>
      <trkpt lat="45.97549" lon="4.79886">
        <ele>221</ele>
        <time>2017-05-03T08:52:04Z</time>
      </trkpt>
      <trkpt lat="45.97556" lon="4.79885">
        <ele>221</ele>
        <time>2017-05-03T08:52:06Z</time>
      </trkpt>
      <trkpt lat="45.9756" lon="4.79884">
        <ele>221</ele>
        <time>2017-05-03T08:52:07Z</time>
      </trkpt>
      <trkpt lat="45.97568" lon="4.79882">
        <ele>221</ele>
        <time>2017-05-03T08:52:09Z</time>
      </trkpt>
      <trkpt lat="45.97572" lon="4.79881">
        <ele>221</ele>
        <time>2017-05-03T08:52:10Z</time>
      </trkpt>
      <trkpt lat="45.97579" lon="4.79878">
        <ele>221</ele>
        <time>2017-05-03T08:52:12Z</time>
      </trkpt>
      <trkpt lat="45.97582" lon="4.79876">
        <ele>221</ele>
        <time>2017-05-03T08:52:13Z</time>
      </trkpt>
      <trkpt lat="45.9759" lon="4.79873">
        <ele>221</ele>
        <time>2017-05-03T08:52:15Z</time>
      </trkpt>
      <trkpt lat="45.97593" lon="4.79872">
        <ele>221</ele>
        <time>2017-05-03T08:52:16Z</time>
      </trkpt>
      <trkpt lat="45.976" lon="4.7987">
        <ele>221</ele>
        <time>2017-05-03T08:52:18Z</time>
      </trkpt>
      <trkpt lat="45.97604" lon="4.79869">
        <ele>221</ele>
        <time>2017-05-03T08:52:19Z</time>
      </trkpt>
      <trkpt lat="45.97613" lon="4.79865">
        <ele>221</ele>
        <time>2017-05-03T08:52:21Z</time>
      </trkpt>
      <trkpt lat="45.97617" lon="4.79864">
        <ele>221</ele>
        <time>2017-05-03T08:52:22Z</time>
      </trkpt>
      <trkpt lat="45.97624" lon="4.7986">
        <ele>221</ele>
        <time>2017-05-03T08:52:24Z</time>
      </trkpt>
      <trkpt lat="45.97629" lon="4.79858">
        <ele>221</ele>
        <time>2017-05-03T08:52:25Z</time>
      </trkpt>
      <trkpt lat="45.97637" lon="4.79855">
        <ele>221</ele>
        <time>2017-05-03T08:52:27Z</time>
      </trkpt>
      <trkpt lat="45.97642" lon="4.79854">
        <ele>221</ele>
        <time>2017-05-03T08:52:28Z</time>
      </trkpt>
      <trkpt lat="45.97646" lon="4.79853">
        <ele>221</ele>
        <time>2017-05-03T08:52:29Z</time>
      </trkpt>
      <trkpt lat="45.97651" lon="4.79851">
        <ele>221</ele>
        <time>2017-05-03T08:52:30Z</time>
      </trkpt>
      <trkpt lat="45.97656" lon="4.79849">
        <ele>221</ele>
        <time>2017-05-03T08:52:31Z</time>
      </trkpt>
      <trkpt lat="45.9766" lon="4.79848">
        <ele>221</ele>
        <time>2017-05-03T08:52:32Z</time>
      </trkpt>
      <trkpt lat="45.97665" lon="4.79846">
        <ele>221</ele>
        <time>2017-05-03T08:52:33Z</time>
      </trkpt>
      <trkpt lat="45.97669" lon="4.79845">
        <ele>221</ele>
        <time>2017-05-03T08:52:34Z</time>
      </trkpt>
      <trkpt lat="45.97677" lon="4.79843">
        <ele>221</ele>
        <time>2017-05-03T08:52:36Z</time>
      </trkpt>
      <trkpt lat="45.97682" lon="4.79842">
        <ele>221</ele>
        <time>2017-05-03T08:52:37Z</time>
      </trkpt>
      <trkpt lat="45.97686" lon="4.79841">
        <ele>221</ele>
        <time>2017-05-03T08:52:38Z</time>
      </trkpt>
      <trkpt lat="45.97691" lon="4.7984">
        <ele>220</ele>
        <time>2017-05-03T08:52:39Z</time>
      </trkpt>
      <trkpt lat="45.97696" lon="4.79839">
        <ele>220</ele>
        <time>2017-05-03T08:52:40Z</time>
      </trkpt>
      <trkpt lat="45.97701" lon="4.79837">
        <ele>220</ele>
        <time>2017-05-03T08:52:41Z</time>
      </trkpt>
      <trkpt lat="45.97706" lon="4.79836">
        <ele>220</ele>
        <time>2017-05-03T08:52:42Z</time>
      </trkpt>
      <trkpt lat="45.97711" lon="4.79835">
        <ele>220</ele>
        <time>2017-05-03T08:52:43Z</time>
      </trkpt>
      <trkpt lat="45.97717" lon="4.79835">
        <ele>220</ele>
        <time>2017-05-03T08:52:44Z</time>
      </trkpt>
      <trkpt lat="45.97722" lon="4.79833">
        <ele>223</ele>
        <time>2017-05-03T08:52:45Z</time>
      </trkpt>
      <trkpt lat="45.97728" lon="4.79832">
        <ele>223</ele>
        <time>2017-05-03T08:52:46Z</time>
      </trkpt>
      <trkpt lat="45.97733" lon="4.79832">
        <ele>223</ele>
        <time>2017-05-03T08:52:47Z</time>
      </trkpt>
      <trkpt lat="45.97739" lon="4.79831">
        <ele>223</ele>
        <time>2017-05-03T08:52:48Z</time>
      </trkpt>
      <trkpt lat="45.97744" lon="4.7983">
        <ele>222</ele>
        <time>2017-05-03T08:52:49Z</time>
      </trkpt>
      <trkpt lat="45.9775" lon="4.79829">
        <ele>222</ele>
        <time>2017-05-03T08:52:50Z</time>
      </trkpt>
      <trkpt lat="45.97755" lon="4.79828">
        <ele>222</ele>
        <time>2017-05-03T08:52:51Z</time>
      </trkpt>
      <trkpt lat="45.97761" lon="4.79827">
        <ele>222</ele>
        <time>2017-05-03T08:52:52Z</time>
      </trkpt>
      <trkpt lat="45.97766" lon="4.79826">
        <ele>223</ele>
        <time>2017-05-03T08:52:53Z</time>
      </trkpt>
      <trkpt lat="45.97771" lon="4.79825">
        <ele>223</ele>
        <time>2017-05-03T08:52:54Z</time>
      </trkpt>
      <trkpt lat="45.97777" lon="4.79824">
        <ele>223</ele>
        <time>2017-05-03T08:52:55Z</time>
      </trkpt>
      <trkpt lat="45.97782" lon="4.79823">
        <ele>223</ele>
        <time>2017-05-03T08:52:56Z</time>
      </trkpt>
      <trkpt lat="45.97787" lon="4.79822">
        <ele>223</ele>
        <time>2017-05-03T08:52:57Z</time>
      </trkpt>
      <trkpt lat="45.97793" lon="4.79821">
        <ele>223</ele>
        <time>2017-05-03T08:52:58Z</time>
      </trkpt>
      <trkpt lat="45.97798" lon="4.7982">
        <ele>223</ele>
        <time>2017-05-03T08:52:59Z</time>
      </trkpt>
      <trkpt lat="45.97803" lon="4.79819">
        <ele>223</ele>
        <time>2017-05-03T08:53:00Z</time>
      </trkpt>
      <trkpt lat="45.97808" lon="4.79818">
        <ele>223</ele>
        <time>2017-05-03T08:53:01Z</time>
      </trkpt>
      <trkpt lat="45.97813" lon="4.79817">
        <ele>223</ele>
        <time>2017-05-03T08:53:02Z</time>
      </trkpt>
      <trkpt lat="45.97818" lon="4.79816">
        <ele>223</ele>
        <time>2017-05-03T08:53:03Z</time>
      </trkpt>
      <trkpt lat="45.97823" lon="4.79816">
        <ele>223</ele>
        <time>2017-05-03T08:53:04Z</time>
      </trkpt>
      <trkpt lat="45.97828" lon="4.79815">
        <ele>223</ele>
        <time>2017-05-03T08:53:05Z</time>
      </trkpt>
      <trkpt lat="45.97833" lon="4.79814">
        <ele>223</ele>
        <time>2017-05-03T08:53:06Z</time>
      </trkpt>
      <trkpt lat="45.97838" lon="4.79812">
        <ele>224</ele>
        <time>2017-05-03T08:53:07Z</time>
      </trkpt>
      <trkpt lat="45.97843" lon="4.79811">
        <ele>224</ele>
        <time>2017-05-03T08:53:08Z</time>
      </trkpt>
      <trkpt lat="45.97848" lon="4.79811">
        <ele>224</ele>
        <time>2017-05-03T08:53:09Z</time>
      </trkpt>
      <trkpt lat="45.97854" lon="4.7981">
        <ele>224</ele>
        <time>2017-05-03T08:53:10Z</time>
      </trkpt>
      <trkpt lat="45.9786" lon="4.79808">
        <ele>224</ele>
        <time>2017-05-03T08:53:11Z</time>
      </trkpt>
      <trkpt lat="45.97865" lon="4.79808">
        <ele>224</ele>
        <time>2017-05-03T08:53:12Z</time>
      </trkpt>
      <trkpt lat="45.97871" lon="4.79808">
        <ele>224</ele>
        <time>2017-05-03T08:53:13Z</time>
      </trkpt>
      <trkpt lat="45.97876" lon="4.79807">
        <ele>224</ele>
        <time>2017-05-03T08:53:14Z</time>
      </trkpt>
      <trkpt lat="45.97881" lon="4.79807">
        <ele>224</ele>
        <time>2017-05-03T08:53:15Z</time>
      </trkpt>
      <trkpt lat="45.97885" lon="4.79806">
        <ele>224</ele>
        <time>2017-05-03T08:53:16Z</time>
      </trkpt>
      <trkpt lat="45.97891" lon="4.79805">
        <ele>224</ele>
        <time>2017-05-03T08:53:17Z</time>
      </trkpt>
      <trkpt lat="45.97896" lon="4.79805">
        <ele>224</ele>
        <time>2017-05-03T08:53:18Z</time>
      </trkpt>
      <trkpt lat="45.97901" lon="4.79804">
        <ele>224</ele>
        <time>2017-05-03T08:53:19Z</time>
      </trkpt>
      <trkpt lat="45.97906" lon="4.79803">
        <ele>224</ele>
        <time>2017-05-03T08:53:20Z</time>
      </trkpt>
      <trkpt lat="45.97911" lon="4.79802">
        <ele>224</ele>
        <time>2017-05-03T08:53:21Z</time>
      </trkpt>
      <trkpt lat="45.97916" lon="4.79801">
        <ele>224</ele>
        <time>2017-05-03T08:53:22Z</time>
      </trkpt>
      <trkpt lat="45.97921" lon="4.798">
        <ele>224</ele>
        <time>2017-05-03T08:53:23Z</time>
      </trkpt>
      <trkpt lat="45.97926" lon="4.79799">
        <ele>224</ele>
        <time>2017-05-03T08:53:24Z</time>
      </trkpt>
      <trkpt lat="45.97931" lon="4.79798">
        <ele>224</ele>
        <time>2017-05-03T08:53:25Z</time>
      </trkpt>
      <trkpt lat="45.97936" lon="4.79797">
        <ele>224</ele>
        <time>2017-05-03T08:53:26Z</time>
      </trkpt>
      <trkpt lat="45.97941" lon="4.79796">
        <ele>224</ele>
        <time>2017-05-03T08:53:27Z</time>
      </trkpt>
      <trkpt lat="45.97946" lon="4.79795">
        <ele>224</ele>
        <time>2017-05-03T08:53:28Z</time>
      </trkpt>
      <trkpt lat="45.97952" lon="4.79794">
        <ele>224</ele>
        <time>2017-05-03T08:53:29Z</time>
      </trkpt>
      <trkpt lat="45.97957" lon="4.79793">
        <ele>224</ele>
        <time>2017-05-03T08:53:30Z</time>
      </trkpt>
      <trkpt lat="45.97962" lon="4.79792">
        <ele>224</ele>
        <time>2017-05-03T08:53:31Z</time>
      </trkpt>
      <trkpt lat="45.97968" lon="4.79791">
        <ele>224</ele>
        <time>2017-05-03T08:53:32Z</time>
      </trkpt>
      <trkpt lat="45.97973" lon="4.7979">
        <ele>224</ele>
        <time>2017-05-03T08:53:33Z</time>
      </trkpt>
      <trkpt lat="45.97977" lon="4.7979">
        <ele>224</ele>
        <time>2017-05-03T08:53:34Z</time>
      </trkpt>
      <trkpt lat="45.97982" lon="4.79789">
        <ele>224</ele>
        <time>2017-05-03T08:53:35Z</time>
      </trkpt>
      <trkpt lat="45.97988" lon="4.79789">
        <ele>224</ele>
        <time>2017-05-03T08:53:36Z</time>
      </trkpt>
      <trkpt lat="45.97993" lon="4.79788">
        <ele>224</ele>
        <time>2017-05-03T08:53:37Z</time>
      </trkpt>
      <trkpt lat="45.97999" lon="4.79788">
        <ele>224</ele>
        <time>2017-05-03T08:53:38Z</time>
      </trkpt>
      <trkpt lat="45.98005" lon="4.79787">
        <ele>223</ele>
        <time>2017-05-03T08:53:39Z</time>
      </trkpt>
      <trkpt lat="45.98011" lon="4.79786">
        <ele>223</ele>
        <time>2017-05-03T08:53:40Z</time>
      </trkpt>
      <trkpt lat="45.98017" lon="4.79785">
        <ele>223</ele>
        <time>2017-05-03T08:53:41Z</time>
      </trkpt>
      <trkpt lat="45.98022" lon="4.79784">
        <ele>223</ele>
        <time>2017-05-03T08:53:42Z</time>
      </trkpt>
      <trkpt lat="45.98027" lon="4.79783">
        <ele>223</ele>
        <time>2017-05-03T08:53:43Z</time>
      </trkpt>
      <trkpt lat="45.98032" lon="4.79783">
        <ele>223</ele>
        <time>2017-05-03T08:53:44Z</time>
      </trkpt>
      <trkpt lat="45.98037" lon="4.79781">
        <ele>223</ele>
        <time>2017-05-03T08:53:45Z</time>
      </trkpt>
      <trkpt lat="45.98042" lon="4.7978">
        <ele>223</ele>
        <time>2017-05-03T08:53:46Z</time>
      </trkpt>
      <trkpt lat="45.98046" lon="4.79779">
        <ele>223</ele>
        <time>2017-05-03T08:53:47Z</time>
      </trkpt>
      <trkpt lat="45.98051" lon="4.79779">
        <ele>223</ele>
        <time>2017-05-03T08:53:48Z</time>
      </trkpt>
      <trkpt lat="45.98056" lon="4.79778">
        <ele>223</ele>
        <time>2017-05-03T08:53:49Z</time>
      </trkpt>
      <trkpt lat="45.98061" lon="4.79777">
        <ele>223</ele>
        <time>2017-05-03T08:53:50Z</time>
      </trkpt>
      <trkpt lat="45.98066" lon="4.79777">
        <ele>223</ele>
        <time>2017-05-03T08:53:51Z</time>
      </trkpt>
      <trkpt lat="45.9807" lon="4.79776">
        <ele>223</ele>
        <time>2017-05-03T08:53:52Z</time>
      </trkpt>
      <trkpt lat="45.98075" lon="4.79776">
        <ele>223</ele>
        <time>2017-05-03T08:53:53Z</time>
      </trkpt>
      <trkpt lat="45.9808" lon="4.79775">
        <ele>223</ele>
        <time>2017-05-03T08:53:54Z</time>
      </trkpt>
      <trkpt lat="45.98085" lon="4.79775">
        <ele>223</ele>
        <time>2017-05-03T08:53:55Z</time>
      </trkpt>
      <trkpt lat="45.98089" lon="4.79774">
        <ele>223</ele>
        <time>2017-05-03T08:53:56Z</time>
      </trkpt>
      <trkpt lat="45.98094" lon="4.79773">
        <ele>223</ele>
        <time>2017-05-03T08:53:57Z</time>
      </trkpt>
      <trkpt lat="45.98098" lon="4.79772">
        <ele>223</ele>
        <time>2017-05-03T08:53:58Z</time>
      </trkpt>
      <trkpt lat="45.98103" lon="4.79771">
        <ele>224</ele>
        <time>2017-05-03T08:53:59Z</time>
      </trkpt>
      <trkpt lat="45.98108" lon="4.79771">
        <ele>224</ele>
        <time>2017-05-03T08:54:00Z</time>
      </trkpt>
      <trkpt lat="45.98113" lon="4.79771">
        <ele>224</ele>
        <time>2017-05-03T08:54:01Z</time>
      </trkpt>
      <trkpt lat="45.98117" lon="4.7977">
        <ele>224</ele>
        <time>2017-05-03T08:54:02Z</time>
      </trkpt>
      <trkpt lat="45.98122" lon="4.7977">
        <ele>224</ele>
        <time>2017-05-03T08:54:03Z</time>
      </trkpt>
      <trkpt lat="45.98127" lon="4.79769">
        <ele>224</ele>
        <time>2017-05-03T08:54:04Z</time>
      </trkpt>
      <trkpt lat="45.98132" lon="4.79769">
        <ele>224</ele>
        <time>2017-05-03T08:54:05Z</time>
      </trkpt>
      <trkpt lat="45.98137" lon="4.79768">
        <ele>224</ele>
        <time>2017-05-03T08:54:06Z</time>
      </trkpt>
      <trkpt lat="45.98142" lon="4.79768">
        <ele>224</ele>
        <time>2017-05-03T08:54:07Z</time>
      </trkpt>
      <trkpt lat="45.98147" lon="4.79769">
        <ele>224</ele>
        <time>2017-05-03T08:54:08Z</time>
      </trkpt>
      <trkpt lat="45.98152" lon="4.79771">
        <ele>225</ele>
        <time>2017-05-03T08:54:09Z</time>
      </trkpt>
      <trkpt lat="45.98157" lon="4.79773">
        <ele>225</ele>
        <time>2017-05-03T08:54:10Z</time>
      </trkpt>
      <trkpt lat="45.98161" lon="4.79777">
        <ele>225</ele>
        <time>2017-05-03T08:54:11Z</time>
      </trkpt>
      <trkpt lat="45.98165" lon="4.79782">
        <ele>224</ele>
        <time>2017-05-03T08:54:12Z</time>
      </trkpt>
      <trkpt lat="45.98167" lon="4.79788">
        <ele>226</ele>
        <time>2017-05-03T08:54:13Z</time>
      </trkpt>
      <trkpt lat="45.9817" lon="4.79793">
        <ele>226</ele>
        <time>2017-05-03T08:54:14Z</time>
      </trkpt>
      <trkpt lat="45.98172" lon="4.798">
        <ele>225</ele>
        <time>2017-05-03T08:54:15Z</time>
      </trkpt>
      <trkpt lat="45.98174" lon="4.79806">
        <ele>225</ele>
        <time>2017-05-03T08:54:16Z</time>
      </trkpt>
      <trkpt lat="45.98177" lon="4.79812">
        <ele>225</ele>
        <time>2017-05-03T08:54:17Z</time>
      </trkpt>
      <trkpt lat="45.9818" lon="4.79819">
        <ele>225</ele>
        <time>2017-05-03T08:54:18Z</time>
      </trkpt>
      <trkpt lat="45.98183" lon="4.79826">
        <ele>225</ele>
        <time>2017-05-03T08:54:19Z</time>
      </trkpt>
      <trkpt lat="45.98186" lon="4.79834">
        <ele>224</ele>
        <time>2017-05-03T08:54:20Z</time>
      </trkpt>
      <trkpt lat="45.98189" lon="4.79841">
        <ele>224</ele>
        <time>2017-05-03T08:54:21Z</time>
      </trkpt>
      <trkpt lat="45.98192" lon="4.7985">
        <ele>225</ele>
        <time>2017-05-03T08:54:22Z</time>
      </trkpt>
      <trkpt lat="45.98195" lon="4.79858">
        <ele>225</ele>
        <time>2017-05-03T08:54:23Z</time>
      </trkpt>
      <trkpt lat="45.98198" lon="4.79866">
        <ele>225</ele>
        <time>2017-05-03T08:54:24Z</time>
      </trkpt>
      <trkpt lat="45.98201" lon="4.79874">
        <ele>225</ele>
        <time>2017-05-03T08:54:25Z</time>
      </trkpt>
      <trkpt lat="45.98204" lon="4.79883">
        <ele>225</ele>
        <time>2017-05-03T08:54:26Z</time>
      </trkpt>
      <trkpt lat="45.98207" lon="4.79891">
        <ele>225</ele>
        <time>2017-05-03T08:54:27Z</time>
      </trkpt>
      <trkpt lat="45.9821" lon="4.79899">
        <ele>225</ele>
        <time>2017-05-03T08:54:28Z</time>
      </trkpt>
      <trkpt lat="45.98213" lon="4.79907">
        <ele>225</ele>
        <time>2017-05-03T08:54:29Z</time>
      </trkpt>
      <trkpt lat="45.98216" lon="4.79915">
        <ele>225</ele>
        <time>2017-05-03T08:54:30Z</time>
      </trkpt>
      <trkpt lat="45.98219" lon="4.79922">
        <ele>225</ele>
        <time>2017-05-03T08:54:31Z</time>
      </trkpt>
      <trkpt lat="45.98222" lon="4.7993">
        <ele>225</ele>
        <time>2017-05-03T08:54:32Z</time>
      </trkpt>
      <trkpt lat="45.98224" lon="4.79938">
        <ele>225</ele>
        <time>2017-05-03T08:54:33Z</time>
      </trkpt>
      <trkpt lat="45.98227" lon="4.79945">
        <ele>225</ele>
        <time>2017-05-03T08:54:34Z</time>
      </trkpt>
      <trkpt lat="45.98229" lon="4.79952">
        <ele>225</ele>
        <time>2017-05-03T08:54:35Z</time>
      </trkpt>
      <trkpt lat="45.98231" lon="4.7996">
        <ele>225</ele>
        <time>2017-05-03T08:54:36Z</time>
      </trkpt>
      <trkpt lat="45.98234" lon="4.79967">
        <ele>225</ele>
        <time>2017-05-03T08:54:37Z</time>
      </trkpt>
      <trkpt lat="45.98236" lon="4.79974">
        <ele>225</ele>
        <time>2017-05-03T08:54:38Z</time>
      </trkpt>
      <trkpt lat="45.98239" lon="4.79981">
        <ele>225</ele>
        <time>2017-05-03T08:54:39Z</time>
      </trkpt>
      <trkpt lat="45.98242" lon="4.79988">
        <ele>225</ele>
        <time>2017-05-03T08:54:40Z</time>
      </trkpt>
      <trkpt lat="45.98244" lon="4.79995">
        <ele>226</ele>
        <time>2017-05-03T08:54:41Z</time>
      </trkpt>
      <trkpt lat="45.98247" lon="4.80002">
        <ele>226</ele>
        <time>2017-05-03T08:54:42Z</time>
      </trkpt>
      <trkpt lat="45.98249" lon="4.80008">
        <ele>226</ele>
        <time>2017-05-03T08:54:43Z</time>
      </trkpt>
      <trkpt lat="45.98251" lon="4.80015">
        <ele>227</ele>
        <time>2017-05-03T08:54:44Z</time>
      </trkpt>
      <trkpt lat="45.98253" lon="4.80021">
        <ele>228</ele>
        <time>2017-05-03T08:54:45Z</time>
      </trkpt>
      <trkpt lat="45.98255" lon="4.80027">
        <ele>228</ele>
        <time>2017-05-03T08:54:46Z</time>
      </trkpt>
      <trkpt lat="45.98257" lon="4.80033">
        <ele>228</ele>
        <time>2017-05-03T08:54:47Z</time>
      </trkpt>
      <trkpt lat="45.9826" lon="4.80044">
        <ele>228</ele>
        <time>2017-05-03T08:54:49Z</time>
      </trkpt>
      <trkpt lat="45.98262" lon="4.8005">
        <ele>228</ele>
        <time>2017-05-03T08:54:50Z</time>
      </trkpt>
      <trkpt lat="45.98265" lon="4.8006">
        <ele>228</ele>
        <time>2017-05-03T08:54:52Z</time>
      </trkpt>
      <trkpt lat="45.98267" lon="4.80065">
        <ele>228</ele>
        <time>2017-05-03T08:54:53Z</time>
      </trkpt>
      <trkpt lat="45.9827" lon="4.80075">
        <ele>228</ele>
        <time>2017-05-03T08:54:55Z</time>
      </trkpt>
      <trkpt lat="45.98272" lon="4.80081">
        <ele>228</ele>
        <time>2017-05-03T08:54:56Z</time>
      </trkpt>
      <trkpt lat="45.98274" lon="4.80086">
        <ele>227</ele>
        <time>2017-05-03T08:54:57Z</time>
      </trkpt>
      <trkpt lat="45.98276" lon="4.80092">
        <ele>227</ele>
        <time>2017-05-03T08:54:58Z</time>
      </trkpt>
      <trkpt lat="45.98279" lon="4.80099">
        <ele>228</ele>
        <time>2017-05-03T08:54:59Z</time>
      </trkpt>
      <trkpt lat="45.98281" lon="4.80105">
        <ele>228</ele>
        <time>2017-05-03T08:55:00Z</time>
      </trkpt>
      <trkpt lat="45.98284" lon="4.80113">
        <ele>228</ele>
        <time>2017-05-03T08:55:01Z</time>
      </trkpt>
      <trkpt lat="45.98286" lon="4.8012">
        <ele>228</ele>
        <time>2017-05-03T08:55:02Z</time>
      </trkpt>
      <trkpt lat="45.98289" lon="4.80127">
        <ele>228</ele>
        <time>2017-05-03T08:55:03Z</time>
      </trkpt>
      <trkpt lat="45.98291" lon="4.80134">
        <ele>228</ele>
        <time>2017-05-03T08:55:04Z</time>
      </trkpt>
      <trkpt lat="45.98294" lon="4.8014">
        <ele>228</ele>
        <time>2017-05-03T08:55:05Z</time>
      </trkpt>
      <trkpt lat="45.98296" lon="4.80147">
        <ele>228</ele>
        <time>2017-05-03T08:55:06Z</time>
      </trkpt>
      <trkpt lat="45.98299" lon="4.80153">
        <ele>228</ele>
        <time>2017-05-03T08:55:07Z</time>
      </trkpt>
      <trkpt lat="45.98301" lon="4.8016">
        <ele>228</ele>
        <time>2017-05-03T08:55:08Z</time>
      </trkpt>
      <trkpt lat="45.98304" lon="4.80167">
        <ele>228</ele>
        <time>2017-05-03T08:55:09Z</time>
      </trkpt>
      <trkpt lat="45.98306" lon="4.80173">
        <ele>227</ele>
        <time>2017-05-03T08:55:10Z</time>
      </trkpt>
      <trkpt lat="45.98309" lon="4.80181">
        <ele>227</ele>
        <time>2017-05-03T08:55:11Z</time>
      </trkpt>
      <trkpt lat="45.98312" lon="4.80188">
        <ele>227</ele>
        <time>2017-05-03T08:55:12Z</time>
      </trkpt>
      <trkpt lat="45.98314" lon="4.80195">
        <ele>227</ele>
        <time>2017-05-03T08:55:13Z</time>
      </trkpt>
      <trkpt lat="45.98317" lon="4.80202">
        <ele>227</ele>
        <time>2017-05-03T08:55:14Z</time>
      </trkpt>
      <trkpt lat="45.98319" lon="4.80209">
        <ele>227</ele>
        <time>2017-05-03T08:55:15Z</time>
      </trkpt>
      <trkpt lat="45.98321" lon="4.80215">
        <ele>227</ele>
        <time>2017-05-03T08:55:16Z</time>
      </trkpt>
      <trkpt lat="45.98322" lon="4.80223">
        <ele>227</ele>
        <time>2017-05-03T08:55:17Z</time>
      </trkpt>
      <trkpt lat="45.98324" lon="4.8023">
        <ele>228</ele>
        <time>2017-05-03T08:55:18Z</time>
      </trkpt>
      <trkpt lat="45.98324" lon="4.80236">
        <ele>228</ele>
        <time>2017-05-03T08:55:19Z</time>
      </trkpt>
      <trkpt lat="45.98322" lon="4.80244">
        <ele>228</ele>
        <time>2017-05-03T08:55:20Z</time>
      </trkpt>
      <trkpt lat="45.98321" lon="4.80252">
        <ele>228</ele>
        <time>2017-05-03T08:55:21Z</time>
      </trkpt>
      <trkpt lat="45.98319" lon="4.8026">
        <ele>228</ele>
        <time>2017-05-03T08:55:22Z</time>
      </trkpt>
      <trkpt lat="45.98318" lon="4.80268">
        <ele>227</ele>
        <time>2017-05-03T08:55:23Z</time>
      </trkpt>
      <trkpt lat="45.98317" lon="4.80276">
        <ele>227</ele>
        <time>2017-05-03T08:55:24Z</time>
      </trkpt>
      <trkpt lat="45.98315" lon="4.80284">
        <ele>226</ele>
        <time>2017-05-03T08:55:25Z</time>
      </trkpt>
      <trkpt lat="45.98313" lon="4.80292">
        <ele>226</ele>
        <time>2017-05-03T08:55:26Z</time>
      </trkpt>
      <trkpt lat="45.98311" lon="4.803">
        <ele>226</ele>
        <time>2017-05-03T08:55:27Z</time>
      </trkpt>
      <trkpt lat="45.98309" lon="4.80308">
        <ele>226</ele>
        <time>2017-05-03T08:55:28Z</time>
      </trkpt>
      <trkpt lat="45.98307" lon="4.80316">
        <ele>226</ele>
        <time>2017-05-03T08:55:29Z</time>
      </trkpt>
      <trkpt lat="45.98305" lon="4.80325">
        <ele>226</ele>
        <time>2017-05-03T08:55:30Z</time>
      </trkpt>
      <trkpt lat="45.98303" lon="4.80334">
        <ele>225</ele>
        <time>2017-05-03T08:55:31Z</time>
      </trkpt>
      <trkpt lat="45.98301" lon="4.80343">
        <ele>225</ele>
        <time>2017-05-03T08:55:32Z</time>
      </trkpt>
      <trkpt lat="45.98298" lon="4.80352">
        <ele>225</ele>
        <time>2017-05-03T08:55:33Z</time>
      </trkpt>
      <trkpt lat="45.98296" lon="4.80361">
        <ele>225</ele>
        <time>2017-05-03T08:55:34Z</time>
      </trkpt>
      <trkpt lat="45.98295" lon="4.80371">
        <ele>224</ele>
        <time>2017-05-03T08:55:35Z</time>
      </trkpt>
      <trkpt lat="45.98293" lon="4.8038">
        <ele>224</ele>
        <time>2017-05-03T08:55:36Z</time>
      </trkpt>
      <trkpt lat="45.98291" lon="4.80389">
        <ele>224</ele>
        <time>2017-05-03T08:55:37Z</time>
      </trkpt>
      <trkpt lat="45.98289" lon="4.80399">
        <ele>224</ele>
        <time>2017-05-03T08:55:38Z</time>
      </trkpt>
      <trkpt lat="45.98287" lon="4.80409">
        <ele>224</ele>
        <time>2017-05-03T08:55:39Z</time>
      </trkpt>
      <trkpt lat="45.98285" lon="4.80418">
        <ele>223</ele>
        <time>2017-05-03T08:55:40Z</time>
      </trkpt>
      <trkpt lat="45.98283" lon="4.80428">
        <ele>223</ele>
        <time>2017-05-03T08:55:41Z</time>
      </trkpt>
      <trkpt lat="45.98281" lon="4.80438">
        <ele>223</ele>
        <time>2017-05-03T08:55:42Z</time>
      </trkpt>
      <trkpt lat="45.98279" lon="4.80447">
        <ele>223</ele>
        <time>2017-05-03T08:55:43Z</time>
      </trkpt>
      <trkpt lat="45.98278" lon="4.80456">
        <ele>223</ele>
        <time>2017-05-03T08:55:44Z</time>
      </trkpt>
      <trkpt lat="45.98276" lon="4.80465">
        <ele>223</ele>
        <time>2017-05-03T08:55:45Z</time>
      </trkpt>
      <trkpt lat="45.98274" lon="4.80475">
        <ele>223</ele>
        <time>2017-05-03T08:55:46Z</time>
      </trkpt>
      <trkpt lat="45.98271" lon="4.80484">
        <ele>223</ele>
        <time>2017-05-03T08:55:47Z</time>
      </trkpt>
      <trkpt lat="45.98269" lon="4.80493">
        <ele>223</ele>
        <time>2017-05-03T08:55:48Z</time>
      </trkpt>
      <trkpt lat="45.98267" lon="4.80501">
        <ele>223</ele>
        <time>2017-05-03T08:55:49Z</time>
      </trkpt>
      <trkpt lat="45.98265" lon="4.80509">
        <ele>223</ele>
        <time>2017-05-03T08:55:50Z</time>
      </trkpt>
      <trkpt lat="45.98264" lon="4.80516">
        <ele>223</ele>
        <time>2017-05-03T08:55:51Z</time>
      </trkpt>
      <trkpt lat="45.98263" lon="4.80523">
        <ele>223</ele>
        <time>2017-05-03T08:55:52Z</time>
      </trkpt>
      <trkpt lat="45.98262" lon="4.8053">
        <ele>224</ele>
        <time>2017-05-03T08:55:53Z</time>
      </trkpt>
      <trkpt lat="45.9826" lon="4.80538">
        <ele>224</ele>
        <time>2017-05-03T08:55:54Z</time>
      </trkpt>
      <trkpt lat="45.98258" lon="4.80545">
        <ele>224</ele>
        <time>2017-05-03T08:55:55Z</time>
      </trkpt>
      <trkpt lat="45.98255" lon="4.80552">
        <ele>224</ele>
        <time>2017-05-03T08:55:56Z</time>
      </trkpt>
      <trkpt lat="45.98252" lon="4.8056">
        <ele>224</ele>
        <time>2017-05-03T08:55:57Z</time>
      </trkpt>
      <trkpt lat="45.98249" lon="4.80567">
        <ele>223</ele>
        <time>2017-05-03T08:55:58Z</time>
      </trkpt>
      <trkpt lat="45.98246" lon="4.80574">
        <ele>224</ele>
        <time>2017-05-03T08:55:59Z</time>
      </trkpt>
      <trkpt lat="45.98243" lon="4.80581">
        <ele>224</ele>
        <time>2017-05-03T08:56:00Z</time>
      </trkpt>
      <trkpt lat="45.9824" lon="4.80589">
        <ele>224</ele>
        <time>2017-05-03T08:56:01Z</time>
      </trkpt>
      <trkpt lat="45.98238" lon="4.80597">
        <ele>224</ele>
        <time>2017-05-03T08:56:02Z</time>
      </trkpt>
      <trkpt lat="45.98236" lon="4.80605">
        <ele>224</ele>
        <time>2017-05-03T08:56:03Z</time>
      </trkpt>
      <trkpt lat="45.98234" lon="4.80613">
        <ele>224</ele>
        <time>2017-05-03T08:56:04Z</time>
      </trkpt>
      <trkpt lat="45.98231" lon="4.80621">
        <ele>224</ele>
        <time>2017-05-03T08:56:05Z</time>
      </trkpt>
      <trkpt lat="45.98229" lon="4.80629">
        <ele>224</ele>
        <time>2017-05-03T08:56:06Z</time>
      </trkpt>
      <trkpt lat="45.98227" lon="4.80636">
        <ele>224</ele>
        <time>2017-05-03T08:56:07Z</time>
      </trkpt>
      <trkpt lat="45.98225" lon="4.80643">
        <ele>224</ele>
        <time>2017-05-03T08:56:08Z</time>
      </trkpt>
      <trkpt lat="45.98222" lon="4.8065">
        <ele>224</ele>
        <time>2017-05-03T08:56:09Z</time>
      </trkpt>
      <trkpt lat="45.9822" lon="4.80656">
        <ele>224</ele>
        <time>2017-05-03T08:56:10Z</time>
      </trkpt>
      <trkpt lat="45.98215" lon="4.80665">
        <ele>224</ele>
        <time>2017-05-03T08:56:12Z</time>
      </trkpt>
      <trkpt lat="45.98212" lon="4.80668">
        <ele>224</ele>
        <time>2017-05-03T08:56:13Z</time>
      </trkpt>
      <trkpt lat="45.98205" lon="4.80673">
        <ele>224</ele>
        <time>2017-05-03T08:56:15Z</time>
      </trkpt>
      <trkpt lat="45.98202" lon="4.80674">
        <ele>225</ele>
        <time>2017-05-03T08:56:16Z</time>
      </trkpt>
      <trkpt lat="45.98194" lon="4.80675">
        <ele>225</ele>
        <time>2017-05-03T08:56:18Z</time>
      </trkpt>
      <trkpt lat="45.98189" lon="4.80679">
        <ele>225</ele>
        <time>2017-05-03T08:56:19Z</time>
      </trkpt>
      <trkpt lat="45.98183" lon="4.8068">
        <ele>225</ele>
        <time>2017-05-03T08:56:20Z</time>
      </trkpt>
      <trkpt lat="45.98177" lon="4.80683">
        <ele>225</ele>
        <time>2017-05-03T08:56:21Z</time>
      </trkpt>
      <trkpt lat="45.98172" lon="4.80684">
        <ele>225</ele>
        <time>2017-05-03T08:56:22Z</time>
      </trkpt>
      <trkpt lat="45.98167" lon="4.80684">
        <ele>225</ele>
        <time>2017-05-03T08:56:23Z</time>
      </trkpt>
      <trkpt lat="45.98158" lon="4.80685">
        <ele>227</ele>
        <time>2017-05-03T08:56:25Z</time>
      </trkpt>
      <trkpt lat="45.98154" lon="4.80685">
        <ele>227</ele>
        <time>2017-05-03T08:56:26Z</time>
      </trkpt>
      <trkpt lat="45.98146" lon="4.80686">
        <ele>228</ele>
        <time>2017-05-03T08:56:28Z</time>
      </trkpt>
      <trkpt lat="45.98141" lon="4.80687">
        <ele>228</ele>
        <time>2017-05-03T08:56:29Z</time>
      </trkpt>
      <trkpt lat="45.98133" lon="4.80687">
        <ele>228</ele>
        <time>2017-05-03T08:56:31Z</time>
      </trkpt>
      <trkpt lat="45.98129" lon="4.80687">
        <ele>228</ele>
        <time>2017-05-03T08:56:32Z</time>
      </trkpt>
      <trkpt lat="45.9812" lon="4.80686">
        <ele>228</ele>
        <time>2017-05-03T08:56:34Z</time>
      </trkpt>
      <trkpt lat="45.98116" lon="4.80686">
        <ele>228</ele>
        <time>2017-05-03T08:56:35Z</time>
      </trkpt>
      <trkpt lat="45.98107" lon="4.80686">
        <ele>228</ele>
        <time>2017-05-03T08:56:37Z</time>
      </trkpt>
      <trkpt lat="45.98103" lon="4.80686">
        <ele>228</ele>
        <time>2017-05-03T08:56:38Z</time>
      </trkpt>
      <trkpt lat="45.98095" lon="4.80686">
        <ele>228</ele>
        <time>2017-05-03T08:56:40Z</time>
      </trkpt>
      <trkpt lat="45.98091" lon="4.80687">
        <ele>228</ele>
        <time>2017-05-03T08:56:41Z</time>
      </trkpt>
      <trkpt lat="45.98084" lon="4.80687">
        <ele>228</ele>
        <time>2017-05-03T08:56:43Z</time>
      </trkpt>
      <trkpt lat="45.9808" lon="4.80687">
        <ele>229</ele>
        <time>2017-05-03T08:56:44Z</time>
      </trkpt>
      <trkpt lat="45.98073" lon="4.80687">
        <ele>230</ele>
        <time>2017-05-03T08:56:46Z</time>
      </trkpt>
      <trkpt lat="45.9807" lon="4.80687">
        <ele>230</ele>
        <time>2017-05-03T08:56:47Z</time>
      </trkpt>
      <trkpt lat="45.98064" lon="4.80689">
        <ele>230</ele>
        <time>2017-05-03T08:56:49Z</time>
      </trkpt>
      <trkpt lat="45.98061" lon="4.8069">
        <ele>230</ele>
        <time>2017-05-03T08:56:50Z</time>
      </trkpt>
      <trkpt lat="45.98052" lon="4.80692">
        <ele>230</ele>
        <time>2017-05-03T08:56:53Z</time>
      </trkpt>
      <trkpt lat="45.98049" lon="4.80693">
        <ele>230</ele>
        <time>2017-05-03T08:56:54Z</time>
      </trkpt>
      <trkpt lat="45.98043" lon="4.80694">
        <ele>230</ele>
        <time>2017-05-03T08:56:56Z</time>
      </trkpt>
      <trkpt lat="45.98039" lon="4.80697">
        <ele>230</ele>
        <time>2017-05-03T08:56:57Z</time>
      </trkpt>
      <trkpt lat="45.98033" lon="4.80705">
        <ele>231</ele>
        <time>2017-05-03T08:56:59Z</time>
      </trkpt>
      <trkpt lat="45.98032" lon="4.80709">
        <ele>231</ele>
        <time>2017-05-03T08:57:00Z</time>
      </trkpt>
      <trkpt lat="45.98032" lon="4.80721">
        <ele>231</ele>
        <time>2017-05-03T08:57:03Z</time>
      </trkpt>
      <trkpt lat="45.98033" lon="4.80725">
        <ele>231</ele>
        <time>2017-05-03T08:57:04Z</time>
      </trkpt>
      <trkpt lat="45.98036" lon="4.80733">
        <ele>231</ele>
        <time>2017-05-03T08:57:06Z</time>
      </trkpt>
      <trkpt lat="45.98037" lon="4.80738">
        <ele>231</ele>
        <time>2017-05-03T08:57:07Z</time>
      </trkpt>
      <trkpt lat="45.98037" lon="4.80748">
        <ele>231</ele>
        <time>2017-05-03T08:57:09Z</time>
      </trkpt>
      <trkpt lat="45.98037" lon="4.80752">
        <ele>233</ele>
        <time>2017-05-03T08:57:10Z</time>
      </trkpt>
      <trkpt lat="45.98039" lon="4.80764">
        <ele>233</ele>
        <time>2017-05-03T08:57:13Z</time>
      </trkpt>
      <trkpt lat="45.9804" lon="4.80767">
        <ele>233</ele>
        <time>2017-05-03T08:57:14Z</time>
      </trkpt>
      <trkpt lat="45.98042" lon="4.80779">
        <ele>233</ele>
        <time>2017-05-03T08:57:17Z</time>
      </trkpt>
      <trkpt lat="45.98043" lon="4.80783">
        <ele>233</ele>
        <time>2017-05-03T08:57:18Z</time>
      </trkpt>
      <trkpt lat="45.98047" lon="4.80795">
        <ele>233</ele>
        <time>2017-05-03T08:57:21Z</time>
      </trkpt>
      <trkpt lat="45.98047" lon="4.80799">
        <ele>234</ele>
        <time>2017-05-03T08:57:22Z</time>
      </trkpt>
      <trkpt lat="45.9805" lon="4.80811">
        <ele>234</ele>
        <time>2017-05-03T08:57:25Z</time>
      </trkpt>
      <trkpt lat="45.98051" lon="4.80815">
        <ele>234</ele>
        <time>2017-05-03T08:57:26Z</time>
      </trkpt>
      <trkpt lat="45.98053" lon="4.80827">
        <ele>234</ele>
        <time>2017-05-03T08:57:29Z</time>
      </trkpt>
      <trkpt lat="45.98054" lon="4.80832">
        <ele>234</ele>
        <time>2017-05-03T08:57:30Z</time>
      </trkpt>
      <trkpt lat="45.98057" lon="4.80842">
        <ele>236</ele>
        <time>2017-05-03T08:57:33Z</time>
      </trkpt>
      <trkpt lat="45.98058" lon="4.80845">
        <ele>236</ele>
        <time>2017-05-03T08:57:34Z</time>
      </trkpt>
      <trkpt lat="45.98061" lon="4.80853">
        <ele>236</ele>
        <time>2017-05-03T08:57:36Z</time>
      </trkpt>
      <trkpt lat="45.98062" lon="4.80858">
        <ele>236</ele>
        <time>2017-05-03T08:57:37Z</time>
      </trkpt>
      <trkpt lat="45.98064" lon="4.8087">
        <ele>237</ele>
        <time>2017-05-03T08:57:40Z</time>
      </trkpt>
      <trkpt lat="45.98065" lon="4.80874">
        <ele>237</ele>
        <time>2017-05-03T08:57:41Z</time>
      </trkpt>
      <trkpt lat="45.98067" lon="4.80886">
        <ele>237</ele>
        <time>2017-05-03T08:57:44Z</time>
      </trkpt>
      <trkpt lat="45.98068" lon="4.80889">
        <ele>238</ele>
        <time>2017-05-03T08:57:45Z</time>
      </trkpt>
      <trkpt lat="45.98071" lon="4.80899">
        <ele>238</ele>
        <time>2017-05-03T08:57:48Z</time>
      </trkpt>
      <trkpt lat="45.98072" lon="4.80903">
        <ele>238</ele>
        <time>2017-05-03T08:57:49Z</time>
      </trkpt>
      <trkpt lat="45.98074" lon="4.80911">
        <ele>238</ele>
        <time>2017-05-03T08:57:51Z</time>
      </trkpt>
      <trkpt lat="45.98075" lon="4.80915">
        <ele>239</ele>
        <time>2017-05-03T08:57:52Z</time>
      </trkpt>
      <trkpt lat="45.98077" lon="4.80928">
        <ele>240</ele>
        <time>2017-05-03T08:57:55Z</time>
      </trkpt>
      <trkpt lat="45.98078" lon="4.80932">
        <ele>240</ele>
        <time>2017-05-03T08:57:56Z</time>
      </trkpt>
      <trkpt lat="45.98081" lon="4.80939">
        <ele>240</ele>
        <time>2017-05-03T08:57:58Z</time>
      </trkpt>
      <trkpt lat="45.98083" lon="4.80943">
        <ele>240</ele>
        <time>2017-05-03T08:57:59Z</time>
      </trkpt>
      <trkpt lat="45.98085" lon="4.80951">
        <ele>238</ele>
        <time>2017-05-03T08:58:01Z</time>
      </trkpt>
      <trkpt lat="45.98085" lon="4.80955">
        <ele>239</ele>
        <time>2017-05-03T08:58:02Z</time>
      </trkpt>
      <trkpt lat="45.98088" lon="4.80968">
        <ele>239</ele>
        <time>2017-05-03T08:58:05Z</time>
      </trkpt>
      <trkpt lat="45.98089" lon="4.80972">
        <ele>239</ele>
        <time>2017-05-03T08:58:06Z</time>
      </trkpt>
      <trkpt lat="45.98093" lon="4.80982">
        <ele>240</ele>
        <time>2017-05-03T08:58:09Z</time>
      </trkpt>
      <trkpt lat="45.98094" lon="4.80985">
        <ele>240</ele>
        <time>2017-05-03T08:58:10Z</time>
      </trkpt>
      <trkpt lat="45.98095" lon="4.80993">
        <ele>240</ele>
        <time>2017-05-03T08:58:12Z</time>
      </trkpt>
      <trkpt lat="45.98096" lon="4.80998">
        <ele>240</ele>
        <time>2017-05-03T08:58:13Z</time>
      </trkpt>
      <trkpt lat="45.981" lon="4.81008">
        <ele>242</ele>
        <time>2017-05-03T08:58:15Z</time>
      </trkpt>
      <trkpt lat="45.98103" lon="4.81013">
        <ele>242</ele>
        <time>2017-05-03T08:58:16Z</time>
      </trkpt>
      <trkpt lat="45.98106" lon="4.81023">
        <ele>242</ele>
        <time>2017-05-03T08:58:18Z</time>
      </trkpt>
      <trkpt lat="45.98107" lon="4.81028">
        <ele>242</ele>
        <time>2017-05-03T08:58:19Z</time>
      </trkpt>
      <trkpt lat="45.98111" lon="4.81037">
        <ele>242</ele>
        <time>2017-05-03T08:58:21Z</time>
      </trkpt>
      <trkpt lat="45.98113" lon="4.81042">
        <ele>242</ele>
        <time>2017-05-03T08:58:22Z</time>
      </trkpt>
      <trkpt lat="45.98116" lon="4.81051">
        <ele>243</ele>
        <time>2017-05-03T08:58:24Z</time>
      </trkpt>
      <trkpt lat="45.98118" lon="4.81057">
        <ele>243</ele>
        <time>2017-05-03T08:58:25Z</time>
      </trkpt>
      <trkpt lat="45.98121" lon="4.81067">
        <ele>243</ele>
        <time>2017-05-03T08:58:27Z</time>
      </trkpt>
      <trkpt lat="45.98122" lon="4.81071">
        <ele>243</ele>
        <time>2017-05-03T08:58:28Z</time>
      </trkpt>
      <trkpt lat="45.98126" lon="4.8108">
        <ele>243</ele>
        <time>2017-05-03T08:58:30Z</time>
      </trkpt>
      <trkpt lat="45.98127" lon="4.81085">
        <ele>245</ele>
        <time>2017-05-03T08:58:31Z</time>
      </trkpt>
      <trkpt lat="45.9813" lon="4.81093">
        <ele>245</ele>
        <time>2017-05-03T08:58:33Z</time>
      </trkpt>
      <trkpt lat="45.98132" lon="4.81097">
        <ele>245</ele>
        <time>2017-05-03T08:58:34Z</time>
      </trkpt>
      <trkpt lat="45.98135" lon="4.81106">
        <ele>245</ele>
        <time>2017-05-03T08:58:36Z</time>
      </trkpt>
      <trkpt lat="45.98137" lon="4.81109">
        <ele>245</ele>
        <time>2017-05-03T08:58:37Z</time>
      </trkpt>
      <trkpt lat="45.98141" lon="4.81118">
        <ele>245</ele>
        <time>2017-05-03T08:58:39Z</time>
      </trkpt>
      <trkpt lat="45.98143" lon="4.81123">
        <ele>245</ele>
        <time>2017-05-03T08:58:40Z</time>
      </trkpt>
      <trkpt lat="45.98147" lon="4.81133">
        <ele>245</ele>
        <time>2017-05-03T08:58:42Z</time>
      </trkpt>
      <trkpt lat="45.98149" lon="4.81138">
        <ele>245</ele>
        <time>2017-05-03T08:58:43Z</time>
      </trkpt>
      <trkpt lat="45.98151" lon="4.81144">
        <ele>245</ele>
        <time>2017-05-03T08:58:44Z</time>
      </trkpt>
      <trkpt lat="45.98153" lon="4.8115">
        <ele>245</ele>
        <time>2017-05-03T08:58:45Z</time>
      </trkpt>
      <trkpt lat="45.98157" lon="4.8116">
        <ele>245</ele>
        <time>2017-05-03T08:58:47Z</time>
      </trkpt>
      <trkpt lat="45.98159" lon="4.81166">
        <ele>245</ele>
        <time>2017-05-03T08:58:48Z</time>
      </trkpt>
      <trkpt lat="45.98162" lon="4.81175">
        <ele>246</ele>
        <time>2017-05-03T08:58:50Z</time>
      </trkpt>
      <trkpt lat="45.98163" lon="4.8118">
        <ele>246</ele>
        <time>2017-05-03T08:58:51Z</time>
      </trkpt>
      <trkpt lat="45.98164" lon="4.8119">
        <ele>246</ele>
        <time>2017-05-03T08:58:53Z</time>
      </trkpt>
      <trkpt lat="45.98165" lon="4.81195">
        <ele>246</ele>
        <time>2017-05-03T08:58:54Z</time>
      </trkpt>
      <trkpt lat="45.98166" lon="4.81205">
        <ele>247</ele>
        <time>2017-05-03T08:58:56Z</time>
      </trkpt>
      <trkpt lat="45.98167" lon="4.81211">
        <ele>247</ele>
        <time>2017-05-03T08:58:57Z</time>
      </trkpt>
      <trkpt lat="45.98169" lon="4.81223">
        <ele>246</ele>
        <time>2017-05-03T08:58:59Z</time>
      </trkpt>
      <trkpt lat="45.9817" lon="4.81229">
        <ele>246</ele>
        <time>2017-05-03T08:59:00Z</time>
      </trkpt>
      <trkpt lat="45.98172" lon="4.81239">
        <ele>247</ele>
        <time>2017-05-03T08:59:02Z</time>
      </trkpt>
      <trkpt lat="45.98172" lon="4.81244">
        <ele>247</ele>
        <time>2017-05-03T08:59:03Z</time>
      </trkpt>
      <trkpt lat="45.98174" lon="4.81252">
        <ele>248</ele>
        <time>2017-05-03T08:59:05Z</time>
      </trkpt>
      <trkpt lat="45.98175" lon="4.81257">
        <ele>247</ele>
        <time>2017-05-03T08:59:06Z</time>
      </trkpt>
      <trkpt lat="45.98176" lon="4.81267">
        <ele>247</ele>
        <time>2017-05-03T08:59:08Z</time>
      </trkpt>
      <trkpt lat="45.98177" lon="4.81272">
        <ele>247</ele>
        <time>2017-05-03T08:59:09Z</time>
      </trkpt>
      <trkpt lat="45.98179" lon="4.81282">
        <ele>247</ele>
        <time>2017-05-03T08:59:11Z</time>
      </trkpt>
      <trkpt lat="45.9818" lon="4.81287">
        <ele>247</ele>
        <time>2017-05-03T08:59:12Z</time>
      </trkpt>
      <trkpt lat="45.9818" lon="4.81295">
        <ele>247</ele>
        <time>2017-05-03T08:59:13Z</time>
      </trkpt>
      <trkpt lat="45.98181" lon="4.81301">
        <ele>247</ele>
        <time>2017-05-03T08:59:14Z</time>
      </trkpt>
      <trkpt lat="45.98183" lon="4.81313">
        <ele>247</ele>
        <time>2017-05-03T08:59:16Z</time>
      </trkpt>
      <trkpt lat="45.98184" lon="4.81319">
        <ele>247</ele>
        <time>2017-05-03T08:59:17Z</time>
      </trkpt>
      <trkpt lat="45.98187" lon="4.81331">
        <ele>247</ele>
        <time>2017-05-03T08:59:19Z</time>
      </trkpt>
      <trkpt lat="45.98188" lon="4.81336">
        <ele>248</ele>
        <time>2017-05-03T08:59:20Z</time>
      </trkpt>
      <trkpt lat="45.9819" lon="4.81348">
        <ele>248</ele>
        <time>2017-05-03T08:59:22Z</time>
      </trkpt>
      <trkpt lat="45.9819" lon="4.81354">
        <ele>248</ele>
        <time>2017-05-03T08:59:23Z</time>
      </trkpt>
      <trkpt lat="45.98191" lon="4.81366">
        <ele>248</ele>
        <time>2017-05-03T08:59:25Z</time>
      </trkpt>
      <trkpt lat="45.98192" lon="4.81371">
        <ele>248</ele>
        <time>2017-05-03T08:59:26Z</time>
      </trkpt>
      <trkpt lat="45.98195" lon="4.81382">
        <ele>248</ele>
        <time>2017-05-03T08:59:28Z</time>
      </trkpt>
      <trkpt lat="45.98196" lon="4.81387">
        <ele>248</ele>
        <time>2017-05-03T08:59:29Z</time>
      </trkpt>
      <trkpt lat="45.98199" lon="4.81397">
        <ele>248</ele>
        <time>2017-05-03T08:59:31Z</time>
      </trkpt>
      <trkpt lat="45.98201" lon="4.81402">
        <ele>248</ele>
        <time>2017-05-03T08:59:32Z</time>
      </trkpt>
      <trkpt lat="45.98204" lon="4.81411">
        <ele>248</ele>
        <time>2017-05-03T08:59:34Z</time>
      </trkpt>
      <trkpt lat="45.98205" lon="4.81416">
        <ele>248</ele>
        <time>2017-05-03T08:59:35Z</time>
      </trkpt>
      <trkpt lat="45.98209" lon="4.81425">
        <ele>249</ele>
        <time>2017-05-03T08:59:37Z</time>
      </trkpt>
      <trkpt lat="45.9821" lon="4.8143">
        <ele>249</ele>
        <time>2017-05-03T08:59:38Z</time>
      </trkpt>
      <trkpt lat="45.98214" lon="4.81441">
        <ele>249</ele>
        <time>2017-05-03T08:59:40Z</time>
      </trkpt>
      <trkpt lat="45.98216" lon="4.81446">
        <ele>249</ele>
        <time>2017-05-03T08:59:41Z</time>
      </trkpt>
      <trkpt lat="45.9822" lon="4.81457">
        <ele>249</ele>
        <time>2017-05-03T08:59:43Z</time>
      </trkpt>
      <trkpt lat="45.98222" lon="4.81462">
        <ele>249</ele>
        <time>2017-05-03T08:59:44Z</time>
      </trkpt>
      <trkpt lat="45.98225" lon="4.81474">
        <ele>249</ele>
        <time>2017-05-03T08:59:46Z</time>
      </trkpt>
      <trkpt lat="45.98227" lon="4.8148">
        <ele>249</ele>
        <time>2017-05-03T08:59:47Z</time>
      </trkpt>
      <trkpt lat="45.98231" lon="4.81491">
        <ele>249</ele>
        <time>2017-05-03T08:59:49Z</time>
      </trkpt>
      <trkpt lat="45.98234" lon="4.81497">
        <ele>249</ele>
        <time>2017-05-03T08:59:50Z</time>
      </trkpt>
      <trkpt lat="45.98236" lon="4.81502">
        <ele>249</ele>
        <time>2017-05-03T08:59:51Z</time>
      </trkpt>
      <trkpt lat="45.98238" lon="4.81508">
        <ele>249</ele>
        <time>2017-05-03T08:59:52Z</time>
      </trkpt>
      <trkpt lat="45.9824" lon="4.81515">
        <ele>249</ele>
        <time>2017-05-03T08:59:53Z</time>
      </trkpt>
      <trkpt lat="45.98242" lon="4.81521">
        <ele>249</ele>
        <time>2017-05-03T08:59:54Z</time>
      </trkpt>
      <trkpt lat="45.98243" lon="4.81528">
        <ele>249</ele>
        <time>2017-05-03T08:59:55Z</time>
      </trkpt>
      <trkpt lat="45.98245" lon="4.81534">
        <ele>249</ele>
        <time>2017-05-03T08:59:56Z</time>
      </trkpt>
      <trkpt lat="45.98247" lon="4.8154">
        <ele>249</ele>
        <time>2017-05-03T08:59:57Z</time>
      </trkpt>
      <trkpt lat="45.9825" lon="4.81547">
        <ele>249</ele>
        <time>2017-05-03T08:59:58Z</time>
      </trkpt>
      <trkpt lat="45.98252" lon="4.81553">
        <ele>247</ele>
        <time>2017-05-03T08:59:59Z</time>
      </trkpt>
      <trkpt lat="45.98254" lon="4.8156">
        <ele>247</ele>
        <time>2017-05-03T09:00:00Z</time>
      </trkpt>
      <trkpt lat="45.98256" lon="4.81566">
        <ele>247</ele>
        <time>2017-05-03T09:00:01Z</time>
      </trkpt>
      <trkpt lat="45.98258" lon="4.81573">
        <ele>247</ele>
        <time>2017-05-03T09:00:02Z</time>
      </trkpt>
      <trkpt lat="45.9826" lon="4.8158">
        <ele>247</ele>
        <time>2017-05-03T09:00:03Z</time>
      </trkpt>
      <trkpt lat="45.98262" lon="4.81587">
        <ele>247</ele>
        <time>2017-05-03T09:00:04Z</time>
      </trkpt>
      <trkpt lat="45.98265" lon="4.81595">
        <ele>247</ele>
        <time>2017-05-03T09:00:05Z</time>
      </trkpt>
      <trkpt lat="45.98268" lon="4.81602">
        <ele>247</ele>
        <time>2017-05-03T09:00:06Z</time>
      </trkpt>
      <trkpt lat="45.98271" lon="4.8161">
        <ele>247</ele>
        <time>2017-05-03T09:00:07Z</time>
      </trkpt>
      <trkpt lat="45.98274" lon="4.81617">
        <ele>247</ele>
        <time>2017-05-03T09:00:08Z</time>
      </trkpt>
      <trkpt lat="45.98277" lon="4.81624">
        <ele>247</ele>
        <time>2017-05-03T09:00:09Z</time>
      </trkpt>
      <trkpt lat="45.98281" lon="4.8163">
        <ele>247</ele>
        <time>2017-05-03T09:00:10Z</time>
      </trkpt>
      <trkpt lat="45.98285" lon="4.81635">
        <ele>247</ele>
        <time>2017-05-03T09:00:11Z</time>
      </trkpt>
      <trkpt lat="45.98289" lon="4.8164">
        <ele>247</ele>
        <time>2017-05-03T09:00:12Z</time>
      </trkpt>
      <trkpt lat="45.98293" lon="4.81645">
        <ele>247</ele>
        <time>2017-05-03T09:00:13Z</time>
      </trkpt>
      <trkpt lat="45.98298" lon="4.81649">
        <ele>247</ele>
        <time>2017-05-03T09:00:14Z</time>
      </trkpt>
      <trkpt lat="45.98302" lon="4.81653">
        <ele>247</ele>
        <time>2017-05-03T09:00:15Z</time>
      </trkpt>
      <trkpt lat="45.98306" lon="4.81657">
        <ele>246</ele>
        <time>2017-05-03T09:00:16Z</time>
      </trkpt>
      <trkpt lat="45.9831" lon="4.81661">
        <ele>246</ele>
        <time>2017-05-03T09:00:17Z</time>
      </trkpt>
      <trkpt lat="45.98315" lon="4.81665">
        <ele>246</ele>
        <time>2017-05-03T09:00:18Z</time>
      </trkpt>
      <trkpt lat="45.9832" lon="4.81668">
        <ele>247</ele>
        <time>2017-05-03T09:00:19Z</time>
      </trkpt>
      <trkpt lat="45.98325" lon="4.81671">
        <ele>246</ele>
        <time>2017-05-03T09:00:20Z</time>
      </trkpt>
      <trkpt lat="45.98331" lon="4.81674">
        <ele>246</ele>
        <time>2017-05-03T09:00:21Z</time>
      </trkpt>
      <trkpt lat="45.98336" lon="4.81677">
        <ele>245</ele>
        <time>2017-05-03T09:00:22Z</time>
      </trkpt>
      <trkpt lat="45.98342" lon="4.81679">
        <ele>245</ele>
        <time>2017-05-03T09:00:23Z</time>
      </trkpt>
      <trkpt lat="45.98348" lon="4.8168">
        <ele>245</ele>
        <time>2017-05-03T09:00:24Z</time>
      </trkpt>
      <trkpt lat="45.98354" lon="4.81681">
        <ele>245</ele>
        <time>2017-05-03T09:00:25Z</time>
      </trkpt>
      <trkpt lat="45.9836" lon="4.8168">
        <ele>244</ele>
        <time>2017-05-03T09:00:26Z</time>
      </trkpt>
      <trkpt lat="45.98366" lon="4.81678">
        <ele>244</ele>
        <time>2017-05-03T09:00:27Z</time>
      </trkpt>
      <trkpt lat="45.98372" lon="4.81677">
        <ele>244</ele>
        <time>2017-05-03T09:00:28Z</time>
      </trkpt>
      <trkpt lat="45.98378" lon="4.81676">
        <ele>244</ele>
        <time>2017-05-03T09:00:29Z</time>
      </trkpt>
      <trkpt lat="45.98383" lon="4.81674">
        <ele>243</ele>
        <time>2017-05-03T09:00:30Z</time>
      </trkpt>
      <trkpt lat="45.98389" lon="4.81672">
        <ele>243</ele>
        <time>2017-05-03T09:00:31Z</time>
      </trkpt>
      <trkpt lat="45.98395" lon="4.81671">
        <ele>243</ele>
        <time>2017-05-03T09:00:32Z</time>
      </trkpt>
      <trkpt lat="45.984" lon="4.81669">
        <ele>243</ele>
        <time>2017-05-03T09:00:33Z</time>
      </trkpt>
      <trkpt lat="45.98405" lon="4.81668">
        <ele>242</ele>
        <time>2017-05-03T09:00:34Z</time>
      </trkpt>
      <trkpt lat="45.98411" lon="4.81668">
        <ele>242</ele>
        <time>2017-05-03T09:00:35Z</time>
      </trkpt>
      <trkpt lat="45.98416" lon="4.81668">
        <ele>241</ele>
        <time>2017-05-03T09:00:36Z</time>
      </trkpt>
      <trkpt lat="45.98421" lon="4.81669">
        <ele>241</ele>
        <time>2017-05-03T09:00:37Z</time>
      </trkpt>
      <trkpt lat="45.98425" lon="4.8167">
        <ele>240</ele>
        <time>2017-05-03T09:00:38Z</time>
      </trkpt>
      <trkpt lat="45.9843" lon="4.81673">
        <ele>240</ele>
        <time>2017-05-03T09:00:39Z</time>
      </trkpt>
      <trkpt lat="45.98434" lon="4.81677">
        <ele>240</ele>
        <time>2017-05-03T09:00:40Z</time>
      </trkpt>
      <trkpt lat="45.98439" lon="4.81682">
        <ele>240</ele>
        <time>2017-05-03T09:00:41Z</time>
      </trkpt>
      <trkpt lat="45.98443" lon="4.81688">
        <ele>239</ele>
        <time>2017-05-03T09:00:42Z</time>
      </trkpt>
      <trkpt lat="45.98447" lon="4.81695">
        <ele>239</ele>
        <time>2017-05-03T09:00:43Z</time>
      </trkpt>
      <trkpt lat="45.98451" lon="4.81702">
        <ele>239</ele>
        <time>2017-05-03T09:00:44Z</time>
      </trkpt>
      <trkpt lat="45.98454" lon="4.81709">
        <ele>239</ele>
        <time>2017-05-03T09:00:45Z</time>
      </trkpt>
      <trkpt lat="45.98459" lon="4.81716">
        <ele>239</ele>
        <time>2017-05-03T09:00:46Z</time>
      </trkpt>
      <trkpt lat="45.98463" lon="4.81723">
        <ele>239</ele>
        <time>2017-05-03T09:00:47Z</time>
      </trkpt>
      <trkpt lat="45.98469" lon="4.81729">
        <ele>239</ele>
        <time>2017-05-03T09:00:48Z</time>
      </trkpt>
      <trkpt lat="45.98475" lon="4.81735">
        <ele>239</ele>
        <time>2017-05-03T09:00:49Z</time>
      </trkpt>
      <trkpt lat="45.98481" lon="4.81742">
        <ele>238</ele>
        <time>2017-05-03T09:00:50Z</time>
      </trkpt>
      <trkpt lat="45.98488" lon="4.81748">
        <ele>238</ele>
        <time>2017-05-03T09:00:51Z</time>
      </trkpt>
      <trkpt lat="45.98494" lon="4.81755">
        <ele>238</ele>
        <time>2017-05-03T09:00:52Z</time>
      </trkpt>
      <trkpt lat="45.985" lon="4.81762">
        <ele>238</ele>
        <time>2017-05-03T09:00:53Z</time>
      </trkpt>
      <trkpt lat="45.98506" lon="4.81771">
        <ele>237</ele>
        <time>2017-05-03T09:00:54Z</time>
      </trkpt>
      <trkpt lat="45.98512" lon="4.81779">
        <ele>238</ele>
        <time>2017-05-03T09:00:55Z</time>
      </trkpt>
      <trkpt lat="45.98518" lon="4.81787">
        <ele>238</ele>
        <time>2017-05-03T09:00:56Z</time>
      </trkpt>
      <trkpt lat="45.98524" lon="4.81794">
        <ele>238</ele>
        <time>2017-05-03T09:00:57Z</time>
      </trkpt>
      <trkpt lat="45.98529" lon="4.81802">
        <ele>238</ele>
        <time>2017-05-03T09:00:58Z</time>
      </trkpt>
      <trkpt lat="45.98535" lon="4.81807">
        <ele>238</ele>
        <time>2017-05-03T09:00:59Z</time>
      </trkpt>
      <trkpt lat="45.9854" lon="4.81811">
        <ele>238</ele>
        <time>2017-05-03T09:01:00Z</time>
      </trkpt>
      <trkpt lat="45.98545" lon="4.81812">
        <ele>238</ele>
        <time>2017-05-03T09:01:01Z</time>
      </trkpt>
      <trkpt lat="45.98551" lon="4.8181">
        <ele>238</ele>
        <time>2017-05-03T09:01:02Z</time>
      </trkpt>
      <trkpt lat="45.98555" lon="4.81806">
        <ele>238</ele>
        <time>2017-05-03T09:01:03Z</time>
      </trkpt>
      <trkpt lat="45.9856" lon="4.81801">
        <ele>238</ele>
        <time>2017-05-03T09:01:04Z</time>
      </trkpt>
      <trkpt lat="45.98563" lon="4.81796">
        <ele>238</ele>
        <time>2017-05-03T09:01:05Z</time>
      </trkpt>
      <trkpt lat="45.98567" lon="4.8179">
        <ele>238</ele>
        <time>2017-05-03T09:01:06Z</time>
      </trkpt>
      <trkpt lat="45.98571" lon="4.81785">
        <ele>238</ele>
        <time>2017-05-03T09:01:07Z</time>
      </trkpt>
      <trkpt lat="45.98575" lon="4.81781">
        <ele>238</ele>
        <time>2017-05-03T09:01:08Z</time>
      </trkpt>
      <trkpt lat="45.9858" lon="4.81777">
        <ele>237</ele>
        <time>2017-05-03T09:01:09Z</time>
      </trkpt>
      <trkpt lat="45.98585" lon="4.81774">
        <ele>238</ele>
        <time>2017-05-03T09:01:10Z</time>
      </trkpt>
      <trkpt lat="45.98591" lon="4.81771">
        <ele>238</ele>
        <time>2017-05-03T09:01:11Z</time>
      </trkpt>
      <trkpt lat="45.98596" lon="4.81769">
        <ele>238</ele>
        <time>2017-05-03T09:01:12Z</time>
      </trkpt>
      <trkpt lat="45.98601" lon="4.81767">
        <ele>238</ele>
        <time>2017-05-03T09:01:13Z</time>
      </trkpt>
      <trkpt lat="45.98606" lon="4.81765">
        <ele>238</ele>
        <time>2017-05-03T09:01:14Z</time>
      </trkpt>
      <trkpt lat="45.98611" lon="4.81763">
        <ele>238</ele>
        <time>2017-05-03T09:01:15Z</time>
      </trkpt>
      <trkpt lat="45.98616" lon="4.81762">
        <ele>238</ele>
        <time>2017-05-03T09:01:16Z</time>
      </trkpt>
      <trkpt lat="45.98621" lon="4.8176">
        <ele>238</ele>
        <time>2017-05-03T09:01:17Z</time>
      </trkpt>
      <trkpt lat="45.98625" lon="4.81759">
        <ele>238</ele>
        <time>2017-05-03T09:01:18Z</time>
      </trkpt>
      <trkpt lat="45.9863" lon="4.81758">
        <ele>238</ele>
        <time>2017-05-03T09:01:19Z</time>
      </trkpt>
      <trkpt lat="45.98634" lon="4.81756">
        <ele>238</ele>
        <time>2017-05-03T09:01:20Z</time>
      </trkpt>
      <trkpt lat="45.98639" lon="4.81754">
        <ele>238</ele>
        <time>2017-05-03T09:01:21Z</time>
      </trkpt>
      <trkpt lat="45.98644" lon="4.81753">
        <ele>238</ele>
        <time>2017-05-03T09:01:22Z</time>
      </trkpt>
      <trkpt lat="45.98649" lon="4.81752">
        <ele>238</ele>
        <time>2017-05-03T09:01:23Z</time>
      </trkpt>
      <trkpt lat="45.98654" lon="4.8175">
        <ele>238</ele>
        <time>2017-05-03T09:01:24Z</time>
      </trkpt>
      <trkpt lat="45.98659" lon="4.81748">
        <ele>238</ele>
        <time>2017-05-03T09:01:25Z</time>
      </trkpt>
      <trkpt lat="45.98663" lon="4.81746">
        <ele>238</ele>
        <time>2017-05-03T09:01:26Z</time>
      </trkpt>
      <trkpt lat="45.98671" lon="4.81744">
        <ele>238</ele>
        <time>2017-05-03T09:01:28Z</time>
      </trkpt>
      <trkpt lat="45.98675" lon="4.81743">
        <ele>238</ele>
        <time>2017-05-03T09:01:29Z</time>
      </trkpt>
      <trkpt lat="45.9868" lon="4.81742">
        <ele>238</ele>
        <time>2017-05-03T09:01:30Z</time>
      </trkpt>
      <trkpt lat="45.98684" lon="4.81741">
        <ele>238</ele>
        <time>2017-05-03T09:01:31Z</time>
      </trkpt>
      <trkpt lat="45.98689" lon="4.81739">
        <ele>238</ele>
        <time>2017-05-03T09:01:32Z</time>
      </trkpt>
      <trkpt lat="45.98693" lon="4.81738">
        <ele>238</ele>
        <time>2017-05-03T09:01:33Z</time>
      </trkpt>
      <trkpt lat="45.98698" lon="4.81736">
        <ele>239</ele>
        <time>2017-05-03T09:01:34Z</time>
      </trkpt>
      <trkpt lat="45.98703" lon="4.81735">
        <ele>239</ele>
        <time>2017-05-03T09:01:35Z</time>
      </trkpt>
      <trkpt lat="45.98708" lon="4.81735">
        <ele>239</ele>
        <time>2017-05-03T09:01:36Z</time>
      </trkpt>
      <trkpt lat="45.98714" lon="4.81737">
        <ele>239</ele>
        <time>2017-05-03T09:01:37Z</time>
      </trkpt>
      <trkpt lat="45.98718" lon="4.81741">
        <ele>239</ele>
        <time>2017-05-03T09:01:38Z</time>
      </trkpt>
      <trkpt lat="45.98722" lon="4.81745">
        <ele>239</ele>
        <time>2017-05-03T09:01:39Z</time>
      </trkpt>
      <trkpt lat="45.98724" lon="4.81751">
        <ele>240</ele>
        <time>2017-05-03T09:01:40Z</time>
      </trkpt>
      <trkpt lat="45.98727" lon="4.81757">
        <ele>240</ele>
        <time>2017-05-03T09:01:41Z</time>
      </trkpt>
      <trkpt lat="45.98729" lon="4.81763">
        <ele>240</ele>
        <time>2017-05-03T09:01:42Z</time>
      </trkpt>
      <trkpt lat="45.98732" lon="4.81769">
        <ele>240</ele>
        <time>2017-05-03T09:01:43Z</time>
      </trkpt>
      <trkpt lat="45.98735" lon="4.81775">
        <ele>240</ele>
        <time>2017-05-03T09:01:44Z</time>
      </trkpt>
      <trkpt lat="45.98739" lon="4.81781">
        <ele>240</ele>
        <time>2017-05-03T09:01:45Z</time>
      </trkpt>
      <trkpt lat="45.98742" lon="4.81788">
        <ele>240</ele>
        <time>2017-05-03T09:01:46Z</time>
      </trkpt>
      <trkpt lat="45.98745" lon="4.81795">
        <ele>239</ele>
        <time>2017-05-03T09:01:47Z</time>
      </trkpt>
      <trkpt lat="45.98749" lon="4.81801">
        <ele>239</ele>
        <time>2017-05-03T09:01:48Z</time>
      </trkpt>
      <trkpt lat="45.98752" lon="4.81808">
        <ele>240</ele>
        <time>2017-05-03T09:01:49Z</time>
      </trkpt>
      <trkpt lat="45.98756" lon="4.81815">
        <ele>240</ele>
        <time>2017-05-03T09:01:50Z</time>
      </trkpt>
      <trkpt lat="45.98759" lon="4.81822">
        <ele>240</ele>
        <time>2017-05-03T09:01:51Z</time>
      </trkpt>
      <trkpt lat="45.98763" lon="4.81829">
        <ele>240</ele>
        <time>2017-05-03T09:01:52Z</time>
      </trkpt>
      <trkpt lat="45.98766" lon="4.81837">
        <ele>239</ele>
        <time>2017-05-03T09:01:53Z</time>
      </trkpt>
      <trkpt lat="45.98769" lon="4.81844">
        <ele>239</ele>
        <time>2017-05-03T09:01:54Z</time>
      </trkpt>
      <trkpt lat="45.98773" lon="4.81851">
        <ele>239</ele>
        <time>2017-05-03T09:01:55Z</time>
      </trkpt>
      <trkpt lat="45.98776" lon="4.81858">
        <ele>239</ele>
        <time>2017-05-03T09:01:56Z</time>
      </trkpt>
      <trkpt lat="45.98779" lon="4.81865">
        <ele>239</ele>
        <time>2017-05-03T09:01:57Z</time>
      </trkpt>
      <trkpt lat="45.98782" lon="4.81873">
        <ele>239</ele>
        <time>2017-05-03T09:01:58Z</time>
      </trkpt>
      <trkpt lat="45.98785" lon="4.81881">
        <ele>239</ele>
        <time>2017-05-03T09:01:59Z</time>
      </trkpt>
      <trkpt lat="45.98787" lon="4.81889">
        <ele>239</ele>
        <time>2017-05-03T09:02:00Z</time>
      </trkpt>
      <trkpt lat="45.9879" lon="4.81897">
        <ele>239</ele>
        <time>2017-05-03T09:02:01Z</time>
      </trkpt>
      <trkpt lat="45.98792" lon="4.81904">
        <ele>239</ele>
        <time>2017-05-03T09:02:02Z</time>
      </trkpt>
      <trkpt lat="45.98796" lon="4.81912">
        <ele>239</ele>
        <time>2017-05-03T09:02:03Z</time>
      </trkpt>
      <trkpt lat="45.98798" lon="4.8192">
        <ele>239</ele>
        <time>2017-05-03T09:02:04Z</time>
      </trkpt>
      <trkpt lat="45.988" lon="4.81928">
        <ele>239</ele>
        <time>2017-05-03T09:02:05Z</time>
      </trkpt>
      <trkpt lat="45.98803" lon="4.81936">
        <ele>239</ele>
        <time>2017-05-03T09:02:06Z</time>
      </trkpt>
      <trkpt lat="45.98805" lon="4.81945">
        <ele>239</ele>
        <time>2017-05-03T09:02:07Z</time>
      </trkpt>
      <trkpt lat="45.98806" lon="4.81954">
        <ele>239</ele>
        <time>2017-05-03T09:02:08Z</time>
      </trkpt>
      <trkpt lat="45.98807" lon="4.81962">
        <ele>239</ele>
        <time>2017-05-03T09:02:09Z</time>
      </trkpt>
      <trkpt lat="45.98809" lon="4.81971">
        <ele>239</ele>
        <time>2017-05-03T09:02:10Z</time>
      </trkpt>
      <trkpt lat="45.9881" lon="4.8198">
        <ele>239</ele>
        <time>2017-05-03T09:02:11Z</time>
      </trkpt>
      <trkpt lat="45.98811" lon="4.81988">
        <ele>239</ele>
        <time>2017-05-03T09:02:12Z</time>
      </trkpt>
      <trkpt lat="45.98812" lon="4.81996">
        <ele>238</ele>
        <time>2017-05-03T09:02:13Z</time>
      </trkpt>
      <trkpt lat="45.98814" lon="4.82004">
        <ele>238</ele>
        <time>2017-05-03T09:02:14Z</time>
      </trkpt>
      <trkpt lat="45.98815" lon="4.82011">
        <ele>238</ele>
        <time>2017-05-03T09:02:15Z</time>
      </trkpt>
      <trkpt lat="45.98816" lon="4.82019">
        <ele>238</ele>
        <time>2017-05-03T09:02:16Z</time>
      </trkpt>
      <trkpt lat="45.98817" lon="4.82026">
        <ele>238</ele>
        <time>2017-05-03T09:02:17Z</time>
      </trkpt>
      <trkpt lat="45.98819" lon="4.82034">
        <ele>238</ele>
        <time>2017-05-03T09:02:18Z</time>
      </trkpt>
      <trkpt lat="45.9882" lon="4.82042">
        <ele>238</ele>
        <time>2017-05-03T09:02:19Z</time>
      </trkpt>
      <trkpt lat="45.98821" lon="4.8205">
        <ele>238</ele>
        <time>2017-05-03T09:02:20Z</time>
      </trkpt>
      <trkpt lat="45.98823" lon="4.82059">
        <ele>237</ele>
        <time>2017-05-03T09:02:21Z</time>
      </trkpt>
      <trkpt lat="45.98824" lon="4.82067">
        <ele>237</ele>
        <time>2017-05-03T09:02:22Z</time>
      </trkpt>
      <trkpt lat="45.98826" lon="4.82076">
        <ele>237</ele>
        <time>2017-05-03T09:02:23Z</time>
      </trkpt>
      <trkpt lat="45.98827" lon="4.82084">
        <ele>236</ele>
        <time>2017-05-03T09:02:24Z</time>
      </trkpt>
      <trkpt lat="45.98829" lon="4.82092">
        <ele>237</ele>
        <time>2017-05-03T09:02:25Z</time>
      </trkpt>
      <trkpt lat="45.9883" lon="4.821">
        <ele>237</ele>
        <time>2017-05-03T09:02:26Z</time>
      </trkpt>
      <trkpt lat="45.98831" lon="4.82109">
        <ele>237</ele>
        <time>2017-05-03T09:02:27Z</time>
      </trkpt>
      <trkpt lat="45.98833" lon="4.82117">
        <ele>237</ele>
        <time>2017-05-03T09:02:28Z</time>
      </trkpt>
      <trkpt lat="45.98835" lon="4.82125">
        <ele>236</ele>
        <time>2017-05-03T09:02:29Z</time>
      </trkpt>
      <trkpt lat="45.98837" lon="4.82133">
        <ele>236</ele>
        <time>2017-05-03T09:02:30Z</time>
      </trkpt>
      <trkpt lat="45.98838" lon="4.8214">
        <ele>236</ele>
        <time>2017-05-03T09:02:31Z</time>
      </trkpt>
      <trkpt lat="45.9884" lon="4.82147">
        <ele>236</ele>
        <time>2017-05-03T09:02:32Z</time>
      </trkpt>
      <trkpt lat="45.98841" lon="4.82154">
        <ele>236</ele>
        <time>2017-05-03T09:02:33Z</time>
      </trkpt>
      <trkpt lat="45.98843" lon="4.82161">
        <ele>236</ele>
        <time>2017-05-03T09:02:34Z</time>
      </trkpt>
      <trkpt lat="45.98845" lon="4.82167">
        <ele>237</ele>
        <time>2017-05-03T09:02:35Z</time>
      </trkpt>
      <trkpt lat="45.98847" lon="4.82174">
        <ele>236</ele>
        <time>2017-05-03T09:02:36Z</time>
      </trkpt>
      <trkpt lat="45.98849" lon="4.82181">
        <ele>236</ele>
        <time>2017-05-03T09:02:37Z</time>
      </trkpt>
      <trkpt lat="45.98851" lon="4.82188">
        <ele>236</ele>
        <time>2017-05-03T09:02:38Z</time>
      </trkpt>
      <trkpt lat="45.98854" lon="4.82195">
        <ele>236</ele>
        <time>2017-05-03T09:02:39Z</time>
      </trkpt>
      <trkpt lat="45.98856" lon="4.82203">
        <ele>236</ele>
        <time>2017-05-03T09:02:40Z</time>
      </trkpt>
      <trkpt lat="45.98859" lon="4.8221">
        <ele>236</ele>
        <time>2017-05-03T09:02:41Z</time>
      </trkpt>
      <trkpt lat="45.98862" lon="4.82217">
        <ele>236</ele>
        <time>2017-05-03T09:02:42Z</time>
      </trkpt>
      <trkpt lat="45.98865" lon="4.82224">
        <ele>236</ele>
        <time>2017-05-03T09:02:43Z</time>
      </trkpt>
      <trkpt lat="45.98868" lon="4.82231">
        <ele>236</ele>
        <time>2017-05-03T09:02:44Z</time>
      </trkpt>
      <trkpt lat="45.98871" lon="4.82237">
        <ele>236</ele>
        <time>2017-05-03T09:02:45Z</time>
      </trkpt>
      <trkpt lat="45.98873" lon="4.82244">
        <ele>236</ele>
        <time>2017-05-03T09:02:46Z</time>
      </trkpt>
      <trkpt lat="45.98876" lon="4.82249">
        <ele>236</ele>
        <time>2017-05-03T09:02:47Z</time>
      </trkpt>
      <trkpt lat="45.98878" lon="4.82255">
        <ele>237</ele>
        <time>2017-05-03T09:02:48Z</time>
      </trkpt>
      <trkpt lat="45.98881" lon="4.82261">
        <ele>237</ele>
        <time>2017-05-03T09:02:49Z</time>
      </trkpt>
      <trkpt lat="45.98884" lon="4.82266">
        <ele>237</ele>
        <time>2017-05-03T09:02:50Z</time>
      </trkpt>
      <trkpt lat="45.98887" lon="4.82272">
        <ele>237</ele>
        <time>2017-05-03T09:02:51Z</time>
      </trkpt>
      <trkpt lat="45.98891" lon="4.82278">
        <ele>237</ele>
        <time>2017-05-03T09:02:52Z</time>
      </trkpt>
      <trkpt lat="45.98895" lon="4.82284">
        <ele>237</ele>
        <time>2017-05-03T09:02:53Z</time>
      </trkpt>
      <trkpt lat="45.98899" lon="4.8229">
        <ele>237</ele>
        <time>2017-05-03T09:02:54Z</time>
      </trkpt>
      <trkpt lat="45.98904" lon="4.82295">
        <ele>237</ele>
        <time>2017-05-03T09:02:55Z</time>
      </trkpt>
      <trkpt lat="45.98908" lon="4.82301">
        <ele>237</ele>
        <time>2017-05-03T09:02:56Z</time>
      </trkpt>
      <trkpt lat="45.98913" lon="4.82306">
        <ele>237</ele>
        <time>2017-05-03T09:02:57Z</time>
      </trkpt>
      <trkpt lat="45.98918" lon="4.82311">
        <ele>235</ele>
        <time>2017-05-03T09:02:58Z</time>
      </trkpt>
      <trkpt lat="45.98923" lon="4.82316">
        <ele>235</ele>
        <time>2017-05-03T09:02:59Z</time>
      </trkpt>
      <trkpt lat="45.98928" lon="4.82321">
        <ele>235</ele>
        <time>2017-05-03T09:03:00Z</time>
      </trkpt>
      <trkpt lat="45.98932" lon="4.82327">
        <ele>235</ele>
        <time>2017-05-03T09:03:01Z</time>
      </trkpt>
      <trkpt lat="45.98936" lon="4.82332">
        <ele>235</ele>
        <time>2017-05-03T09:03:02Z</time>
      </trkpt>
      <trkpt lat="45.9894" lon="4.82337">
        <ele>235</ele>
        <time>2017-05-03T09:03:03Z</time>
      </trkpt>
      <trkpt lat="45.98944" lon="4.82343">
        <ele>235</ele>
        <time>2017-05-03T09:03:04Z</time>
      </trkpt>
      <trkpt lat="45.98947" lon="4.82349">
        <ele>235</ele>
        <time>2017-05-03T09:03:05Z</time>
      </trkpt>
      <trkpt lat="45.9895" lon="4.82356">
        <ele>235</ele>
        <time>2017-05-03T09:03:06Z</time>
      </trkpt>
      <trkpt lat="45.98952" lon="4.82363">
        <ele>235</ele>
        <time>2017-05-03T09:03:07Z</time>
      </trkpt>
      <trkpt lat="45.98955" lon="4.82369">
        <ele>235</ele>
        <time>2017-05-03T09:03:08Z</time>
      </trkpt>
      <trkpt lat="45.98958" lon="4.82376">
        <ele>235</ele>
        <time>2017-05-03T09:03:09Z</time>
      </trkpt>
      <trkpt lat="45.9896" lon="4.82383">
        <ele>235</ele>
        <time>2017-05-03T09:03:10Z</time>
      </trkpt>
      <trkpt lat="45.98962" lon="4.82391">
        <ele>235</ele>
        <time>2017-05-03T09:03:11Z</time>
      </trkpt>
      <trkpt lat="45.98964" lon="4.82398">
        <ele>235</ele>
        <time>2017-05-03T09:03:12Z</time>
      </trkpt>
      <trkpt lat="45.98965" lon="4.82405">
        <ele>235</ele>
        <time>2017-05-03T09:03:13Z</time>
      </trkpt>
      <trkpt lat="45.98967" lon="4.82412">
        <ele>235</ele>
        <time>2017-05-03T09:03:14Z</time>
      </trkpt>
      <trkpt lat="45.98969" lon="4.82419">
        <ele>236</ele>
        <time>2017-05-03T09:03:15Z</time>
      </trkpt>
      <trkpt lat="45.9897" lon="4.82426">
        <ele>236</ele>
        <time>2017-05-03T09:03:16Z</time>
      </trkpt>
      <trkpt lat="45.98972" lon="4.82433">
        <ele>236</ele>
        <time>2017-05-03T09:03:17Z</time>
      </trkpt>
      <trkpt lat="45.98974" lon="4.82439">
        <ele>236</ele>
        <time>2017-05-03T09:03:18Z</time>
      </trkpt>
      <trkpt lat="45.98976" lon="4.82446">
        <ele>236</ele>
        <time>2017-05-03T09:03:19Z</time>
      </trkpt>
      <trkpt lat="45.98977" lon="4.82453">
        <ele>236</ele>
        <time>2017-05-03T09:03:20Z</time>
      </trkpt>
      <trkpt lat="45.98979" lon="4.8246">
        <ele>236</ele>
        <time>2017-05-03T09:03:21Z</time>
      </trkpt>
      <trkpt lat="45.98981" lon="4.82468">
        <ele>236</ele>
        <time>2017-05-03T09:03:22Z</time>
      </trkpt>
      <trkpt lat="45.98983" lon="4.82475">
        <ele>236</ele>
        <time>2017-05-03T09:03:23Z</time>
      </trkpt>
      <trkpt lat="45.98986" lon="4.82483">
        <ele>236</ele>
        <time>2017-05-03T09:03:24Z</time>
      </trkpt>
      <trkpt lat="45.98988" lon="4.8249">
        <ele>236</ele>
        <time>2017-05-03T09:03:25Z</time>
      </trkpt>
      <trkpt lat="45.98991" lon="4.82498">
        <ele>236</ele>
        <time>2017-05-03T09:03:26Z</time>
      </trkpt>
      <trkpt lat="45.98994" lon="4.82505">
        <ele>236</ele>
        <time>2017-05-03T09:03:27Z</time>
      </trkpt>
      <trkpt lat="45.98997" lon="4.82512">
        <ele>236</ele>
        <time>2017-05-03T09:03:28Z</time>
      </trkpt>
      <trkpt lat="45.99" lon="4.82519">
        <ele>235</ele>
        <time>2017-05-03T09:03:29Z</time>
      </trkpt>
      <trkpt lat="45.99004" lon="4.82525">
        <ele>235</ele>
        <time>2017-05-03T09:03:30Z</time>
      </trkpt>
      <trkpt lat="45.99007" lon="4.82532">
        <ele>235</ele>
        <time>2017-05-03T09:03:31Z</time>
      </trkpt>
      <trkpt lat="45.9901" lon="4.82537">
        <ele>235</ele>
        <time>2017-05-03T09:03:32Z</time>
      </trkpt>
      <trkpt lat="45.99014" lon="4.82542">
        <ele>235</ele>
        <time>2017-05-03T09:03:33Z</time>
      </trkpt>
      <trkpt lat="45.99018" lon="4.82547">
        <ele>235</ele>
        <time>2017-05-03T09:03:34Z</time>
      </trkpt>
      <trkpt lat="45.99022" lon="4.82552">
        <ele>235</ele>
        <time>2017-05-03T09:03:35Z</time>
      </trkpt>
      <trkpt lat="45.99026" lon="4.82556">
        <ele>235</ele>
        <time>2017-05-03T09:03:36Z</time>
      </trkpt>
      <trkpt lat="45.99031" lon="4.8256">
        <ele>235</ele>
        <time>2017-05-03T09:03:37Z</time>
      </trkpt>
      <trkpt lat="45.99036" lon="4.82563">
        <ele>235</ele>
        <time>2017-05-03T09:03:38Z</time>
      </trkpt>
      <trkpt lat="45.99041" lon="4.82566">
        <ele>235</ele>
        <time>2017-05-03T09:03:39Z</time>
      </trkpt>
      <trkpt lat="45.99046" lon="4.82568">
        <ele>235</ele>
        <time>2017-05-03T09:03:40Z</time>
      </trkpt>
      <trkpt lat="45.99051" lon="4.8257">
        <ele>235</ele>
        <time>2017-05-03T09:03:41Z</time>
      </trkpt>
      <trkpt lat="45.99056" lon="4.82571">
        <ele>235</ele>
        <time>2017-05-03T09:03:42Z</time>
      </trkpt>
      <trkpt lat="45.99061" lon="4.82573">
        <ele>235</ele>
        <time>2017-05-03T09:03:43Z</time>
      </trkpt>
      <trkpt lat="45.99069" lon="4.82578">
        <ele>235</ele>
        <time>2017-05-03T09:03:45Z</time>
      </trkpt>
      <trkpt lat="45.9907" lon="4.82582">
        <ele>235</ele>
        <time>2017-05-03T09:03:46Z</time>
      </trkpt>
      <trkpt lat="45.99071" lon="4.82591">
        <ele>235</ele>
        <time>2017-05-03T09:03:48Z</time>
      </trkpt>
      <trkpt lat="45.9907" lon="4.82595">
        <ele>235</ele>
        <time>2017-05-03T09:03:49Z</time>
      </trkpt>
      <trkpt lat="45.99067" lon="4.82602">
        <ele>236</ele>
        <time>2017-05-03T09:03:51Z</time>
      </trkpt>
      <trkpt lat="45.99064" lon="4.82606">
        <ele>236</ele>
        <time>2017-05-03T09:03:52Z</time>
      </trkpt>
      <trkpt lat="45.9906" lon="4.82615">
        <ele>236</ele>
        <time>2017-05-03T09:03:54Z</time>
      </trkpt>
      <trkpt lat="45.99058" lon="4.82619">
        <ele>236</ele>
        <time>2017-05-03T09:03:55Z</time>
      </trkpt>
      <trkpt lat="45.99054" lon="4.82628">
        <ele>236</ele>
        <time>2017-05-03T09:03:57Z</time>
      </trkpt>
      <trkpt lat="45.99052" lon="4.82632">
        <ele>236</ele>
        <time>2017-05-03T09:03:58Z</time>
      </trkpt>
      <trkpt lat="45.99049" lon="4.82642">
        <ele>236</ele>
        <time>2017-05-03T09:04:00Z</time>
      </trkpt>
      <trkpt lat="45.99048" lon="4.82646">
        <ele>236</ele>
        <time>2017-05-03T09:04:01Z</time>
      </trkpt>
      <trkpt lat="45.99046" lon="4.82655">
        <ele>236</ele>
        <time>2017-05-03T09:04:03Z</time>
      </trkpt>
      <trkpt lat="45.99045" lon="4.82658">
        <ele>236</ele>
        <time>2017-05-03T09:04:04Z</time>
      </trkpt>
      <trkpt lat="45.99042" lon="4.82667">
        <ele>238</ele>
        <time>2017-05-03T09:04:06Z</time>
      </trkpt>
      <trkpt lat="45.99039" lon="4.8267">
        <ele>238</ele>
        <time>2017-05-03T09:04:07Z</time>
      </trkpt>
      <trkpt lat="45.99035" lon="4.82678">
        <ele>238</ele>
        <time>2017-05-03T09:04:09Z</time>
      </trkpt>
      <trkpt lat="45.99033" lon="4.82682">
        <ele>238</ele>
        <time>2017-05-03T09:04:10Z</time>
      </trkpt>
      <trkpt lat="45.99028" lon="4.82692">
        <ele>238</ele>
        <time>2017-05-03T09:04:13Z</time>
      </trkpt>
      <trkpt lat="45.99027" lon="4.82696">
        <ele>238</ele>
        <time>2017-05-03T09:04:14Z</time>
      </trkpt>
      <trkpt lat="45.99023" lon="4.82707">
        <ele>238</ele>
        <time>2017-05-03T09:04:17Z</time>
      </trkpt>
      <trkpt lat="45.99022" lon="4.8271">
        <ele>238</ele>
        <time>2017-05-03T09:04:18Z</time>
      </trkpt>
      <trkpt lat="45.99018" lon="4.82721">
        <ele>239</ele>
        <time>2017-05-03T09:04:21Z</time>
      </trkpt>
      <trkpt lat="45.99017" lon="4.82725">
        <ele>239</ele>
        <time>2017-05-03T09:04:22Z</time>
      </trkpt>
      <trkpt lat="45.99013" lon="4.82734">
        <ele>239</ele>
        <time>2017-05-03T09:04:25Z</time>
      </trkpt>
      <trkpt lat="45.99012" lon="4.82738">
        <ele>240</ele>
        <time>2017-05-03T09:04:26Z</time>
      </trkpt>
      <trkpt lat="45.99008" lon="4.82748">
        <ele>240</ele>
        <time>2017-05-03T09:04:29Z</time>
      </trkpt>
      <trkpt lat="45.99006" lon="4.82751">
        <ele>241</ele>
        <time>2017-05-03T09:04:30Z</time>
      </trkpt>
      <trkpt lat="45.99001" lon="4.82759">
        <ele>241</ele>
        <time>2017-05-03T09:04:33Z</time>
      </trkpt>
      <trkpt lat="45.99" lon="4.82762">
        <ele>241</ele>
        <time>2017-05-03T09:04:34Z</time>
      </trkpt>
      <trkpt lat="45.98997" lon="4.82772">
        <ele>245</ele>
        <time>2017-05-03T09:04:38Z</time>
      </trkpt>
      <trkpt lat="45.98996" lon="4.82775">
        <ele>246</ele>
        <time>2017-05-03T09:04:39Z</time>
      </trkpt>
      <trkpt lat="45.9899" lon="4.82783">
        <ele>247</ele>
        <time>2017-05-03T09:04:43Z</time>
      </trkpt>
      <trkpt lat="45.98988" lon="4.82787">
        <ele>247</ele>
        <time>2017-05-03T09:04:44Z</time>
      </trkpt>
      <trkpt lat="45.98984" lon="4.82797">
        <ele>248</ele>
        <time>2017-05-03T09:04:47Z</time>
      </trkpt>
      <trkpt lat="45.98983" lon="4.82801">
        <ele>248</ele>
        <time>2017-05-03T09:04:48Z</time>
      </trkpt>
      <trkpt lat="45.98979" lon="4.82811">
        <ele>248</ele>
        <time>2017-05-03T09:04:51Z</time>
      </trkpt>
      <trkpt lat="45.98978" lon="4.82814">
        <ele>248</ele>
        <time>2017-05-03T09:04:52Z</time>
      </trkpt>
      <trkpt lat="45.98973" lon="4.82823">
        <ele>249</ele>
        <time>2017-05-03T09:04:55Z</time>
      </trkpt>
      <trkpt lat="45.98972" lon="4.82826">
        <ele>249</ele>
        <time>2017-05-03T09:04:56Z</time>
      </trkpt>
      <trkpt lat="45.98968" lon="4.82835">
        <ele>251</ele>
        <time>2017-05-03T09:04:59Z</time>
      </trkpt>
      <trkpt lat="45.98967" lon="4.82838">
        <ele>251</ele>
        <time>2017-05-03T09:05:00Z</time>
      </trkpt>
      <trkpt lat="45.98963" lon="4.82846">
        <ele>252</ele>
        <time>2017-05-03T09:05:03Z</time>
      </trkpt>
      <trkpt lat="45.98962" lon="4.82849">
        <ele>252</ele>
        <time>2017-05-03T09:05:04Z</time>
      </trkpt>
      <trkpt lat="45.98958" lon="4.82857">
        <ele>252</ele>
        <time>2017-05-03T09:05:07Z</time>
      </trkpt>
      <trkpt lat="45.98957" lon="4.8286">
        <ele>252</ele>
        <time>2017-05-03T09:05:08Z</time>
      </trkpt>
      <trkpt lat="45.98953" lon="4.82869">
        <ele>253</ele>
        <time>2017-05-03T09:05:11Z</time>
      </trkpt>
      <trkpt lat="45.98952" lon="4.82872">
        <ele>253</ele>
        <time>2017-05-03T09:05:12Z</time>
      </trkpt>
      <trkpt lat="45.98948" lon="4.82881">
        <ele>253</ele>
        <time>2017-05-03T09:05:15Z</time>
      </trkpt>
      <trkpt lat="45.98947" lon="4.82884">
        <ele>253</ele>
        <time>2017-05-03T09:05:16Z</time>
      </trkpt>
      <trkpt lat="45.98942" lon="4.82893">
        <ele>253</ele>
        <time>2017-05-03T09:05:19Z</time>
      </trkpt>
      <trkpt lat="45.98941" lon="4.82896">
        <ele>253</ele>
        <time>2017-05-03T09:05:20Z</time>
      </trkpt>
      <trkpt lat="45.98938" lon="4.82906">
        <ele>254</ele>
        <time>2017-05-03T09:05:23Z</time>
      </trkpt>
      <trkpt lat="45.98937" lon="4.82908">
        <ele>254</ele>
        <time>2017-05-03T09:05:24Z</time>
      </trkpt>
      <trkpt lat="45.98933" lon="4.82918">
        <ele>255</ele>
        <time>2017-05-03T09:05:27Z</time>
      </trkpt>
      <trkpt lat="45.98932" lon="4.82921">
        <ele>255</ele>
        <time>2017-05-03T09:05:28Z</time>
      </trkpt>
      <trkpt lat="45.98929" lon="4.8293">
        <ele>255</ele>
        <time>2017-05-03T09:05:31Z</time>
      </trkpt>
      <trkpt lat="45.98928" lon="4.82933">
        <ele>255</ele>
        <time>2017-05-03T09:05:32Z</time>
      </trkpt>
      <trkpt lat="45.98923" lon="4.82942">
        <ele>255</ele>
        <time>2017-05-03T09:05:36Z</time>
      </trkpt>
      <trkpt lat="45.98923" lon="4.82944">
        <ele>255</ele>
        <time>2017-05-03T09:05:37Z</time>
      </trkpt>
      <trkpt lat="45.9892" lon="4.82956">
        <ele>255</ele>
        <time>2017-05-03T09:05:41Z</time>
      </trkpt>
      <trkpt lat="45.98918" lon="4.82957">
        <ele>255</ele>
        <time>2017-05-03T09:05:42Z</time>
      </trkpt>
      <trkpt lat="45.98912" lon="4.82965">
        <ele>258</ele>
        <time>2017-05-03T09:05:47Z</time>
      </trkpt>
      <trkpt lat="45.98911" lon="4.82967">
        <ele>258</ele>
        <time>2017-05-03T09:05:48Z</time>
      </trkpt>
      <trkpt lat="45.98905" lon="4.82973">
        <ele>259</ele>
        <time>2017-05-03T09:05:51Z</time>
      </trkpt>
      <trkpt lat="45.98903" lon="4.82974">
        <ele>259</ele>
        <time>2017-05-03T09:05:52Z</time>
      </trkpt>
      <trkpt lat="45.98897" lon="4.82978">
        <ele>259</ele>
        <time>2017-05-03T09:05:55Z</time>
      </trkpt>
      <trkpt lat="45.98895" lon="4.8298">
        <ele>259</ele>
        <time>2017-05-03T09:05:56Z</time>
      </trkpt>
      <trkpt lat="45.98889" lon="4.82985">
        <ele>259</ele>
        <time>2017-05-03T09:05:59Z</time>
      </trkpt>
      <trkpt lat="45.98887" lon="4.82985">
        <ele>259</ele>
        <time>2017-05-03T09:06:00Z</time>
      </trkpt>
      <trkpt lat="45.98879" lon="4.8299">
        <ele>260</ele>
        <time>2017-05-03T09:06:04Z</time>
      </trkpt>
      <trkpt lat="45.98877" lon="4.82992">
        <ele>260</ele>
        <time>2017-05-03T09:06:05Z</time>
      </trkpt>
      <trkpt lat="45.98869" lon="4.82998">
        <ele>260</ele>
        <time>2017-05-03T09:06:09Z</time>
      </trkpt>
      <trkpt lat="45.98868" lon="4.82999">
        <ele>260</ele>
        <time>2017-05-03T09:06:10Z</time>
      </trkpt>
      <trkpt lat="45.9886" lon="4.83005">
        <ele>260</ele>
        <time>2017-05-03T09:06:15Z</time>
      </trkpt>
      <trkpt lat="45.98859" lon="4.83006">
        <ele>261</ele>
        <time>2017-05-03T09:06:16Z</time>
      </trkpt>
      <trkpt lat="45.98853" lon="4.83013">
        <ele>261</ele>
        <time>2017-05-03T09:06:20Z</time>
      </trkpt>
      <trkpt lat="45.98851" lon="4.83015">
        <ele>261</ele>
        <time>2017-05-03T09:06:21Z</time>
      </trkpt>
      <trkpt lat="45.98845" lon="4.8302">
        <ele>261</ele>
        <time>2017-05-03T09:06:25Z</time>
      </trkpt>
      <trkpt lat="45.98843" lon="4.83021">
        <ele>261</ele>
        <time>2017-05-03T09:06:26Z</time>
      </trkpt>
      <trkpt lat="45.98835" lon="4.83027">
        <ele>261</ele>
        <time>2017-05-03T09:06:30Z</time>
      </trkpt>
      <trkpt lat="45.98829" lon="4.83028">
        <ele>264</ele>
        <time>2017-05-03T09:06:31Z</time>
      </trkpt>
      <trkpt lat="45.9882" lon="4.83031">
        <ele>264</ele>
        <time>2017-05-03T09:06:33Z</time>
      </trkpt>
      <trkpt lat="45.98817" lon="4.83033">
        <ele>264</ele>
        <time>2017-05-03T09:06:34Z</time>
      </trkpt>
      <trkpt lat="45.9881" lon="4.83037">
        <ele>264</ele>
        <time>2017-05-03T09:06:36Z</time>
      </trkpt>
      <trkpt lat="45.98807" lon="4.83039">
        <ele>264</ele>
        <time>2017-05-03T09:06:37Z</time>
      </trkpt>
      <trkpt lat="45.988" lon="4.83045">
        <ele>264</ele>
        <time>2017-05-03T09:06:40Z</time>
      </trkpt>
      <trkpt lat="45.98798" lon="4.83046">
        <ele>264</ele>
        <time>2017-05-03T09:06:41Z</time>
      </trkpt>
      <trkpt lat="45.98791" lon="4.83052">
        <ele>265</ele>
        <time>2017-05-03T09:06:44Z</time>
      </trkpt>
      <trkpt lat="45.98789" lon="4.83054">
        <ele>265</ele>
        <time>2017-05-03T09:06:45Z</time>
      </trkpt>
      <trkpt lat="45.98783" lon="4.83061">
        <ele>265</ele>
        <time>2017-05-03T09:06:48Z</time>
      </trkpt>
      <trkpt lat="45.9878" lon="4.83063">
        <ele>265</ele>
        <time>2017-05-03T09:06:49Z</time>
      </trkpt>
      <trkpt lat="45.98774" lon="4.83069">
        <ele>265</ele>
        <time>2017-05-03T09:06:52Z</time>
      </trkpt>
      <trkpt lat="45.98771" lon="4.83071">
        <ele>265</ele>
        <time>2017-05-03T09:06:53Z</time>
      </trkpt>
      <trkpt lat="45.98766" lon="4.83077">
        <ele>266</ele>
        <time>2017-05-03T09:06:55Z</time>
      </trkpt>
      <trkpt lat="45.98764" lon="4.83079">
        <ele>266</ele>
        <time>2017-05-03T09:06:56Z</time>
      </trkpt>
      <trkpt lat="45.98756" lon="4.83086">
        <ele>266</ele>
        <time>2017-05-03T09:06:59Z</time>
      </trkpt>
      <trkpt lat="45.98754" lon="4.83088">
        <ele>266</ele>
        <time>2017-05-03T09:07:00Z</time>
      </trkpt>
      <trkpt lat="45.98746" lon="4.83094">
        <ele>267</ele>
        <time>2017-05-03T09:07:03Z</time>
      </trkpt>
      <trkpt lat="45.98744" lon="4.83097">
        <ele>267</ele>
        <time>2017-05-03T09:07:04Z</time>
      </trkpt>
      <trkpt lat="45.98739" lon="4.83102">
        <ele>267</ele>
        <time>2017-05-03T09:07:06Z</time>
      </trkpt>
      <trkpt lat="45.98736" lon="4.83105">
        <ele>267</ele>
        <time>2017-05-03T09:07:07Z</time>
      </trkpt>
      <trkpt lat="45.9873" lon="4.83109">
        <ele>267</ele>
        <time>2017-05-03T09:07:09Z</time>
      </trkpt>
      <trkpt lat="45.98727" lon="4.83112">
        <ele>267</ele>
        <time>2017-05-03T09:07:10Z</time>
      </trkpt>
      <trkpt lat="45.98721" lon="4.83117">
        <ele>267</ele>
        <time>2017-05-03T09:07:12Z</time>
      </trkpt>
      <trkpt lat="45.98719" lon="4.8312">
        <ele>267</ele>
        <time>2017-05-03T09:07:13Z</time>
      </trkpt>
      <trkpt lat="45.98713" lon="4.83125">
        <ele>266</ele>
        <time>2017-05-03T09:07:15Z</time>
      </trkpt>
      <trkpt lat="45.9871" lon="4.83127">
        <ele>266</ele>
        <time>2017-05-03T09:07:16Z</time>
      </trkpt>
      <trkpt lat="45.98704" lon="4.83132">
        <ele>266</ele>
        <time>2017-05-03T09:07:18Z</time>
      </trkpt>
      <trkpt lat="45.98701" lon="4.83134">
        <ele>266</ele>
        <time>2017-05-03T09:07:19Z</time>
      </trkpt>
      <trkpt lat="45.98695" lon="4.83138">
        <ele>266</ele>
        <time>2017-05-03T09:07:21Z</time>
      </trkpt>
      <trkpt lat="45.98692" lon="4.83141">
        <ele>266</ele>
        <time>2017-05-03T09:07:22Z</time>
      </trkpt>
      <trkpt lat="45.98685" lon="4.83146">
        <ele>266</ele>
        <time>2017-05-03T09:07:24Z</time>
      </trkpt>
      <trkpt lat="45.98681" lon="4.83149">
        <ele>266</ele>
        <time>2017-05-03T09:07:25Z</time>
      </trkpt>
      <trkpt lat="45.98674" lon="4.83154">
        <ele>266</ele>
        <time>2017-05-03T09:07:27Z</time>
      </trkpt>
      <trkpt lat="45.98671" lon="4.83156">
        <ele>266</ele>
        <time>2017-05-03T09:07:28Z</time>
      </trkpt>
      <trkpt lat="45.98665" lon="4.8316">
        <ele>266</ele>
        <time>2017-05-03T09:07:30Z</time>
      </trkpt>
      <trkpt lat="45.98662" lon="4.83163">
        <ele>266</ele>
        <time>2017-05-03T09:07:31Z</time>
      </trkpt>
      <trkpt lat="45.98655" lon="4.83168">
        <ele>266</ele>
        <time>2017-05-03T09:07:33Z</time>
      </trkpt>
      <trkpt lat="45.98652" lon="4.83171">
        <ele>267</ele>
        <time>2017-05-03T09:07:34Z</time>
      </trkpt>
      <trkpt lat="45.98645" lon="4.83177">
        <ele>267</ele>
        <time>2017-05-03T09:07:36Z</time>
      </trkpt>
      <trkpt lat="45.98642" lon="4.8318">
        <ele>267</ele>
        <time>2017-05-03T09:07:37Z</time>
      </trkpt>
      <trkpt lat="45.98636" lon="4.83185">
        <ele>267</ele>
        <time>2017-05-03T09:07:39Z</time>
      </trkpt>
      <trkpt lat="45.98633" lon="4.83188">
        <ele>267</ele>
        <time>2017-05-03T09:07:40Z</time>
      </trkpt>
      <trkpt lat="45.98627" lon="4.83194">
        <ele>267</ele>
        <time>2017-05-03T09:07:42Z</time>
      </trkpt>
      <trkpt lat="45.98624" lon="4.83198">
        <ele>267</ele>
        <time>2017-05-03T09:07:43Z</time>
      </trkpt>
      <trkpt lat="45.98619" lon="4.83205">
        <ele>267</ele>
        <time>2017-05-03T09:07:45Z</time>
      </trkpt>
      <trkpt lat="45.98617" lon="4.83208">
        <ele>267</ele>
        <time>2017-05-03T09:07:46Z</time>
      </trkpt>
      <trkpt lat="45.98611" lon="4.83215">
        <ele>267</ele>
        <time>2017-05-03T09:07:48Z</time>
      </trkpt>
      <trkpt lat="45.98609" lon="4.83219">
        <ele>267</ele>
        <time>2017-05-03T09:07:49Z</time>
      </trkpt>
      <trkpt lat="45.98604" lon="4.83226">
        <ele>267</ele>
        <time>2017-05-03T09:07:51Z</time>
      </trkpt>
      <trkpt lat="45.98601" lon="4.8323">
        <ele>268</ele>
        <time>2017-05-03T09:07:52Z</time>
      </trkpt>
      <trkpt lat="45.98595" lon="4.83237">
        <ele>268</ele>
        <time>2017-05-03T09:07:54Z</time>
      </trkpt>
      <trkpt lat="45.98592" lon="4.83241">
        <ele>268</ele>
        <time>2017-05-03T09:07:55Z</time>
      </trkpt>
      <trkpt lat="45.98586" lon="4.83249">
        <ele>268</ele>
        <time>2017-05-03T09:07:57Z</time>
      </trkpt>
      <trkpt lat="45.98583" lon="4.83252">
        <ele>268</ele>
        <time>2017-05-03T09:07:58Z</time>
      </trkpt>
      <trkpt lat="45.98577" lon="4.8326">
        <ele>268</ele>
        <time>2017-05-03T09:08:00Z</time>
      </trkpt>
      <trkpt lat="45.98574" lon="4.83264">
        <ele>269</ele>
        <time>2017-05-03T09:08:01Z</time>
      </trkpt>
      <trkpt lat="45.98569" lon="4.83272">
        <ele>269</ele>
        <time>2017-05-03T09:08:03Z</time>
      </trkpt>
      <trkpt lat="45.98566" lon="4.83275">
        <ele>269</ele>
        <time>2017-05-03T09:08:04Z</time>
      </trkpt>
      <trkpt lat="45.98561" lon="4.83282">
        <ele>269</ele>
        <time>2017-05-03T09:08:06Z</time>
      </trkpt>
      <trkpt lat="45.98559" lon="4.83285">
        <ele>269</ele>
        <time>2017-05-03T09:08:07Z</time>
      </trkpt>
      <trkpt lat="45.98553" lon="4.83294">
        <ele>269</ele>
        <time>2017-05-03T09:08:10Z</time>
      </trkpt>
      <trkpt lat="45.9855" lon="4.83297">
        <ele>269</ele>
        <time>2017-05-03T09:08:11Z</time>
      </trkpt>
      <trkpt lat="45.98546" lon="4.83305">
        <ele>269</ele>
        <time>2017-05-03T09:08:13Z</time>
      </trkpt>
      <trkpt lat="45.98544" lon="4.83309">
        <ele>269</ele>
        <time>2017-05-03T09:08:14Z</time>
      </trkpt>
      <trkpt lat="45.98539" lon="4.83316">
        <ele>269</ele>
        <time>2017-05-03T09:08:16Z</time>
      </trkpt>
      <trkpt lat="45.98536" lon="4.83319">
        <ele>269</ele>
        <time>2017-05-03T09:08:17Z</time>
      </trkpt>
      <trkpt lat="45.98531" lon="4.83327">
        <ele>269</ele>
        <time>2017-05-03T09:08:19Z</time>
      </trkpt>
      <trkpt lat="45.98528" lon="4.8333">
        <ele>269</ele>
        <time>2017-05-03T09:08:20Z</time>
      </trkpt>
      <trkpt lat="45.98523" lon="4.83338">
        <ele>270</ele>
        <time>2017-05-03T09:08:22Z</time>
      </trkpt>
      <trkpt lat="45.9852" lon="4.83342">
        <ele>270</ele>
        <time>2017-05-03T09:08:23Z</time>
      </trkpt>
      <trkpt lat="45.98514" lon="4.8335">
        <ele>270</ele>
        <time>2017-05-03T09:08:25Z</time>
      </trkpt>
      <trkpt lat="45.9851" lon="4.83354">
        <ele>270</ele>
        <time>2017-05-03T09:08:26Z</time>
      </trkpt>
      <trkpt lat="45.98504" lon="4.83363">
        <ele>269</ele>
        <time>2017-05-03T09:08:28Z</time>
      </trkpt>
      <trkpt lat="45.985" lon="4.83367">
        <ele>269</ele>
        <time>2017-05-03T09:08:29Z</time>
      </trkpt>
      <trkpt lat="45.98497" lon="4.83372">
        <ele>270</ele>
        <time>2017-05-03T09:08:30Z</time>
      </trkpt>
      <trkpt lat="45.98494" lon="4.83377">
        <ele>269</ele>
        <time>2017-05-03T09:08:31Z</time>
      </trkpt>
      <trkpt lat="45.98491" lon="4.83382">
        <ele>269</ele>
        <time>2017-05-03T09:08:32Z</time>
      </trkpt>
      <trkpt lat="45.98487" lon="4.83386">
        <ele>269</ele>
        <time>2017-05-03T09:08:33Z</time>
      </trkpt>
      <trkpt lat="45.98483" lon="4.83391">
        <ele>269</ele>
        <time>2017-05-03T09:08:34Z</time>
      </trkpt>
      <trkpt lat="45.9848" lon="4.83397">
        <ele>269</ele>
        <time>2017-05-03T09:08:35Z</time>
      </trkpt>
      <trkpt lat="45.98476" lon="4.83402">
        <ele>269</ele>
        <time>2017-05-03T09:08:36Z</time>
      </trkpt>
      <trkpt lat="45.98472" lon="4.83408">
        <ele>269</ele>
        <time>2017-05-03T09:08:37Z</time>
      </trkpt>
      <trkpt lat="45.98468" lon="4.83413">
        <ele>269</ele>
        <time>2017-05-03T09:08:38Z</time>
      </trkpt>
      <trkpt lat="45.98465" lon="4.83419">
        <ele>269</ele>
        <time>2017-05-03T09:08:39Z</time>
      </trkpt>
      <trkpt lat="45.98461" lon="4.83424">
        <ele>269</ele>
        <time>2017-05-03T09:08:40Z</time>
      </trkpt>
      <trkpt lat="45.98457" lon="4.8343">
        <ele>268</ele>
        <time>2017-05-03T09:08:41Z</time>
      </trkpt>
      <trkpt lat="45.98453" lon="4.83435">
        <ele>268</ele>
        <time>2017-05-03T09:08:42Z</time>
      </trkpt>
      <trkpt lat="45.98449" lon="4.83442">
        <ele>268</ele>
        <time>2017-05-03T09:08:43Z</time>
      </trkpt>
      <trkpt lat="45.98445" lon="4.83447">
        <ele>268</ele>
        <time>2017-05-03T09:08:44Z</time>
      </trkpt>
      <trkpt lat="45.98441" lon="4.83452">
        <ele>268</ele>
        <time>2017-05-03T09:08:45Z</time>
      </trkpt>
      <trkpt lat="45.98438" lon="4.83457">
        <ele>268</ele>
        <time>2017-05-03T09:08:46Z</time>
      </trkpt>
      <trkpt lat="45.98434" lon="4.83461">
        <ele>268</ele>
        <time>2017-05-03T09:08:47Z</time>
      </trkpt>
      <trkpt lat="45.9843" lon="4.83465">
        <ele>268</ele>
        <time>2017-05-03T09:08:48Z</time>
      </trkpt>
      <trkpt lat="45.98427" lon="4.8347">
        <ele>268</ele>
        <time>2017-05-03T09:08:49Z</time>
      </trkpt>
      <trkpt lat="45.98423" lon="4.83476">
        <ele>268</ele>
        <time>2017-05-03T09:08:50Z</time>
      </trkpt>
      <trkpt lat="45.98419" lon="4.83481">
        <ele>268</ele>
        <time>2017-05-03T09:08:51Z</time>
      </trkpt>
      <trkpt lat="45.98414" lon="4.83486">
        <ele>269</ele>
        <time>2017-05-03T09:08:52Z</time>
      </trkpt>
      <trkpt lat="45.9841" lon="4.83492">
        <ele>268</ele>
        <time>2017-05-03T09:08:53Z</time>
      </trkpt>
      <trkpt lat="45.98405" lon="4.83498">
        <ele>268</ele>
        <time>2017-05-03T09:08:54Z</time>
      </trkpt>
      <trkpt lat="45.984" lon="4.83503">
        <ele>269</ele>
        <time>2017-05-03T09:08:55Z</time>
      </trkpt>
      <trkpt lat="45.98396" lon="4.83509">
        <ele>269</ele>
        <time>2017-05-03T09:08:56Z</time>
      </trkpt>
      <trkpt lat="45.98392" lon="4.83515">
        <ele>269</ele>
        <time>2017-05-03T09:08:57Z</time>
      </trkpt>
      <trkpt lat="45.98388" lon="4.8352">
        <ele>269</ele>
        <time>2017-05-03T09:08:58Z</time>
      </trkpt>
      <trkpt lat="45.98384" lon="4.83525">
        <ele>269</ele>
        <time>2017-05-03T09:08:59Z</time>
      </trkpt>
      <trkpt lat="45.9838" lon="4.83529">
        <ele>269</ele>
        <time>2017-05-03T09:09:00Z</time>
      </trkpt>
      <trkpt lat="45.98377" lon="4.83534">
        <ele>269</ele>
        <time>2017-05-03T09:09:01Z</time>
      </trkpt>
      <trkpt lat="45.98373" lon="4.83539">
        <ele>269</ele>
        <time>2017-05-03T09:09:02Z</time>
      </trkpt>
      <trkpt lat="45.9837" lon="4.83544">
        <ele>269</ele>
        <time>2017-05-03T09:09:03Z</time>
      </trkpt>
      <trkpt lat="45.98367" lon="4.8355">
        <ele>269</ele>
        <time>2017-05-03T09:09:04Z</time>
      </trkpt>
      <trkpt lat="45.98364" lon="4.83556">
        <ele>269</ele>
        <time>2017-05-03T09:09:05Z</time>
      </trkpt>
      <trkpt lat="45.9836" lon="4.8356">
        <ele>269</ele>
        <time>2017-05-03T09:09:06Z</time>
      </trkpt>
      <trkpt lat="45.98355" lon="4.83564">
        <ele>269</ele>
        <time>2017-05-03T09:09:07Z</time>
      </trkpt>
      <trkpt lat="45.98351" lon="4.83569">
        <ele>269</ele>
        <time>2017-05-03T09:09:08Z</time>
      </trkpt>
      <trkpt lat="45.98347" lon="4.83574">
        <ele>270</ele>
        <time>2017-05-03T09:09:09Z</time>
      </trkpt>
      <trkpt lat="45.98342" lon="4.83579">
        <ele>270</ele>
        <time>2017-05-03T09:09:10Z</time>
      </trkpt>
      <trkpt lat="45.98338" lon="4.83585">
        <ele>270</ele>
        <time>2017-05-03T09:09:11Z</time>
      </trkpt>
      <trkpt lat="45.98334" lon="4.83591">
        <ele>270</ele>
        <time>2017-05-03T09:09:12Z</time>
      </trkpt>
      <trkpt lat="45.9833" lon="4.83597">
        <ele>271</ele>
        <time>2017-05-03T09:09:13Z</time>
      </trkpt>
      <trkpt lat="45.98326" lon="4.83603">
        <ele>271</ele>
        <time>2017-05-03T09:09:14Z</time>
      </trkpt>
      <trkpt lat="45.98322" lon="4.83609">
        <ele>271</ele>
        <time>2017-05-03T09:09:15Z</time>
      </trkpt>
      <trkpt lat="45.98319" lon="4.83615">
        <ele>271</ele>
        <time>2017-05-03T09:09:16Z</time>
      </trkpt>
      <trkpt lat="45.98315" lon="4.8362">
        <ele>271</ele>
        <time>2017-05-03T09:09:17Z</time>
      </trkpt>
      <trkpt lat="45.9831" lon="4.83631">
        <ele>271</ele>
        <time>2017-05-03T09:09:19Z</time>
      </trkpt>
      <trkpt lat="45.98307" lon="4.83636">
        <ele>271</ele>
        <time>2017-05-03T09:09:20Z</time>
      </trkpt>
      <trkpt lat="45.98304" lon="4.83641">
        <ele>271</ele>
        <time>2017-05-03T09:09:21Z</time>
      </trkpt>
      <trkpt lat="45.98301" lon="4.83647">
        <ele>271</ele>
        <time>2017-05-03T09:09:22Z</time>
      </trkpt>
      <trkpt lat="45.98298" lon="4.83653">
        <ele>271</ele>
        <time>2017-05-03T09:09:23Z</time>
      </trkpt>
      <trkpt lat="45.98295" lon="4.83659">
        <ele>271</ele>
        <time>2017-05-03T09:09:24Z</time>
      </trkpt>
      <trkpt lat="45.98293" lon="4.83666">
        <ele>272</ele>
        <time>2017-05-03T09:09:25Z</time>
      </trkpt>
      <trkpt lat="45.9829" lon="4.83672">
        <ele>272</ele>
        <time>2017-05-03T09:09:26Z</time>
      </trkpt>
      <trkpt lat="45.98287" lon="4.83679">
        <ele>272</ele>
        <time>2017-05-03T09:09:27Z</time>
      </trkpt>
      <trkpt lat="45.98284" lon="4.83686">
        <ele>272</ele>
        <time>2017-05-03T09:09:28Z</time>
      </trkpt>
      <trkpt lat="45.98282" lon="4.83694">
        <ele>272</ele>
        <time>2017-05-03T09:09:29Z</time>
      </trkpt>
      <trkpt lat="45.98279" lon="4.83702">
        <ele>272</ele>
        <time>2017-05-03T09:09:30Z</time>
      </trkpt>
      <trkpt lat="45.98276" lon="4.83709">
        <ele>272</ele>
        <time>2017-05-03T09:09:31Z</time>
      </trkpt>
      <trkpt lat="45.98273" lon="4.83717">
        <ele>272</ele>
        <time>2017-05-03T09:09:32Z</time>
      </trkpt>
      <trkpt lat="45.98271" lon="4.83724">
        <ele>272</ele>
        <time>2017-05-03T09:09:33Z</time>
      </trkpt>
      <trkpt lat="45.98269" lon="4.83731">
        <ele>272</ele>
        <time>2017-05-03T09:09:34Z</time>
      </trkpt>
      <trkpt lat="45.98267" lon="4.83738">
        <ele>272</ele>
        <time>2017-05-03T09:09:35Z</time>
      </trkpt>
      <trkpt lat="45.98265" lon="4.83744">
        <ele>272</ele>
        <time>2017-05-03T09:09:36Z</time>
      </trkpt>
      <trkpt lat="45.98263" lon="4.8375">
        <ele>272</ele>
        <time>2017-05-03T09:09:37Z</time>
      </trkpt>
      <trkpt lat="45.98261" lon="4.83756">
        <ele>272</ele>
        <time>2017-05-03T09:09:38Z</time>
      </trkpt>
      <trkpt lat="45.98259" lon="4.83762">
        <ele>272</ele>
        <time>2017-05-03T09:09:39Z</time>
      </trkpt>
      <trkpt lat="45.98256" lon="4.83768">
        <ele>272</ele>
        <time>2017-05-03T09:09:40Z</time>
      </trkpt>
      <trkpt lat="45.98254" lon="4.83774">
        <ele>272</ele>
        <time>2017-05-03T09:09:41Z</time>
      </trkpt>
      <trkpt lat="45.98252" lon="4.8378">
        <ele>272</ele>
        <time>2017-05-03T09:09:42Z</time>
      </trkpt>
      <trkpt lat="45.9825" lon="4.83786">
        <ele>272</ele>
        <time>2017-05-03T09:09:43Z</time>
      </trkpt>
      <trkpt lat="45.98248" lon="4.83792">
        <ele>272</ele>
        <time>2017-05-03T09:09:44Z</time>
      </trkpt>
      <trkpt lat="45.98246" lon="4.83799">
        <ele>272</ele>
        <time>2017-05-03T09:09:45Z</time>
      </trkpt>
      <trkpt lat="45.98244" lon="4.83805">
        <ele>272</ele>
        <time>2017-05-03T09:09:46Z</time>
      </trkpt>
      <trkpt lat="45.98241" lon="4.83812">
        <ele>272</ele>
        <time>2017-05-03T09:09:47Z</time>
      </trkpt>
      <trkpt lat="45.98239" lon="4.83819">
        <ele>272</ele>
        <time>2017-05-03T09:09:48Z</time>
      </trkpt>
      <trkpt lat="45.98236" lon="4.83826">
        <ele>272</ele>
        <time>2017-05-03T09:09:49Z</time>
      </trkpt>
      <trkpt lat="45.98234" lon="4.83834">
        <ele>272</ele>
        <time>2017-05-03T09:09:50Z</time>
      </trkpt>
      <trkpt lat="45.98231" lon="4.83841">
        <ele>272</ele>
        <time>2017-05-03T09:09:51Z</time>
      </trkpt>
      <trkpt lat="45.98228" lon="4.83849">
        <ele>272</ele>
        <time>2017-05-03T09:09:52Z</time>
      </trkpt>
      <trkpt lat="45.98226" lon="4.83856">
        <ele>272</ele>
        <time>2017-05-03T09:09:53Z</time>
      </trkpt>
      <trkpt lat="45.98223" lon="4.83863">
        <ele>272</ele>
        <time>2017-05-03T09:09:54Z</time>
      </trkpt>
      <trkpt lat="45.98221" lon="4.8387">
        <ele>272</ele>
        <time>2017-05-03T09:09:55Z</time>
      </trkpt>
      <trkpt lat="45.98219" lon="4.83877">
        <ele>272</ele>
        <time>2017-05-03T09:09:56Z</time>
      </trkpt>
      <trkpt lat="45.98217" lon="4.83883">
        <ele>272</ele>
        <time>2017-05-03T09:09:57Z</time>
      </trkpt>
      <trkpt lat="45.98215" lon="4.83889">
        <ele>273</ele>
        <time>2017-05-03T09:09:58Z</time>
      </trkpt>
      <trkpt lat="45.98212" lon="4.83895">
        <ele>273</ele>
        <time>2017-05-03T09:09:59Z</time>
      </trkpt>
      <trkpt lat="45.9821" lon="4.83901">
        <ele>273</ele>
        <time>2017-05-03T09:10:00Z</time>
      </trkpt>
      <trkpt lat="45.98208" lon="4.83907">
        <ele>273</ele>
        <time>2017-05-03T09:10:01Z</time>
      </trkpt>
      <trkpt lat="45.98206" lon="4.83913">
        <ele>273</ele>
        <time>2017-05-03T09:10:02Z</time>
      </trkpt>
      <trkpt lat="45.98204" lon="4.83919">
        <ele>273</ele>
        <time>2017-05-03T09:10:03Z</time>
      </trkpt>
      <trkpt lat="45.98202" lon="4.83925">
        <ele>273</ele>
        <time>2017-05-03T09:10:04Z</time>
      </trkpt>
      <trkpt lat="45.982" lon="4.83931">
        <ele>273</ele>
        <time>2017-05-03T09:10:05Z</time>
      </trkpt>
      <trkpt lat="45.98197" lon="4.83938">
        <ele>273</ele>
        <time>2017-05-03T09:10:06Z</time>
      </trkpt>
      <trkpt lat="45.98195" lon="4.83944">
        <ele>273</ele>
        <time>2017-05-03T09:10:07Z</time>
      </trkpt>
      <trkpt lat="45.98193" lon="4.83951">
        <ele>273</ele>
        <time>2017-05-03T09:10:08Z</time>
      </trkpt>
      <trkpt lat="45.98191" lon="4.83958">
        <ele>273</ele>
        <time>2017-05-03T09:10:09Z</time>
      </trkpt>
      <trkpt lat="45.98189" lon="4.83965">
        <ele>273</ele>
        <time>2017-05-03T09:10:10Z</time>
      </trkpt>
      <trkpt lat="45.98186" lon="4.83972">
        <ele>273</ele>
        <time>2017-05-03T09:10:11Z</time>
      </trkpt>
      <trkpt lat="45.98183" lon="4.83979">
        <ele>273</ele>
        <time>2017-05-03T09:10:12Z</time>
      </trkpt>
      <trkpt lat="45.9818" lon="4.83986">
        <ele>273</ele>
        <time>2017-05-03T09:10:13Z</time>
      </trkpt>
      <trkpt lat="45.98178" lon="4.83993">
        <ele>273</ele>
        <time>2017-05-03T09:10:14Z</time>
      </trkpt>
      <trkpt lat="45.98175" lon="4.84">
        <ele>273</ele>
        <time>2017-05-03T09:10:15Z</time>
      </trkpt>
      <trkpt lat="45.98172" lon="4.84007">
        <ele>273</ele>
        <time>2017-05-03T09:10:16Z</time>
      </trkpt>
      <trkpt lat="45.98169" lon="4.84013">
        <ele>273</ele>
        <time>2017-05-03T09:10:17Z</time>
      </trkpt>
      <trkpt lat="45.98166" lon="4.84019">
        <ele>273</ele>
        <time>2017-05-03T09:10:18Z</time>
      </trkpt>
      <trkpt lat="45.98163" lon="4.84025">
        <ele>273</ele>
        <time>2017-05-03T09:10:19Z</time>
      </trkpt>
      <trkpt lat="45.9816" lon="4.8403">
        <ele>273</ele>
        <time>2017-05-03T09:10:20Z</time>
      </trkpt>
      <trkpt lat="45.98157" lon="4.84036">
        <ele>273</ele>
        <time>2017-05-03T09:10:21Z</time>
      </trkpt>
      <trkpt lat="45.98153" lon="4.84042">
        <ele>273</ele>
        <time>2017-05-03T09:10:22Z</time>
      </trkpt>
      <trkpt lat="45.9815" lon="4.84047">
        <ele>273</ele>
        <time>2017-05-03T09:10:23Z</time>
      </trkpt>
      <trkpt lat="45.98146" lon="4.84054">
        <ele>273</ele>
        <time>2017-05-03T09:10:24Z</time>
      </trkpt>
      <trkpt lat="45.98142" lon="4.8406">
        <ele>273</ele>
        <time>2017-05-03T09:10:25Z</time>
      </trkpt>
      <trkpt lat="45.98138" lon="4.84066">
        <ele>273</ele>
        <time>2017-05-03T09:10:26Z</time>
      </trkpt>
      <trkpt lat="45.98134" lon="4.84071">
        <ele>273</ele>
        <time>2017-05-03T09:10:27Z</time>
      </trkpt>
      <trkpt lat="45.9813" lon="4.84076">
        <ele>273</ele>
        <time>2017-05-03T09:10:28Z</time>
      </trkpt>
      <trkpt lat="45.98126" lon="4.8408">
        <ele>273</ele>
        <time>2017-05-03T09:10:29Z</time>
      </trkpt>
      <trkpt lat="45.98122" lon="4.84084">
        <ele>273</ele>
        <time>2017-05-03T09:10:30Z</time>
      </trkpt>
      <trkpt lat="45.98118" lon="4.84088">
        <ele>273</ele>
        <time>2017-05-03T09:10:31Z</time>
      </trkpt>
      <trkpt lat="45.98114" lon="4.84091">
        <ele>273</ele>
        <time>2017-05-03T09:10:32Z</time>
      </trkpt>
      <trkpt lat="45.9811" lon="4.84095">
        <ele>273</ele>
        <time>2017-05-03T09:10:33Z</time>
      </trkpt>
      <trkpt lat="45.98106" lon="4.841">
        <ele>273</ele>
        <time>2017-05-03T09:10:34Z</time>
      </trkpt>
      <trkpt lat="45.98102" lon="4.84105">
        <ele>273</ele>
        <time>2017-05-03T09:10:35Z</time>
      </trkpt>
      <trkpt lat="45.98098" lon="4.84109">
        <ele>273</ele>
        <time>2017-05-03T09:10:36Z</time>
      </trkpt>
      <trkpt lat="45.98093" lon="4.84113">
        <ele>273</ele>
        <time>2017-05-03T09:10:37Z</time>
      </trkpt>
      <trkpt lat="45.98088" lon="4.84117">
        <ele>273</ele>
        <time>2017-05-03T09:10:38Z</time>
      </trkpt>
      <trkpt lat="45.98083" lon="4.84122">
        <ele>273</ele>
        <time>2017-05-03T09:10:39Z</time>
      </trkpt>
      <trkpt lat="45.98078" lon="4.84127">
        <ele>273</ele>
        <time>2017-05-03T09:10:40Z</time>
      </trkpt>
      <trkpt lat="45.98074" lon="4.84131">
        <ele>273</ele>
        <time>2017-05-03T09:10:41Z</time>
      </trkpt>
      <trkpt lat="45.98069" lon="4.84135">
        <ele>273</ele>
        <time>2017-05-03T09:10:42Z</time>
      </trkpt>
      <trkpt lat="45.98065" lon="4.84139">
        <ele>273</ele>
        <time>2017-05-03T09:10:43Z</time>
      </trkpt>
      <trkpt lat="45.9806" lon="4.84143">
        <ele>273</ele>
        <time>2017-05-03T09:10:44Z</time>
      </trkpt>
      <trkpt lat="45.98056" lon="4.84147">
        <ele>273</ele>
        <time>2017-05-03T09:10:45Z</time>
      </trkpt>
      <trkpt lat="45.98052" lon="4.8415">
        <ele>273</ele>
        <time>2017-05-03T09:10:46Z</time>
      </trkpt>
      <trkpt lat="45.98045" lon="4.84156">
        <ele>273</ele>
        <time>2017-05-03T09:10:48Z</time>
      </trkpt>
      <trkpt lat="45.98041" lon="4.84159">
        <ele>273</ele>
        <time>2017-05-03T09:10:49Z</time>
      </trkpt>
      <trkpt lat="45.98037" lon="4.84163">
        <ele>273</ele>
        <time>2017-05-03T09:10:50Z</time>
      </trkpt>
      <trkpt lat="45.98033" lon="4.84167">
        <ele>273</ele>
        <time>2017-05-03T09:10:51Z</time>
      </trkpt>
      <trkpt lat="45.98028" lon="4.84171">
        <ele>274</ele>
        <time>2017-05-03T09:10:52Z</time>
      </trkpt>
      <trkpt lat="45.98024" lon="4.84176">
        <ele>274</ele>
        <time>2017-05-03T09:10:53Z</time>
      </trkpt>
      <trkpt lat="45.98019" lon="4.8418">
        <ele>274</ele>
        <time>2017-05-03T09:10:54Z</time>
      </trkpt>
      <trkpt lat="45.98014" lon="4.84184">
        <ele>274</ele>
        <time>2017-05-03T09:10:55Z</time>
      </trkpt>
      <trkpt lat="45.98009" lon="4.84189">
        <ele>274</ele>
        <time>2017-05-03T09:10:56Z</time>
      </trkpt>
      <trkpt lat="45.98004" lon="4.84193">
        <ele>274</ele>
        <time>2017-05-03T09:10:57Z</time>
      </trkpt>
      <trkpt lat="45.97999" lon="4.84198">
        <ele>274</ele>
        <time>2017-05-03T09:10:58Z</time>
      </trkpt>
      <trkpt lat="45.97995" lon="4.84203">
        <ele>274</ele>
        <time>2017-05-03T09:10:59Z</time>
      </trkpt>
      <trkpt lat="45.97991" lon="4.84208">
        <ele>274</ele>
        <time>2017-05-03T09:11:00Z</time>
      </trkpt>
      <trkpt lat="45.97986" lon="4.84212">
        <ele>274</ele>
        <time>2017-05-03T09:11:01Z</time>
      </trkpt>
      <trkpt lat="45.97982" lon="4.84216">
        <ele>274</ele>
        <time>2017-05-03T09:11:02Z</time>
      </trkpt>
      <trkpt lat="45.97978" lon="4.84219">
        <ele>274</ele>
        <time>2017-05-03T09:11:03Z</time>
      </trkpt>
      <trkpt lat="45.97973" lon="4.84223">
        <ele>274</ele>
        <time>2017-05-03T09:11:04Z</time>
      </trkpt>
      <trkpt lat="45.9797" lon="4.84227">
        <ele>274</ele>
        <time>2017-05-03T09:11:05Z</time>
      </trkpt>
      <trkpt lat="45.97962" lon="4.84235">
        <ele>274</ele>
        <time>2017-05-03T09:11:07Z</time>
      </trkpt>
      <trkpt lat="45.97959" lon="4.84238">
        <ele>274</ele>
        <time>2017-05-03T09:11:08Z</time>
      </trkpt>
      <trkpt lat="45.97955" lon="4.84242">
        <ele>275</ele>
        <time>2017-05-03T09:11:09Z</time>
      </trkpt>
      <trkpt lat="45.9795" lon="4.84246">
        <ele>275</ele>
        <time>2017-05-03T09:11:10Z</time>
      </trkpt>
      <trkpt lat="45.97946" lon="4.84249">
        <ele>275</ele>
        <time>2017-05-03T09:11:11Z</time>
      </trkpt>
      <trkpt lat="45.97941" lon="4.84253">
        <ele>275</ele>
        <time>2017-05-03T09:11:12Z</time>
      </trkpt>
      <trkpt lat="45.97937" lon="4.84258">
        <ele>275</ele>
        <time>2017-05-03T09:11:13Z</time>
      </trkpt>
      <trkpt lat="45.97932" lon="4.84262">
        <ele>275</ele>
        <time>2017-05-03T09:11:14Z</time>
      </trkpt>
      <trkpt lat="45.97928" lon="4.84267">
        <ele>275</ele>
        <time>2017-05-03T09:11:15Z</time>
      </trkpt>
      <trkpt lat="45.97923" lon="4.84272">
        <ele>275</ele>
        <time>2017-05-03T09:11:16Z</time>
      </trkpt>
      <trkpt lat="45.97919" lon="4.84277">
        <ele>275</ele>
        <time>2017-05-03T09:11:17Z</time>
      </trkpt>
      <trkpt lat="45.97915" lon="4.84283">
        <ele>275</ele>
        <time>2017-05-03T09:11:18Z</time>
      </trkpt>
      <trkpt lat="45.97911" lon="4.84288">
        <ele>275</ele>
        <time>2017-05-03T09:11:19Z</time>
      </trkpt>
      <trkpt lat="45.97908" lon="4.84294">
        <ele>275</ele>
        <time>2017-05-03T09:11:20Z</time>
      </trkpt>
      <trkpt lat="45.97904" lon="4.84299">
        <ele>275</ele>
        <time>2017-05-03T09:11:21Z</time>
      </trkpt>
      <trkpt lat="45.979" lon="4.84303">
        <ele>275</ele>
        <time>2017-05-03T09:11:22Z</time>
      </trkpt>
      <trkpt lat="45.97897" lon="4.84308">
        <ele>275</ele>
        <time>2017-05-03T09:11:23Z</time>
      </trkpt>
      <trkpt lat="45.97894" lon="4.84312">
        <ele>275</ele>
        <time>2017-05-03T09:11:24Z</time>
      </trkpt>
      <trkpt lat="45.97888" lon="4.84321">
        <ele>275</ele>
        <time>2017-05-03T09:11:26Z</time>
      </trkpt>
      <trkpt lat="45.97885" lon="4.84326">
        <ele>275</ele>
        <time>2017-05-03T09:11:27Z</time>
      </trkpt>
      <trkpt lat="45.9788" lon="4.84334">
        <ele>275</ele>
        <time>2017-05-03T09:11:29Z</time>
      </trkpt>
      <trkpt lat="45.97877" lon="4.84339">
        <ele>275</ele>
        <time>2017-05-03T09:11:30Z</time>
      </trkpt>
      <trkpt lat="45.97871" lon="4.84349">
        <ele>276</ele>
        <time>2017-05-03T09:11:32Z</time>
      </trkpt>
      <trkpt lat="45.97868" lon="4.84353">
        <ele>276</ele>
        <time>2017-05-03T09:11:33Z</time>
      </trkpt>
      <trkpt lat="45.97862" lon="4.84362">
        <ele>276</ele>
        <time>2017-05-03T09:11:35Z</time>
      </trkpt>
      <trkpt lat="45.97859" lon="4.84367">
        <ele>276</ele>
        <time>2017-05-03T09:11:36Z</time>
      </trkpt>
      <trkpt lat="45.97853" lon="4.84375">
        <ele>276</ele>
        <time>2017-05-03T09:11:38Z</time>
      </trkpt>
      <trkpt lat="45.9785" lon="4.84379">
        <ele>276</ele>
        <time>2017-05-03T09:11:39Z</time>
      </trkpt>
      <trkpt lat="45.97844" lon="4.84386">
        <ele>276</ele>
        <time>2017-05-03T09:11:41Z</time>
      </trkpt>
      <trkpt lat="45.9784" lon="4.8439">
        <ele>276</ele>
        <time>2017-05-03T09:11:42Z</time>
      </trkpt>
      <trkpt lat="45.97836" lon="4.84394">
        <ele>276</ele>
        <time>2017-05-03T09:11:43Z</time>
      </trkpt>
      <trkpt lat="45.97832" lon="4.84397">
        <ele>276</ele>
        <time>2017-05-03T09:11:44Z</time>
      </trkpt>
      <trkpt lat="45.97827" lon="4.84401">
        <ele>276</ele>
        <time>2017-05-03T09:11:45Z</time>
      </trkpt>
      <trkpt lat="45.97823" lon="4.84404">
        <ele>276</ele>
        <time>2017-05-03T09:11:46Z</time>
      </trkpt>
      <trkpt lat="45.97819" lon="4.84407">
        <ele>276</ele>
        <time>2017-05-03T09:11:47Z</time>
      </trkpt>
      <trkpt lat="45.97815" lon="4.8441">
        <ele>276</ele>
        <time>2017-05-03T09:11:48Z</time>
      </trkpt>
      <trkpt lat="45.97807" lon="4.84416">
        <ele>277</ele>
        <time>2017-05-03T09:11:50Z</time>
      </trkpt>
      <trkpt lat="45.97803" lon="4.84418">
        <ele>277</ele>
        <time>2017-05-03T09:11:51Z</time>
      </trkpt>
      <trkpt lat="45.97795" lon="4.84423">
        <ele>277</ele>
        <time>2017-05-03T09:11:53Z</time>
      </trkpt>
      <trkpt lat="45.97791" lon="4.84425">
        <ele>277</ele>
        <time>2017-05-03T09:11:54Z</time>
      </trkpt>
      <trkpt lat="45.97782" lon="4.84428">
        <ele>277</ele>
        <time>2017-05-03T09:11:56Z</time>
      </trkpt>
      <trkpt lat="45.97778" lon="4.8443">
        <ele>277</ele>
        <time>2017-05-03T09:11:57Z</time>
      </trkpt>
      <trkpt lat="45.97773" lon="4.84431">
        <ele>277</ele>
        <time>2017-05-03T09:11:58Z</time>
      </trkpt>
      <trkpt lat="45.97768" lon="4.84433">
        <ele>277</ele>
        <time>2017-05-03T09:11:59Z</time>
      </trkpt>
      <trkpt lat="45.97763" lon="4.84435">
        <ele>277</ele>
        <time>2017-05-03T09:12:00Z</time>
      </trkpt>
      <trkpt lat="45.97758" lon="4.84437">
        <ele>277</ele>
        <time>2017-05-03T09:12:01Z</time>
      </trkpt>
      <trkpt lat="45.97753" lon="4.84438">
        <ele>277</ele>
        <time>2017-05-03T09:12:02Z</time>
      </trkpt>
      <trkpt lat="45.97748" lon="4.8444">
        <ele>277</ele>
        <time>2017-05-03T09:12:03Z</time>
      </trkpt>
      <trkpt lat="45.97742" lon="4.84441">
        <ele>277</ele>
        <time>2017-05-03T09:12:04Z</time>
      </trkpt>
      <trkpt lat="45.97737" lon="4.84443">
        <ele>277</ele>
        <time>2017-05-03T09:12:05Z</time>
      </trkpt>
      <trkpt lat="45.97732" lon="4.84444">
        <ele>277</ele>
        <time>2017-05-03T09:12:06Z</time>
      </trkpt>
      <trkpt lat="45.97727" lon="4.84446">
        <ele>277</ele>
        <time>2017-05-03T09:12:07Z</time>
      </trkpt>
      <trkpt lat="45.97722" lon="4.84448">
        <ele>277</ele>
        <time>2017-05-03T09:12:08Z</time>
      </trkpt>
      <trkpt lat="45.97716" lon="4.8445">
        <ele>277</ele>
        <time>2017-05-03T09:12:09Z</time>
      </trkpt>
      <trkpt lat="45.97711" lon="4.84452">
        <ele>277</ele>
        <time>2017-05-03T09:12:10Z</time>
      </trkpt>
      <trkpt lat="45.97706" lon="4.84454">
        <ele>277</ele>
        <time>2017-05-03T09:12:11Z</time>
      </trkpt>
      <trkpt lat="45.97701" lon="4.84456">
        <ele>277</ele>
        <time>2017-05-03T09:12:12Z</time>
      </trkpt>
      <trkpt lat="45.97696" lon="4.84458">
        <ele>277</ele>
        <time>2017-05-03T09:12:13Z</time>
      </trkpt>
      <trkpt lat="45.97691" lon="4.8446">
        <ele>277</ele>
        <time>2017-05-03T09:12:14Z</time>
      </trkpt>
      <trkpt lat="45.97687" lon="4.84463">
        <ele>277</ele>
        <time>2017-05-03T09:12:15Z</time>
      </trkpt>
      <trkpt lat="45.97683" lon="4.84466">
        <ele>277</ele>
        <time>2017-05-03T09:12:16Z</time>
      </trkpt>
      <trkpt lat="45.97679" lon="4.84469">
        <ele>277</ele>
        <time>2017-05-03T09:12:17Z</time>
      </trkpt>
      <trkpt lat="45.97674" lon="4.84471">
        <ele>276</ele>
        <time>2017-05-03T09:12:18Z</time>
      </trkpt>
      <trkpt lat="45.9767" lon="4.84475">
        <ele>276</ele>
        <time>2017-05-03T09:12:19Z</time>
      </trkpt>
      <trkpt lat="45.97666" lon="4.84478">
        <ele>276</ele>
        <time>2017-05-03T09:12:20Z</time>
      </trkpt>
      <trkpt lat="45.97661" lon="4.84481">
        <ele>276</ele>
        <time>2017-05-03T09:12:21Z</time>
      </trkpt>
      <trkpt lat="45.97656" lon="4.84485">
        <ele>275</ele>
        <time>2017-05-03T09:12:22Z</time>
      </trkpt>
      <trkpt lat="45.97651" lon="4.8449">
        <ele>275</ele>
        <time>2017-05-03T09:12:23Z</time>
      </trkpt>
      <trkpt lat="45.97646" lon="4.84495">
        <ele>275</ele>
        <time>2017-05-03T09:12:24Z</time>
      </trkpt>
      <trkpt lat="45.97642" lon="4.84501">
        <ele>275</ele>
        <time>2017-05-03T09:12:25Z</time>
      </trkpt>
      <trkpt lat="45.97638" lon="4.84506">
        <ele>275</ele>
        <time>2017-05-03T09:12:26Z</time>
      </trkpt>
      <trkpt lat="45.97633" lon="4.84511">
        <ele>275</ele>
        <time>2017-05-03T09:12:27Z</time>
      </trkpt>
      <trkpt lat="45.97629" lon="4.84516">
        <ele>275</ele>
        <time>2017-05-03T09:12:28Z</time>
      </trkpt>
      <trkpt lat="45.97625" lon="4.84521">
        <ele>275</ele>
        <time>2017-05-03T09:12:29Z</time>
      </trkpt>
      <trkpt lat="45.97621" lon="4.84526">
        <ele>275</ele>
        <time>2017-05-03T09:12:30Z</time>
      </trkpt>
      <trkpt lat="45.97618" lon="4.84531">
        <ele>275</ele>
        <time>2017-05-03T09:12:31Z</time>
      </trkpt>
      <trkpt lat="45.97614" lon="4.84535">
        <ele>275</ele>
        <time>2017-05-03T09:12:32Z</time>
      </trkpt>
      <trkpt lat="45.97611" lon="4.8454">
        <ele>275</ele>
        <time>2017-05-03T09:12:33Z</time>
      </trkpt>
      <trkpt lat="45.97604" lon="4.84548">
        <ele>275</ele>
        <time>2017-05-03T09:12:35Z</time>
      </trkpt>
      <trkpt lat="45.976" lon="4.84552">
        <ele>275</ele>
        <time>2017-05-03T09:12:36Z</time>
      </trkpt>
      <trkpt lat="45.97597" lon="4.84557">
        <ele>275</ele>
        <time>2017-05-03T09:12:37Z</time>
      </trkpt>
      <trkpt lat="45.97593" lon="4.84562">
        <ele>274</ele>
        <time>2017-05-03T09:12:38Z</time>
      </trkpt>
      <trkpt lat="45.97589" lon="4.84566">
        <ele>274</ele>
        <time>2017-05-03T09:12:39Z</time>
      </trkpt>
      <trkpt lat="45.97585" lon="4.84571">
        <ele>274</ele>
        <time>2017-05-03T09:12:40Z</time>
      </trkpt>
      <trkpt lat="45.97581" lon="4.84577">
        <ele>274</ele>
        <time>2017-05-03T09:12:41Z</time>
      </trkpt>
      <trkpt lat="45.97576" lon="4.84582">
        <ele>274</ele>
        <time>2017-05-03T09:12:42Z</time>
      </trkpt>
      <trkpt lat="45.97572" lon="4.84587">
        <ele>274</ele>
        <time>2017-05-03T09:12:43Z</time>
      </trkpt>
      <trkpt lat="45.97568" lon="4.84592">
        <ele>274</ele>
        <time>2017-05-03T09:12:44Z</time>
      </trkpt>
      <trkpt lat="45.97564" lon="4.84597">
        <ele>274</ele>
        <time>2017-05-03T09:12:45Z</time>
      </trkpt>
      <trkpt lat="45.9756" lon="4.84601">
        <ele>274</ele>
        <time>2017-05-03T09:12:46Z</time>
      </trkpt>
      <trkpt lat="45.97556" lon="4.84606">
        <ele>274</ele>
        <time>2017-05-03T09:12:47Z</time>
      </trkpt>
      <trkpt lat="45.97552" lon="4.8461">
        <ele>274</ele>
        <time>2017-05-03T09:12:48Z</time>
      </trkpt>
      <trkpt lat="45.97548" lon="4.84613">
        <ele>274</ele>
        <time>2017-05-03T09:12:49Z</time>
      </trkpt>
      <trkpt lat="45.97544" lon="4.84617">
        <ele>274</ele>
        <time>2017-05-03T09:12:50Z</time>
      </trkpt>
      <trkpt lat="45.9754" lon="4.84621">
        <ele>275</ele>
        <time>2017-05-03T09:12:51Z</time>
      </trkpt>
      <trkpt lat="45.97536" lon="4.84624">
        <ele>275</ele>
        <time>2017-05-03T09:12:52Z</time>
      </trkpt>
      <trkpt lat="45.97532" lon="4.84628">
        <ele>275</ele>
        <time>2017-05-03T09:12:53Z</time>
      </trkpt>
      <trkpt lat="45.97528" lon="4.84631">
        <ele>275</ele>
        <time>2017-05-03T09:12:54Z</time>
      </trkpt>
      <trkpt lat="45.97524" lon="4.84636">
        <ele>275</ele>
        <time>2017-05-03T09:12:55Z</time>
      </trkpt>
      <trkpt lat="45.97519" lon="4.84639">
        <ele>275</ele>
        <time>2017-05-03T09:12:56Z</time>
      </trkpt>
      <trkpt lat="45.97514" lon="4.84643">
        <ele>275</ele>
        <time>2017-05-03T09:12:57Z</time>
      </trkpt>
      <trkpt lat="45.97509" lon="4.84647">
        <ele>275</ele>
        <time>2017-05-03T09:12:58Z</time>
      </trkpt>
      <trkpt lat="45.97504" lon="4.84651">
        <ele>275</ele>
        <time>2017-05-03T09:12:59Z</time>
      </trkpt>
      <trkpt lat="45.97499" lon="4.84655">
        <ele>275</ele>
        <time>2017-05-03T09:13:00Z</time>
      </trkpt>
      <trkpt lat="45.97493" lon="4.84659">
        <ele>275</ele>
        <time>2017-05-03T09:13:01Z</time>
      </trkpt>
      <trkpt lat="45.97487" lon="4.84663">
        <ele>275</ele>
        <time>2017-05-03T09:13:02Z</time>
      </trkpt>
      <trkpt lat="45.97481" lon="4.84667">
        <ele>276</ele>
        <time>2017-05-03T09:13:03Z</time>
      </trkpt>
      <trkpt lat="45.97476" lon="4.84671">
        <ele>276</ele>
        <time>2017-05-03T09:13:04Z</time>
      </trkpt>
      <trkpt lat="45.9747" lon="4.84674">
        <ele>276</ele>
        <time>2017-05-03T09:13:05Z</time>
      </trkpt>
      <trkpt lat="45.97465" lon="4.84678">
        <ele>276</ele>
        <time>2017-05-03T09:13:06Z</time>
      </trkpt>
      <trkpt lat="45.9746" lon="4.84682">
        <ele>276</ele>
        <time>2017-05-03T09:13:07Z</time>
      </trkpt>
      <trkpt lat="45.97455" lon="4.84685">
        <ele>276</ele>
        <time>2017-05-03T09:13:08Z</time>
      </trkpt>
      <trkpt lat="45.9745" lon="4.84688">
        <ele>276</ele>
        <time>2017-05-03T09:13:09Z</time>
      </trkpt>
      <trkpt lat="45.97445" lon="4.84691">
        <ele>276</ele>
        <time>2017-05-03T09:13:10Z</time>
      </trkpt>
      <trkpt lat="45.9744" lon="4.84694">
        <ele>276</ele>
        <time>2017-05-03T09:13:11Z</time>
      </trkpt>
      <trkpt lat="45.97436" lon="4.84697">
        <ele>276</ele>
        <time>2017-05-03T09:13:12Z</time>
      </trkpt>
      <trkpt lat="45.97431" lon="4.847">
        <ele>276</ele>
        <time>2017-05-03T09:13:13Z</time>
      </trkpt>
      <trkpt lat="45.97427" lon="4.84703">
        <ele>276</ele>
        <time>2017-05-03T09:13:14Z</time>
      </trkpt>
      <trkpt lat="45.97422" lon="4.84706">
        <ele>276</ele>
        <time>2017-05-03T09:13:15Z</time>
      </trkpt>
      <trkpt lat="45.97417" lon="4.84709">
        <ele>276</ele>
        <time>2017-05-03T09:13:16Z</time>
      </trkpt>
      <trkpt lat="45.97412" lon="4.84713">
        <ele>278</ele>
        <time>2017-05-03T09:13:17Z</time>
      </trkpt>
      <trkpt lat="45.97407" lon="4.84716">
        <ele>278</ele>
        <time>2017-05-03T09:13:18Z</time>
      </trkpt>
      <trkpt lat="45.97401" lon="4.84719">
        <ele>278</ele>
        <time>2017-05-03T09:13:19Z</time>
      </trkpt>
      <trkpt lat="45.97396" lon="4.84723">
        <ele>278</ele>
        <time>2017-05-03T09:13:20Z</time>
      </trkpt>
      <trkpt lat="45.97391" lon="4.84727">
        <ele>278</ele>
        <time>2017-05-03T09:13:21Z</time>
      </trkpt>
      <trkpt lat="45.97386" lon="4.84734">
        <ele>278</ele>
        <time>2017-05-03T09:13:22Z</time>
      </trkpt>
      <trkpt lat="45.97382" lon="4.8474">
        <ele>278</ele>
        <time>2017-05-03T09:13:23Z</time>
      </trkpt>
      <trkpt lat="45.97379" lon="4.84747">
        <ele>278</ele>
        <time>2017-05-03T09:13:24Z</time>
      </trkpt>
      <trkpt lat="45.97376" lon="4.84754">
        <ele>278</ele>
        <time>2017-05-03T09:13:25Z</time>
      </trkpt>
      <trkpt lat="45.97373" lon="4.84761">
        <ele>278</ele>
        <time>2017-05-03T09:13:26Z</time>
      </trkpt>
      <trkpt lat="45.97371" lon="4.84769">
        <ele>278</ele>
        <time>2017-05-03T09:13:27Z</time>
      </trkpt>
      <trkpt lat="45.97368" lon="4.84776">
        <ele>278</ele>
        <time>2017-05-03T09:13:28Z</time>
      </trkpt>
      <trkpt lat="45.97365" lon="4.84782">
        <ele>278</ele>
        <time>2017-05-03T09:13:29Z</time>
      </trkpt>
      <trkpt lat="45.97363" lon="4.84789">
        <ele>278</ele>
        <time>2017-05-03T09:13:30Z</time>
      </trkpt>
      <trkpt lat="45.9736" lon="4.84795">
        <ele>278</ele>
        <time>2017-05-03T09:13:31Z</time>
      </trkpt>
      <trkpt lat="45.97357" lon="4.84801">
        <ele>278</ele>
        <time>2017-05-03T09:13:32Z</time>
      </trkpt>
      <trkpt lat="45.97355" lon="4.84808">
        <ele>278</ele>
        <time>2017-05-03T09:13:33Z</time>
      </trkpt>
      <trkpt lat="45.97353" lon="4.84814">
        <ele>278</ele>
        <time>2017-05-03T09:13:34Z</time>
      </trkpt>
      <trkpt lat="45.9735" lon="4.8482">
        <ele>278</ele>
        <time>2017-05-03T09:13:35Z</time>
      </trkpt>
      <trkpt lat="45.97348" lon="4.84827">
        <ele>278</ele>
        <time>2017-05-03T09:13:36Z</time>
      </trkpt>
      <trkpt lat="45.97345" lon="4.84833">
        <ele>278</ele>
        <time>2017-05-03T09:13:37Z</time>
      </trkpt>
      <trkpt lat="45.97342" lon="4.84839">
        <ele>277</ele>
        <time>2017-05-03T09:13:38Z</time>
      </trkpt>
      <trkpt lat="45.9734" lon="4.84846">
        <ele>277</ele>
        <time>2017-05-03T09:13:39Z</time>
      </trkpt>
      <trkpt lat="45.97337" lon="4.84852">
        <ele>277</ele>
        <time>2017-05-03T09:13:40Z</time>
      </trkpt>
      <trkpt lat="45.97334" lon="4.84859">
        <ele>277</ele>
        <time>2017-05-03T09:13:41Z</time>
      </trkpt>
      <trkpt lat="45.9733" lon="4.84865">
        <ele>278</ele>
        <time>2017-05-03T09:13:42Z</time>
      </trkpt>
      <trkpt lat="45.97327" lon="4.84871">
        <ele>278</ele>
        <time>2017-05-03T09:13:43Z</time>
      </trkpt>
      <trkpt lat="45.97324" lon="4.84878">
        <ele>278</ele>
        <time>2017-05-03T09:13:44Z</time>
      </trkpt>
      <trkpt lat="45.97321" lon="4.84884">
        <ele>278</ele>
        <time>2017-05-03T09:13:45Z</time>
      </trkpt>
      <trkpt lat="45.97318" lon="4.84889">
        <ele>278</ele>
        <time>2017-05-03T09:13:46Z</time>
      </trkpt>
      <trkpt lat="45.97314" lon="4.84894">
        <ele>278</ele>
        <time>2017-05-03T09:13:47Z</time>
      </trkpt>
      <trkpt lat="45.97311" lon="4.84899">
        <ele>278</ele>
        <time>2017-05-03T09:13:48Z</time>
      </trkpt>
      <trkpt lat="45.97308" lon="4.84904">
        <ele>278</ele>
        <time>2017-05-03T09:13:49Z</time>
      </trkpt>
      <trkpt lat="45.97304" lon="4.8491">
        <ele>278</ele>
        <time>2017-05-03T09:13:50Z</time>
      </trkpt>
      <trkpt lat="45.973" lon="4.84916">
        <ele>278</ele>
        <time>2017-05-03T09:13:51Z</time>
      </trkpt>
      <trkpt lat="45.97296" lon="4.84922">
        <ele>278</ele>
        <time>2017-05-03T09:13:52Z</time>
      </trkpt>
      <trkpt lat="45.97292" lon="4.84928">
        <ele>278</ele>
        <time>2017-05-03T09:13:53Z</time>
      </trkpt>
      <trkpt lat="45.97288" lon="4.84934">
        <ele>278</ele>
        <time>2017-05-03T09:13:54Z</time>
      </trkpt>
      <trkpt lat="45.97284" lon="4.84941">
        <ele>278</ele>
        <time>2017-05-03T09:13:55Z</time>
      </trkpt>
      <trkpt lat="45.97281" lon="4.84947">
        <ele>278</ele>
        <time>2017-05-03T09:13:56Z</time>
      </trkpt>
      <trkpt lat="45.97277" lon="4.84953">
        <ele>279</ele>
        <time>2017-05-03T09:13:57Z</time>
      </trkpt>
      <trkpt lat="45.97273" lon="4.8496">
        <ele>279</ele>
        <time>2017-05-03T09:13:58Z</time>
      </trkpt>
      <trkpt lat="45.9727" lon="4.84966">
        <ele>279</ele>
        <time>2017-05-03T09:13:59Z</time>
      </trkpt>
      <trkpt lat="45.97266" lon="4.84972">
        <ele>279</ele>
        <time>2017-05-03T09:14:00Z</time>
      </trkpt>
      <trkpt lat="45.97263" lon="4.84979">
        <ele>279</ele>
        <time>2017-05-03T09:14:01Z</time>
      </trkpt>
      <trkpt lat="45.9726" lon="4.84985">
        <ele>279</ele>
        <time>2017-05-03T09:14:02Z</time>
      </trkpt>
      <trkpt lat="45.97257" lon="4.84992">
        <ele>279</ele>
        <time>2017-05-03T09:14:03Z</time>
      </trkpt>
      <trkpt lat="45.97255" lon="4.84998">
        <ele>279</ele>
        <time>2017-05-03T09:14:04Z</time>
      </trkpt>
      <trkpt lat="45.97252" lon="4.85005">
        <ele>279</ele>
        <time>2017-05-03T09:14:05Z</time>
      </trkpt>
      <trkpt lat="45.97249" lon="4.85011">
        <ele>279</ele>
        <time>2017-05-03T09:14:06Z</time>
      </trkpt>
      <trkpt lat="45.97246" lon="4.85017">
        <ele>279</ele>
        <time>2017-05-03T09:14:07Z</time>
      </trkpt>
      <trkpt lat="45.97243" lon="4.85023">
        <ele>279</ele>
        <time>2017-05-03T09:14:08Z</time>
      </trkpt>
      <trkpt lat="45.97241" lon="4.8503">
        <ele>279</ele>
        <time>2017-05-03T09:14:09Z</time>
      </trkpt>
      <trkpt lat="45.97238" lon="4.85036">
        <ele>279</ele>
        <time>2017-05-03T09:14:10Z</time>
      </trkpt>
      <trkpt lat="45.97234" lon="4.85043">
        <ele>279</ele>
        <time>2017-05-03T09:14:11Z</time>
      </trkpt>
      <trkpt lat="45.97231" lon="4.8505">
        <ele>279</ele>
        <time>2017-05-03T09:14:12Z</time>
      </trkpt>
      <trkpt lat="45.97228" lon="4.85057">
        <ele>279</ele>
        <time>2017-05-03T09:14:13Z</time>
      </trkpt>
      <trkpt lat="45.97225" lon="4.85063">
        <ele>279</ele>
        <time>2017-05-03T09:14:14Z</time>
      </trkpt>
      <trkpt lat="45.97222" lon="4.8507">
        <ele>278</ele>
        <time>2017-05-03T09:14:15Z</time>
      </trkpt>
      <trkpt lat="45.97219" lon="4.85076">
        <ele>278</ele>
        <time>2017-05-03T09:14:16Z</time>
      </trkpt>
      <trkpt lat="45.97217" lon="4.85082">
        <ele>278</ele>
        <time>2017-05-03T09:14:17Z</time>
      </trkpt>
      <trkpt lat="45.97214" lon="4.85088">
        <ele>278</ele>
        <time>2017-05-03T09:14:18Z</time>
      </trkpt>
      <trkpt lat="45.97211" lon="4.85094">
        <ele>278</ele>
        <time>2017-05-03T09:14:19Z</time>
      </trkpt>
      <trkpt lat="45.97208" lon="4.851">
        <ele>278</ele>
        <time>2017-05-03T09:14:20Z</time>
      </trkpt>
      <trkpt lat="45.97206" lon="4.85106">
        <ele>278</ele>
        <time>2017-05-03T09:14:21Z</time>
      </trkpt>
      <trkpt lat="45.97203" lon="4.85112">
        <ele>278</ele>
        <time>2017-05-03T09:14:22Z</time>
      </trkpt>
      <trkpt lat="45.972" lon="4.85119">
        <ele>278</ele>
        <time>2017-05-03T09:14:23Z</time>
      </trkpt>
      <trkpt lat="45.97197" lon="4.85126">
        <ele>278</ele>
        <time>2017-05-03T09:14:24Z</time>
      </trkpt>
      <trkpt lat="45.97194" lon="4.85132">
        <ele>278</ele>
        <time>2017-05-03T09:14:25Z</time>
      </trkpt>
      <trkpt lat="45.97191" lon="4.85139">
        <ele>278</ele>
        <time>2017-05-03T09:14:26Z</time>
      </trkpt>
      <trkpt lat="45.97188" lon="4.85145">
        <ele>278</ele>
        <time>2017-05-03T09:14:27Z</time>
      </trkpt>
      <trkpt lat="45.97185" lon="4.85152">
        <ele>278</ele>
        <time>2017-05-03T09:14:28Z</time>
      </trkpt>
      <trkpt lat="45.97181" lon="4.85159">
        <ele>278</ele>
        <time>2017-05-03T09:14:29Z</time>
      </trkpt>
      <trkpt lat="45.97178" lon="4.85166">
        <ele>278</ele>
        <time>2017-05-03T09:14:30Z</time>
      </trkpt>
      <trkpt lat="45.97174" lon="4.85172">
        <ele>278</ele>
        <time>2017-05-03T09:14:31Z</time>
      </trkpt>
      <trkpt lat="45.97171" lon="4.85179">
        <ele>278</ele>
        <time>2017-05-03T09:14:32Z</time>
      </trkpt>
      <trkpt lat="45.97168" lon="4.85187">
        <ele>278</ele>
        <time>2017-05-03T09:14:33Z</time>
      </trkpt>
      <trkpt lat="45.97164" lon="4.85194">
        <ele>279</ele>
        <time>2017-05-03T09:14:34Z</time>
      </trkpt>
      <trkpt lat="45.97161" lon="4.85201">
        <ele>279</ele>
        <time>2017-05-03T09:14:35Z</time>
      </trkpt>
      <trkpt lat="45.97158" lon="4.85209">
        <ele>279</ele>
        <time>2017-05-03T09:14:36Z</time>
      </trkpt>
      <trkpt lat="45.97154" lon="4.85216">
        <ele>279</ele>
        <time>2017-05-03T09:14:37Z</time>
      </trkpt>
      <trkpt lat="45.97151" lon="4.85222">
        <ele>279</ele>
        <time>2017-05-03T09:14:38Z</time>
      </trkpt>
      <trkpt lat="45.97148" lon="4.85229">
        <ele>279</ele>
        <time>2017-05-03T09:14:39Z</time>
      </trkpt>
      <trkpt lat="45.97145" lon="4.85235">
        <ele>279</ele>
        <time>2017-05-03T09:14:40Z</time>
      </trkpt>
      <trkpt lat="45.97142" lon="4.8524">
        <ele>279</ele>
        <time>2017-05-03T09:14:41Z</time>
      </trkpt>
      <trkpt lat="45.97139" lon="4.85246">
        <ele>279</ele>
        <time>2017-05-03T09:14:42Z</time>
      </trkpt>
      <trkpt lat="45.97136" lon="4.85251">
        <ele>279</ele>
        <time>2017-05-03T09:14:43Z</time>
      </trkpt>
      <trkpt lat="45.97133" lon="4.85257">
        <ele>279</ele>
        <time>2017-05-03T09:14:44Z</time>
      </trkpt>
      <trkpt lat="45.97131" lon="4.85262">
        <ele>279</ele>
        <time>2017-05-03T09:14:45Z</time>
      </trkpt>
      <trkpt lat="45.97128" lon="4.85268">
        <ele>279</ele>
        <time>2017-05-03T09:14:46Z</time>
      </trkpt>
      <trkpt lat="45.97124" lon="4.85275">
        <ele>280</ele>
        <time>2017-05-03T09:14:47Z</time>
      </trkpt>
      <trkpt lat="45.97121" lon="4.85281">
        <ele>280</ele>
        <time>2017-05-03T09:14:48Z</time>
      </trkpt>
      <trkpt lat="45.97118" lon="4.85287">
        <ele>280</ele>
        <time>2017-05-03T09:14:49Z</time>
      </trkpt>
      <trkpt lat="45.97115" lon="4.85294">
        <ele>280</ele>
        <time>2017-05-03T09:14:50Z</time>
      </trkpt>
      <trkpt lat="45.97112" lon="4.853">
        <ele>280</ele>
        <time>2017-05-03T09:14:51Z</time>
      </trkpt>
      <trkpt lat="45.97109" lon="4.85307">
        <ele>280</ele>
        <time>2017-05-03T09:14:52Z</time>
      </trkpt>
      <trkpt lat="45.97106" lon="4.85314">
        <ele>280</ele>
        <time>2017-05-03T09:14:53Z</time>
      </trkpt>
      <trkpt lat="45.97103" lon="4.85322">
        <ele>280</ele>
        <time>2017-05-03T09:14:54Z</time>
      </trkpt>
      <trkpt lat="45.971" lon="4.85331">
        <ele>280</ele>
        <time>2017-05-03T09:14:55Z</time>
      </trkpt>
      <trkpt lat="45.97097" lon="4.85338">
        <ele>280</ele>
        <time>2017-05-03T09:14:56Z</time>
      </trkpt>
      <trkpt lat="45.97095" lon="4.85346">
        <ele>280</ele>
        <time>2017-05-03T09:14:57Z</time>
      </trkpt>
      <trkpt lat="45.97093" lon="4.85354">
        <ele>280</ele>
        <time>2017-05-03T09:14:58Z</time>
      </trkpt>
      <trkpt lat="45.97091" lon="4.85361">
        <ele>280</ele>
        <time>2017-05-03T09:14:59Z</time>
      </trkpt>
      <trkpt lat="45.97089" lon="4.85368">
        <ele>280</ele>
        <time>2017-05-03T09:15:00Z</time>
      </trkpt>
      <trkpt lat="45.97086" lon="4.85374">
        <ele>280</ele>
        <time>2017-05-03T09:15:01Z</time>
      </trkpt>
      <trkpt lat="45.97084" lon="4.85381">
        <ele>280</ele>
        <time>2017-05-03T09:15:02Z</time>
      </trkpt>
      <trkpt lat="45.97082" lon="4.85387">
        <ele>281</ele>
        <time>2017-05-03T09:15:03Z</time>
      </trkpt>
      <trkpt lat="45.9708" lon="4.85392">
        <ele>281</ele>
        <time>2017-05-03T09:15:04Z</time>
      </trkpt>
      <trkpt lat="45.97076" lon="4.85403">
        <ele>281</ele>
        <time>2017-05-03T09:15:06Z</time>
      </trkpt>
      <trkpt lat="45.97075" lon="4.85409">
        <ele>281</ele>
        <time>2017-05-03T09:15:07Z</time>
      </trkpt>
      <trkpt lat="45.97073" lon="4.85415">
        <ele>281</ele>
        <time>2017-05-03T09:15:08Z</time>
      </trkpt>
      <trkpt lat="45.97071" lon="4.85421">
        <ele>281</ele>
        <time>2017-05-03T09:15:09Z</time>
      </trkpt>
      <trkpt lat="45.97068" lon="4.85428">
        <ele>281</ele>
        <time>2017-05-03T09:15:10Z</time>
      </trkpt>
      <trkpt lat="45.97066" lon="4.85435">
        <ele>281</ele>
        <time>2017-05-03T09:15:11Z</time>
      </trkpt>
      <trkpt lat="45.97064" lon="4.85442">
        <ele>281</ele>
        <time>2017-05-03T09:15:12Z</time>
      </trkpt>
      <trkpt lat="45.97062" lon="4.8545">
        <ele>281</ele>
        <time>2017-05-03T09:15:13Z</time>
      </trkpt>
      <trkpt lat="45.97059" lon="4.85457">
        <ele>281</ele>
        <time>2017-05-03T09:15:14Z</time>
      </trkpt>
      <trkpt lat="45.97057" lon="4.85464">
        <ele>281</ele>
        <time>2017-05-03T09:15:15Z</time>
      </trkpt>
      <trkpt lat="45.97055" lon="4.85472">
        <ele>281</ele>
        <time>2017-05-03T09:15:16Z</time>
      </trkpt>
      <trkpt lat="45.97053" lon="4.85479">
        <ele>281</ele>
        <time>2017-05-03T09:15:17Z</time>
      </trkpt>
      <trkpt lat="45.9705" lon="4.85486">
        <ele>281</ele>
        <time>2017-05-03T09:15:18Z</time>
      </trkpt>
      <trkpt lat="45.97048" lon="4.85493">
        <ele>281</ele>
        <time>2017-05-03T09:15:19Z</time>
      </trkpt>
      <trkpt lat="45.97046" lon="4.855">
        <ele>281</ele>
        <time>2017-05-03T09:15:20Z</time>
      </trkpt>
      <trkpt lat="45.97044" lon="4.85507">
        <ele>282</ele>
        <time>2017-05-03T09:15:21Z</time>
      </trkpt>
      <trkpt lat="45.97042" lon="4.85514">
        <ele>282</ele>
        <time>2017-05-03T09:15:22Z</time>
      </trkpt>
      <trkpt lat="45.97039" lon="4.8552">
        <ele>282</ele>
        <time>2017-05-03T09:15:23Z</time>
      </trkpt>
      <trkpt lat="45.97037" lon="4.85527">
        <ele>282</ele>
        <time>2017-05-03T09:15:24Z</time>
      </trkpt>
      <trkpt lat="45.97035" lon="4.85534">
        <ele>282</ele>
        <time>2017-05-03T09:15:25Z</time>
      </trkpt>
      <trkpt lat="45.97033" lon="4.85541">
        <ele>282</ele>
        <time>2017-05-03T09:15:26Z</time>
      </trkpt>
      <trkpt lat="45.97032" lon="4.85547">
        <ele>283</ele>
        <time>2017-05-03T09:15:27Z</time>
      </trkpt>
      <trkpt lat="45.9703" lon="4.85554">
        <ele>283</ele>
        <time>2017-05-03T09:15:28Z</time>
      </trkpt>
      <trkpt lat="45.97027" lon="4.8556">
        <ele>283</ele>
        <time>2017-05-03T09:15:29Z</time>
      </trkpt>
      <trkpt lat="45.97025" lon="4.85568">
        <ele>283</ele>
        <time>2017-05-03T09:15:30Z</time>
      </trkpt>
      <trkpt lat="45.97023" lon="4.85575">
        <ele>283</ele>
        <time>2017-05-03T09:15:31Z</time>
      </trkpt>
      <trkpt lat="45.97021" lon="4.85582">
        <ele>283</ele>
        <time>2017-05-03T09:15:32Z</time>
      </trkpt>
      <trkpt lat="45.97019" lon="4.8559">
        <ele>284</ele>
        <time>2017-05-03T09:15:33Z</time>
      </trkpt>
      <trkpt lat="45.97017" lon="4.85597">
        <ele>284</ele>
        <time>2017-05-03T09:15:34Z</time>
      </trkpt>
      <trkpt lat="45.97015" lon="4.85605">
        <ele>284</ele>
        <time>2017-05-03T09:15:35Z</time>
      </trkpt>
      <trkpt lat="45.97013" lon="4.85611">
        <ele>284</ele>
        <time>2017-05-03T09:15:36Z</time>
      </trkpt>
      <trkpt lat="45.97011" lon="4.85618">
        <ele>284</ele>
        <time>2017-05-03T09:15:37Z</time>
      </trkpt>
      <trkpt lat="45.97009" lon="4.85625">
        <ele>284</ele>
        <time>2017-05-03T09:15:38Z</time>
      </trkpt>
      <trkpt lat="45.97008" lon="4.85632">
        <ele>284</ele>
        <time>2017-05-03T09:15:39Z</time>
      </trkpt>
      <trkpt lat="45.97005" lon="4.85643">
        <ele>284</ele>
        <time>2017-05-03T09:15:41Z</time>
      </trkpt>
      <trkpt lat="45.97003" lon="4.85648">
        <ele>285</ele>
        <time>2017-05-03T09:15:42Z</time>
      </trkpt>
      <trkpt lat="45.97" lon="4.8566">
        <ele>286</ele>
        <time>2017-05-03T09:15:44Z</time>
      </trkpt>
      <trkpt lat="45.96998" lon="4.85665">
        <ele>286</ele>
        <time>2017-05-03T09:15:45Z</time>
      </trkpt>
      <trkpt lat="45.96997" lon="4.85672">
        <ele>286</ele>
        <time>2017-05-03T09:15:46Z</time>
      </trkpt>
      <trkpt lat="45.96995" lon="4.85678">
        <ele>286</ele>
        <time>2017-05-03T09:15:47Z</time>
      </trkpt>
      <trkpt lat="45.96994" lon="4.85685">
        <ele>285</ele>
        <time>2017-05-03T09:15:48Z</time>
      </trkpt>
      <trkpt lat="45.96992" lon="4.85691">
        <ele>285</ele>
        <time>2017-05-03T09:15:49Z</time>
      </trkpt>
      <trkpt lat="45.96989" lon="4.85703">
        <ele>285</ele>
        <time>2017-05-03T09:15:51Z</time>
      </trkpt>
      <trkpt lat="45.96987" lon="4.85708">
        <ele>285</ele>
        <time>2017-05-03T09:15:52Z</time>
      </trkpt>
      <trkpt lat="45.96984" lon="4.85719">
        <ele>285</ele>
        <time>2017-05-03T09:15:54Z</time>
      </trkpt>
      <trkpt lat="45.96982" lon="4.85724">
        <ele>285</ele>
        <time>2017-05-03T09:15:55Z</time>
      </trkpt>
      <trkpt lat="45.96981" lon="4.85731">
        <ele>285</ele>
        <time>2017-05-03T09:15:56Z</time>
      </trkpt>
      <trkpt lat="45.9698" lon="4.85737">
        <ele>285</ele>
        <time>2017-05-03T09:15:57Z</time>
      </trkpt>
      <trkpt lat="45.96978" lon="4.85744">
        <ele>285</ele>
        <time>2017-05-03T09:15:58Z</time>
      </trkpt>
      <trkpt lat="45.96976" lon="4.85751">
        <ele>285</ele>
        <time>2017-05-03T09:15:59Z</time>
      </trkpt>
      <trkpt lat="45.96974" lon="4.85758">
        <ele>285</ele>
        <time>2017-05-03T09:16:00Z</time>
      </trkpt>
      <trkpt lat="45.96973" lon="4.85766">
        <ele>285</ele>
        <time>2017-05-03T09:16:01Z</time>
      </trkpt>
      <trkpt lat="45.96971" lon="4.85773">
        <ele>285</ele>
        <time>2017-05-03T09:16:02Z</time>
      </trkpt>
      <trkpt lat="45.96969" lon="4.8578">
        <ele>285</ele>
        <time>2017-05-03T09:16:03Z</time>
      </trkpt>
      <trkpt lat="45.96968" lon="4.85786">
        <ele>285</ele>
        <time>2017-05-03T09:16:04Z</time>
      </trkpt>
      <trkpt lat="45.96966" lon="4.85792">
        <ele>285</ele>
        <time>2017-05-03T09:16:05Z</time>
      </trkpt>
      <trkpt lat="45.96962" lon="4.85804">
        <ele>285</ele>
        <time>2017-05-03T09:16:07Z</time>
      </trkpt>
      <trkpt lat="45.96961" lon="4.8581">
        <ele>285</ele>
        <time>2017-05-03T09:16:08Z</time>
      </trkpt>
      <trkpt lat="45.96959" lon="4.85817">
        <ele>285</ele>
        <time>2017-05-03T09:16:09Z</time>
      </trkpt>
      <trkpt lat="45.96957" lon="4.85823">
        <ele>285</ele>
        <time>2017-05-03T09:16:10Z</time>
      </trkpt>
      <trkpt lat="45.96955" lon="4.8583">
        <ele>285</ele>
        <time>2017-05-03T09:16:11Z</time>
      </trkpt>
      <trkpt lat="45.96952" lon="4.85837">
        <ele>285</ele>
        <time>2017-05-03T09:16:12Z</time>
      </trkpt>
      <trkpt lat="45.9695" lon="4.85845">
        <ele>285</ele>
        <time>2017-05-03T09:16:13Z</time>
      </trkpt>
      <trkpt lat="45.96949" lon="4.85852">
        <ele>285</ele>
        <time>2017-05-03T09:16:14Z</time>
      </trkpt>
      <trkpt lat="45.96947" lon="4.85858">
        <ele>285</ele>
        <time>2017-05-03T09:16:15Z</time>
      </trkpt>
      <trkpt lat="45.96945" lon="4.85865">
        <ele>285</ele>
        <time>2017-05-03T09:16:16Z</time>
      </trkpt>
      <trkpt lat="45.96943" lon="4.85871">
        <ele>285</ele>
        <time>2017-05-03T09:16:17Z</time>
      </trkpt>
      <trkpt lat="45.96942" lon="4.85877">
        <ele>285</ele>
        <time>2017-05-03T09:16:18Z</time>
      </trkpt>
      <trkpt lat="45.9694" lon="4.85884">
        <ele>285</ele>
        <time>2017-05-03T09:16:19Z</time>
      </trkpt>
      <trkpt lat="45.96939" lon="4.8589">
        <ele>285</ele>
        <time>2017-05-03T09:16:20Z</time>
      </trkpt>
      <trkpt lat="45.96937" lon="4.85897">
        <ele>285</ele>
        <time>2017-05-03T09:16:21Z</time>
      </trkpt>
      <trkpt lat="45.96935" lon="4.85904">
        <ele>286</ele>
        <time>2017-05-03T09:16:22Z</time>
      </trkpt>
      <trkpt lat="45.96934" lon="4.85911">
        <ele>286</ele>
        <time>2017-05-03T09:16:23Z</time>
      </trkpt>
      <trkpt lat="45.96932" lon="4.85917">
        <ele>286</ele>
        <time>2017-05-03T09:16:24Z</time>
      </trkpt>
      <trkpt lat="45.9693" lon="4.85924">
        <ele>286</ele>
        <time>2017-05-03T09:16:25Z</time>
      </trkpt>
      <trkpt lat="45.96928" lon="4.8593">
        <ele>286</ele>
        <time>2017-05-03T09:16:26Z</time>
      </trkpt>
      <trkpt lat="45.96926" lon="4.85937">
        <ele>286</ele>
        <time>2017-05-03T09:16:27Z</time>
      </trkpt>
      <trkpt lat="45.96925" lon="4.85943">
        <ele>286</ele>
        <time>2017-05-03T09:16:28Z</time>
      </trkpt>
      <trkpt lat="45.96923" lon="4.85949">
        <ele>287</ele>
        <time>2017-05-03T09:16:29Z</time>
      </trkpt>
      <trkpt lat="45.96921" lon="4.85956">
        <ele>287</ele>
        <time>2017-05-03T09:16:30Z</time>
      </trkpt>
      <trkpt lat="45.96919" lon="4.85962">
        <ele>287</ele>
        <time>2017-05-03T09:16:31Z</time>
      </trkpt>
      <trkpt lat="45.96917" lon="4.85969">
        <ele>287</ele>
        <time>2017-05-03T09:16:32Z</time>
      </trkpt>
      <trkpt lat="45.96916" lon="4.85976">
        <ele>288</ele>
        <time>2017-05-03T09:16:33Z</time>
      </trkpt>
      <trkpt lat="45.96914" lon="4.85983">
        <ele>288</ele>
        <time>2017-05-03T09:16:34Z</time>
      </trkpt>
      <trkpt lat="45.96913" lon="4.8599">
        <ele>288</ele>
        <time>2017-05-03T09:16:35Z</time>
      </trkpt>
      <trkpt lat="45.96911" lon="4.85997">
        <ele>288</ele>
        <time>2017-05-03T09:16:36Z</time>
      </trkpt>
      <trkpt lat="45.9691" lon="4.86003">
        <ele>288</ele>
        <time>2017-05-03T09:16:37Z</time>
      </trkpt>
      <trkpt lat="45.96909" lon="4.8601">
        <ele>288</ele>
        <time>2017-05-03T09:16:38Z</time>
      </trkpt>
      <trkpt lat="45.96908" lon="4.86016">
        <ele>289</ele>
        <time>2017-05-03T09:16:39Z</time>
      </trkpt>
      <trkpt lat="45.96907" lon="4.86022">
        <ele>289</ele>
        <time>2017-05-03T09:16:40Z</time>
      </trkpt>
      <trkpt lat="45.96905" lon="4.86035">
        <ele>289</ele>
        <time>2017-05-03T09:16:42Z</time>
      </trkpt>
      <trkpt lat="45.96904" lon="4.86041">
        <ele>289</ele>
        <time>2017-05-03T09:16:43Z</time>
      </trkpt>
      <trkpt lat="45.96903" lon="4.86052">
        <ele>289</ele>
        <time>2017-05-03T09:16:45Z</time>
      </trkpt>
      <trkpt lat="45.96903" lon="4.86059">
        <ele>289</ele>
        <time>2017-05-03T09:16:46Z</time>
      </trkpt>
      <trkpt lat="45.96902" lon="4.86066">
        <ele>288</ele>
        <time>2017-05-03T09:16:47Z</time>
      </trkpt>
      <trkpt lat="45.96901" lon="4.86073">
        <ele>288</ele>
        <time>2017-05-03T09:16:48Z</time>
      </trkpt>
      <trkpt lat="45.969" lon="4.8608">
        <ele>288</ele>
        <time>2017-05-03T09:16:49Z</time>
      </trkpt>
      <trkpt lat="45.96899" lon="4.86088">
        <ele>288</ele>
        <time>2017-05-03T09:16:50Z</time>
      </trkpt>
      <trkpt lat="45.96898" lon="4.86095">
        <ele>288</ele>
        <time>2017-05-03T09:16:51Z</time>
      </trkpt>
      <trkpt lat="45.96898" lon="4.86102">
        <ele>289</ele>
        <time>2017-05-03T09:16:52Z</time>
      </trkpt>
      <trkpt lat="45.96897" lon="4.86109">
        <ele>289</ele>
        <time>2017-05-03T09:16:53Z</time>
      </trkpt>
      <trkpt lat="45.96896" lon="4.86115">
        <ele>289</ele>
        <time>2017-05-03T09:16:54Z</time>
      </trkpt>
      <trkpt lat="45.96895" lon="4.86122">
        <ele>289</ele>
        <time>2017-05-03T09:16:55Z</time>
      </trkpt>
      <trkpt lat="45.96894" lon="4.8613">
        <ele>289</ele>
        <time>2017-05-03T09:16:56Z</time>
      </trkpt>
      <trkpt lat="45.96893" lon="4.86138">
        <ele>289</ele>
        <time>2017-05-03T09:16:57Z</time>
      </trkpt>
      <trkpt lat="45.96893" lon="4.86145">
        <ele>289</ele>
        <time>2017-05-03T09:16:58Z</time>
      </trkpt>
      <trkpt lat="45.96892" lon="4.86153">
        <ele>289</ele>
        <time>2017-05-03T09:16:59Z</time>
      </trkpt>
      <trkpt lat="45.96891" lon="4.86161">
        <ele>289</ele>
        <time>2017-05-03T09:17:00Z</time>
      </trkpt>
      <trkpt lat="45.9689" lon="4.86169">
        <ele>289</ele>
        <time>2017-05-03T09:17:01Z</time>
      </trkpt>
      <trkpt lat="45.96889" lon="4.86176">
        <ele>289</ele>
        <time>2017-05-03T09:17:02Z</time>
      </trkpt>
      <trkpt lat="45.96888" lon="4.86189">
        <ele>289</ele>
        <time>2017-05-03T09:17:04Z</time>
      </trkpt>
      <trkpt lat="45.96887" lon="4.86195">
        <ele>289</ele>
        <time>2017-05-03T09:17:05Z</time>
      </trkpt>
      <trkpt lat="45.96884" lon="4.86207">
        <ele>289</ele>
        <time>2017-05-03T09:17:07Z</time>
      </trkpt>
      <trkpt lat="45.96883" lon="4.86213">
        <ele>289</ele>
        <time>2017-05-03T09:17:08Z</time>
      </trkpt>
      <trkpt lat="45.96881" lon="4.86225">
        <ele>289</ele>
        <time>2017-05-03T09:17:10Z</time>
      </trkpt>
      <trkpt lat="45.96881" lon="4.86231">
        <ele>289</ele>
        <time>2017-05-03T09:17:11Z</time>
      </trkpt>
      <trkpt lat="45.9688" lon="4.86238">
        <ele>289</ele>
        <time>2017-05-03T09:17:12Z</time>
      </trkpt>
      <trkpt lat="45.96879" lon="4.86245">
        <ele>289</ele>
        <time>2017-05-03T09:17:13Z</time>
      </trkpt>
      <trkpt lat="45.96878" lon="4.86251">
        <ele>288</ele>
        <time>2017-05-03T09:17:14Z</time>
      </trkpt>
      <trkpt lat="45.96877" lon="4.86258">
        <ele>288</ele>
        <time>2017-05-03T09:17:15Z</time>
      </trkpt>
      <trkpt lat="45.96876" lon="4.86265">
        <ele>289</ele>
        <time>2017-05-03T09:17:16Z</time>
      </trkpt>
      <trkpt lat="45.96875" lon="4.86272">
        <ele>289</ele>
        <time>2017-05-03T09:17:17Z</time>
      </trkpt>
      <trkpt lat="45.96874" lon="4.86278">
        <ele>289</ele>
        <time>2017-05-03T09:17:18Z</time>
      </trkpt>
      <trkpt lat="45.96874" lon="4.86285">
        <ele>289</ele>
        <time>2017-05-03T09:17:19Z</time>
      </trkpt>
      <trkpt lat="45.96873" lon="4.86297">
        <ele>289</ele>
        <time>2017-05-03T09:17:21Z</time>
      </trkpt>
      <trkpt lat="45.96871" lon="4.86302">
        <ele>289</ele>
        <time>2017-05-03T09:17:22Z</time>
      </trkpt>
      <trkpt lat="45.96869" lon="4.86314">
        <ele>289</ele>
        <time>2017-05-03T09:17:24Z</time>
      </trkpt>
      <trkpt lat="45.96869" lon="4.86321">
        <ele>289</ele>
        <time>2017-05-03T09:17:25Z</time>
      </trkpt>
      <trkpt lat="45.96868" lon="4.86327">
        <ele>289</ele>
        <time>2017-05-03T09:17:26Z</time>
      </trkpt>
      <trkpt lat="45.96867" lon="4.86334">
        <ele>290</ele>
        <time>2017-05-03T09:17:27Z</time>
      </trkpt>
      <trkpt lat="45.96866" lon="4.86341">
        <ele>290</ele>
        <time>2017-05-03T09:17:28Z</time>
      </trkpt>
      <trkpt lat="45.96865" lon="4.86349">
        <ele>290</ele>
        <time>2017-05-03T09:17:29Z</time>
      </trkpt>
      <trkpt lat="45.96863" lon="4.86356">
        <ele>290</ele>
        <time>2017-05-03T09:17:30Z</time>
      </trkpt>
      <trkpt lat="45.96862" lon="4.86364">
        <ele>290</ele>
        <time>2017-05-03T09:17:31Z</time>
      </trkpt>
      <trkpt lat="45.96861" lon="4.86372">
        <ele>290</ele>
        <time>2017-05-03T09:17:32Z</time>
      </trkpt>
      <trkpt lat="45.9686" lon="4.8638">
        <ele>290</ele>
        <time>2017-05-03T09:17:33Z</time>
      </trkpt>
      <trkpt lat="45.96859" lon="4.86387">
        <ele>290</ele>
        <time>2017-05-03T09:17:34Z</time>
      </trkpt>
      <trkpt lat="45.96858" lon="4.86394">
        <ele>290</ele>
        <time>2017-05-03T09:17:35Z</time>
      </trkpt>
      <trkpt lat="45.96857" lon="4.86401">
        <ele>290</ele>
        <time>2017-05-03T09:17:36Z</time>
      </trkpt>
      <trkpt lat="45.96856" lon="4.86409">
        <ele>291</ele>
        <time>2017-05-03T09:17:37Z</time>
      </trkpt>
      <trkpt lat="45.96855" lon="4.86416">
        <ele>291</ele>
        <time>2017-05-03T09:17:38Z</time>
      </trkpt>
      <trkpt lat="45.96854" lon="4.86423">
        <ele>290</ele>
        <time>2017-05-03T09:17:39Z</time>
      </trkpt>
      <trkpt lat="45.96853" lon="4.8643">
        <ele>290</ele>
        <time>2017-05-03T09:17:40Z</time>
      </trkpt>
      <trkpt lat="45.96851" lon="4.86438">
        <ele>290</ele>
        <time>2017-05-03T09:17:41Z</time>
      </trkpt>
      <trkpt lat="45.9685" lon="4.86446">
        <ele>290</ele>
        <time>2017-05-03T09:17:42Z</time>
      </trkpt>
      <trkpt lat="45.96848" lon="4.86454">
        <ele>289</ele>
        <time>2017-05-03T09:17:43Z</time>
      </trkpt>
      <trkpt lat="45.96846" lon="4.86462">
        <ele>289</ele>
        <time>2017-05-03T09:17:44Z</time>
      </trkpt>
      <trkpt lat="45.96844" lon="4.86471">
        <ele>289</ele>
        <time>2017-05-03T09:17:45Z</time>
      </trkpt>
      <trkpt lat="45.96843" lon="4.86479">
        <ele>289</ele>
        <time>2017-05-03T09:17:46Z</time>
      </trkpt>
      <trkpt lat="45.9684" lon="4.86486">
        <ele>289</ele>
        <time>2017-05-03T09:17:47Z</time>
      </trkpt>
      <trkpt lat="45.96837" lon="4.86493">
        <ele>289</ele>
        <time>2017-05-03T09:17:48Z</time>
      </trkpt>
      <trkpt lat="45.96834" lon="4.865">
        <ele>289</ele>
        <time>2017-05-03T09:17:49Z</time>
      </trkpt>
      <trkpt lat="45.96831" lon="4.86506">
        <ele>289</ele>
        <time>2017-05-03T09:17:50Z</time>
      </trkpt>
      <trkpt lat="45.96828" lon="4.86513">
        <ele>289</ele>
        <time>2017-05-03T09:17:51Z</time>
      </trkpt>
      <trkpt lat="45.96825" lon="4.86519">
        <ele>289</ele>
        <time>2017-05-03T09:17:52Z</time>
      </trkpt>
      <trkpt lat="45.96822" lon="4.86525">
        <ele>289</ele>
        <time>2017-05-03T09:17:53Z</time>
      </trkpt>
      <trkpt lat="45.96819" lon="4.86532">
        <ele>290</ele>
        <time>2017-05-03T09:17:54Z</time>
      </trkpt>
      <trkpt lat="45.96815" lon="4.86538">
        <ele>290</ele>
        <time>2017-05-03T09:17:55Z</time>
      </trkpt>
      <trkpt lat="45.96811" lon="4.86544">
        <ele>290</ele>
        <time>2017-05-03T09:17:56Z</time>
      </trkpt>
      <trkpt lat="45.96807" lon="4.8655">
        <ele>290</ele>
        <time>2017-05-03T09:17:57Z</time>
      </trkpt>
      <trkpt lat="45.96803" lon="4.86556">
        <ele>290</ele>
        <time>2017-05-03T09:17:58Z</time>
      </trkpt>
      <trkpt lat="45.96799" lon="4.86562">
        <ele>290</ele>
        <time>2017-05-03T09:17:59Z</time>
      </trkpt>
      <trkpt lat="45.96795" lon="4.86569">
        <ele>290</ele>
        <time>2017-05-03T09:18:00Z</time>
      </trkpt>
      <trkpt lat="45.96791" lon="4.86576">
        <ele>290</ele>
        <time>2017-05-03T09:18:01Z</time>
      </trkpt>
      <trkpt lat="45.96787" lon="4.86582">
        <ele>290</ele>
        <time>2017-05-03T09:18:02Z</time>
      </trkpt>
      <trkpt lat="45.96783" lon="4.86588">
        <ele>289</ele>
        <time>2017-05-03T09:18:03Z</time>
      </trkpt>
      <trkpt lat="45.96779" lon="4.86595">
        <ele>289</ele>
        <time>2017-05-03T09:18:04Z</time>
      </trkpt>
      <trkpt lat="45.96775" lon="4.86602">
        <ele>289</ele>
        <time>2017-05-03T09:18:05Z</time>
      </trkpt>
      <trkpt lat="45.96771" lon="4.86608">
        <ele>289</ele>
        <time>2017-05-03T09:18:06Z</time>
      </trkpt>
      <trkpt lat="45.96768" lon="4.86614">
        <ele>289</ele>
        <time>2017-05-03T09:18:07Z</time>
      </trkpt>
      <trkpt lat="45.96764" lon="4.8662">
        <ele>289</ele>
        <time>2017-05-03T09:18:08Z</time>
      </trkpt>
      <trkpt lat="45.9676" lon="4.86625">
        <ele>289</ele>
        <time>2017-05-03T09:18:09Z</time>
      </trkpt>
      <trkpt lat="45.96757" lon="4.86631">
        <ele>290</ele>
        <time>2017-05-03T09:18:10Z</time>
      </trkpt>
      <trkpt lat="45.96753" lon="4.86636">
        <ele>290</ele>
        <time>2017-05-03T09:18:11Z</time>
      </trkpt>
      <trkpt lat="45.96749" lon="4.86642">
        <ele>290</ele>
        <time>2017-05-03T09:18:12Z</time>
      </trkpt>
      <trkpt lat="45.96746" lon="4.86649">
        <ele>290</ele>
        <time>2017-05-03T09:18:13Z</time>
      </trkpt>
      <trkpt lat="45.96742" lon="4.86656">
        <ele>290</ele>
        <time>2017-05-03T09:18:14Z</time>
      </trkpt>
      <trkpt lat="45.96738" lon="4.86663">
        <ele>290</ele>
        <time>2017-05-03T09:18:15Z</time>
      </trkpt>
      <trkpt lat="45.96734" lon="4.86671">
        <ele>290</ele>
        <time>2017-05-03T09:18:16Z</time>
      </trkpt>
      <trkpt lat="45.9673" lon="4.86678">
        <ele>289</ele>
        <time>2017-05-03T09:18:17Z</time>
      </trkpt>
      <trkpt lat="45.96725" lon="4.86685">
        <ele>289</ele>
        <time>2017-05-03T09:18:18Z</time>
      </trkpt>
      <trkpt lat="45.96721" lon="4.86692">
        <ele>289</ele>
        <time>2017-05-03T09:18:19Z</time>
      </trkpt>
      <trkpt lat="45.96717" lon="4.86699">
        <ele>289</ele>
        <time>2017-05-03T09:18:20Z</time>
      </trkpt>
      <trkpt lat="45.96712" lon="4.86706">
        <ele>289</ele>
        <time>2017-05-03T09:18:21Z</time>
      </trkpt>
      <trkpt lat="45.96708" lon="4.86713">
        <ele>289</ele>
        <time>2017-05-03T09:18:22Z</time>
      </trkpt>
      <trkpt lat="45.96704" lon="4.8672">
        <ele>289</ele>
        <time>2017-05-03T09:18:23Z</time>
      </trkpt>
      <trkpt lat="45.96699" lon="4.86727">
        <ele>289</ele>
        <time>2017-05-03T09:18:24Z</time>
      </trkpt>
      <trkpt lat="45.96695" lon="4.86734">
        <ele>289</ele>
        <time>2017-05-03T09:18:25Z</time>
      </trkpt>
      <trkpt lat="45.96691" lon="4.86741">
        <ele>289</ele>
        <time>2017-05-03T09:18:26Z</time>
      </trkpt>
      <trkpt lat="45.96686" lon="4.86748">
        <ele>289</ele>
        <time>2017-05-03T09:18:27Z</time>
      </trkpt>
      <trkpt lat="45.96682" lon="4.86756">
        <ele>289</ele>
        <time>2017-05-03T09:18:28Z</time>
      </trkpt>
      <trkpt lat="45.96678" lon="4.86763">
        <ele>289</ele>
        <time>2017-05-03T09:18:29Z</time>
      </trkpt>
      <trkpt lat="45.96674" lon="4.8677">
        <ele>289</ele>
        <time>2017-05-03T09:18:30Z</time>
      </trkpt>
      <trkpt lat="45.96671" lon="4.86777">
        <ele>289</ele>
        <time>2017-05-03T09:18:31Z</time>
      </trkpt>
      <trkpt lat="45.96667" lon="4.86783">
        <ele>288</ele>
        <time>2017-05-03T09:18:32Z</time>
      </trkpt>
      <trkpt lat="45.96662" lon="4.86789">
        <ele>288</ele>
        <time>2017-05-03T09:18:33Z</time>
      </trkpt>
      <trkpt lat="45.96658" lon="4.86795">
        <ele>288</ele>
        <time>2017-05-03T09:18:34Z</time>
      </trkpt>
      <trkpt lat="45.96653" lon="4.868">
        <ele>288</ele>
        <time>2017-05-03T09:18:35Z</time>
      </trkpt>
      <trkpt lat="45.96649" lon="4.86807">
        <ele>288</ele>
        <time>2017-05-03T09:18:36Z</time>
      </trkpt>
      <trkpt lat="45.96644" lon="4.86813">
        <ele>288</ele>
        <time>2017-05-03T09:18:37Z</time>
      </trkpt>
      <trkpt lat="45.9664" lon="4.8682">
        <ele>288</ele>
        <time>2017-05-03T09:18:38Z</time>
      </trkpt>
      <trkpt lat="45.96636" lon="4.86827">
        <ele>288</ele>
        <time>2017-05-03T09:18:39Z</time>
      </trkpt>
      <trkpt lat="45.96632" lon="4.86835">
        <ele>287</ele>
        <time>2017-05-03T09:18:40Z</time>
      </trkpt>
      <trkpt lat="45.96628" lon="4.86841">
        <ele>287</ele>
        <time>2017-05-03T09:18:41Z</time>
      </trkpt>
      <trkpt lat="45.96624" lon="4.86847">
        <ele>287</ele>
        <time>2017-05-03T09:18:42Z</time>
      </trkpt>
      <trkpt lat="45.96619" lon="4.86854">
        <ele>287</ele>
        <time>2017-05-03T09:18:43Z</time>
      </trkpt>
      <trkpt lat="45.96615" lon="4.8686">
        <ele>287</ele>
        <time>2017-05-03T09:18:44Z</time>
      </trkpt>
      <trkpt lat="45.96611" lon="4.86868">
        <ele>287</ele>
        <time>2017-05-03T09:18:45Z</time>
      </trkpt>
      <trkpt lat="45.96607" lon="4.86875">
        <ele>287</ele>
        <time>2017-05-03T09:18:46Z</time>
      </trkpt>
      <trkpt lat="45.96603" lon="4.86882">
        <ele>287</ele>
        <time>2017-05-03T09:18:47Z</time>
      </trkpt>
      <trkpt lat="45.966" lon="4.86889">
        <ele>286</ele>
        <time>2017-05-03T09:18:48Z</time>
      </trkpt>
      <trkpt lat="45.96596" lon="4.86896">
        <ele>286</ele>
        <time>2017-05-03T09:18:49Z</time>
      </trkpt>
      <trkpt lat="45.96592" lon="4.86903">
        <ele>286</ele>
        <time>2017-05-03T09:18:50Z</time>
      </trkpt>
      <trkpt lat="45.96588" lon="4.8691">
        <ele>286</ele>
        <time>2017-05-03T09:18:51Z</time>
      </trkpt>
      <trkpt lat="45.96583" lon="4.86916">
        <ele>285</ele>
        <time>2017-05-03T09:18:52Z</time>
      </trkpt>
      <trkpt lat="45.96579" lon="4.86923">
        <ele>284</ele>
        <time>2017-05-03T09:18:53Z</time>
      </trkpt>
      <trkpt lat="45.96575" lon="4.86931">
        <ele>284</ele>
        <time>2017-05-03T09:18:54Z</time>
      </trkpt>
      <trkpt lat="45.9657" lon="4.86938">
        <ele>284</ele>
        <time>2017-05-03T09:18:55Z</time>
      </trkpt>
      <trkpt lat="45.96566" lon="4.86946">
        <ele>284</ele>
        <time>2017-05-03T09:18:56Z</time>
      </trkpt>
      <trkpt lat="45.96562" lon="4.86954">
        <ele>283</ele>
        <time>2017-05-03T09:18:57Z</time>
      </trkpt>
      <trkpt lat="45.96558" lon="4.86961">
        <ele>283</ele>
        <time>2017-05-03T09:18:58Z</time>
      </trkpt>
      <trkpt lat="45.96554" lon="4.86969">
        <ele>283</ele>
        <time>2017-05-03T09:18:59Z</time>
      </trkpt>
      <trkpt lat="45.9655" lon="4.86975">
        <ele>283</ele>
        <time>2017-05-03T09:19:00Z</time>
      </trkpt>
      <trkpt lat="45.96547" lon="4.86981">
        <ele>283</ele>
        <time>2017-05-03T09:19:01Z</time>
      </trkpt>
      <trkpt lat="45.96543" lon="4.86991">
        <ele>283</ele>
        <time>2017-05-03T09:19:03Z</time>
      </trkpt>
      <trkpt lat="45.96541" lon="4.86998">
        <ele>283</ele>
        <time>2017-05-03T09:19:04Z</time>
      </trkpt>
      <trkpt lat="45.96538" lon="4.87004">
        <ele>283</ele>
        <time>2017-05-03T09:19:05Z</time>
      </trkpt>
      <trkpt lat="45.96535" lon="4.8701">
        <ele>283</ele>
        <time>2017-05-03T09:19:06Z</time>
      </trkpt>
      <trkpt lat="45.9653" lon="4.87015">
        <ele>283</ele>
        <time>2017-05-03T09:19:07Z</time>
      </trkpt>
      <trkpt lat="45.96526" lon="4.87021">
        <ele>283</ele>
        <time>2017-05-03T09:19:08Z</time>
      </trkpt>
      <trkpt lat="45.96522" lon="4.87026">
        <ele>283</ele>
        <time>2017-05-03T09:19:09Z</time>
      </trkpt>
      <trkpt lat="45.96517" lon="4.87031">
        <ele>283</ele>
        <time>2017-05-03T09:19:10Z</time>
      </trkpt>
      <trkpt lat="45.96512" lon="4.87037">
        <ele>282</ele>
        <time>2017-05-03T09:19:11Z</time>
      </trkpt>
      <trkpt lat="45.96507" lon="4.87042">
        <ele>282</ele>
        <time>2017-05-03T09:19:12Z</time>
      </trkpt>
      <trkpt lat="45.96502" lon="4.87047">
        <ele>282</ele>
        <time>2017-05-03T09:19:13Z</time>
      </trkpt>
      <trkpt lat="45.96497" lon="4.87052">
        <ele>281</ele>
        <time>2017-05-03T09:19:14Z</time>
      </trkpt>
      <trkpt lat="45.96493" lon="4.87057">
        <ele>281</ele>
        <time>2017-05-03T09:19:15Z</time>
      </trkpt>
      <trkpt lat="45.96489" lon="4.87062">
        <ele>282</ele>
        <time>2017-05-03T09:19:16Z</time>
      </trkpt>
      <trkpt lat="45.96485" lon="4.87067">
        <ele>282</ele>
        <time>2017-05-03T09:19:17Z</time>
      </trkpt>
      <trkpt lat="45.96481" lon="4.87072">
        <ele>282</ele>
        <time>2017-05-03T09:19:18Z</time>
      </trkpt>
      <trkpt lat="45.96476" lon="4.87077">
        <ele>282</ele>
        <time>2017-05-03T09:19:19Z</time>
      </trkpt>
      <trkpt lat="45.96472" lon="4.87083">
        <ele>281</ele>
        <time>2017-05-03T09:19:20Z</time>
      </trkpt>
      <trkpt lat="45.96469" lon="4.87088">
        <ele>282</ele>
        <time>2017-05-03T09:19:21Z</time>
      </trkpt>
      <trkpt lat="45.96465" lon="4.87092">
        <ele>282</ele>
        <time>2017-05-03T09:19:22Z</time>
      </trkpt>
      <trkpt lat="45.96461" lon="4.87098">
        <ele>282</ele>
        <time>2017-05-03T09:19:23Z</time>
      </trkpt>
      <trkpt lat="45.96456" lon="4.87103">
        <ele>281</ele>
        <time>2017-05-03T09:19:24Z</time>
      </trkpt>
      <trkpt lat="45.96452" lon="4.87108">
        <ele>281</ele>
        <time>2017-05-03T09:19:25Z</time>
      </trkpt>
      <trkpt lat="45.96448" lon="4.87113">
        <ele>281</ele>
        <time>2017-05-03T09:19:26Z</time>
      </trkpt>
      <trkpt lat="45.96443" lon="4.87118">
        <ele>281</ele>
        <time>2017-05-03T09:19:27Z</time>
      </trkpt>
      <trkpt lat="45.96439" lon="4.87124">
        <ele>281</ele>
        <time>2017-05-03T09:19:28Z</time>
      </trkpt>
      <trkpt lat="45.96434" lon="4.87129">
        <ele>281</ele>
        <time>2017-05-03T09:19:29Z</time>
      </trkpt>
      <trkpt lat="45.9643" lon="4.87133">
        <ele>281</ele>
        <time>2017-05-03T09:19:30Z</time>
      </trkpt>
      <trkpt lat="45.96426" lon="4.87138">
        <ele>281</ele>
        <time>2017-05-03T09:19:31Z</time>
      </trkpt>
      <trkpt lat="45.96422" lon="4.87143">
        <ele>281</ele>
        <time>2017-05-03T09:19:32Z</time>
      </trkpt>
      <trkpt lat="45.96418" lon="4.87148">
        <ele>281</ele>
        <time>2017-05-03T09:19:33Z</time>
      </trkpt>
      <trkpt lat="45.96414" lon="4.87154">
        <ele>281</ele>
        <time>2017-05-03T09:19:34Z</time>
      </trkpt>
      <trkpt lat="45.9641" lon="4.87159">
        <ele>281</ele>
        <time>2017-05-03T09:19:35Z</time>
      </trkpt>
      <trkpt lat="45.96405" lon="4.87165">
        <ele>281</ele>
        <time>2017-05-03T09:19:36Z</time>
      </trkpt>
      <trkpt lat="45.96401" lon="4.87171">
        <ele>281</ele>
        <time>2017-05-03T09:19:37Z</time>
      </trkpt>
      <trkpt lat="45.96397" lon="4.87176">
        <ele>282</ele>
        <time>2017-05-03T09:19:38Z</time>
      </trkpt>
      <trkpt lat="45.96393" lon="4.87182">
        <ele>282</ele>
        <time>2017-05-03T09:19:39Z</time>
      </trkpt>
      <trkpt lat="45.96388" lon="4.87188">
        <ele>282</ele>
        <time>2017-05-03T09:19:40Z</time>
      </trkpt>
      <trkpt lat="45.96384" lon="4.87194">
        <ele>282</ele>
        <time>2017-05-03T09:19:41Z</time>
      </trkpt>
      <trkpt lat="45.96379" lon="4.872">
        <ele>282</ele>
        <time>2017-05-03T09:19:42Z</time>
      </trkpt>
      <trkpt lat="45.96375" lon="4.87206">
        <ele>282</ele>
        <time>2017-05-03T09:19:43Z</time>
      </trkpt>
      <trkpt lat="45.96371" lon="4.87212">
        <ele>282</ele>
        <time>2017-05-03T09:19:44Z</time>
      </trkpt>
      <trkpt lat="45.96366" lon="4.87218">
        <ele>282</ele>
        <time>2017-05-03T09:19:45Z</time>
      </trkpt>
      <trkpt lat="45.96362" lon="4.87223">
        <ele>282</ele>
        <time>2017-05-03T09:19:46Z</time>
      </trkpt>
      <trkpt lat="45.96358" lon="4.87229">
        <ele>282</ele>
        <time>2017-05-03T09:19:47Z</time>
      </trkpt>
      <trkpt lat="45.96355" lon="4.87234">
        <ele>282</ele>
        <time>2017-05-03T09:19:48Z</time>
      </trkpt>
      <trkpt lat="45.96351" lon="4.87238">
        <ele>282</ele>
        <time>2017-05-03T09:19:49Z</time>
      </trkpt>
      <trkpt lat="45.96348" lon="4.87243">
        <ele>283</ele>
        <time>2017-05-03T09:19:50Z</time>
      </trkpt>
      <trkpt lat="45.96341" lon="4.87251">
        <ele>283</ele>
        <time>2017-05-03T09:19:52Z</time>
      </trkpt>
      <trkpt lat="45.96338" lon="4.87256">
        <ele>283</ele>
        <time>2017-05-03T09:19:53Z</time>
      </trkpt>
      <trkpt lat="45.96334" lon="4.8726">
        <ele>283</ele>
        <time>2017-05-03T09:19:54Z</time>
      </trkpt>
      <trkpt lat="45.96331" lon="4.87264">
        <ele>283</ele>
        <time>2017-05-03T09:19:55Z</time>
      </trkpt>
      <trkpt lat="45.96327" lon="4.87268">
        <ele>283</ele>
        <time>2017-05-03T09:19:56Z</time>
      </trkpt>
      <trkpt lat="45.96324" lon="4.87272">
        <ele>283</ele>
        <time>2017-05-03T09:19:57Z</time>
      </trkpt>
      <trkpt lat="45.9632" lon="4.87276">
        <ele>283</ele>
        <time>2017-05-03T09:19:58Z</time>
      </trkpt>
      <trkpt lat="45.96317" lon="4.87281">
        <ele>283</ele>
        <time>2017-05-03T09:19:59Z</time>
      </trkpt>
      <trkpt lat="45.96313" lon="4.87286">
        <ele>283</ele>
        <time>2017-05-03T09:20:00Z</time>
      </trkpt>
      <trkpt lat="45.9631" lon="4.87292">
        <ele>283</ele>
        <time>2017-05-03T09:20:01Z</time>
      </trkpt>
      <trkpt lat="45.96306" lon="4.87297">
        <ele>283</ele>
        <time>2017-05-03T09:20:02Z</time>
      </trkpt>
      <trkpt lat="45.96302" lon="4.87303">
        <ele>283</ele>
        <time>2017-05-03T09:20:03Z</time>
      </trkpt>
      <trkpt lat="45.96298" lon="4.87308">
        <ele>283</ele>
        <time>2017-05-03T09:20:04Z</time>
      </trkpt>
      <trkpt lat="45.96294" lon="4.87314">
        <ele>283</ele>
        <time>2017-05-03T09:20:05Z</time>
      </trkpt>
      <trkpt lat="45.9629" lon="4.8732">
        <ele>283</ele>
        <time>2017-05-03T09:20:06Z</time>
      </trkpt>
      <trkpt lat="45.96286" lon="4.87325">
        <ele>283</ele>
        <time>2017-05-03T09:20:07Z</time>
      </trkpt>
      <trkpt lat="45.96281" lon="4.8733">
        <ele>283</ele>
        <time>2017-05-03T09:20:08Z</time>
      </trkpt>
      <trkpt lat="45.96278" lon="4.87334">
        <ele>284</ele>
        <time>2017-05-03T09:20:09Z</time>
      </trkpt>
      <trkpt lat="45.96274" lon="4.87339">
        <ele>283</ele>
        <time>2017-05-03T09:20:10Z</time>
      </trkpt>
      <trkpt lat="45.9627" lon="4.87343">
        <ele>283</ele>
        <time>2017-05-03T09:20:11Z</time>
      </trkpt>
      <trkpt lat="45.96267" lon="4.87348">
        <ele>283</ele>
        <time>2017-05-03T09:20:12Z</time>
      </trkpt>
      <trkpt lat="45.96263" lon="4.87352">
        <ele>283</ele>
        <time>2017-05-03T09:20:13Z</time>
      </trkpt>
      <trkpt lat="45.9626" lon="4.87357">
        <ele>283</ele>
        <time>2017-05-03T09:20:14Z</time>
      </trkpt>
      <trkpt lat="45.96256" lon="4.87362">
        <ele>283</ele>
        <time>2017-05-03T09:20:15Z</time>
      </trkpt>
      <trkpt lat="45.96249" lon="4.8737">
        <ele>283</ele>
        <time>2017-05-03T09:20:17Z</time>
      </trkpt>
      <trkpt lat="45.96246" lon="4.87373">
        <ele>283</ele>
        <time>2017-05-03T09:20:18Z</time>
      </trkpt>
      <trkpt lat="45.9624" lon="4.87382">
        <ele>283</ele>
        <time>2017-05-03T09:20:20Z</time>
      </trkpt>
      <trkpt lat="45.96236" lon="4.87387">
        <ele>283</ele>
        <time>2017-05-03T09:20:21Z</time>
      </trkpt>
      <trkpt lat="45.96232" lon="4.87392">
        <ele>283</ele>
        <time>2017-05-03T09:20:22Z</time>
      </trkpt>
      <trkpt lat="45.96228" lon="4.87397">
        <ele>283</ele>
        <time>2017-05-03T09:20:23Z</time>
      </trkpt>
      <trkpt lat="45.96224" lon="4.87402">
        <ele>283</ele>
        <time>2017-05-03T09:20:24Z</time>
      </trkpt>
      <trkpt lat="45.9622" lon="4.87407">
        <ele>283</ele>
        <time>2017-05-03T09:20:25Z</time>
      </trkpt>
      <trkpt lat="45.96216" lon="4.87413">
        <ele>283</ele>
        <time>2017-05-03T09:20:26Z</time>
      </trkpt>
      <trkpt lat="45.96211" lon="4.87419">
        <ele>284</ele>
        <time>2017-05-03T09:20:27Z</time>
      </trkpt>
      <trkpt lat="45.96207" lon="4.87424">
        <ele>284</ele>
        <time>2017-05-03T09:20:28Z</time>
      </trkpt>
      <trkpt lat="45.96202" lon="4.8743">
        <ele>284</ele>
        <time>2017-05-03T09:20:29Z</time>
      </trkpt>
      <trkpt lat="45.96198" lon="4.87435">
        <ele>284</ele>
        <time>2017-05-03T09:20:30Z</time>
      </trkpt>
      <trkpt lat="45.96193" lon="4.8744">
        <ele>284</ele>
        <time>2017-05-03T09:20:31Z</time>
      </trkpt>
      <trkpt lat="45.96189" lon="4.87445">
        <ele>284</ele>
        <time>2017-05-03T09:20:32Z</time>
      </trkpt>
      <trkpt lat="45.96185" lon="4.8745">
        <ele>284</ele>
        <time>2017-05-03T09:20:33Z</time>
      </trkpt>
      <trkpt lat="45.96181" lon="4.87455">
        <ele>284</ele>
        <time>2017-05-03T09:20:34Z</time>
      </trkpt>
      <trkpt lat="45.96177" lon="4.87459">
        <ele>284</ele>
        <time>2017-05-03T09:20:35Z</time>
      </trkpt>
      <trkpt lat="45.96171" lon="4.87467">
        <ele>284</ele>
        <time>2017-05-03T09:20:37Z</time>
      </trkpt>
      <trkpt lat="45.96167" lon="4.87471">
        <ele>285</ele>
        <time>2017-05-03T09:20:38Z</time>
      </trkpt>
      <trkpt lat="45.96163" lon="4.87475">
        <ele>285</ele>
        <time>2017-05-03T09:20:39Z</time>
      </trkpt>
      <trkpt lat="45.96159" lon="4.8748">
        <ele>285</ele>
        <time>2017-05-03T09:20:40Z</time>
      </trkpt>
      <trkpt lat="45.96155" lon="4.87485">
        <ele>285</ele>
        <time>2017-05-03T09:20:41Z</time>
      </trkpt>
      <trkpt lat="45.9615" lon="4.87489">
        <ele>285</ele>
        <time>2017-05-03T09:20:42Z</time>
      </trkpt>
      <trkpt lat="45.96146" lon="4.87493">
        <ele>285</ele>
        <time>2017-05-03T09:20:43Z</time>
      </trkpt>
      <trkpt lat="45.96142" lon="4.87498">
        <ele>285</ele>
        <time>2017-05-03T09:20:44Z</time>
      </trkpt>
      <trkpt lat="45.96138" lon="4.87502">
        <ele>286</ele>
        <time>2017-05-03T09:20:45Z</time>
      </trkpt>
      <trkpt lat="45.96134" lon="4.87507">
        <ele>286</ele>
        <time>2017-05-03T09:20:46Z</time>
      </trkpt>
      <trkpt lat="45.9613" lon="4.87511">
        <ele>286</ele>
        <time>2017-05-03T09:20:47Z</time>
      </trkpt>
      <trkpt lat="45.96126" lon="4.87515">
        <ele>286</ele>
        <time>2017-05-03T09:20:48Z</time>
      </trkpt>
      <trkpt lat="45.96122" lon="4.87519">
        <ele>286</ele>
        <time>2017-05-03T09:20:49Z</time>
      </trkpt>
      <trkpt lat="45.96118" lon="4.87524">
        <ele>286</ele>
        <time>2017-05-03T09:20:50Z</time>
      </trkpt>
      <trkpt lat="45.96114" lon="4.87529">
        <ele>287</ele>
        <time>2017-05-03T09:20:51Z</time>
      </trkpt>
      <trkpt lat="45.9611" lon="4.87533">
        <ele>287</ele>
        <time>2017-05-03T09:20:52Z</time>
      </trkpt>
      <trkpt lat="45.96106" lon="4.87538">
        <ele>287</ele>
        <time>2017-05-03T09:20:53Z</time>
      </trkpt>
      <trkpt lat="45.96102" lon="4.87543">
        <ele>287</ele>
        <time>2017-05-03T09:20:54Z</time>
      </trkpt>
      <trkpt lat="45.96098" lon="4.87547">
        <ele>287</ele>
        <time>2017-05-03T09:20:55Z</time>
      </trkpt>
      <trkpt lat="45.96094" lon="4.87551">
        <ele>287</ele>
        <time>2017-05-03T09:20:56Z</time>
      </trkpt>
      <trkpt lat="45.9609" lon="4.87555">
        <ele>287</ele>
        <time>2017-05-03T09:20:57Z</time>
      </trkpt>
      <trkpt lat="45.96086" lon="4.87559">
        <ele>287</ele>
        <time>2017-05-03T09:20:58Z</time>
      </trkpt>
      <trkpt lat="45.9608" lon="4.87566">
        <ele>288</ele>
        <time>2017-05-03T09:21:00Z</time>
      </trkpt>
      <trkpt lat="45.96077" lon="4.87569">
        <ele>288</ele>
        <time>2017-05-03T09:21:01Z</time>
      </trkpt>
      <trkpt lat="45.9607" lon="4.87577">
        <ele>288</ele>
        <time>2017-05-03T09:21:03Z</time>
      </trkpt>
      <trkpt lat="45.96067" lon="4.87581">
        <ele>288</ele>
        <time>2017-05-03T09:21:04Z</time>
      </trkpt>
      <trkpt lat="45.96063" lon="4.87585">
        <ele>288</ele>
        <time>2017-05-03T09:21:05Z</time>
      </trkpt>
      <trkpt lat="45.96059" lon="4.8759">
        <ele>288</ele>
        <time>2017-05-03T09:21:06Z</time>
      </trkpt>
      <trkpt lat="45.96055" lon="4.87594">
        <ele>288</ele>
        <time>2017-05-03T09:21:07Z</time>
      </trkpt>
      <trkpt lat="45.9605" lon="4.876">
        <ele>289</ele>
        <time>2017-05-03T09:21:08Z</time>
      </trkpt>
      <trkpt lat="45.96046" lon="4.87605">
        <ele>289</ele>
        <time>2017-05-03T09:21:09Z</time>
      </trkpt>
      <trkpt lat="45.96042" lon="4.8761">
        <ele>289</ele>
        <time>2017-05-03T09:21:10Z</time>
      </trkpt>
      <trkpt lat="45.96038" lon="4.87616">
        <ele>289</ele>
        <time>2017-05-03T09:21:11Z</time>
      </trkpt>
      <trkpt lat="45.96034" lon="4.87621">
        <ele>289</ele>
        <time>2017-05-03T09:21:12Z</time>
      </trkpt>
      <trkpt lat="45.9603" lon="4.87625">
        <ele>289</ele>
        <time>2017-05-03T09:21:13Z</time>
      </trkpt>
      <trkpt lat="45.96026" lon="4.8763">
        <ele>289</ele>
        <time>2017-05-03T09:21:14Z</time>
      </trkpt>
      <trkpt lat="45.96022" lon="4.87634">
        <ele>289</ele>
        <time>2017-05-03T09:21:15Z</time>
      </trkpt>
      <trkpt lat="45.96018" lon="4.87639">
        <ele>289</ele>
        <time>2017-05-03T09:21:16Z</time>
      </trkpt>
      <trkpt lat="45.96015" lon="4.87643">
        <ele>289</ele>
        <time>2017-05-03T09:21:17Z</time>
      </trkpt>
      <trkpt lat="45.96011" lon="4.87647">
        <ele>289</ele>
        <time>2017-05-03T09:21:18Z</time>
      </trkpt>
      <trkpt lat="45.96007" lon="4.87652">
        <ele>289</ele>
        <time>2017-05-03T09:21:19Z</time>
      </trkpt>
      <trkpt lat="45.96002" lon="4.87656">
        <ele>290</ele>
        <time>2017-05-03T09:21:20Z</time>
      </trkpt>
      <trkpt lat="45.95998" lon="4.87661">
        <ele>290</ele>
        <time>2017-05-03T09:21:21Z</time>
      </trkpt>
      <trkpt lat="45.95994" lon="4.87665">
        <ele>290</ele>
        <time>2017-05-03T09:21:22Z</time>
      </trkpt>
      <trkpt lat="45.95989" lon="4.8767">
        <ele>290</ele>
        <time>2017-05-03T09:21:23Z</time>
      </trkpt>
      <trkpt lat="45.95985" lon="4.87675">
        <ele>289</ele>
        <time>2017-05-03T09:21:24Z</time>
      </trkpt>
      <trkpt lat="45.95981" lon="4.87679">
        <ele>289</ele>
        <time>2017-05-03T09:21:25Z</time>
      </trkpt>
      <trkpt lat="45.95978" lon="4.87684">
        <ele>289</ele>
        <time>2017-05-03T09:21:26Z</time>
      </trkpt>
      <trkpt lat="45.95974" lon="4.87688">
        <ele>289</ele>
        <time>2017-05-03T09:21:27Z</time>
      </trkpt>
      <trkpt lat="45.9597" lon="4.87692">
        <ele>289</ele>
        <time>2017-05-03T09:21:28Z</time>
      </trkpt>
      <trkpt lat="45.95964" lon="4.877">
        <ele>289</ele>
        <time>2017-05-03T09:21:30Z</time>
      </trkpt>
      <trkpt lat="45.95961" lon="4.87704">
        <ele>289</ele>
        <time>2017-05-03T09:21:31Z</time>
      </trkpt>
      <trkpt lat="45.95955" lon="4.87711">
        <ele>289</ele>
        <time>2017-05-03T09:21:33Z</time>
      </trkpt>
      <trkpt lat="45.95952" lon="4.87715">
        <ele>289</ele>
        <time>2017-05-03T09:21:34Z</time>
      </trkpt>
      <trkpt lat="45.95948" lon="4.87722">
        <ele>289</ele>
        <time>2017-05-03T09:21:36Z</time>
      </trkpt>
      <trkpt lat="45.95945" lon="4.87726">
        <ele>289</ele>
        <time>2017-05-03T09:21:37Z</time>
      </trkpt>
      <trkpt lat="45.95939" lon="4.87733">
        <ele>288</ele>
        <time>2017-05-03T09:21:39Z</time>
      </trkpt>
      <trkpt lat="45.95937" lon="4.87737">
        <ele>288</ele>
        <time>2017-05-03T09:21:40Z</time>
      </trkpt>
      <trkpt lat="45.95931" lon="4.87745">
        <ele>288</ele>
        <time>2017-05-03T09:21:42Z</time>
      </trkpt>
      <trkpt lat="45.95927" lon="4.8775">
        <ele>288</ele>
        <time>2017-05-03T09:21:43Z</time>
      </trkpt>
      <trkpt lat="45.95924" lon="4.87755">
        <ele>288</ele>
        <time>2017-05-03T09:21:44Z</time>
      </trkpt>
      <trkpt lat="45.95921" lon="4.8776">
        <ele>288</ele>
        <time>2017-05-03T09:21:45Z</time>
      </trkpt>
      <trkpt lat="45.95917" lon="4.87766">
        <ele>288</ele>
        <time>2017-05-03T09:21:46Z</time>
      </trkpt>
      <trkpt lat="45.95914" lon="4.87772">
        <ele>288</ele>
        <time>2017-05-03T09:21:47Z</time>
      </trkpt>
      <trkpt lat="45.9591" lon="4.87778">
        <ele>288</ele>
        <time>2017-05-03T09:21:48Z</time>
      </trkpt>
      <trkpt lat="45.95906" lon="4.87784">
        <ele>288</ele>
        <time>2017-05-03T09:21:49Z</time>
      </trkpt>
      <trkpt lat="45.95902" lon="4.8779">
        <ele>288</ele>
        <time>2017-05-03T09:21:50Z</time>
      </trkpt>
      <trkpt lat="45.95898" lon="4.87796">
        <ele>288</ele>
        <time>2017-05-03T09:21:51Z</time>
      </trkpt>
      <trkpt lat="45.95894" lon="4.87803">
        <ele>288</ele>
        <time>2017-05-03T09:21:52Z</time>
      </trkpt>
      <trkpt lat="45.9589" lon="4.87808">
        <ele>288</ele>
        <time>2017-05-03T09:21:53Z</time>
      </trkpt>
      <trkpt lat="45.95886" lon="4.87814">
        <ele>288</ele>
        <time>2017-05-03T09:21:54Z</time>
      </trkpt>
      <trkpt lat="45.95882" lon="4.87819">
        <ele>288</ele>
        <time>2017-05-03T09:21:55Z</time>
      </trkpt>
      <trkpt lat="45.95877" lon="4.87823">
        <ele>288</ele>
        <time>2017-05-03T09:21:56Z</time>
      </trkpt>
      <trkpt lat="45.95873" lon="4.87827">
        <ele>288</ele>
        <time>2017-05-03T09:21:57Z</time>
      </trkpt>
      <trkpt lat="45.95868" lon="4.8783">
        <ele>288</ele>
        <time>2017-05-03T09:21:58Z</time>
      </trkpt>
      <trkpt lat="45.95864" lon="4.87832">
        <ele>288</ele>
        <time>2017-05-03T09:21:59Z</time>
      </trkpt>
      <trkpt lat="45.95859" lon="4.87834">
        <ele>289</ele>
        <time>2017-05-03T09:22:00Z</time>
      </trkpt>
      <trkpt lat="45.95855" lon="4.87836">
        <ele>289</ele>
        <time>2017-05-03T09:22:01Z</time>
      </trkpt>
      <trkpt lat="45.9585" lon="4.87837">
        <ele>288</ele>
        <time>2017-05-03T09:22:02Z</time>
      </trkpt>
      <trkpt lat="45.95846" lon="4.87839">
        <ele>288</ele>
        <time>2017-05-03T09:22:03Z</time>
      </trkpt>
      <trkpt lat="45.95837" lon="4.87842">
        <ele>288</ele>
        <time>2017-05-03T09:22:05Z</time>
      </trkpt>
      <trkpt lat="45.95833" lon="4.87844">
        <ele>287</ele>
        <time>2017-05-03T09:22:06Z</time>
      </trkpt>
      <trkpt lat="45.95828" lon="4.87847">
        <ele>287</ele>
        <time>2017-05-03T09:22:07Z</time>
      </trkpt>
      <trkpt lat="45.95824" lon="4.87852">
        <ele>287</ele>
        <time>2017-05-03T09:22:08Z</time>
      </trkpt>
      <trkpt lat="45.95819" lon="4.87857">
        <ele>287</ele>
        <time>2017-05-03T09:22:09Z</time>
      </trkpt>
      <trkpt lat="45.95815" lon="4.87862">
        <ele>287</ele>
        <time>2017-05-03T09:22:10Z</time>
      </trkpt>
      <trkpt lat="45.9581" lon="4.87867">
        <ele>287</ele>
        <time>2017-05-03T09:22:11Z</time>
      </trkpt>
      <trkpt lat="45.95806" lon="4.87871">
        <ele>287</ele>
        <time>2017-05-03T09:22:12Z</time>
      </trkpt>
      <trkpt lat="45.95801" lon="4.87876">
        <ele>287</ele>
        <time>2017-05-03T09:22:13Z</time>
      </trkpt>
      <trkpt lat="45.95797" lon="4.8788">
        <ele>286</ele>
        <time>2017-05-03T09:22:14Z</time>
      </trkpt>
      <trkpt lat="45.95792" lon="4.87884">
        <ele>286</ele>
        <time>2017-05-03T09:22:15Z</time>
      </trkpt>
      <trkpt lat="45.95787" lon="4.87888">
        <ele>286</ele>
        <time>2017-05-03T09:22:16Z</time>
      </trkpt>
      <trkpt lat="45.95781" lon="4.87892">
        <ele>286</ele>
        <time>2017-05-03T09:22:17Z</time>
      </trkpt>
      <trkpt lat="45.95776" lon="4.87895">
        <ele>286</ele>
        <time>2017-05-03T09:22:18Z</time>
      </trkpt>
      <trkpt lat="45.9577" lon="4.87899">
        <ele>286</ele>
        <time>2017-05-03T09:22:19Z</time>
      </trkpt>
      <trkpt lat="45.95765" lon="4.87903">
        <ele>286</ele>
        <time>2017-05-03T09:22:20Z</time>
      </trkpt>
      <trkpt lat="45.95759" lon="4.87907">
        <ele>285</ele>
        <time>2017-05-03T09:22:21Z</time>
      </trkpt>
      <trkpt lat="45.95753" lon="4.87911">
        <ele>285</ele>
        <time>2017-05-03T09:22:22Z</time>
      </trkpt>
      <trkpt lat="45.95747" lon="4.87916">
        <ele>285</ele>
        <time>2017-05-03T09:22:23Z</time>
      </trkpt>
      <trkpt lat="45.95741" lon="4.87921">
        <ele>284</ele>
        <time>2017-05-03T09:22:24Z</time>
      </trkpt>
      <trkpt lat="45.95735" lon="4.87926">
        <ele>284</ele>
        <time>2017-05-03T09:22:25Z</time>
      </trkpt>
      <trkpt lat="45.95729" lon="4.87933">
        <ele>283</ele>
        <time>2017-05-03T09:22:26Z</time>
      </trkpt>
      <trkpt lat="45.95723" lon="4.87938">
        <ele>283</ele>
        <time>2017-05-03T09:22:27Z</time>
      </trkpt>
      <trkpt lat="45.95716" lon="4.87944">
        <ele>283</ele>
        <time>2017-05-03T09:22:28Z</time>
      </trkpt>
      <trkpt lat="45.95709" lon="4.8795">
        <ele>283</ele>
        <time>2017-05-03T09:22:29Z</time>
      </trkpt>
      <trkpt lat="45.95703" lon="4.87957">
        <ele>283</ele>
        <time>2017-05-03T09:22:30Z</time>
      </trkpt>
      <trkpt lat="45.95696" lon="4.87964">
        <ele>282</ele>
        <time>2017-05-03T09:22:31Z</time>
      </trkpt>
      <trkpt lat="45.95689" lon="4.87971">
        <ele>282</ele>
        <time>2017-05-03T09:22:32Z</time>
      </trkpt>
      <trkpt lat="45.95683" lon="4.87978">
        <ele>282</ele>
        <time>2017-05-03T09:22:33Z</time>
      </trkpt>
      <trkpt lat="45.95676" lon="4.87985">
        <ele>282</ele>
        <time>2017-05-03T09:22:34Z</time>
      </trkpt>
      <trkpt lat="45.95669" lon="4.87992">
        <ele>281</ele>
        <time>2017-05-03T09:22:35Z</time>
      </trkpt>
      <trkpt lat="45.95661" lon="4.87999">
        <ele>280</ele>
        <time>2017-05-03T09:22:36Z</time>
      </trkpt>
      <trkpt lat="45.95654" lon="4.88005">
        <ele>280</ele>
        <time>2017-05-03T09:22:37Z</time>
      </trkpt>
      <trkpt lat="45.95646" lon="4.88011">
        <ele>279</ele>
        <time>2017-05-03T09:22:38Z</time>
      </trkpt>
      <trkpt lat="45.95638" lon="4.88018">
        <ele>279</ele>
        <time>2017-05-03T09:22:39Z</time>
      </trkpt>
      <trkpt lat="45.95631" lon="4.88025">
        <ele>279</ele>
        <time>2017-05-03T09:22:40Z</time>
      </trkpt>
      <trkpt lat="45.95623" lon="4.88031">
        <ele>278</ele>
        <time>2017-05-03T09:22:41Z</time>
      </trkpt>
      <trkpt lat="45.95616" lon="4.88038">
        <ele>278</ele>
        <time>2017-05-03T09:22:42Z</time>
      </trkpt>
      <trkpt lat="45.95609" lon="4.88045">
        <ele>278</ele>
        <time>2017-05-03T09:22:43Z</time>
      </trkpt>
      <trkpt lat="45.95601" lon="4.88052">
        <ele>278</ele>
        <time>2017-05-03T09:22:44Z</time>
      </trkpt>
      <trkpt lat="45.95594" lon="4.88058">
        <ele>278</ele>
        <time>2017-05-03T09:22:45Z</time>
      </trkpt>
      <trkpt lat="45.95587" lon="4.88064">
        <ele>278</ele>
        <time>2017-05-03T09:22:46Z</time>
      </trkpt>
      <trkpt lat="45.95579" lon="4.8807">
        <ele>276</ele>
        <time>2017-05-03T09:22:47Z</time>
      </trkpt>
      <trkpt lat="45.95572" lon="4.88076">
        <ele>277</ele>
        <time>2017-05-03T09:22:48Z</time>
      </trkpt>
      <trkpt lat="45.95565" lon="4.88082">
        <ele>276</ele>
        <time>2017-05-03T09:22:49Z</time>
      </trkpt>
      <trkpt lat="45.95557" lon="4.88086">
        <ele>277</ele>
        <time>2017-05-03T09:22:50Z</time>
      </trkpt>
      <trkpt lat="45.95549" lon="4.8809">
        <ele>277</ele>
        <time>2017-05-03T09:22:51Z</time>
      </trkpt>
      <trkpt lat="45.95542" lon="4.88094">
        <ele>277</ele>
        <time>2017-05-03T09:22:52Z</time>
      </trkpt>
      <trkpt lat="45.95534" lon="4.88098">
        <ele>277</ele>
        <time>2017-05-03T09:22:53Z</time>
      </trkpt>
      <trkpt lat="45.95527" lon="4.88101">
        <ele>277</ele>
        <time>2017-05-03T09:22:54Z</time>
      </trkpt>
      <trkpt lat="45.95519" lon="4.88104">
        <ele>276</ele>
        <time>2017-05-03T09:22:55Z</time>
      </trkpt>
      <trkpt lat="45.95512" lon="4.88108">
        <ele>276</ele>
        <time>2017-05-03T09:22:56Z</time>
      </trkpt>
      <trkpt lat="45.95504" lon="4.88111">
        <ele>276</ele>
        <time>2017-05-03T09:22:57Z</time>
      </trkpt>
      <trkpt lat="45.95497" lon="4.88114">
        <ele>276</ele>
        <time>2017-05-03T09:22:58Z</time>
      </trkpt>
      <trkpt lat="45.9549" lon="4.88117">
        <ele>276</ele>
        <time>2017-05-03T09:22:59Z</time>
      </trkpt>
      <trkpt lat="45.95483" lon="4.8812">
        <ele>276</ele>
        <time>2017-05-03T09:23:00Z</time>
      </trkpt>
      <trkpt lat="45.95476" lon="4.88124">
        <ele>276</ele>
        <time>2017-05-03T09:23:01Z</time>
      </trkpt>
      <trkpt lat="45.95469" lon="4.88127">
        <ele>276</ele>
        <time>2017-05-03T09:23:02Z</time>
      </trkpt>
      <trkpt lat="45.95462" lon="4.8813">
        <ele>276</ele>
        <time>2017-05-03T09:23:03Z</time>
      </trkpt>
      <trkpt lat="45.95456" lon="4.88133">
        <ele>276</ele>
        <time>2017-05-03T09:23:04Z</time>
      </trkpt>
      <trkpt lat="45.95449" lon="4.88135">
        <ele>276</ele>
        <time>2017-05-03T09:23:05Z</time>
      </trkpt>
      <trkpt lat="45.95443" lon="4.88138">
        <ele>276</ele>
        <time>2017-05-03T09:23:06Z</time>
      </trkpt>
      <trkpt lat="45.95437" lon="4.88141">
        <ele>276</ele>
        <time>2017-05-03T09:23:07Z</time>
      </trkpt>
      <trkpt lat="45.9543" lon="4.88143">
        <ele>276</ele>
        <time>2017-05-03T09:23:08Z</time>
      </trkpt>
      <trkpt lat="45.95424" lon="4.88146">
        <ele>276</ele>
        <time>2017-05-03T09:23:09Z</time>
      </trkpt>
      <trkpt lat="45.95418" lon="4.88149">
        <ele>276</ele>
        <time>2017-05-03T09:23:10Z</time>
      </trkpt>
      <trkpt lat="45.95412" lon="4.88152">
        <ele>276</ele>
        <time>2017-05-03T09:23:11Z</time>
      </trkpt>
      <trkpt lat="45.95406" lon="4.88154">
        <ele>276</ele>
        <time>2017-05-03T09:23:12Z</time>
      </trkpt>
      <trkpt lat="45.954" lon="4.88156">
        <ele>276</ele>
        <time>2017-05-03T09:23:13Z</time>
      </trkpt>
      <trkpt lat="45.95394" lon="4.88156">
        <ele>276</ele>
        <time>2017-05-03T09:23:14Z</time>
      </trkpt>
      <trkpt lat="45.95388" lon="4.88157">
        <ele>276</ele>
        <time>2017-05-03T09:23:15Z</time>
      </trkpt>
      <trkpt lat="45.95382" lon="4.88158">
        <ele>276</ele>
        <time>2017-05-03T09:23:16Z</time>
      </trkpt>
      <trkpt lat="45.95377" lon="4.8816">
        <ele>276</ele>
        <time>2017-05-03T09:23:17Z</time>
      </trkpt>
      <trkpt lat="45.95371" lon="4.88161">
        <ele>276</ele>
        <time>2017-05-03T09:23:18Z</time>
      </trkpt>
      <trkpt lat="45.95366" lon="4.88163">
        <ele>276</ele>
        <time>2017-05-03T09:23:19Z</time>
      </trkpt>
      <trkpt lat="45.95361" lon="4.88164">
        <ele>277</ele>
        <time>2017-05-03T09:23:20Z</time>
      </trkpt>
      <trkpt lat="45.95356" lon="4.88165">
        <ele>277</ele>
        <time>2017-05-03T09:23:21Z</time>
      </trkpt>
      <trkpt lat="45.95351" lon="4.88165">
        <ele>277</ele>
        <time>2017-05-03T09:23:22Z</time>
      </trkpt>
      <trkpt lat="45.95346" lon="4.88166">
        <ele>277</ele>
        <time>2017-05-03T09:23:23Z</time>
      </trkpt>
      <trkpt lat="45.95342" lon="4.88166">
        <ele>277</ele>
        <time>2017-05-03T09:23:24Z</time>
      </trkpt>
      <trkpt lat="45.95337" lon="4.88166">
        <ele>278</ele>
        <time>2017-05-03T09:23:25Z</time>
      </trkpt>
      <trkpt lat="45.95332" lon="4.88167">
        <ele>278</ele>
        <time>2017-05-03T09:23:26Z</time>
      </trkpt>
      <trkpt lat="45.95328" lon="4.88167">
        <ele>279</ele>
        <time>2017-05-03T09:23:27Z</time>
      </trkpt>
      <trkpt lat="45.95323" lon="4.88167">
        <ele>279</ele>
        <time>2017-05-03T09:23:28Z</time>
      </trkpt>
      <trkpt lat="45.95318" lon="4.88167">
        <ele>280</ele>
        <time>2017-05-03T09:23:29Z</time>
      </trkpt>
      <trkpt lat="45.95313" lon="4.88168">
        <ele>280</ele>
        <time>2017-05-03T09:23:30Z</time>
      </trkpt>
      <trkpt lat="45.95309" lon="4.88168">
        <ele>280</ele>
        <time>2017-05-03T09:23:31Z</time>
      </trkpt>
      <trkpt lat="45.95304" lon="4.88168">
        <ele>280</ele>
        <time>2017-05-03T09:23:32Z</time>
      </trkpt>
      <trkpt lat="45.95299" lon="4.88168">
        <ele>281</ele>
        <time>2017-05-03T09:23:33Z</time>
      </trkpt>
      <trkpt lat="45.95294" lon="4.88167">
        <ele>279</ele>
        <time>2017-05-03T09:23:34Z</time>
      </trkpt>
      <trkpt lat="45.9529" lon="4.88166">
        <ele>279</ele>
        <time>2017-05-03T09:23:35Z</time>
      </trkpt>
      <trkpt lat="45.95285" lon="4.88165">
        <ele>279</ele>
        <time>2017-05-03T09:23:36Z</time>
      </trkpt>
      <trkpt lat="45.95281" lon="4.88165">
        <ele>279</ele>
        <time>2017-05-03T09:23:37Z</time>
      </trkpt>
      <trkpt lat="45.95276" lon="4.88165">
        <ele>279</ele>
        <time>2017-05-03T09:23:38Z</time>
      </trkpt>
      <trkpt lat="45.95267" lon="4.88165">
        <ele>280</ele>
        <time>2017-05-03T09:23:40Z</time>
      </trkpt>
      <trkpt lat="45.95262" lon="4.88165">
        <ele>280</ele>
        <time>2017-05-03T09:23:41Z</time>
      </trkpt>
      <trkpt lat="45.95257" lon="4.88164">
        <ele>280</ele>
        <time>2017-05-03T09:23:42Z</time>
      </trkpt>
      <trkpt lat="45.95253" lon="4.88164">
        <ele>281</ele>
        <time>2017-05-03T09:23:43Z</time>
      </trkpt>
      <trkpt lat="45.95244" lon="4.88164">
        <ele>281</ele>
        <time>2017-05-03T09:23:45Z</time>
      </trkpt>
      <trkpt lat="45.9524" lon="4.88164">
        <ele>281</ele>
        <time>2017-05-03T09:23:46Z</time>
      </trkpt>
      <trkpt lat="45.95235" lon="4.88164">
        <ele>281</ele>
        <time>2017-05-03T09:23:47Z</time>
      </trkpt>
      <trkpt lat="45.9523" lon="4.88163">
        <ele>282</ele>
        <time>2017-05-03T09:23:48Z</time>
      </trkpt>
      <trkpt lat="45.95225" lon="4.88164">
        <ele>282</ele>
        <time>2017-05-03T09:23:49Z</time>
      </trkpt>
      <trkpt lat="45.95221" lon="4.88164">
        <ele>282</ele>
        <time>2017-05-03T09:23:50Z</time>
      </trkpt>
      <trkpt lat="45.95216" lon="4.88165">
        <ele>282</ele>
        <time>2017-05-03T09:23:51Z</time>
      </trkpt>
      <trkpt lat="45.95211" lon="4.88165">
        <ele>282</ele>
        <time>2017-05-03T09:23:52Z</time>
      </trkpt>
      <trkpt lat="45.95203" lon="4.88166">
        <ele>282</ele>
        <time>2017-05-03T09:23:54Z</time>
      </trkpt>
      <trkpt lat="45.95199" lon="4.88166">
        <ele>283</ele>
        <time>2017-05-03T09:23:55Z</time>
      </trkpt>
      <trkpt lat="45.9519" lon="4.88167">
        <ele>285</ele>
        <time>2017-05-03T09:23:57Z</time>
      </trkpt>
      <trkpt lat="45.95186" lon="4.88168">
        <ele>285</ele>
        <time>2017-05-03T09:23:58Z</time>
      </trkpt>
      <trkpt lat="45.95178" lon="4.88167">
        <ele>285</ele>
        <time>2017-05-03T09:24:00Z</time>
      </trkpt>
      <trkpt lat="45.95175" lon="4.88165">
        <ele>284</ele>
        <time>2017-05-03T09:24:01Z</time>
      </trkpt>
      <trkpt lat="45.95173" lon="4.88157">
        <ele>284</ele>
        <time>2017-05-03T09:24:03Z</time>
      </trkpt>
      <trkpt lat="45.95174" lon="4.88151">
        <ele>283</ele>
        <time>2017-05-03T09:24:04Z</time>
      </trkpt>
      <trkpt lat="45.95177" lon="4.88141">
        <ele>283</ele>
        <time>2017-05-03T09:24:06Z</time>
      </trkpt>
      <trkpt lat="45.95178" lon="4.88136">
        <ele>283</ele>
        <time>2017-05-03T09:24:07Z</time>
      </trkpt>
      <trkpt lat="45.95178" lon="4.88129">
        <ele>282</ele>
        <time>2017-05-03T09:24:08Z</time>
      </trkpt>
      <trkpt lat="45.95179" lon="4.88122">
        <ele>282</ele>
        <time>2017-05-03T09:24:09Z</time>
      </trkpt>
      <trkpt lat="45.95181" lon="4.88116">
        <ele>282</ele>
        <time>2017-05-03T09:24:10Z</time>
      </trkpt>
      <trkpt lat="45.95182" lon="4.88109">
        <ele>282</ele>
        <time>2017-05-03T09:24:11Z</time>
      </trkpt>
      <trkpt lat="45.95183" lon="4.88102">
        <ele>282</ele>
        <time>2017-05-03T09:24:12Z</time>
      </trkpt>
      <trkpt lat="45.95185" lon="4.88095">
        <ele>282</ele>
        <time>2017-05-03T09:24:13Z</time>
      </trkpt>
      <trkpt lat="45.95186" lon="4.88087">
        <ele>282</ele>
        <time>2017-05-03T09:24:14Z</time>
      </trkpt>
      <trkpt lat="45.95188" lon="4.8808">
        <ele>281</ele>
        <time>2017-05-03T09:24:15Z</time>
      </trkpt>
      <trkpt lat="45.9519" lon="4.88073">
        <ele>281</ele>
        <time>2017-05-03T09:24:16Z</time>
      </trkpt>
      <trkpt lat="45.95192" lon="4.88066">
        <ele>281</ele>
        <time>2017-05-03T09:24:17Z</time>
      </trkpt>
      <trkpt lat="45.95194" lon="4.88059">
        <ele>281</ele>
        <time>2017-05-03T09:24:18Z</time>
      </trkpt>
      <trkpt lat="45.95197" lon="4.88051">
        <ele>281</ele>
        <time>2017-05-03T09:24:19Z</time>
      </trkpt>
      <trkpt lat="45.95199" lon="4.88045">
        <ele>281</ele>
        <time>2017-05-03T09:24:20Z</time>
      </trkpt>
      <trkpt lat="45.95202" lon="4.88039">
        <ele>281</ele>
        <time>2017-05-03T09:24:21Z</time>
      </trkpt>
      <trkpt lat="45.95205" lon="4.88033">
        <ele>281</ele>
        <time>2017-05-03T09:24:22Z</time>
      </trkpt>
      <trkpt lat="45.95208" lon="4.88028">
        <ele>281</ele>
        <time>2017-05-03T09:24:23Z</time>
      </trkpt>
      <trkpt lat="45.95211" lon="4.88023">
        <ele>281</ele>
        <time>2017-05-03T09:24:24Z</time>
      </trkpt>
      <trkpt lat="45.95215" lon="4.88018">
        <ele>281</ele>
        <time>2017-05-03T09:24:25Z</time>
      </trkpt>
      <trkpt lat="45.95218" lon="4.88012">
        <ele>281</ele>
        <time>2017-05-03T09:24:26Z</time>
      </trkpt>
      <trkpt lat="45.95221" lon="4.88006">
        <ele>281</ele>
        <time>2017-05-03T09:24:27Z</time>
      </trkpt>
      <trkpt lat="45.95225" lon="4.88">
        <ele>281</ele>
        <time>2017-05-03T09:24:28Z</time>
      </trkpt>
      <trkpt lat="45.95229" lon="4.87995">
        <ele>281</ele>
        <time>2017-05-03T09:24:29Z</time>
      </trkpt>
      <trkpt lat="45.95232" lon="4.87989">
        <ele>281</ele>
        <time>2017-05-03T09:24:30Z</time>
      </trkpt>
      <trkpt lat="45.95237" lon="4.87983">
        <ele>281</ele>
        <time>2017-05-03T09:24:31Z</time>
      </trkpt>
      <trkpt lat="45.95241" lon="4.87977">
        <ele>282</ele>
        <time>2017-05-03T09:24:32Z</time>
      </trkpt>
      <trkpt lat="45.95245" lon="4.87971">
        <ele>282</ele>
        <time>2017-05-03T09:24:33Z</time>
      </trkpt>
      <trkpt lat="45.95249" lon="4.87964">
        <ele>282</ele>
        <time>2017-05-03T09:24:34Z</time>
      </trkpt>
      <trkpt lat="45.95252" lon="4.87958">
        <ele>280</ele>
        <time>2017-05-03T09:24:35Z</time>
      </trkpt>
      <trkpt lat="45.95254" lon="4.87951">
        <ele>280</ele>
        <time>2017-05-03T09:24:36Z</time>
      </trkpt>
      <trkpt lat="45.95256" lon="4.87943">
        <ele>280</ele>
        <time>2017-05-03T09:24:37Z</time>
      </trkpt>
      <trkpt lat="45.95258" lon="4.87936">
        <ele>281</ele>
        <time>2017-05-03T09:24:38Z</time>
      </trkpt>
      <trkpt lat="45.95259" lon="4.87927">
        <ele>281</ele>
        <time>2017-05-03T09:24:39Z</time>
      </trkpt>
      <trkpt lat="45.9526" lon="4.87919">
        <ele>282</ele>
        <time>2017-05-03T09:24:40Z</time>
      </trkpt>
      <trkpt lat="45.95259" lon="4.87911">
        <ele>282</ele>
        <time>2017-05-03T09:24:41Z</time>
      </trkpt>
      <trkpt lat="45.95259" lon="4.87903">
        <ele>281</ele>
        <time>2017-05-03T09:24:42Z</time>
      </trkpt>
      <trkpt lat="45.95258" lon="4.87895">
        <ele>281</ele>
        <time>2017-05-03T09:24:43Z</time>
      </trkpt>
      <trkpt lat="45.95256" lon="4.87888">
        <ele>281</ele>
        <time>2017-05-03T09:24:44Z</time>
      </trkpt>
      <trkpt lat="45.95254" lon="4.8788">
        <ele>281</ele>
        <time>2017-05-03T09:24:45Z</time>
      </trkpt>
      <trkpt lat="45.95253" lon="4.87873">
        <ele>281</ele>
        <time>2017-05-03T09:24:46Z</time>
      </trkpt>
      <trkpt lat="45.95252" lon="4.87866">
        <ele>281</ele>
        <time>2017-05-03T09:24:47Z</time>
      </trkpt>
      <trkpt lat="45.9525" lon="4.87859">
        <ele>281</ele>
        <time>2017-05-03T09:24:48Z</time>
      </trkpt>
      <trkpt lat="45.95249" lon="4.87852">
        <ele>283</ele>
        <time>2017-05-03T09:24:49Z</time>
      </trkpt>
      <trkpt lat="45.95248" lon="4.87845">
        <ele>283</ele>
        <time>2017-05-03T09:24:50Z</time>
      </trkpt>
      <trkpt lat="45.95247" lon="4.87839">
        <ele>282</ele>
        <time>2017-05-03T09:24:51Z</time>
      </trkpt>
      <trkpt lat="45.95245" lon="4.87833">
        <ele>282</ele>
        <time>2017-05-03T09:24:52Z</time>
      </trkpt>
      <trkpt lat="45.95244" lon="4.87826">
        <ele>282</ele>
        <time>2017-05-03T09:24:53Z</time>
      </trkpt>
      <trkpt lat="45.95244" lon="4.8782">
        <ele>282</ele>
        <time>2017-05-03T09:24:54Z</time>
      </trkpt>
      <trkpt lat="45.95243" lon="4.87813">
        <ele>282</ele>
        <time>2017-05-03T09:24:55Z</time>
      </trkpt>
      <trkpt lat="45.95242" lon="4.87806">
        <ele>282</ele>
        <time>2017-05-03T09:24:56Z</time>
      </trkpt>
      <trkpt lat="45.95241" lon="4.87799">
        <ele>282</ele>
        <time>2017-05-03T09:24:57Z</time>
      </trkpt>
      <trkpt lat="45.95241" lon="4.87791">
        <ele>282</ele>
        <time>2017-05-03T09:24:58Z</time>
      </trkpt>
      <trkpt lat="45.9524" lon="4.87783">
        <ele>282</ele>
        <time>2017-05-03T09:24:59Z</time>
      </trkpt>
      <trkpt lat="45.95239" lon="4.87776">
        <ele>282</ele>
        <time>2017-05-03T09:25:00Z</time>
      </trkpt>
      <trkpt lat="45.95237" lon="4.87769">
        <ele>282</ele>
        <time>2017-05-03T09:25:01Z</time>
      </trkpt>
      <trkpt lat="45.95236" lon="4.87762">
        <ele>281</ele>
        <time>2017-05-03T09:25:02Z</time>
      </trkpt>
      <trkpt lat="45.95234" lon="4.87755">
        <ele>281</ele>
        <time>2017-05-03T09:25:03Z</time>
      </trkpt>
      <trkpt lat="45.95233" lon="4.87748">
        <ele>280</ele>
        <time>2017-05-03T09:25:04Z</time>
      </trkpt>
      <trkpt lat="45.95232" lon="4.87741">
        <ele>280</ele>
        <time>2017-05-03T09:25:05Z</time>
      </trkpt>
      <trkpt lat="45.95231" lon="4.87735">
        <ele>280</ele>
        <time>2017-05-03T09:25:06Z</time>
      </trkpt>
      <trkpt lat="45.95229" lon="4.87728">
        <ele>280</ele>
        <time>2017-05-03T09:25:07Z</time>
      </trkpt>
      <trkpt lat="45.95228" lon="4.87722">
        <ele>280</ele>
        <time>2017-05-03T09:25:08Z</time>
      </trkpt>
      <trkpt lat="45.95227" lon="4.87715">
        <ele>279</ele>
        <time>2017-05-03T09:25:09Z</time>
      </trkpt>
      <trkpt lat="45.95226" lon="4.87707">
        <ele>279</ele>
        <time>2017-05-03T09:25:10Z</time>
      </trkpt>
      <trkpt lat="45.95224" lon="4.877">
        <ele>279</ele>
        <time>2017-05-03T09:25:11Z</time>
      </trkpt>
      <trkpt lat="45.95223" lon="4.87692">
        <ele>279</ele>
        <time>2017-05-03T09:25:12Z</time>
      </trkpt>
      <trkpt lat="45.95222" lon="4.87683">
        <ele>279</ele>
        <time>2017-05-03T09:25:13Z</time>
      </trkpt>
      <trkpt lat="45.95221" lon="4.87674">
        <ele>278</ele>
        <time>2017-05-03T09:25:14Z</time>
      </trkpt>
      <trkpt lat="45.95219" lon="4.87665">
        <ele>276</ele>
        <time>2017-05-03T09:25:15Z</time>
      </trkpt>
      <trkpt lat="45.95217" lon="4.87656">
        <ele>276</ele>
        <time>2017-05-03T09:25:16Z</time>
      </trkpt>
      <trkpt lat="45.95216" lon="4.87646">
        <ele>276</ele>
        <time>2017-05-03T09:25:17Z</time>
      </trkpt>
      <trkpt lat="45.95215" lon="4.87635">
        <ele>276</ele>
        <time>2017-05-03T09:25:18Z</time>
      </trkpt>
      <trkpt lat="45.95213" lon="4.87625">
        <ele>276</ele>
        <time>2017-05-03T09:25:19Z</time>
      </trkpt>
      <trkpt lat="45.95212" lon="4.87615">
        <ele>276</ele>
        <time>2017-05-03T09:25:20Z</time>
      </trkpt>
      <trkpt lat="45.95211" lon="4.87604">
        <ele>276</ele>
        <time>2017-05-03T09:25:21Z</time>
      </trkpt>
      <trkpt lat="45.95211" lon="4.87593">
        <ele>276</ele>
        <time>2017-05-03T09:25:22Z</time>
      </trkpt>
      <trkpt lat="45.9521" lon="4.87581">
        <ele>274</ele>
        <time>2017-05-03T09:25:23Z</time>
      </trkpt>
      <trkpt lat="45.95209" lon="4.8757">
        <ele>274</ele>
        <time>2017-05-03T09:25:24Z</time>
      </trkpt>
      <trkpt lat="45.95208" lon="4.87559">
        <ele>274</ele>
        <time>2017-05-03T09:25:25Z</time>
      </trkpt>
      <trkpt lat="45.95207" lon="4.87547">
        <ele>274</ele>
        <time>2017-05-03T09:25:26Z</time>
      </trkpt>
      <trkpt lat="45.95205" lon="4.87536">
        <ele>274</ele>
        <time>2017-05-03T09:25:27Z</time>
      </trkpt>
      <trkpt lat="45.95202" lon="4.87525">
        <ele>274</ele>
        <time>2017-05-03T09:25:28Z</time>
      </trkpt>
      <trkpt lat="45.952" lon="4.87514">
        <ele>273</ele>
        <time>2017-05-03T09:25:29Z</time>
      </trkpt>
      <trkpt lat="45.95198" lon="4.87504">
        <ele>273</ele>
        <time>2017-05-03T09:25:30Z</time>
      </trkpt>
      <trkpt lat="45.95196" lon="4.87493">
        <ele>272</ele>
        <time>2017-05-03T09:25:31Z</time>
      </trkpt>
      <trkpt lat="45.95193" lon="4.87482">
        <ele>272</ele>
        <time>2017-05-03T09:25:32Z</time>
      </trkpt>
      <trkpt lat="45.95191" lon="4.87472">
        <ele>272</ele>
        <time>2017-05-03T09:25:33Z</time>
      </trkpt>
      <trkpt lat="45.95189" lon="4.87462">
        <ele>272</ele>
        <time>2017-05-03T09:25:34Z</time>
      </trkpt>
      <trkpt lat="45.95186" lon="4.87453">
        <ele>272</ele>
        <time>2017-05-03T09:25:35Z</time>
      </trkpt>
      <trkpt lat="45.95184" lon="4.87444">
        <ele>272</ele>
        <time>2017-05-03T09:25:36Z</time>
      </trkpt>
      <trkpt lat="45.95182" lon="4.87436">
        <ele>272</ele>
        <time>2017-05-03T09:25:37Z</time>
      </trkpt>
      <trkpt lat="45.9518" lon="4.87427">
        <ele>271</ele>
        <time>2017-05-03T09:25:38Z</time>
      </trkpt>
      <trkpt lat="45.95178" lon="4.87419">
        <ele>271</ele>
        <time>2017-05-03T09:25:39Z</time>
      </trkpt>
      <trkpt lat="45.95177" lon="4.87411">
        <ele>271</ele>
        <time>2017-05-03T09:25:40Z</time>
      </trkpt>
      <trkpt lat="45.95175" lon="4.87404">
        <ele>271</ele>
        <time>2017-05-03T09:25:41Z</time>
      </trkpt>
      <trkpt lat="45.95173" lon="4.87396">
        <ele>271</ele>
        <time>2017-05-03T09:25:42Z</time>
      </trkpt>
      <trkpt lat="45.95172" lon="4.87389">
        <ele>271</ele>
        <time>2017-05-03T09:25:43Z</time>
      </trkpt>
      <trkpt lat="45.9517" lon="4.87382">
        <ele>271</ele>
        <time>2017-05-03T09:25:44Z</time>
      </trkpt>
      <trkpt lat="45.95168" lon="4.87375">
        <ele>271</ele>
        <time>2017-05-03T09:25:45Z</time>
      </trkpt>
      <trkpt lat="45.95166" lon="4.87368">
        <ele>272</ele>
        <time>2017-05-03T09:25:46Z</time>
      </trkpt>
      <trkpt lat="45.95165" lon="4.8736">
        <ele>272</ele>
        <time>2017-05-03T09:25:47Z</time>
      </trkpt>
      <trkpt lat="45.95163" lon="4.87353">
        <ele>272</ele>
        <time>2017-05-03T09:25:48Z</time>
      </trkpt>
      <trkpt lat="45.95161" lon="4.87345">
        <ele>272</ele>
        <time>2017-05-03T09:25:49Z</time>
      </trkpt>
      <trkpt lat="45.95159" lon="4.87337">
        <ele>272</ele>
        <time>2017-05-03T09:25:50Z</time>
      </trkpt>
      <trkpt lat="45.95157" lon="4.87329">
        <ele>272</ele>
        <time>2017-05-03T09:25:51Z</time>
      </trkpt>
      <trkpt lat="45.95155" lon="4.87321">
        <ele>273</ele>
        <time>2017-05-03T09:25:52Z</time>
      </trkpt>
      <trkpt lat="45.95154" lon="4.87313">
        <ele>273</ele>
        <time>2017-05-03T09:25:53Z</time>
      </trkpt>
      <trkpt lat="45.95152" lon="4.87304">
        <ele>274</ele>
        <time>2017-05-03T09:25:54Z</time>
      </trkpt>
      <trkpt lat="45.9515" lon="4.87296">
        <ele>274</ele>
        <time>2017-05-03T09:25:55Z</time>
      </trkpt>
      <trkpt lat="45.95149" lon="4.87288">
        <ele>274</ele>
        <time>2017-05-03T09:25:56Z</time>
      </trkpt>
      <trkpt lat="45.95147" lon="4.87279">
        <ele>274</ele>
        <time>2017-05-03T09:25:57Z</time>
      </trkpt>
      <trkpt lat="45.95145" lon="4.87272">
        <ele>274</ele>
        <time>2017-05-03T09:25:58Z</time>
      </trkpt>
      <trkpt lat="45.95144" lon="4.87264">
        <ele>274</ele>
        <time>2017-05-03T09:25:59Z</time>
      </trkpt>
      <trkpt lat="45.95142" lon="4.87256">
        <ele>274</ele>
        <time>2017-05-03T09:26:00Z</time>
      </trkpt>
      <trkpt lat="45.9514" lon="4.87249">
        <ele>275</ele>
        <time>2017-05-03T09:26:01Z</time>
      </trkpt>
      <trkpt lat="45.95138" lon="4.87241">
        <ele>275</ele>
        <time>2017-05-03T09:26:02Z</time>
      </trkpt>
      <trkpt lat="45.95137" lon="4.87233">
        <ele>276</ele>
        <time>2017-05-03T09:26:03Z</time>
      </trkpt>
      <trkpt lat="45.95135" lon="4.87225">
        <ele>276</ele>
        <time>2017-05-03T09:26:04Z</time>
      </trkpt>
      <trkpt lat="45.95134" lon="4.87218">
        <ele>276</ele>
        <time>2017-05-03T09:26:05Z</time>
      </trkpt>
      <trkpt lat="45.95132" lon="4.8721">
        <ele>276</ele>
        <time>2017-05-03T09:26:06Z</time>
      </trkpt>
      <trkpt lat="45.95131" lon="4.87203">
        <ele>276</ele>
        <time>2017-05-03T09:26:07Z</time>
      </trkpt>
      <trkpt lat="45.9513" lon="4.87195">
        <ele>276</ele>
        <time>2017-05-03T09:26:08Z</time>
      </trkpt>
      <trkpt lat="45.95128" lon="4.87188">
        <ele>276</ele>
        <time>2017-05-03T09:26:09Z</time>
      </trkpt>
      <trkpt lat="45.95127" lon="4.87181">
        <ele>276</ele>
        <time>2017-05-03T09:26:10Z</time>
      </trkpt>
      <trkpt lat="45.95126" lon="4.87174">
        <ele>276</ele>
        <time>2017-05-03T09:26:11Z</time>
      </trkpt>
      <trkpt lat="45.95124" lon="4.87167">
        <ele>276</ele>
        <time>2017-05-03T09:26:12Z</time>
      </trkpt>
      <trkpt lat="45.95123" lon="4.8716">
        <ele>276</ele>
        <time>2017-05-03T09:26:13Z</time>
      </trkpt>
      <trkpt lat="45.95121" lon="4.87153">
        <ele>276</ele>
        <time>2017-05-03T09:26:14Z</time>
      </trkpt>
      <trkpt lat="45.95119" lon="4.87146">
        <ele>277</ele>
        <time>2017-05-03T09:26:15Z</time>
      </trkpt>
      <trkpt lat="45.95117" lon="4.87138">
        <ele>277</ele>
        <time>2017-05-03T09:26:16Z</time>
      </trkpt>
      <trkpt lat="45.95115" lon="4.87131">
        <ele>277</ele>
        <time>2017-05-03T09:26:17Z</time>
      </trkpt>
      <trkpt lat="45.95114" lon="4.87124">
        <ele>277</ele>
        <time>2017-05-03T09:26:18Z</time>
      </trkpt>
      <trkpt lat="45.95112" lon="4.87116">
        <ele>277</ele>
        <time>2017-05-03T09:26:19Z</time>
      </trkpt>
      <trkpt lat="45.95109" lon="4.87109">
        <ele>277</ele>
        <time>2017-05-03T09:26:20Z</time>
      </trkpt>
      <trkpt lat="45.95107" lon="4.87101">
        <ele>277</ele>
        <time>2017-05-03T09:26:21Z</time>
      </trkpt>
      <trkpt lat="45.95105" lon="4.87094">
        <ele>277</ele>
        <time>2017-05-03T09:26:22Z</time>
      </trkpt>
      <trkpt lat="45.95103" lon="4.87086">
        <ele>277</ele>
        <time>2017-05-03T09:26:23Z</time>
      </trkpt>
      <trkpt lat="45.951" lon="4.87079">
        <ele>277</ele>
        <time>2017-05-03T09:26:24Z</time>
      </trkpt>
      <trkpt lat="45.95097" lon="4.87073">
        <ele>277</ele>
        <time>2017-05-03T09:26:25Z</time>
      </trkpt>
      <trkpt lat="45.95095" lon="4.87067">
        <ele>277</ele>
        <time>2017-05-03T09:26:26Z</time>
      </trkpt>
      <trkpt lat="45.95092" lon="4.87061">
        <ele>277</ele>
        <time>2017-05-03T09:26:27Z</time>
      </trkpt>
      <trkpt lat="45.95089" lon="4.87056">
        <ele>277</ele>
        <time>2017-05-03T09:26:28Z</time>
      </trkpt>
      <trkpt lat="45.95086" lon="4.8705">
        <ele>277</ele>
        <time>2017-05-03T09:26:29Z</time>
      </trkpt>
      <trkpt lat="45.95083" lon="4.87044">
        <ele>277</ele>
        <time>2017-05-03T09:26:30Z</time>
      </trkpt>
      <trkpt lat="45.95081" lon="4.87038">
        <ele>277</ele>
        <time>2017-05-03T09:26:31Z</time>
      </trkpt>
      <trkpt lat="45.95079" lon="4.87031">
        <ele>277</ele>
        <time>2017-05-03T09:26:32Z</time>
      </trkpt>
      <trkpt lat="45.95075" lon="4.87025">
        <ele>277</ele>
        <time>2017-05-03T09:26:33Z</time>
      </trkpt>
      <trkpt lat="45.95072" lon="4.87019">
        <ele>277</ele>
        <time>2017-05-03T09:26:34Z</time>
      </trkpt>
      <trkpt lat="45.95069" lon="4.87013">
        <ele>277</ele>
        <time>2017-05-03T09:26:35Z</time>
      </trkpt>
      <trkpt lat="45.95066" lon="4.87006">
        <ele>277</ele>
        <time>2017-05-03T09:26:36Z</time>
      </trkpt>
      <trkpt lat="45.95062" lon="4.87">
        <ele>277</ele>
        <time>2017-05-03T09:26:37Z</time>
      </trkpt>
      <trkpt lat="45.95059" lon="4.86994">
        <ele>276</ele>
        <time>2017-05-03T09:26:38Z</time>
      </trkpt>
      <trkpt lat="45.95056" lon="4.86987">
        <ele>276</ele>
        <time>2017-05-03T09:26:39Z</time>
      </trkpt>
      <trkpt lat="45.95054" lon="4.8698">
        <ele>276</ele>
        <time>2017-05-03T09:26:40Z</time>
      </trkpt>
      <trkpt lat="45.95051" lon="4.86973">
        <ele>276</ele>
        <time>2017-05-03T09:26:41Z</time>
      </trkpt>
      <trkpt lat="45.95049" lon="4.86966">
        <ele>276</ele>
        <time>2017-05-03T09:26:42Z</time>
      </trkpt>
      <trkpt lat="45.95046" lon="4.86959">
        <ele>276</ele>
        <time>2017-05-03T09:26:43Z</time>
      </trkpt>
      <trkpt lat="45.95044" lon="4.86953">
        <ele>276</ele>
        <time>2017-05-03T09:26:44Z</time>
      </trkpt>
      <trkpt lat="45.95042" lon="4.86946">
        <ele>276</ele>
        <time>2017-05-03T09:26:45Z</time>
      </trkpt>
      <trkpt lat="45.95041" lon="4.86939">
        <ele>276</ele>
        <time>2017-05-03T09:26:46Z</time>
      </trkpt>
      <trkpt lat="45.95038" lon="4.86931">
        <ele>276</ele>
        <time>2017-05-03T09:26:47Z</time>
      </trkpt>
      <trkpt lat="45.95036" lon="4.86923">
        <ele>276</ele>
        <time>2017-05-03T09:26:48Z</time>
      </trkpt>
      <trkpt lat="45.95033" lon="4.86915">
        <ele>275</ele>
        <time>2017-05-03T09:26:49Z</time>
      </trkpt>
      <trkpt lat="45.9503" lon="4.86907">
        <ele>275</ele>
        <time>2017-05-03T09:26:50Z</time>
      </trkpt>
      <trkpt lat="45.95028" lon="4.86899">
        <ele>275</ele>
        <time>2017-05-03T09:26:51Z</time>
      </trkpt>
      <trkpt lat="45.95025" lon="4.86891">
        <ele>275</ele>
        <time>2017-05-03T09:26:52Z</time>
      </trkpt>
      <trkpt lat="45.95023" lon="4.86883">
        <ele>275</ele>
        <time>2017-05-03T09:26:53Z</time>
      </trkpt>
      <trkpt lat="45.9502" lon="4.86875">
        <ele>275</ele>
        <time>2017-05-03T09:26:54Z</time>
      </trkpt>
      <trkpt lat="45.95018" lon="4.86867">
        <ele>275</ele>
        <time>2017-05-03T09:26:55Z</time>
      </trkpt>
      <trkpt lat="45.95015" lon="4.86861">
        <ele>275</ele>
        <time>2017-05-03T09:26:56Z</time>
      </trkpt>
      <trkpt lat="45.95013" lon="4.86854">
        <ele>275</ele>
        <time>2017-05-03T09:26:57Z</time>
      </trkpt>
      <trkpt lat="45.95011" lon="4.86848">
        <ele>275</ele>
        <time>2017-05-03T09:26:58Z</time>
      </trkpt>
      <trkpt lat="45.95008" lon="4.86842">
        <ele>276</ele>
        <time>2017-05-03T09:26:59Z</time>
      </trkpt>
      <trkpt lat="45.95006" lon="4.86836">
        <ele>276</ele>
        <time>2017-05-03T09:27:00Z</time>
      </trkpt>
      <trkpt lat="45.95003" lon="4.8683">
        <ele>276</ele>
        <time>2017-05-03T09:27:01Z</time>
      </trkpt>
      <trkpt lat="45.95001" lon="4.86824">
        <ele>275</ele>
        <time>2017-05-03T09:27:02Z</time>
      </trkpt>
      <trkpt lat="45.94998" lon="4.86818">
        <ele>276</ele>
        <time>2017-05-03T09:27:03Z</time>
      </trkpt>
      <trkpt lat="45.94995" lon="4.86812">
        <ele>276</ele>
        <time>2017-05-03T09:27:04Z</time>
      </trkpt>
      <trkpt lat="45.94992" lon="4.86806">
        <ele>276</ele>
        <time>2017-05-03T09:27:05Z</time>
      </trkpt>
      <trkpt lat="45.94988" lon="4.868">
        <ele>276</ele>
        <time>2017-05-03T09:27:06Z</time>
      </trkpt>
      <trkpt lat="45.94985" lon="4.86794">
        <ele>276</ele>
        <time>2017-05-03T09:27:07Z</time>
      </trkpt>
      <trkpt lat="45.94982" lon="4.86788">
        <ele>276</ele>
        <time>2017-05-03T09:27:08Z</time>
      </trkpt>
      <trkpt lat="45.94978" lon="4.86782">
        <ele>275</ele>
        <time>2017-05-03T09:27:09Z</time>
      </trkpt>
      <trkpt lat="45.94975" lon="4.86775">
        <ele>275</ele>
        <time>2017-05-03T09:27:10Z</time>
      </trkpt>
      <trkpt lat="45.94971" lon="4.86769">
        <ele>275</ele>
        <time>2017-05-03T09:27:11Z</time>
      </trkpt>
      <trkpt lat="45.94968" lon="4.86762">
        <ele>275</ele>
        <time>2017-05-03T09:27:12Z</time>
      </trkpt>
      <trkpt lat="45.94964" lon="4.86756">
        <ele>275</ele>
        <time>2017-05-03T09:27:13Z</time>
      </trkpt>
      <trkpt lat="45.94961" lon="4.8675">
        <ele>275</ele>
        <time>2017-05-03T09:27:14Z</time>
      </trkpt>
      <trkpt lat="45.94958" lon="4.86743">
        <ele>275</ele>
        <time>2017-05-03T09:27:15Z</time>
      </trkpt>
      <trkpt lat="45.94955" lon="4.86737">
        <ele>275</ele>
        <time>2017-05-03T09:27:16Z</time>
      </trkpt>
      <trkpt lat="45.94953" lon="4.86731">
        <ele>275</ele>
        <time>2017-05-03T09:27:17Z</time>
      </trkpt>
      <trkpt lat="45.94951" lon="4.86724">
        <ele>275</ele>
        <time>2017-05-03T09:27:18Z</time>
      </trkpt>
      <trkpt lat="45.94949" lon="4.86718">
        <ele>275</ele>
        <time>2017-05-03T09:27:19Z</time>
      </trkpt>
      <trkpt lat="45.94947" lon="4.86711">
        <ele>275</ele>
        <time>2017-05-03T09:27:20Z</time>
      </trkpt>
      <trkpt lat="45.94946" lon="4.86705">
        <ele>275</ele>
        <time>2017-05-03T09:27:21Z</time>
      </trkpt>
      <trkpt lat="45.94945" lon="4.86698">
        <ele>276</ele>
        <time>2017-05-03T09:27:22Z</time>
      </trkpt>
      <trkpt lat="45.94944" lon="4.86691">
        <ele>276</ele>
        <time>2017-05-03T09:27:23Z</time>
      </trkpt>
      <trkpt lat="45.94943" lon="4.86685">
        <ele>276</ele>
        <time>2017-05-03T09:27:24Z</time>
      </trkpt>
      <trkpt lat="45.94943" lon="4.86678">
        <ele>276</ele>
        <time>2017-05-03T09:27:25Z</time>
      </trkpt>
      <trkpt lat="45.94943" lon="4.86671">
        <ele>276</ele>
        <time>2017-05-03T09:27:26Z</time>
      </trkpt>
      <trkpt lat="45.94943" lon="4.86663">
        <ele>276</ele>
        <time>2017-05-03T09:27:27Z</time>
      </trkpt>
      <trkpt lat="45.94944" lon="4.86656">
        <ele>276</ele>
        <time>2017-05-03T09:27:28Z</time>
      </trkpt>
      <trkpt lat="45.94946" lon="4.86648">
        <ele>276</ele>
        <time>2017-05-03T09:27:29Z</time>
      </trkpt>
      <trkpt lat="45.94948" lon="4.86641">
        <ele>276</ele>
        <time>2017-05-03T09:27:30Z</time>
      </trkpt>
      <trkpt lat="45.94951" lon="4.86636">
        <ele>276</ele>
        <time>2017-05-03T09:27:31Z</time>
      </trkpt>
      <trkpt lat="45.94955" lon="4.86631">
        <ele>276</ele>
        <time>2017-05-03T09:27:32Z</time>
      </trkpt>
      <trkpt lat="45.9496" lon="4.86628">
        <ele>275</ele>
        <time>2017-05-03T09:27:33Z</time>
      </trkpt>
      <trkpt lat="45.94965" lon="4.86625">
        <ele>275</ele>
        <time>2017-05-03T09:27:34Z</time>
      </trkpt>
      <trkpt lat="45.94969" lon="4.86622">
        <ele>275</ele>
        <time>2017-05-03T09:27:35Z</time>
      </trkpt>
      <trkpt lat="45.94974" lon="4.8662">
        <ele>275</ele>
        <time>2017-05-03T09:27:36Z</time>
      </trkpt>
      <trkpt lat="45.94979" lon="4.86618">
        <ele>275</ele>
        <time>2017-05-03T09:27:37Z</time>
      </trkpt>
      <trkpt lat="45.94984" lon="4.86617">
        <ele>275</ele>
        <time>2017-05-03T09:27:38Z</time>
      </trkpt>
      <trkpt lat="45.9499" lon="4.86617">
        <ele>275</ele>
        <time>2017-05-03T09:27:39Z</time>
      </trkpt>
      <trkpt lat="45.94995" lon="4.86616">
        <ele>275</ele>
        <time>2017-05-03T09:27:40Z</time>
      </trkpt>
      <trkpt lat="45.95001" lon="4.86616">
        <ele>273</ele>
        <time>2017-05-03T09:27:41Z</time>
      </trkpt>
      <trkpt lat="45.95006" lon="4.86615">
        <ele>273</ele>
        <time>2017-05-03T09:27:42Z</time>
      </trkpt>
      <trkpt lat="45.95012" lon="4.86614">
        <ele>273</ele>
        <time>2017-05-03T09:27:43Z</time>
      </trkpt>
      <trkpt lat="45.95018" lon="4.86613">
        <ele>273</ele>
        <time>2017-05-03T09:27:44Z</time>
      </trkpt>
      <trkpt lat="45.95024" lon="4.86612">
        <ele>273</ele>
        <time>2017-05-03T09:27:45Z</time>
      </trkpt>
      <trkpt lat="45.9503" lon="4.8661">
        <ele>273</ele>
        <time>2017-05-03T09:27:46Z</time>
      </trkpt>
      <trkpt lat="45.95036" lon="4.86609">
        <ele>273</ele>
        <time>2017-05-03T09:27:47Z</time>
      </trkpt>
      <trkpt lat="45.95042" lon="4.86607">
        <ele>272</ele>
        <time>2017-05-03T09:27:48Z</time>
      </trkpt>
      <trkpt lat="45.95048" lon="4.86605">
        <ele>272</ele>
        <time>2017-05-03T09:27:49Z</time>
      </trkpt>
      <trkpt lat="45.95054" lon="4.86603">
        <ele>272</ele>
        <time>2017-05-03T09:27:50Z</time>
      </trkpt>
      <trkpt lat="45.95061" lon="4.86601">
        <ele>272</ele>
        <time>2017-05-03T09:27:51Z</time>
      </trkpt>
      <trkpt lat="45.95067" lon="4.86599">
        <ele>272</ele>
        <time>2017-05-03T09:27:52Z</time>
      </trkpt>
      <trkpt lat="45.95074" lon="4.86597">
        <ele>272</ele>
        <time>2017-05-03T09:27:53Z</time>
      </trkpt>
      <trkpt lat="45.9508" lon="4.86595">
        <ele>272</ele>
        <time>2017-05-03T09:27:54Z</time>
      </trkpt>
      <trkpt lat="45.95087" lon="4.86593">
        <ele>271</ele>
        <time>2017-05-03T09:27:55Z</time>
      </trkpt>
      <trkpt lat="45.95094" lon="4.86591">
        <ele>271</ele>
        <time>2017-05-03T09:27:56Z</time>
      </trkpt>
      <trkpt lat="45.95101" lon="4.8659">
        <ele>271</ele>
        <time>2017-05-03T09:27:57Z</time>
      </trkpt>
      <trkpt lat="45.95108" lon="4.86589">
        <ele>271</ele>
        <time>2017-05-03T09:27:58Z</time>
      </trkpt>
      <trkpt lat="45.95115" lon="4.86587">
        <ele>270</ele>
        <time>2017-05-03T09:27:59Z</time>
      </trkpt>
      <trkpt lat="45.95122" lon="4.86586">
        <ele>270</ele>
        <time>2017-05-03T09:28:00Z</time>
      </trkpt>
      <trkpt lat="45.95129" lon="4.86585">
        <ele>270</ele>
        <time>2017-05-03T09:28:01Z</time>
      </trkpt>
      <trkpt lat="45.95136" lon="4.86585">
        <ele>270</ele>
        <time>2017-05-03T09:28:02Z</time>
      </trkpt>
      <trkpt lat="45.95143" lon="4.86584">
        <ele>270</ele>
        <time>2017-05-03T09:28:03Z</time>
      </trkpt>
      <trkpt lat="45.95151" lon="4.86583">
        <ele>269</ele>
        <time>2017-05-03T09:28:04Z</time>
      </trkpt>
      <trkpt lat="45.95158" lon="4.86582">
        <ele>269</ele>
        <time>2017-05-03T09:28:05Z</time>
      </trkpt>
      <trkpt lat="45.95166" lon="4.86582">
        <ele>269</ele>
        <time>2017-05-03T09:28:06Z</time>
      </trkpt>
      <trkpt lat="45.95173" lon="4.86582">
        <ele>269</ele>
        <time>2017-05-03T09:28:07Z</time>
      </trkpt>
      <trkpt lat="45.95181" lon="4.86581">
        <ele>269</ele>
        <time>2017-05-03T09:28:08Z</time>
      </trkpt>
      <trkpt lat="45.95189" lon="4.86581">
        <ele>269</ele>
        <time>2017-05-03T09:28:09Z</time>
      </trkpt>
      <trkpt lat="45.95196" lon="4.86581">
        <ele>268</ele>
        <time>2017-05-03T09:28:10Z</time>
      </trkpt>
      <trkpt lat="45.95204" lon="4.86581">
        <ele>268</ele>
        <time>2017-05-03T09:28:11Z</time>
      </trkpt>
      <trkpt lat="45.95212" lon="4.86582">
        <ele>268</ele>
        <time>2017-05-03T09:28:12Z</time>
      </trkpt>
      <trkpt lat="45.95219" lon="4.86583">
        <ele>268</ele>
        <time>2017-05-03T09:28:13Z</time>
      </trkpt>
      <trkpt lat="45.95226" lon="4.86584">
        <ele>269</ele>
        <time>2017-05-03T09:28:14Z</time>
      </trkpt>
      <trkpt lat="45.95233" lon="4.86585">
        <ele>269</ele>
        <time>2017-05-03T09:28:15Z</time>
      </trkpt>
      <trkpt lat="45.9524" lon="4.86586">
        <ele>268</ele>
        <time>2017-05-03T09:28:16Z</time>
      </trkpt>
      <trkpt lat="45.95246" lon="4.86586">
        <ele>268</ele>
        <time>2017-05-03T09:28:17Z</time>
      </trkpt>
      <trkpt lat="45.95251" lon="4.86586">
        <ele>268</ele>
        <time>2017-05-03T09:28:18Z</time>
      </trkpt>
      <trkpt lat="45.95256" lon="4.86584">
        <ele>268</ele>
        <time>2017-05-03T09:28:19Z</time>
      </trkpt>
      <trkpt lat="45.95262" lon="4.86581">
        <ele>267</ele>
        <time>2017-05-03T09:28:21Z</time>
      </trkpt>
      <trkpt lat="45.95264" lon="4.86578">
        <ele>267</ele>
        <time>2017-05-03T09:28:22Z</time>
      </trkpt>
      <trkpt lat="45.95266" lon="4.8657">
        <ele>267</ele>
        <time>2017-05-03T09:28:24Z</time>
      </trkpt>
      <trkpt lat="45.95264" lon="4.86565">
        <ele>267</ele>
        <time>2017-05-03T09:28:25Z</time>
      </trkpt>
      <trkpt lat="45.95261" lon="4.8656">
        <ele>267</ele>
        <time>2017-05-03T09:28:26Z</time>
      </trkpt>
      <trkpt lat="45.95257" lon="4.86555">
        <ele>267</ele>
        <time>2017-05-03T09:28:27Z</time>
      </trkpt>
      <trkpt lat="45.95253" lon="4.8655">
        <ele>267</ele>
        <time>2017-05-03T09:28:28Z</time>
      </trkpt>
      <trkpt lat="45.95248" lon="4.86545">
        <ele>268</ele>
        <time>2017-05-03T09:28:29Z</time>
      </trkpt>
      <trkpt lat="45.95245" lon="4.86541">
        <ele>268</ele>
        <time>2017-05-03T09:28:30Z</time>
      </trkpt>
      <trkpt lat="45.95241" lon="4.86536">
        <ele>268</ele>
        <time>2017-05-03T09:28:31Z</time>
      </trkpt>
      <trkpt lat="45.95237" lon="4.86531">
        <ele>268</ele>
        <time>2017-05-03T09:28:32Z</time>
      </trkpt>
      <trkpt lat="45.95233" lon="4.86525">
        <ele>268</ele>
        <time>2017-05-03T09:28:33Z</time>
      </trkpt>
      <trkpt lat="45.95229" lon="4.8652">
        <ele>268</ele>
        <time>2017-05-03T09:28:34Z</time>
      </trkpt>
      <trkpt lat="45.95226" lon="4.86515">
        <ele>268</ele>
        <time>2017-05-03T09:28:35Z</time>
      </trkpt>
      <trkpt lat="45.95222" lon="4.8651">
        <ele>268</ele>
        <time>2017-05-03T09:28:36Z</time>
      </trkpt>
      <trkpt lat="45.95217" lon="4.86505">
        <ele>268</ele>
        <time>2017-05-03T09:28:37Z</time>
      </trkpt>
      <trkpt lat="45.95214" lon="4.86501">
        <ele>268</ele>
        <time>2017-05-03T09:28:38Z</time>
      </trkpt>
      <trkpt lat="45.95209" lon="4.86496">
        <ele>268</ele>
        <time>2017-05-03T09:28:39Z</time>
      </trkpt>
      <trkpt lat="45.95205" lon="4.86492">
        <ele>268</ele>
        <time>2017-05-03T09:28:40Z</time>
      </trkpt>
      <trkpt lat="45.95201" lon="4.86487">
        <ele>268</ele>
        <time>2017-05-03T09:28:41Z</time>
      </trkpt>
      <trkpt lat="45.95198" lon="4.86482">
        <ele>268</ele>
        <time>2017-05-03T09:28:42Z</time>
      </trkpt>
      <trkpt lat="45.95194" lon="4.86477">
        <ele>268</ele>
        <time>2017-05-03T09:28:43Z</time>
      </trkpt>
      <trkpt lat="45.9519" lon="4.86472">
        <ele>268</ele>
        <time>2017-05-03T09:28:44Z</time>
      </trkpt>
      <trkpt lat="45.95186" lon="4.86468">
        <ele>268</ele>
        <time>2017-05-03T09:28:45Z</time>
      </trkpt>
      <trkpt lat="45.95183" lon="4.86463">
        <ele>268</ele>
        <time>2017-05-03T09:28:46Z</time>
      </trkpt>
      <trkpt lat="45.95179" lon="4.86458">
        <ele>268</ele>
        <time>2017-05-03T09:28:47Z</time>
      </trkpt>
      <trkpt lat="45.95175" lon="4.86454">
        <ele>268</ele>
        <time>2017-05-03T09:28:48Z</time>
      </trkpt>
      <trkpt lat="45.95171" lon="4.8645">
        <ele>268</ele>
        <time>2017-05-03T09:28:49Z</time>
      </trkpt>
      <trkpt lat="45.95164" lon="4.86442">
        <ele>268</ele>
        <time>2017-05-03T09:28:51Z</time>
      </trkpt>
      <trkpt lat="45.95161" lon="4.86438">
        <ele>268</ele>
        <time>2017-05-03T09:28:52Z</time>
      </trkpt>
      <trkpt lat="45.95157" lon="4.86433">
        <ele>268</ele>
        <time>2017-05-03T09:28:53Z</time>
      </trkpt>
      <trkpt lat="45.95153" lon="4.86429">
        <ele>268</ele>
        <time>2017-05-03T09:28:54Z</time>
      </trkpt>
      <trkpt lat="45.95149" lon="4.86424">
        <ele>268</ele>
        <time>2017-05-03T09:28:55Z</time>
      </trkpt>
      <trkpt lat="45.95145" lon="4.8642">
        <ele>268</ele>
        <time>2017-05-03T09:28:56Z</time>
      </trkpt>
      <trkpt lat="45.95141" lon="4.86415">
        <ele>268</ele>
        <time>2017-05-03T09:28:57Z</time>
      </trkpt>
      <trkpt lat="45.95137" lon="4.86411">
        <ele>268</ele>
        <time>2017-05-03T09:28:58Z</time>
      </trkpt>
      <trkpt lat="45.95133" lon="4.86406">
        <ele>268</ele>
        <time>2017-05-03T09:28:59Z</time>
      </trkpt>
      <trkpt lat="45.95129" lon="4.86401">
        <ele>268</ele>
        <time>2017-05-03T09:29:00Z</time>
      </trkpt>
      <trkpt lat="45.95125" lon="4.86396">
        <ele>268</ele>
        <time>2017-05-03T09:29:01Z</time>
      </trkpt>
      <trkpt lat="45.95122" lon="4.86391">
        <ele>269</ele>
        <time>2017-05-03T09:29:02Z</time>
      </trkpt>
      <trkpt lat="45.95118" lon="4.86387">
        <ele>269</ele>
        <time>2017-05-03T09:29:03Z</time>
      </trkpt>
      <trkpt lat="45.95115" lon="4.86383">
        <ele>269</ele>
        <time>2017-05-03T09:29:04Z</time>
      </trkpt>
      <trkpt lat="45.95108" lon="4.86374">
        <ele>269</ele>
        <time>2017-05-03T09:29:06Z</time>
      </trkpt>
      <trkpt lat="45.95105" lon="4.86369">
        <ele>269</ele>
        <time>2017-05-03T09:29:07Z</time>
      </trkpt>
      <trkpt lat="45.95101" lon="4.86365">
        <ele>269</ele>
        <time>2017-05-03T09:29:08Z</time>
      </trkpt>
      <trkpt lat="45.95097" lon="4.86359">
        <ele>269</ele>
        <time>2017-05-03T09:29:09Z</time>
      </trkpt>
      <trkpt lat="45.95093" lon="4.86355">
        <ele>269</ele>
        <time>2017-05-03T09:29:10Z</time>
      </trkpt>
      <trkpt lat="45.95089" lon="4.86349">
        <ele>269</ele>
        <time>2017-05-03T09:29:11Z</time>
      </trkpt>
      <trkpt lat="45.95085" lon="4.86344">
        <ele>269</ele>
        <time>2017-05-03T09:29:12Z</time>
      </trkpt>
      <trkpt lat="45.95081" lon="4.86339">
        <ele>270</ele>
        <time>2017-05-03T09:29:13Z</time>
      </trkpt>
      <trkpt lat="45.95077" lon="4.86334">
        <ele>270</ele>
        <time>2017-05-03T09:29:14Z</time>
      </trkpt>
      <trkpt lat="45.95073" lon="4.8633">
        <ele>270</ele>
        <time>2017-05-03T09:29:15Z</time>
      </trkpt>
      <trkpt lat="45.9507" lon="4.86325">
        <ele>270</ele>
        <time>2017-05-03T09:29:16Z</time>
      </trkpt>
      <trkpt lat="45.95066" lon="4.86321">
        <ele>270</ele>
        <time>2017-05-03T09:29:17Z</time>
      </trkpt>
      <trkpt lat="45.95062" lon="4.86316">
        <ele>270</ele>
        <time>2017-05-03T09:29:18Z</time>
      </trkpt>
      <trkpt lat="45.95059" lon="4.86312">
        <ele>271</ele>
        <time>2017-05-03T09:29:19Z</time>
      </trkpt>
      <trkpt lat="45.95056" lon="4.86308">
        <ele>271</ele>
        <time>2017-05-03T09:29:20Z</time>
      </trkpt>
      <trkpt lat="45.95052" lon="4.86304">
        <ele>271</ele>
        <time>2017-05-03T09:29:21Z</time>
      </trkpt>
      <trkpt lat="45.95048" lon="4.863">
        <ele>271</ele>
        <time>2017-05-03T09:29:22Z</time>
      </trkpt>
      <trkpt lat="45.95045" lon="4.86295">
        <ele>271</ele>
        <time>2017-05-03T09:29:23Z</time>
      </trkpt>
      <trkpt lat="45.95041" lon="4.86291">
        <ele>271</ele>
        <time>2017-05-03T09:29:24Z</time>
      </trkpt>
      <trkpt lat="45.95037" lon="4.86286">
        <ele>271</ele>
        <time>2017-05-03T09:29:25Z</time>
      </trkpt>
      <trkpt lat="45.95033" lon="4.86281">
        <ele>271</ele>
        <time>2017-05-03T09:29:26Z</time>
      </trkpt>
      <trkpt lat="45.95029" lon="4.86276">
        <ele>271</ele>
        <time>2017-05-03T09:29:27Z</time>
      </trkpt>
      <trkpt lat="45.95026" lon="4.86272">
        <ele>271</ele>
        <time>2017-05-03T09:29:28Z</time>
      </trkpt>
      <trkpt lat="45.95022" lon="4.86267">
        <ele>271</ele>
        <time>2017-05-03T09:29:29Z</time>
      </trkpt>
      <trkpt lat="45.95018" lon="4.86263">
        <ele>271</ele>
        <time>2017-05-03T09:29:30Z</time>
      </trkpt>
      <trkpt lat="45.95015" lon="4.86258">
        <ele>272</ele>
        <time>2017-05-03T09:29:31Z</time>
      </trkpt>
      <trkpt lat="45.95011" lon="4.86254">
        <ele>272</ele>
        <time>2017-05-03T09:29:32Z</time>
      </trkpt>
      <trkpt lat="45.95008" lon="4.86249">
        <ele>272</ele>
        <time>2017-05-03T09:29:33Z</time>
      </trkpt>
      <trkpt lat="45.95001" lon="4.86241">
        <ele>272</ele>
        <time>2017-05-03T09:29:35Z</time>
      </trkpt>
      <trkpt lat="45.94998" lon="4.86237">
        <ele>272</ele>
        <time>2017-05-03T09:29:36Z</time>
      </trkpt>
      <trkpt lat="45.94991" lon="4.8623">
        <ele>272</ele>
        <time>2017-05-03T09:29:38Z</time>
      </trkpt>
      <trkpt lat="45.94988" lon="4.86226">
        <ele>272</ele>
        <time>2017-05-03T09:29:39Z</time>
      </trkpt>
      <trkpt lat="45.94982" lon="4.86218">
        <ele>272</ele>
        <time>2017-05-03T09:29:41Z</time>
      </trkpt>
      <trkpt lat="45.94979" lon="4.86214">
        <ele>272</ele>
        <time>2017-05-03T09:29:42Z</time>
      </trkpt>
      <trkpt lat="45.94975" lon="4.86209">
        <ele>272</ele>
        <time>2017-05-03T09:29:43Z</time>
      </trkpt>
      <trkpt lat="45.94972" lon="4.86205">
        <ele>272</ele>
        <time>2017-05-03T09:29:44Z</time>
      </trkpt>
      <trkpt lat="45.94965" lon="4.86197">
        <ele>272</ele>
        <time>2017-05-03T09:29:46Z</time>
      </trkpt>
      <trkpt lat="45.94961" lon="4.86193">
        <ele>272</ele>
        <time>2017-05-03T09:29:47Z</time>
      </trkpt>
      <trkpt lat="45.94958" lon="4.86188">
        <ele>273</ele>
        <time>2017-05-03T09:29:48Z</time>
      </trkpt>
      <trkpt lat="45.94954" lon="4.86183">
        <ele>273</ele>
        <time>2017-05-03T09:29:49Z</time>
      </trkpt>
      <trkpt lat="45.94947" lon="4.86176">
        <ele>273</ele>
        <time>2017-05-03T09:29:51Z</time>
      </trkpt>
      <trkpt lat="45.94944" lon="4.86172">
        <ele>273</ele>
        <time>2017-05-03T09:29:52Z</time>
      </trkpt>
      <trkpt lat="45.94937" lon="4.86163">
        <ele>273</ele>
        <time>2017-05-03T09:29:54Z</time>
      </trkpt>
      <trkpt lat="45.94934" lon="4.86159">
        <ele>273</ele>
        <time>2017-05-03T09:29:55Z</time>
      </trkpt>
      <trkpt lat="45.94928" lon="4.86149">
        <ele>273</ele>
        <time>2017-05-03T09:29:57Z</time>
      </trkpt>
      <trkpt lat="45.94925" lon="4.86145">
        <ele>273</ele>
        <time>2017-05-03T09:29:58Z</time>
      </trkpt>
      <trkpt lat="45.94919" lon="4.86135">
        <ele>273</ele>
        <time>2017-05-03T09:30:00Z</time>
      </trkpt>
      <trkpt lat="45.94917" lon="4.8613">
        <ele>274</ele>
        <time>2017-05-03T09:30:01Z</time>
      </trkpt>
      <trkpt lat="45.94912" lon="4.8612">
        <ele>274</ele>
        <time>2017-05-03T09:30:03Z</time>
      </trkpt>
      <trkpt lat="45.94909" lon="4.86116">
        <ele>274</ele>
        <time>2017-05-03T09:30:04Z</time>
      </trkpt>
      <trkpt lat="45.94904" lon="4.86105">
        <ele>274</ele>
        <time>2017-05-03T09:30:06Z</time>
      </trkpt>
      <trkpt lat="45.94901" lon="4.861">
        <ele>274</ele>
        <time>2017-05-03T09:30:07Z</time>
      </trkpt>
      <trkpt lat="45.94897" lon="4.86088">
        <ele>274</ele>
        <time>2017-05-03T09:30:09Z</time>
      </trkpt>
      <trkpt lat="45.94896" lon="4.86082">
        <ele>274</ele>
        <time>2017-05-03T09:30:10Z</time>
      </trkpt>
      <trkpt lat="45.94892" lon="4.86071">
        <ele>274</ele>
        <time>2017-05-03T09:30:12Z</time>
      </trkpt>
      <trkpt lat="45.9489" lon="4.86065">
        <ele>274</ele>
        <time>2017-05-03T09:30:13Z</time>
      </trkpt>
      <trkpt lat="45.94887" lon="4.86054">
        <ele>274</ele>
        <time>2017-05-03T09:30:15Z</time>
      </trkpt>
      <trkpt lat="45.94885" lon="4.86049">
        <ele>274</ele>
        <time>2017-05-03T09:30:16Z</time>
      </trkpt>
      <trkpt lat="45.94883" lon="4.86037">
        <ele>274</ele>
        <time>2017-05-03T09:30:18Z</time>
      </trkpt>
      <trkpt lat="45.94881" lon="4.86031">
        <ele>274</ele>
        <time>2017-05-03T09:30:19Z</time>
      </trkpt>
      <trkpt lat="45.94878" lon="4.86019">
        <ele>274</ele>
        <time>2017-05-03T09:30:21Z</time>
      </trkpt>
      <trkpt lat="45.94876" lon="4.86013">
        <ele>274</ele>
        <time>2017-05-03T09:30:22Z</time>
      </trkpt>
      <trkpt lat="45.94874" lon="4.86007">
        <ele>274</ele>
        <time>2017-05-03T09:30:23Z</time>
      </trkpt>
      <trkpt lat="45.94873" lon="4.86">
        <ele>274</ele>
        <time>2017-05-03T09:30:24Z</time>
      </trkpt>
      <trkpt lat="45.94871" lon="4.85993">
        <ele>275</ele>
        <time>2017-05-03T09:30:25Z</time>
      </trkpt>
      <trkpt lat="45.94869" lon="4.85986">
        <ele>275</ele>
        <time>2017-05-03T09:30:26Z</time>
      </trkpt>
      <trkpt lat="45.94867" lon="4.85979">
        <ele>275</ele>
        <time>2017-05-03T09:30:27Z</time>
      </trkpt>
      <trkpt lat="45.94865" lon="4.85972">
        <ele>275</ele>
        <time>2017-05-03T09:30:28Z</time>
      </trkpt>
      <trkpt lat="45.94863" lon="4.85964">
        <ele>275</ele>
        <time>2017-05-03T09:30:29Z</time>
      </trkpt>
      <trkpt lat="45.94862" lon="4.85956">
        <ele>275</ele>
        <time>2017-05-03T09:30:30Z</time>
      </trkpt>
      <trkpt lat="45.94859" lon="4.85949">
        <ele>275</ele>
        <time>2017-05-03T09:30:31Z</time>
      </trkpt>
      <trkpt lat="45.94857" lon="4.85942">
        <ele>275</ele>
        <time>2017-05-03T09:30:32Z</time>
      </trkpt>
      <trkpt lat="45.94856" lon="4.85935">
        <ele>275</ele>
        <time>2017-05-03T09:30:33Z</time>
      </trkpt>
      <trkpt lat="45.94854" lon="4.85929">
        <ele>275</ele>
        <time>2017-05-03T09:30:34Z</time>
      </trkpt>
      <trkpt lat="45.94852" lon="4.85922">
        <ele>275</ele>
        <time>2017-05-03T09:30:35Z</time>
      </trkpt>
      <trkpt lat="45.94851" lon="4.85916">
        <ele>275</ele>
        <time>2017-05-03T09:30:36Z</time>
      </trkpt>
      <trkpt lat="45.94849" lon="4.8591">
        <ele>275</ele>
        <time>2017-05-03T09:30:37Z</time>
      </trkpt>
      <trkpt lat="45.94848" lon="4.85904">
        <ele>276</ele>
        <time>2017-05-03T09:30:38Z</time>
      </trkpt>
      <trkpt lat="45.94845" lon="4.85892">
        <ele>276</ele>
        <time>2017-05-03T09:30:40Z</time>
      </trkpt>
      <trkpt lat="45.94843" lon="4.85886">
        <ele>276</ele>
        <time>2017-05-03T09:30:41Z</time>
      </trkpt>
      <trkpt lat="45.94841" lon="4.85879">
        <ele>276</ele>
        <time>2017-05-03T09:30:42Z</time>
      </trkpt>
      <trkpt lat="45.94839" lon="4.85873">
        <ele>276</ele>
        <time>2017-05-03T09:30:43Z</time>
      </trkpt>
      <trkpt lat="45.94838" lon="4.85866">
        <ele>276</ele>
        <time>2017-05-03T09:30:44Z</time>
      </trkpt>
      <trkpt lat="45.94836" lon="4.85859">
        <ele>276</ele>
        <time>2017-05-03T09:30:45Z</time>
      </trkpt>
      <trkpt lat="45.94835" lon="4.85853">
        <ele>276</ele>
        <time>2017-05-03T09:30:46Z</time>
      </trkpt>
      <trkpt lat="45.94833" lon="4.85846">
        <ele>277</ele>
        <time>2017-05-03T09:30:47Z</time>
      </trkpt>
      <trkpt lat="45.94831" lon="4.85839">
        <ele>277</ele>
        <time>2017-05-03T09:30:48Z</time>
      </trkpt>
      <trkpt lat="45.94829" lon="4.85833">
        <ele>277</ele>
        <time>2017-05-03T09:30:49Z</time>
      </trkpt>
      <trkpt lat="45.94827" lon="4.85826">
        <ele>277</ele>
        <time>2017-05-03T09:30:50Z</time>
      </trkpt>
      <trkpt lat="45.94826" lon="4.8582">
        <ele>278</ele>
        <time>2017-05-03T09:30:51Z</time>
      </trkpt>
      <trkpt lat="45.94824" lon="4.85814">
        <ele>278</ele>
        <time>2017-05-03T09:30:52Z</time>
      </trkpt>
      <trkpt lat="45.94822" lon="4.85808">
        <ele>278</ele>
        <time>2017-05-03T09:30:53Z</time>
      </trkpt>
      <trkpt lat="45.94821" lon="4.85801">
        <ele>278</ele>
        <time>2017-05-03T09:30:54Z</time>
      </trkpt>
      <trkpt lat="45.94819" lon="4.85795">
        <ele>278</ele>
        <time>2017-05-03T09:30:55Z</time>
      </trkpt>
      <trkpt lat="45.94818" lon="4.85789">
        <ele>278</ele>
        <time>2017-05-03T09:30:56Z</time>
      </trkpt>
      <trkpt lat="45.94816" lon="4.85782">
        <ele>278</ele>
        <time>2017-05-03T09:30:57Z</time>
      </trkpt>
      <trkpt lat="45.94814" lon="4.85776">
        <ele>278</ele>
        <time>2017-05-03T09:30:58Z</time>
      </trkpt>
      <trkpt lat="45.94812" lon="4.85769">
        <ele>278</ele>
        <time>2017-05-03T09:30:59Z</time>
      </trkpt>
      <trkpt lat="45.94811" lon="4.85763">
        <ele>278</ele>
        <time>2017-05-03T09:31:00Z</time>
      </trkpt>
      <trkpt lat="45.9481" lon="4.85757">
        <ele>278</ele>
        <time>2017-05-03T09:31:01Z</time>
      </trkpt>
      <trkpt lat="45.94808" lon="4.85751">
        <ele>278</ele>
        <time>2017-05-03T09:31:02Z</time>
      </trkpt>
      <trkpt lat="45.94806" lon="4.85745">
        <ele>279</ele>
        <time>2017-05-03T09:31:03Z</time>
      </trkpt>
      <trkpt lat="45.94805" lon="4.85738">
        <ele>279</ele>
        <time>2017-05-03T09:31:04Z</time>
      </trkpt>
      <trkpt lat="45.94803" lon="4.85732">
        <ele>280</ele>
        <time>2017-05-03T09:31:05Z</time>
      </trkpt>
      <trkpt lat="45.94801" lon="4.85726">
        <ele>280</ele>
        <time>2017-05-03T09:31:06Z</time>
      </trkpt>
      <trkpt lat="45.948" lon="4.85719">
        <ele>280</ele>
        <time>2017-05-03T09:31:07Z</time>
      </trkpt>
      <trkpt lat="45.94798" lon="4.85713">
        <ele>280</ele>
        <time>2017-05-03T09:31:08Z</time>
      </trkpt>
      <trkpt lat="45.94796" lon="4.85707">
        <ele>280</ele>
        <time>2017-05-03T09:31:09Z</time>
      </trkpt>
      <trkpt lat="45.94795" lon="4.857">
        <ele>280</ele>
        <time>2017-05-03T09:31:10Z</time>
      </trkpt>
      <trkpt lat="45.94793" lon="4.85693">
        <ele>280</ele>
        <time>2017-05-03T09:31:11Z</time>
      </trkpt>
      <trkpt lat="45.94791" lon="4.85687">
        <ele>280</ele>
        <time>2017-05-03T09:31:12Z</time>
      </trkpt>
      <trkpt lat="45.94789" lon="4.8568">
        <ele>280</ele>
        <time>2017-05-03T09:31:13Z</time>
      </trkpt>
      <trkpt lat="45.94787" lon="4.85673">
        <ele>280</ele>
        <time>2017-05-03T09:31:14Z</time>
      </trkpt>
      <trkpt lat="45.94785" lon="4.85667">
        <ele>281</ele>
        <time>2017-05-03T09:31:15Z</time>
      </trkpt>
      <trkpt lat="45.94783" lon="4.8566">
        <ele>281</ele>
        <time>2017-05-03T09:31:16Z</time>
      </trkpt>
      <trkpt lat="45.94781" lon="4.85653">
        <ele>281</ele>
        <time>2017-05-03T09:31:17Z</time>
      </trkpt>
      <trkpt lat="45.9478" lon="4.85646">
        <ele>281</ele>
        <time>2017-05-03T09:31:18Z</time>
      </trkpt>
      <trkpt lat="45.94778" lon="4.85639">
        <ele>281</ele>
        <time>2017-05-03T09:31:19Z</time>
      </trkpt>
      <trkpt lat="45.94776" lon="4.85632">
        <ele>280</ele>
        <time>2017-05-03T09:31:20Z</time>
      </trkpt>
      <trkpt lat="45.94774" lon="4.85624">
        <ele>280</ele>
        <time>2017-05-03T09:31:21Z</time>
      </trkpt>
      <trkpt lat="45.94773" lon="4.85617">
        <ele>280</ele>
        <time>2017-05-03T09:31:22Z</time>
      </trkpt>
      <trkpt lat="45.94771" lon="4.85609">
        <ele>280</ele>
        <time>2017-05-03T09:31:23Z</time>
      </trkpt>
      <trkpt lat="45.94769" lon="4.85601">
        <ele>280</ele>
        <time>2017-05-03T09:31:24Z</time>
      </trkpt>
      <trkpt lat="45.94767" lon="4.85593">
        <ele>280</ele>
        <time>2017-05-03T09:31:25Z</time>
      </trkpt>
      <trkpt lat="45.94766" lon="4.85585">
        <ele>280</ele>
        <time>2017-05-03T09:31:26Z</time>
      </trkpt>
      <trkpt lat="45.94764" lon="4.85577">
        <ele>279</ele>
        <time>2017-05-03T09:31:27Z</time>
      </trkpt>
      <trkpt lat="45.94762" lon="4.85568">
        <ele>279</ele>
        <time>2017-05-03T09:31:28Z</time>
      </trkpt>
      <trkpt lat="45.9476" lon="4.85559">
        <ele>278</ele>
        <time>2017-05-03T09:31:29Z</time>
      </trkpt>
      <trkpt lat="45.94759" lon="4.85549">
        <ele>278</ele>
        <time>2017-05-03T09:31:30Z</time>
      </trkpt>
      <trkpt lat="45.94757" lon="4.85539">
        <ele>278</ele>
        <time>2017-05-03T09:31:31Z</time>
      </trkpt>
      <trkpt lat="45.94756" lon="4.85528">
        <ele>278</ele>
        <time>2017-05-03T09:31:32Z</time>
      </trkpt>
      <trkpt lat="45.94754" lon="4.85518">
        <ele>277</ele>
        <time>2017-05-03T09:31:33Z</time>
      </trkpt>
      <trkpt lat="45.94753" lon="4.85507">
        <ele>277</ele>
        <time>2017-05-03T09:31:34Z</time>
      </trkpt>
      <trkpt lat="45.94751" lon="4.85495">
        <ele>276</ele>
        <time>2017-05-03T09:31:35Z</time>
      </trkpt>
      <trkpt lat="45.9475" lon="4.85484">
        <ele>275</ele>
        <time>2017-05-03T09:31:36Z</time>
      </trkpt>
      <trkpt lat="45.94748" lon="4.85472">
        <ele>274</ele>
        <time>2017-05-03T09:31:37Z</time>
      </trkpt>
      <trkpt lat="45.94747" lon="4.85461">
        <ele>274</ele>
        <time>2017-05-03T09:31:38Z</time>
      </trkpt>
      <trkpt lat="45.94746" lon="4.85449">
        <ele>274</ele>
        <time>2017-05-03T09:31:39Z</time>
      </trkpt>
      <trkpt lat="45.94744" lon="4.85437">
        <ele>274</ele>
        <time>2017-05-03T09:31:40Z</time>
      </trkpt>
      <trkpt lat="45.94743" lon="4.85425">
        <ele>273</ele>
        <time>2017-05-03T09:31:41Z</time>
      </trkpt>
      <trkpt lat="45.94741" lon="4.85413">
        <ele>272</ele>
        <time>2017-05-03T09:31:42Z</time>
      </trkpt>
      <trkpt lat="45.9474" lon="4.85402">
        <ele>272</ele>
        <time>2017-05-03T09:31:43Z</time>
      </trkpt>
      <trkpt lat="45.94738" lon="4.85391">
        <ele>272</ele>
        <time>2017-05-03T09:31:44Z</time>
      </trkpt>
      <trkpt lat="45.94737" lon="4.8538">
        <ele>271</ele>
        <time>2017-05-03T09:31:45Z</time>
      </trkpt>
      <trkpt lat="45.94737" lon="4.85369">
        <ele>271</ele>
        <time>2017-05-03T09:31:46Z</time>
      </trkpt>
      <trkpt lat="45.94736" lon="4.85359">
        <ele>271</ele>
        <time>2017-05-03T09:31:47Z</time>
      </trkpt>
      <trkpt lat="45.94735" lon="4.85349">
        <ele>271</ele>
        <time>2017-05-03T09:31:48Z</time>
      </trkpt>
      <trkpt lat="45.94734" lon="4.85339">
        <ele>271</ele>
        <time>2017-05-03T09:31:49Z</time>
      </trkpt>
      <trkpt lat="45.94733" lon="4.85329">
        <ele>270</ele>
        <time>2017-05-03T09:31:50Z</time>
      </trkpt>
      <trkpt lat="45.94732" lon="4.8532">
        <ele>270</ele>
        <time>2017-05-03T09:31:51Z</time>
      </trkpt>
      <trkpt lat="45.94731" lon="4.85311">
        <ele>270</ele>
        <time>2017-05-03T09:31:52Z</time>
      </trkpt>
      <trkpt lat="45.9473" lon="4.85302">
        <ele>270</ele>
        <time>2017-05-03T09:31:53Z</time>
      </trkpt>
      <trkpt lat="45.94729" lon="4.85293">
        <ele>270</ele>
        <time>2017-05-03T09:31:54Z</time>
      </trkpt>
      <trkpt lat="45.94728" lon="4.85284">
        <ele>269</ele>
        <time>2017-05-03T09:31:55Z</time>
      </trkpt>
      <trkpt lat="45.94727" lon="4.85276">
        <ele>269</ele>
        <time>2017-05-03T09:31:56Z</time>
      </trkpt>
      <trkpt lat="45.94726" lon="4.85268">
        <ele>269</ele>
        <time>2017-05-03T09:31:57Z</time>
      </trkpt>
      <trkpt lat="45.94725" lon="4.8526">
        <ele>269</ele>
        <time>2017-05-03T09:31:58Z</time>
      </trkpt>
      <trkpt lat="45.94725" lon="4.85252">
        <ele>269</ele>
        <time>2017-05-03T09:31:59Z</time>
      </trkpt>
      <trkpt lat="45.94724" lon="4.85244">
        <ele>269</ele>
        <time>2017-05-03T09:32:00Z</time>
      </trkpt>
      <trkpt lat="45.94723" lon="4.85236">
        <ele>269</ele>
        <time>2017-05-03T09:32:01Z</time>
      </trkpt>
      <trkpt lat="45.94722" lon="4.85229">
        <ele>269</ele>
        <time>2017-05-03T09:32:02Z</time>
      </trkpt>
      <trkpt lat="45.94722" lon="4.85221">
        <ele>269</ele>
        <time>2017-05-03T09:32:03Z</time>
      </trkpt>
      <trkpt lat="45.94721" lon="4.85213">
        <ele>269</ele>
        <time>2017-05-03T09:32:04Z</time>
      </trkpt>
      <trkpt lat="45.9472" lon="4.85205">
        <ele>269</ele>
        <time>2017-05-03T09:32:05Z</time>
      </trkpt>
      <trkpt lat="45.94719" lon="4.85196">
        <ele>269</ele>
        <time>2017-05-03T09:32:06Z</time>
      </trkpt>
      <trkpt lat="45.94718" lon="4.85187">
        <ele>269</ele>
        <time>2017-05-03T09:32:07Z</time>
      </trkpt>
      <trkpt lat="45.94717" lon="4.85179">
        <ele>269</ele>
        <time>2017-05-03T09:32:08Z</time>
      </trkpt>
      <trkpt lat="45.94716" lon="4.8517">
        <ele>269</ele>
        <time>2017-05-03T09:32:09Z</time>
      </trkpt>
      <trkpt lat="45.94715" lon="4.8516">
        <ele>269</ele>
        <time>2017-05-03T09:32:10Z</time>
      </trkpt>
      <trkpt lat="45.94714" lon="4.85152">
        <ele>269</ele>
        <time>2017-05-03T09:32:11Z</time>
      </trkpt>
      <trkpt lat="45.94714" lon="4.85143">
        <ele>269</ele>
        <time>2017-05-03T09:32:12Z</time>
      </trkpt>
      <trkpt lat="45.94713" lon="4.85135">
        <ele>269</ele>
        <time>2017-05-03T09:32:13Z</time>
      </trkpt>
      <trkpt lat="45.94712" lon="4.85127">
        <ele>269</ele>
        <time>2017-05-03T09:32:14Z</time>
      </trkpt>
      <trkpt lat="45.94711" lon="4.85119">
        <ele>269</ele>
        <time>2017-05-03T09:32:15Z</time>
      </trkpt>
      <trkpt lat="45.9471" lon="4.85111">
        <ele>269</ele>
        <time>2017-05-03T09:32:16Z</time>
      </trkpt>
      <trkpt lat="45.9471" lon="4.85104">
        <ele>269</ele>
        <time>2017-05-03T09:32:17Z</time>
      </trkpt>
      <trkpt lat="45.94709" lon="4.85097">
        <ele>269</ele>
        <time>2017-05-03T09:32:18Z</time>
      </trkpt>
      <trkpt lat="45.94708" lon="4.85089">
        <ele>269</ele>
        <time>2017-05-03T09:32:19Z</time>
      </trkpt>
      <trkpt lat="45.94707" lon="4.85081">
        <ele>269</ele>
        <time>2017-05-03T09:32:20Z</time>
      </trkpt>
      <trkpt lat="45.94706" lon="4.85073">
        <ele>269</ele>
        <time>2017-05-03T09:32:21Z</time>
      </trkpt>
      <trkpt lat="45.94705" lon="4.85064">
        <ele>269</ele>
        <time>2017-05-03T09:32:22Z</time>
      </trkpt>
      <trkpt lat="45.94703" lon="4.85056">
        <ele>269</ele>
        <time>2017-05-03T09:32:23Z</time>
      </trkpt>
      <trkpt lat="45.94703" lon="4.85047">
        <ele>269</ele>
        <time>2017-05-03T09:32:24Z</time>
      </trkpt>
      <trkpt lat="45.94702" lon="4.85037">
        <ele>269</ele>
        <time>2017-05-03T09:32:25Z</time>
      </trkpt>
      <trkpt lat="45.94701" lon="4.85028">
        <ele>269</ele>
        <time>2017-05-03T09:32:26Z</time>
      </trkpt>
      <trkpt lat="45.947" lon="4.85019">
        <ele>269</ele>
        <time>2017-05-03T09:32:27Z</time>
      </trkpt>
      <trkpt lat="45.94699" lon="4.85009">
        <ele>269</ele>
        <time>2017-05-03T09:32:28Z</time>
      </trkpt>
      <trkpt lat="45.94698" lon="4.85">
        <ele>269</ele>
        <time>2017-05-03T09:32:29Z</time>
      </trkpt>
      <trkpt lat="45.94697" lon="4.8499">
        <ele>269</ele>
        <time>2017-05-03T09:32:30Z</time>
      </trkpt>
      <trkpt lat="45.94696" lon="4.84981">
        <ele>269</ele>
        <time>2017-05-03T09:32:31Z</time>
      </trkpt>
      <trkpt lat="45.94695" lon="4.84972">
        <ele>269</ele>
        <time>2017-05-03T09:32:32Z</time>
      </trkpt>
      <trkpt lat="45.94694" lon="4.84963">
        <ele>269</ele>
        <time>2017-05-03T09:32:33Z</time>
      </trkpt>
      <trkpt lat="45.94693" lon="4.84954">
        <ele>269</ele>
        <time>2017-05-03T09:32:34Z</time>
      </trkpt>
      <trkpt lat="45.94692" lon="4.84945">
        <ele>269</ele>
        <time>2017-05-03T09:32:35Z</time>
      </trkpt>
      <trkpt lat="45.94691" lon="4.84937">
        <ele>269</ele>
        <time>2017-05-03T09:32:36Z</time>
      </trkpt>
      <trkpt lat="45.9469" lon="4.84929">
        <ele>269</ele>
        <time>2017-05-03T09:32:37Z</time>
      </trkpt>
      <trkpt lat="45.94689" lon="4.84921">
        <ele>269</ele>
        <time>2017-05-03T09:32:38Z</time>
      </trkpt>
      <trkpt lat="45.94689" lon="4.84913">
        <ele>269</ele>
        <time>2017-05-03T09:32:39Z</time>
      </trkpt>
      <trkpt lat="45.94688" lon="4.84906">
        <ele>269</ele>
        <time>2017-05-03T09:32:40Z</time>
      </trkpt>
      <trkpt lat="45.94687" lon="4.84898">
        <ele>268</ele>
        <time>2017-05-03T09:32:41Z</time>
      </trkpt>
      <trkpt lat="45.94686" lon="4.8489">
        <ele>268</ele>
        <time>2017-05-03T09:32:42Z</time>
      </trkpt>
      <trkpt lat="45.94685" lon="4.84881">
        <ele>268</ele>
        <time>2017-05-03T09:32:43Z</time>
      </trkpt>
      <trkpt lat="45.94684" lon="4.84872">
        <ele>268</ele>
        <time>2017-05-03T09:32:44Z</time>
      </trkpt>
      <trkpt lat="45.94683" lon="4.84862">
        <ele>268</ele>
        <time>2017-05-03T09:32:45Z</time>
      </trkpt>
      <trkpt lat="45.94682" lon="4.84853">
        <ele>268</ele>
        <time>2017-05-03T09:32:46Z</time>
      </trkpt>
      <trkpt lat="45.94681" lon="4.84844">
        <ele>268</ele>
        <time>2017-05-03T09:32:47Z</time>
      </trkpt>
      <trkpt lat="45.9468" lon="4.84834">
        <ele>268</ele>
        <time>2017-05-03T09:32:48Z</time>
      </trkpt>
      <trkpt lat="45.9468" lon="4.84825">
        <ele>268</ele>
        <time>2017-05-03T09:32:49Z</time>
      </trkpt>
      <trkpt lat="45.94679" lon="4.84816">
        <ele>268</ele>
        <time>2017-05-03T09:32:50Z</time>
      </trkpt>
      <trkpt lat="45.94678" lon="4.84807">
        <ele>268</ele>
        <time>2017-05-03T09:32:51Z</time>
      </trkpt>
      <trkpt lat="45.94677" lon="4.84798">
        <ele>268</ele>
        <time>2017-05-03T09:32:52Z</time>
      </trkpt>
      <trkpt lat="45.94677" lon="4.8479">
        <ele>269</ele>
        <time>2017-05-03T09:32:53Z</time>
      </trkpt>
      <trkpt lat="45.94676" lon="4.84781">
        <ele>269</ele>
        <time>2017-05-03T09:32:54Z</time>
      </trkpt>
      <trkpt lat="45.94676" lon="4.84773">
        <ele>269</ele>
        <time>2017-05-03T09:32:55Z</time>
      </trkpt>
      <trkpt lat="45.94675" lon="4.84765">
        <ele>269</ele>
        <time>2017-05-03T09:32:56Z</time>
      </trkpt>
      <trkpt lat="45.94675" lon="4.84757">
        <ele>269</ele>
        <time>2017-05-03T09:32:57Z</time>
      </trkpt>
      <trkpt lat="45.94675" lon="4.84749">
        <ele>269</ele>
        <time>2017-05-03T09:32:58Z</time>
      </trkpt>
      <trkpt lat="45.94674" lon="4.84742">
        <ele>269</ele>
        <time>2017-05-03T09:32:59Z</time>
      </trkpt>
      <trkpt lat="45.94674" lon="4.84734">
        <ele>269</ele>
        <time>2017-05-03T09:33:00Z</time>
      </trkpt>
      <trkpt lat="45.94674" lon="4.84726">
        <ele>269</ele>
        <time>2017-05-03T09:33:01Z</time>
      </trkpt>
      <trkpt lat="45.94673" lon="4.84717">
        <ele>269</ele>
        <time>2017-05-03T09:33:02Z</time>
      </trkpt>
      <trkpt lat="45.94673" lon="4.84709">
        <ele>269</ele>
        <time>2017-05-03T09:33:03Z</time>
      </trkpt>
      <trkpt lat="45.94673" lon="4.847">
        <ele>269</ele>
        <time>2017-05-03T09:33:04Z</time>
      </trkpt>
      <trkpt lat="45.94673" lon="4.84691">
        <ele>269</ele>
        <time>2017-05-03T09:33:05Z</time>
      </trkpt>
      <trkpt lat="45.94672" lon="4.84683">
        <ele>269</ele>
        <time>2017-05-03T09:33:06Z</time>
      </trkpt>
      <trkpt lat="45.94672" lon="4.84674">
        <ele>269</ele>
        <time>2017-05-03T09:33:07Z</time>
      </trkpt>
      <trkpt lat="45.94672" lon="4.84664">
        <ele>269</ele>
        <time>2017-05-03T09:33:08Z</time>
      </trkpt>
      <trkpt lat="45.94671" lon="4.84655">
        <ele>268</ele>
        <time>2017-05-03T09:33:09Z</time>
      </trkpt>
      <trkpt lat="45.94671" lon="4.84645">
        <ele>268</ele>
        <time>2017-05-03T09:33:10Z</time>
      </trkpt>
      <trkpt lat="45.9467" lon="4.84636">
        <ele>268</ele>
        <time>2017-05-03T09:33:11Z</time>
      </trkpt>
      <trkpt lat="45.9467" lon="4.84627">
        <ele>268</ele>
        <time>2017-05-03T09:33:12Z</time>
      </trkpt>
      <trkpt lat="45.94669" lon="4.84617">
        <ele>268</ele>
        <time>2017-05-03T09:33:13Z</time>
      </trkpt>
      <trkpt lat="45.94669" lon="4.84609">
        <ele>268</ele>
        <time>2017-05-03T09:33:14Z</time>
      </trkpt>
      <trkpt lat="45.94669" lon="4.846">
        <ele>268</ele>
        <time>2017-05-03T09:33:15Z</time>
      </trkpt>
      <trkpt lat="45.94668" lon="4.84592">
        <ele>268</ele>
        <time>2017-05-03T09:33:16Z</time>
      </trkpt>
      <trkpt lat="45.94668" lon="4.84585">
        <ele>268</ele>
        <time>2017-05-03T09:33:17Z</time>
      </trkpt>
      <trkpt lat="45.94667" lon="4.84578">
        <ele>268</ele>
        <time>2017-05-03T09:33:18Z</time>
      </trkpt>
      <trkpt lat="45.94667" lon="4.84571">
        <ele>268</ele>
        <time>2017-05-03T09:33:19Z</time>
      </trkpt>
      <trkpt lat="45.94666" lon="4.84564">
        <ele>268</ele>
        <time>2017-05-03T09:33:20Z</time>
      </trkpt>
      <trkpt lat="45.94666" lon="4.84557">
        <ele>268</ele>
        <time>2017-05-03T09:33:21Z</time>
      </trkpt>
      <trkpt lat="45.94665" lon="4.8455">
        <ele>268</ele>
        <time>2017-05-03T09:33:22Z</time>
      </trkpt>
      <trkpt lat="45.94664" lon="4.84542">
        <ele>268</ele>
        <time>2017-05-03T09:33:23Z</time>
      </trkpt>
      <trkpt lat="45.94664" lon="4.84535">
        <ele>268</ele>
        <time>2017-05-03T09:33:24Z</time>
      </trkpt>
      <trkpt lat="45.94663" lon="4.84527">
        <ele>268</ele>
        <time>2017-05-03T09:33:25Z</time>
      </trkpt>
      <trkpt lat="45.94662" lon="4.84519">
        <ele>268</ele>
        <time>2017-05-03T09:33:26Z</time>
      </trkpt>
      <trkpt lat="45.94662" lon="4.84512">
        <ele>268</ele>
        <time>2017-05-03T09:33:27Z</time>
      </trkpt>
      <trkpt lat="45.94661" lon="4.84504">
        <ele>268</ele>
        <time>2017-05-03T09:33:28Z</time>
      </trkpt>
      <trkpt lat="45.9466" lon="4.84496">
        <ele>268</ele>
        <time>2017-05-03T09:33:29Z</time>
      </trkpt>
      <trkpt lat="45.94659" lon="4.84488">
        <ele>268</ele>
        <time>2017-05-03T09:33:30Z</time>
      </trkpt>
      <trkpt lat="45.94659" lon="4.84481">
        <ele>268</ele>
        <time>2017-05-03T09:33:31Z</time>
      </trkpt>
      <trkpt lat="45.94658" lon="4.84473">
        <ele>268</ele>
        <time>2017-05-03T09:33:32Z</time>
      </trkpt>
      <trkpt lat="45.94658" lon="4.84466">
        <ele>268</ele>
        <time>2017-05-03T09:33:33Z</time>
      </trkpt>
      <trkpt lat="45.94657" lon="4.8446">
        <ele>268</ele>
        <time>2017-05-03T09:33:34Z</time>
      </trkpt>
      <trkpt lat="45.94656" lon="4.84453">
        <ele>268</ele>
        <time>2017-05-03T09:33:35Z</time>
      </trkpt>
      <trkpt lat="45.94655" lon="4.84447">
        <ele>268</ele>
        <time>2017-05-03T09:33:36Z</time>
      </trkpt>
      <trkpt lat="45.94654" lon="4.8444">
        <ele>268</ele>
        <time>2017-05-03T09:33:37Z</time>
      </trkpt>
      <trkpt lat="45.94653" lon="4.84432">
        <ele>268</ele>
        <time>2017-05-03T09:33:38Z</time>
      </trkpt>
      <trkpt lat="45.94653" lon="4.84424">
        <ele>268</ele>
        <time>2017-05-03T09:33:39Z</time>
      </trkpt>
      <trkpt lat="45.94652" lon="4.84416">
        <ele>268</ele>
        <time>2017-05-03T09:33:40Z</time>
      </trkpt>
      <trkpt lat="45.94651" lon="4.84408">
        <ele>268</ele>
        <time>2017-05-03T09:33:41Z</time>
      </trkpt>
      <trkpt lat="45.9465" lon="4.84399">
        <ele>268</ele>
        <time>2017-05-03T09:33:42Z</time>
      </trkpt>
      <trkpt lat="45.94649" lon="4.84391">
        <ele>268</ele>
        <time>2017-05-03T09:33:43Z</time>
      </trkpt>
      <trkpt lat="45.94648" lon="4.84383">
        <ele>268</ele>
        <time>2017-05-03T09:33:44Z</time>
      </trkpt>
      <trkpt lat="45.94647" lon="4.84375">
        <ele>268</ele>
        <time>2017-05-03T09:33:45Z</time>
      </trkpt>
      <trkpt lat="45.94646" lon="4.84367">
        <ele>268</ele>
        <time>2017-05-03T09:33:46Z</time>
      </trkpt>
      <trkpt lat="45.94645" lon="4.8436">
        <ele>268</ele>
        <time>2017-05-03T09:33:47Z</time>
      </trkpt>
      <trkpt lat="45.94644" lon="4.84353">
        <ele>268</ele>
        <time>2017-05-03T09:33:48Z</time>
      </trkpt>
      <trkpt lat="45.94643" lon="4.84345">
        <ele>268</ele>
        <time>2017-05-03T09:33:49Z</time>
      </trkpt>
      <trkpt lat="45.94643" lon="4.84338">
        <ele>268</ele>
        <time>2017-05-03T09:33:50Z</time>
      </trkpt>
      <trkpt lat="45.94642" lon="4.84331">
        <ele>268</ele>
        <time>2017-05-03T09:33:51Z</time>
      </trkpt>
      <trkpt lat="45.94641" lon="4.84324">
        <ele>268</ele>
        <time>2017-05-03T09:33:52Z</time>
      </trkpt>
      <trkpt lat="45.9464" lon="4.84317">
        <ele>269</ele>
        <time>2017-05-03T09:33:53Z</time>
      </trkpt>
      <trkpt lat="45.94639" lon="4.8431">
        <ele>269</ele>
        <time>2017-05-03T09:33:54Z</time>
      </trkpt>
      <trkpt lat="45.94638" lon="4.84302">
        <ele>269</ele>
        <time>2017-05-03T09:33:55Z</time>
      </trkpt>
      <trkpt lat="45.94637" lon="4.84294">
        <ele>269</ele>
        <time>2017-05-03T09:33:56Z</time>
      </trkpt>
      <trkpt lat="45.94636" lon="4.84286">
        <ele>269</ele>
        <time>2017-05-03T09:33:57Z</time>
      </trkpt>
      <trkpt lat="45.94634" lon="4.84277">
        <ele>269</ele>
        <time>2017-05-03T09:33:58Z</time>
      </trkpt>
      <trkpt lat="45.94633" lon="4.84268">
        <ele>269</ele>
        <time>2017-05-03T09:33:59Z</time>
      </trkpt>
      <trkpt lat="45.94632" lon="4.84259">
        <ele>269</ele>
        <time>2017-05-03T09:34:00Z</time>
      </trkpt>
      <trkpt lat="45.94631" lon="4.8425">
        <ele>269</ele>
        <time>2017-05-03T09:34:01Z</time>
      </trkpt>
      <trkpt lat="45.94629" lon="4.84242">
        <ele>269</ele>
        <time>2017-05-03T09:34:02Z</time>
      </trkpt>
      <trkpt lat="45.94628" lon="4.84234">
        <ele>269</ele>
        <time>2017-05-03T09:34:03Z</time>
      </trkpt>
      <trkpt lat="45.94627" lon="4.84225">
        <ele>269</ele>
        <time>2017-05-03T09:34:04Z</time>
      </trkpt>
      <trkpt lat="45.94626" lon="4.84218">
        <ele>269</ele>
        <time>2017-05-03T09:34:05Z</time>
      </trkpt>
      <trkpt lat="45.94625" lon="4.8421">
        <ele>269</ele>
        <time>2017-05-03T09:34:06Z</time>
      </trkpt>
      <trkpt lat="45.94624" lon="4.84202">
        <ele>269</ele>
        <time>2017-05-03T09:34:07Z</time>
      </trkpt>
      <trkpt lat="45.94623" lon="4.84195">
        <ele>269</ele>
        <time>2017-05-03T09:34:08Z</time>
      </trkpt>
      <trkpt lat="45.94622" lon="4.84187">
        <ele>269</ele>
        <time>2017-05-03T09:34:09Z</time>
      </trkpt>
      <trkpt lat="45.94621" lon="4.8418">
        <ele>269</ele>
        <time>2017-05-03T09:34:10Z</time>
      </trkpt>
      <trkpt lat="45.9462" lon="4.84172">
        <ele>269</ele>
        <time>2017-05-03T09:34:11Z</time>
      </trkpt>
      <trkpt lat="45.94618" lon="4.84165">
        <ele>269</ele>
        <time>2017-05-03T09:34:12Z</time>
      </trkpt>
      <trkpt lat="45.94617" lon="4.84157">
        <ele>269</ele>
        <time>2017-05-03T09:34:13Z</time>
      </trkpt>
      <trkpt lat="45.94616" lon="4.84149">
        <ele>269</ele>
        <time>2017-05-03T09:34:14Z</time>
      </trkpt>
      <trkpt lat="45.94615" lon="4.84141">
        <ele>269</ele>
        <time>2017-05-03T09:34:15Z</time>
      </trkpt>
      <trkpt lat="45.94613" lon="4.84132">
        <ele>269</ele>
        <time>2017-05-03T09:34:16Z</time>
      </trkpt>
      <trkpt lat="45.94612" lon="4.84124">
        <ele>269</ele>
        <time>2017-05-03T09:34:17Z</time>
      </trkpt>
      <trkpt lat="45.94611" lon="4.84115">
        <ele>269</ele>
        <time>2017-05-03T09:34:18Z</time>
      </trkpt>
      <trkpt lat="45.94609" lon="4.84107">
        <ele>269</ele>
        <time>2017-05-03T09:34:19Z</time>
      </trkpt>
      <trkpt lat="45.94608" lon="4.841">
        <ele>269</ele>
        <time>2017-05-03T09:34:20Z</time>
      </trkpt>
      <trkpt lat="45.94606" lon="4.84092">
        <ele>269</ele>
        <time>2017-05-03T09:34:21Z</time>
      </trkpt>
      <trkpt lat="45.94605" lon="4.84085">
        <ele>269</ele>
        <time>2017-05-03T09:34:22Z</time>
      </trkpt>
      <trkpt lat="45.94604" lon="4.84077">
        <ele>269</ele>
        <time>2017-05-03T09:34:23Z</time>
      </trkpt>
      <trkpt lat="45.94603" lon="4.8407">
        <ele>269</ele>
        <time>2017-05-03T09:34:24Z</time>
      </trkpt>
      <trkpt lat="45.94601" lon="4.84062">
        <ele>269</ele>
        <time>2017-05-03T09:34:25Z</time>
      </trkpt>
      <trkpt lat="45.946" lon="4.84054">
        <ele>269</ele>
        <time>2017-05-03T09:34:26Z</time>
      </trkpt>
      <trkpt lat="45.94599" lon="4.84046">
        <ele>269</ele>
        <time>2017-05-03T09:34:27Z</time>
      </trkpt>
      <trkpt lat="45.94598" lon="4.84038">
        <ele>269</ele>
        <time>2017-05-03T09:34:28Z</time>
      </trkpt>
      <trkpt lat="45.94597" lon="4.84029">
        <ele>269</ele>
        <time>2017-05-03T09:34:29Z</time>
      </trkpt>
      <trkpt lat="45.94596" lon="4.84021">
        <ele>269</ele>
        <time>2017-05-03T09:34:30Z</time>
      </trkpt>
      <trkpt lat="45.94594" lon="4.84012">
        <ele>269</ele>
        <time>2017-05-03T09:34:31Z</time>
      </trkpt>
      <trkpt lat="45.94593" lon="4.84003">
        <ele>269</ele>
        <time>2017-05-03T09:34:32Z</time>
      </trkpt>
      <trkpt lat="45.94592" lon="4.83994">
        <ele>269</ele>
        <time>2017-05-03T09:34:33Z</time>
      </trkpt>
      <trkpt lat="45.9459" lon="4.83985">
        <ele>269</ele>
        <time>2017-05-03T09:34:34Z</time>
      </trkpt>
      <trkpt lat="45.94589" lon="4.83976">
        <ele>268</ele>
        <time>2017-05-03T09:34:35Z</time>
      </trkpt>
      <trkpt lat="45.94587" lon="4.83966">
        <ele>268</ele>
        <time>2017-05-03T09:34:36Z</time>
      </trkpt>
      <trkpt lat="45.94586" lon="4.83957">
        <ele>268</ele>
        <time>2017-05-03T09:34:37Z</time>
      </trkpt>
      <trkpt lat="45.94584" lon="4.83947">
        <ele>268</ele>
        <time>2017-05-03T09:34:38Z</time>
      </trkpt>
      <trkpt lat="45.94583" lon="4.83938">
        <ele>269</ele>
        <time>2017-05-03T09:34:39Z</time>
      </trkpt>
      <trkpt lat="45.94582" lon="4.83928">
        <ele>268</ele>
        <time>2017-05-03T09:34:40Z</time>
      </trkpt>
      <trkpt lat="45.9458" lon="4.83917">
        <ele>268</ele>
        <time>2017-05-03T09:34:41Z</time>
      </trkpt>
      <trkpt lat="45.94578" lon="4.83907">
        <ele>268</ele>
        <time>2017-05-03T09:34:42Z</time>
      </trkpt>
      <trkpt lat="45.94577" lon="4.83897">
        <ele>268</ele>
        <time>2017-05-03T09:34:43Z</time>
      </trkpt>
      <trkpt lat="45.94575" lon="4.83886">
        <ele>267</ele>
        <time>2017-05-03T09:34:44Z</time>
      </trkpt>
      <trkpt lat="45.94573" lon="4.83875">
        <ele>267</ele>
        <time>2017-05-03T09:34:45Z</time>
      </trkpt>
      <trkpt lat="45.94572" lon="4.83863">
        <ele>267</ele>
        <time>2017-05-03T09:34:46Z</time>
      </trkpt>
      <trkpt lat="45.9457" lon="4.83852">
        <ele>266</ele>
        <time>2017-05-03T09:34:47Z</time>
      </trkpt>
      <trkpt lat="45.94568" lon="4.8384">
        <ele>266</ele>
        <time>2017-05-03T09:34:48Z</time>
      </trkpt>
      <trkpt lat="45.94567" lon="4.8383">
        <ele>265</ele>
        <time>2017-05-03T09:34:49Z</time>
      </trkpt>
      <trkpt lat="45.94565" lon="4.83818">
        <ele>264</ele>
        <time>2017-05-03T09:34:50Z</time>
      </trkpt>
      <trkpt lat="45.94564" lon="4.83807">
        <ele>264</ele>
        <time>2017-05-03T09:34:51Z</time>
      </trkpt>
      <trkpt lat="45.94562" lon="4.83796">
        <ele>264</ele>
        <time>2017-05-03T09:34:52Z</time>
      </trkpt>
      <trkpt lat="45.9456" lon="4.83785">
        <ele>264</ele>
        <time>2017-05-03T09:34:53Z</time>
      </trkpt>
      <trkpt lat="45.94558" lon="4.83775">
        <ele>264</ele>
        <time>2017-05-03T09:34:54Z</time>
      </trkpt>
      <trkpt lat="45.94556" lon="4.83765">
        <ele>263</ele>
        <time>2017-05-03T09:34:55Z</time>
      </trkpt>
      <trkpt lat="45.94555" lon="4.83755">
        <ele>263</ele>
        <time>2017-05-03T09:34:56Z</time>
      </trkpt>
      <trkpt lat="45.94553" lon="4.83745">
        <ele>262</ele>
        <time>2017-05-03T09:34:57Z</time>
      </trkpt>
      <trkpt lat="45.94552" lon="4.83735">
        <ele>262</ele>
        <time>2017-05-03T09:34:58Z</time>
      </trkpt>
      <trkpt lat="45.94551" lon="4.83726">
        <ele>262</ele>
        <time>2017-05-03T09:34:59Z</time>
      </trkpt>
      <trkpt lat="45.9455" lon="4.83716">
        <ele>262</ele>
        <time>2017-05-03T09:35:00Z</time>
      </trkpt>
      <trkpt lat="45.94548" lon="4.83707">
        <ele>262</ele>
        <time>2017-05-03T09:35:01Z</time>
      </trkpt>
      <trkpt lat="45.94546" lon="4.83698">
        <ele>262</ele>
        <time>2017-05-03T09:35:02Z</time>
      </trkpt>
      <trkpt lat="45.94545" lon="4.8369">
        <ele>262</ele>
        <time>2017-05-03T09:35:03Z</time>
      </trkpt>
      <trkpt lat="45.94543" lon="4.83681">
        <ele>262</ele>
        <time>2017-05-03T09:35:04Z</time>
      </trkpt>
      <trkpt lat="45.94542" lon="4.83673">
        <ele>262</ele>
        <time>2017-05-03T09:35:05Z</time>
      </trkpt>
      <trkpt lat="45.94541" lon="4.83665">
        <ele>261</ele>
        <time>2017-05-03T09:35:06Z</time>
      </trkpt>
      <trkpt lat="45.9454" lon="4.83657">
        <ele>261</ele>
        <time>2017-05-03T09:35:07Z</time>
      </trkpt>
      <trkpt lat="45.94539" lon="4.83649">
        <ele>261</ele>
        <time>2017-05-03T09:35:08Z</time>
      </trkpt>
      <trkpt lat="45.94537" lon="4.83641">
        <ele>261</ele>
        <time>2017-05-03T09:35:09Z</time>
      </trkpt>
      <trkpt lat="45.94536" lon="4.83634">
        <ele>261</ele>
        <time>2017-05-03T09:35:10Z</time>
      </trkpt>
      <trkpt lat="45.94535" lon="4.83626">
        <ele>261</ele>
        <time>2017-05-03T09:35:11Z</time>
      </trkpt>
      <trkpt lat="45.94533" lon="4.83619">
        <ele>261</ele>
        <time>2017-05-03T09:35:12Z</time>
      </trkpt>
      <trkpt lat="45.94532" lon="4.83612">
        <ele>261</ele>
        <time>2017-05-03T09:35:13Z</time>
      </trkpt>
      <trkpt lat="45.94531" lon="4.83604">
        <ele>261</ele>
        <time>2017-05-03T09:35:14Z</time>
      </trkpt>
      <trkpt lat="45.94529" lon="4.83597">
        <ele>261</ele>
        <time>2017-05-03T09:35:15Z</time>
      </trkpt>
      <trkpt lat="45.94527" lon="4.83589">
        <ele>261</ele>
        <time>2017-05-03T09:35:16Z</time>
      </trkpt>
      <trkpt lat="45.94525" lon="4.83581">
        <ele>261</ele>
        <time>2017-05-03T09:35:17Z</time>
      </trkpt>
      <trkpt lat="45.94522" lon="4.83573">
        <ele>261</ele>
        <time>2017-05-03T09:35:18Z</time>
      </trkpt>
      <trkpt lat="45.94519" lon="4.83565">
        <ele>261</ele>
        <time>2017-05-03T09:35:19Z</time>
      </trkpt>
      <trkpt lat="45.94516" lon="4.83558">
        <ele>261</ele>
        <time>2017-05-03T09:35:20Z</time>
      </trkpt>
      <trkpt lat="45.94512" lon="4.8355">
        <ele>261</ele>
        <time>2017-05-03T09:35:21Z</time>
      </trkpt>
      <trkpt lat="45.94508" lon="4.83543">
        <ele>261</ele>
        <time>2017-05-03T09:35:22Z</time>
      </trkpt>
      <trkpt lat="45.94504" lon="4.83536">
        <ele>262</ele>
        <time>2017-05-03T09:35:23Z</time>
      </trkpt>
      <trkpt lat="45.945" lon="4.83529">
        <ele>262</ele>
        <time>2017-05-03T09:35:24Z</time>
      </trkpt>
      <trkpt lat="45.94496" lon="4.83522">
        <ele>262</ele>
        <time>2017-05-03T09:35:25Z</time>
      </trkpt>
      <trkpt lat="45.94492" lon="4.83516">
        <ele>262</ele>
        <time>2017-05-03T09:35:26Z</time>
      </trkpt>
      <trkpt lat="45.94488" lon="4.83509">
        <ele>262</ele>
        <time>2017-05-03T09:35:27Z</time>
      </trkpt>
      <trkpt lat="45.94484" lon="4.83503">
        <ele>262</ele>
        <time>2017-05-03T09:35:28Z</time>
      </trkpt>
      <trkpt lat="45.9448" lon="4.83497">
        <ele>263</ele>
        <time>2017-05-03T09:35:29Z</time>
      </trkpt>
      <trkpt lat="45.94476" lon="4.83491">
        <ele>263</ele>
        <time>2017-05-03T09:35:30Z</time>
      </trkpt>
      <trkpt lat="45.94472" lon="4.83485">
        <ele>263</ele>
        <time>2017-05-03T09:35:31Z</time>
      </trkpt>
      <trkpt lat="45.94469" lon="4.8348">
        <ele>263</ele>
        <time>2017-05-03T09:35:32Z</time>
      </trkpt>
      <trkpt lat="45.94466" lon="4.83474">
        <ele>263</ele>
        <time>2017-05-03T09:35:33Z</time>
      </trkpt>
      <trkpt lat="45.94462" lon="4.83469">
        <ele>263</ele>
        <time>2017-05-03T09:35:34Z</time>
      </trkpt>
      <trkpt lat="45.94459" lon="4.83463">
        <ele>263</ele>
        <time>2017-05-03T09:35:35Z</time>
      </trkpt>
      <trkpt lat="45.94456" lon="4.83456">
        <ele>263</ele>
        <time>2017-05-03T09:35:36Z</time>
      </trkpt>
      <trkpt lat="45.94453" lon="4.8345">
        <ele>263</ele>
        <time>2017-05-03T09:35:37Z</time>
      </trkpt>
      <trkpt lat="45.94449" lon="4.83444">
        <ele>263</ele>
        <time>2017-05-03T09:35:38Z</time>
      </trkpt>
      <trkpt lat="45.94446" lon="4.83437">
        <ele>263</ele>
        <time>2017-05-03T09:35:39Z</time>
      </trkpt>
      <trkpt lat="45.94442" lon="4.83431">
        <ele>263</ele>
        <time>2017-05-03T09:35:40Z</time>
      </trkpt>
      <trkpt lat="45.94439" lon="4.83424">
        <ele>264</ele>
        <time>2017-05-03T09:35:41Z</time>
      </trkpt>
      <trkpt lat="45.94435" lon="4.83417">
        <ele>264</ele>
        <time>2017-05-03T09:35:42Z</time>
      </trkpt>
      <trkpt lat="45.94432" lon="4.8341">
        <ele>264</ele>
        <time>2017-05-03T09:35:43Z</time>
      </trkpt>
      <trkpt lat="45.94428" lon="4.83402">
        <ele>264</ele>
        <time>2017-05-03T09:35:44Z</time>
      </trkpt>
      <trkpt lat="45.94425" lon="4.83395">
        <ele>264</ele>
        <time>2017-05-03T09:35:45Z</time>
      </trkpt>
      <trkpt lat="45.94421" lon="4.83388">
        <ele>264</ele>
        <time>2017-05-03T09:35:46Z</time>
      </trkpt>
      <trkpt lat="45.94418" lon="4.83381">
        <ele>264</ele>
        <time>2017-05-03T09:35:47Z</time>
      </trkpt>
      <trkpt lat="45.94415" lon="4.83374">
        <ele>264</ele>
        <time>2017-05-03T09:35:48Z</time>
      </trkpt>
      <trkpt lat="45.94412" lon="4.83367">
        <ele>264</ele>
        <time>2017-05-03T09:35:49Z</time>
      </trkpt>
      <trkpt lat="45.94409" lon="4.83361">
        <ele>264</ele>
        <time>2017-05-03T09:35:50Z</time>
      </trkpt>
      <trkpt lat="45.94406" lon="4.83355">
        <ele>263</ele>
        <time>2017-05-03T09:35:51Z</time>
      </trkpt>
      <trkpt lat="45.94404" lon="4.83348">
        <ele>263</ele>
        <time>2017-05-03T09:35:52Z</time>
      </trkpt>
      <trkpt lat="45.94401" lon="4.83342">
        <ele>263</ele>
        <time>2017-05-03T09:35:53Z</time>
      </trkpt>
      <trkpt lat="45.94399" lon="4.83335">
        <ele>263</ele>
        <time>2017-05-03T09:35:54Z</time>
      </trkpt>
      <trkpt lat="45.94397" lon="4.83329">
        <ele>264</ele>
        <time>2017-05-03T09:35:55Z</time>
      </trkpt>
      <trkpt lat="45.94394" lon="4.83322">
        <ele>264</ele>
        <time>2017-05-03T09:35:56Z</time>
      </trkpt>
      <trkpt lat="45.94392" lon="4.83316">
        <ele>264</ele>
        <time>2017-05-03T09:35:57Z</time>
      </trkpt>
      <trkpt lat="45.9439" lon="4.83309">
        <ele>264</ele>
        <time>2017-05-03T09:35:58Z</time>
      </trkpt>
      <trkpt lat="45.94387" lon="4.83302">
        <ele>264</ele>
        <time>2017-05-03T09:35:59Z</time>
      </trkpt>
      <trkpt lat="45.94385" lon="4.83295">
        <ele>264</ele>
        <time>2017-05-03T09:36:00Z</time>
      </trkpt>
      <trkpt lat="45.94382" lon="4.83288">
        <ele>264</ele>
        <time>2017-05-03T09:36:01Z</time>
      </trkpt>
      <trkpt lat="45.9438" lon="4.83281">
        <ele>264</ele>
        <time>2017-05-03T09:36:02Z</time>
      </trkpt>
      <trkpt lat="45.94377" lon="4.83275">
        <ele>264</ele>
        <time>2017-05-03T09:36:03Z</time>
      </trkpt>
      <trkpt lat="45.94375" lon="4.83268">
        <ele>264</ele>
        <time>2017-05-03T09:36:04Z</time>
      </trkpt>
      <trkpt lat="45.94372" lon="4.83261">
        <ele>264</ele>
        <time>2017-05-03T09:36:05Z</time>
      </trkpt>
      <trkpt lat="45.9437" lon="4.83254">
        <ele>265</ele>
        <time>2017-05-03T09:36:06Z</time>
      </trkpt>
      <trkpt lat="45.94367" lon="4.83247">
        <ele>265</ele>
        <time>2017-05-03T09:36:07Z</time>
      </trkpt>
      <trkpt lat="45.94365" lon="4.8324">
        <ele>265</ele>
        <time>2017-05-03T09:36:08Z</time>
      </trkpt>
      <trkpt lat="45.94363" lon="4.83233">
        <ele>266</ele>
        <time>2017-05-03T09:36:09Z</time>
      </trkpt>
      <trkpt lat="45.94361" lon="4.83226">
        <ele>266</ele>
        <time>2017-05-03T09:36:10Z</time>
      </trkpt>
      <trkpt lat="45.94358" lon="4.83218">
        <ele>266</ele>
        <time>2017-05-03T09:36:11Z</time>
      </trkpt>
      <trkpt lat="45.94356" lon="4.83211">
        <ele>266</ele>
        <time>2017-05-03T09:36:12Z</time>
      </trkpt>
      <trkpt lat="45.94353" lon="4.83204">
        <ele>266</ele>
        <time>2017-05-03T09:36:13Z</time>
      </trkpt>
      <trkpt lat="45.94351" lon="4.83197">
        <ele>266</ele>
        <time>2017-05-03T09:36:14Z</time>
      </trkpt>
      <trkpt lat="45.94348" lon="4.83191">
        <ele>266</ele>
        <time>2017-05-03T09:36:15Z</time>
      </trkpt>
      <trkpt lat="45.94346" lon="4.83184">
        <ele>266</ele>
        <time>2017-05-03T09:36:16Z</time>
      </trkpt>
      <trkpt lat="45.94344" lon="4.83178">
        <ele>266</ele>
        <time>2017-05-03T09:36:17Z</time>
      </trkpt>
      <trkpt lat="45.94342" lon="4.83172">
        <ele>266</ele>
        <time>2017-05-03T09:36:18Z</time>
      </trkpt>
      <trkpt lat="45.9434" lon="4.83167">
        <ele>266</ele>
        <time>2017-05-03T09:36:19Z</time>
      </trkpt>
      <trkpt lat="45.94335" lon="4.83156">
        <ele>266</ele>
        <time>2017-05-03T09:36:21Z</time>
      </trkpt>
      <trkpt lat="45.94332" lon="4.83151">
        <ele>266</ele>
        <time>2017-05-03T09:36:22Z</time>
      </trkpt>
      <trkpt lat="45.9433" lon="4.8314">
        <ele>266</ele>
        <time>2017-05-03T09:36:24Z</time>
      </trkpt>
      <trkpt lat="45.94328" lon="4.83134">
        <ele>266</ele>
        <time>2017-05-03T09:36:25Z</time>
      </trkpt>
      <trkpt lat="45.94326" lon="4.83128">
        <ele>266</ele>
        <time>2017-05-03T09:36:26Z</time>
      </trkpt>
      <trkpt lat="45.94324" lon="4.83121">
        <ele>266</ele>
        <time>2017-05-03T09:36:27Z</time>
      </trkpt>
      <trkpt lat="45.94322" lon="4.83115">
        <ele>266</ele>
        <time>2017-05-03T09:36:28Z</time>
      </trkpt>
      <trkpt lat="45.94319" lon="4.83108">
        <ele>266</ele>
        <time>2017-05-03T09:36:29Z</time>
      </trkpt>
      <trkpt lat="45.94317" lon="4.83101">
        <ele>266</ele>
        <time>2017-05-03T09:36:30Z</time>
      </trkpt>
      <trkpt lat="45.94315" lon="4.83094">
        <ele>266</ele>
        <time>2017-05-03T09:36:31Z</time>
      </trkpt>
      <trkpt lat="45.94313" lon="4.83087">
        <ele>266</ele>
        <time>2017-05-03T09:36:32Z</time>
      </trkpt>
      <trkpt lat="45.94311" lon="4.8308">
        <ele>266</ele>
        <time>2017-05-03T09:36:33Z</time>
      </trkpt>
      <trkpt lat="45.94309" lon="4.83073">
        <ele>266</ele>
        <time>2017-05-03T09:36:34Z</time>
      </trkpt>
      <trkpt lat="45.94308" lon="4.83067">
        <ele>266</ele>
        <time>2017-05-03T09:36:35Z</time>
      </trkpt>
      <trkpt lat="45.94305" lon="4.83055">
        <ele>266</ele>
        <time>2017-05-03T09:36:37Z</time>
      </trkpt>
      <trkpt lat="45.94304" lon="4.83048">
        <ele>266</ele>
        <time>2017-05-03T09:36:38Z</time>
      </trkpt>
      <trkpt lat="45.94302" lon="4.83042">
        <ele>266</ele>
        <time>2017-05-03T09:36:39Z</time>
      </trkpt>
      <trkpt lat="45.94301" lon="4.83035">
        <ele>266</ele>
        <time>2017-05-03T09:36:40Z</time>
      </trkpt>
      <trkpt lat="45.943" lon="4.83029">
        <ele>266</ele>
        <time>2017-05-03T09:36:41Z</time>
      </trkpt>
      <trkpt lat="45.94298" lon="4.83022">
        <ele>266</ele>
        <time>2017-05-03T09:36:42Z</time>
      </trkpt>
      <trkpt lat="45.94297" lon="4.83015">
        <ele>266</ele>
        <time>2017-05-03T09:36:43Z</time>
      </trkpt>
      <trkpt lat="45.94296" lon="4.83008">
        <ele>266</ele>
        <time>2017-05-03T09:36:44Z</time>
      </trkpt>
      <trkpt lat="45.94294" lon="4.82995">
        <ele>265</ele>
        <time>2017-05-03T09:36:46Z</time>
      </trkpt>
      <trkpt lat="45.94292" lon="4.8299">
        <ele>265</ele>
        <time>2017-05-03T09:36:47Z</time>
      </trkpt>
      <trkpt lat="45.94289" lon="4.82979">
        <ele>265</ele>
        <time>2017-05-03T09:36:49Z</time>
      </trkpt>
      <trkpt lat="45.94287" lon="4.82974">
        <ele>265</ele>
        <time>2017-05-03T09:36:50Z</time>
      </trkpt>
      <trkpt lat="45.94283" lon="4.82962">
        <ele>265</ele>
        <time>2017-05-03T09:36:52Z</time>
      </trkpt>
      <trkpt lat="45.94282" lon="4.82957">
        <ele>265</ele>
        <time>2017-05-03T09:36:53Z</time>
      </trkpt>
      <trkpt lat="45.94282" lon="4.8295">
        <ele>265</ele>
        <time>2017-05-03T09:36:54Z</time>
      </trkpt>
      <trkpt lat="45.94283" lon="4.82943">
        <ele>265</ele>
        <time>2017-05-03T09:36:55Z</time>
      </trkpt>
      <trkpt lat="45.94284" lon="4.82936">
        <ele>265</ele>
        <time>2017-05-03T09:36:56Z</time>
      </trkpt>
      <trkpt lat="45.94286" lon="4.82929">
        <ele>265</ele>
        <time>2017-05-03T09:36:57Z</time>
      </trkpt>
      <trkpt lat="45.94288" lon="4.82922">
        <ele>265</ele>
        <time>2017-05-03T09:36:58Z</time>
      </trkpt>
      <trkpt lat="45.94289" lon="4.82916">
        <ele>265</ele>
        <time>2017-05-03T09:36:59Z</time>
      </trkpt>
      <trkpt lat="45.9429" lon="4.82909">
        <ele>265</ele>
        <time>2017-05-03T09:37:00Z</time>
      </trkpt>
      <trkpt lat="45.9429" lon="4.82903">
        <ele>265</ele>
        <time>2017-05-03T09:37:01Z</time>
      </trkpt>
      <trkpt lat="45.94291" lon="4.82896">
        <ele>265</ele>
        <time>2017-05-03T09:37:02Z</time>
      </trkpt>
      <trkpt lat="45.94291" lon="4.82888">
        <ele>265</ele>
        <time>2017-05-03T09:37:03Z</time>
      </trkpt>
      <trkpt lat="45.94292" lon="4.82881">
        <ele>265</ele>
        <time>2017-05-03T09:37:04Z</time>
      </trkpt>
      <trkpt lat="45.94292" lon="4.82872">
        <ele>265</ele>
        <time>2017-05-03T09:37:05Z</time>
      </trkpt>
      <trkpt lat="45.94292" lon="4.82864">
        <ele>265</ele>
        <time>2017-05-03T09:37:06Z</time>
      </trkpt>
      <trkpt lat="45.94292" lon="4.82856">
        <ele>265</ele>
        <time>2017-05-03T09:37:07Z</time>
      </trkpt>
      <trkpt lat="45.94293" lon="4.82847">
        <ele>265</ele>
        <time>2017-05-03T09:37:08Z</time>
      </trkpt>
      <trkpt lat="45.94293" lon="4.82839">
        <ele>265</ele>
        <time>2017-05-03T09:37:09Z</time>
      </trkpt>
      <trkpt lat="45.94293" lon="4.82831">
        <ele>265</ele>
        <time>2017-05-03T09:37:10Z</time>
      </trkpt>
      <trkpt lat="45.94293" lon="4.82823">
        <ele>265</ele>
        <time>2017-05-03T09:37:11Z</time>
      </trkpt>
      <trkpt lat="45.94293" lon="4.82815">
        <ele>265</ele>
        <time>2017-05-03T09:37:12Z</time>
      </trkpt>
      <trkpt lat="45.94293" lon="4.82808">
        <ele>265</ele>
        <time>2017-05-03T09:37:13Z</time>
      </trkpt>
      <trkpt lat="45.94293" lon="4.828">
        <ele>265</ele>
        <time>2017-05-03T09:37:14Z</time>
      </trkpt>
      <trkpt lat="45.94293" lon="4.82793">
        <ele>265</ele>
        <time>2017-05-03T09:37:15Z</time>
      </trkpt>
      <trkpt lat="45.94293" lon="4.82786">
        <ele>265</ele>
        <time>2017-05-03T09:37:16Z</time>
      </trkpt>
      <trkpt lat="45.94293" lon="4.82778">
        <ele>265</ele>
        <time>2017-05-03T09:37:17Z</time>
      </trkpt>
      <trkpt lat="45.94293" lon="4.82771">
        <ele>265</ele>
        <time>2017-05-03T09:37:18Z</time>
      </trkpt>
      <trkpt lat="45.94293" lon="4.82764">
        <ele>265</ele>
        <time>2017-05-03T09:37:19Z</time>
      </trkpt>
      <trkpt lat="45.94293" lon="4.82758">
        <ele>265</ele>
        <time>2017-05-03T09:37:20Z</time>
      </trkpt>
      <trkpt lat="45.94294" lon="4.82751">
        <ele>265</ele>
        <time>2017-05-03T09:37:21Z</time>
      </trkpt>
      <trkpt lat="45.94294" lon="4.82744">
        <ele>265</ele>
        <time>2017-05-03T09:37:22Z</time>
      </trkpt>
      <trkpt lat="45.94294" lon="4.82738">
        <ele>265</ele>
        <time>2017-05-03T09:37:23Z</time>
      </trkpt>
      <trkpt lat="45.94294" lon="4.82726">
        <ele>265</ele>
        <time>2017-05-03T09:37:25Z</time>
      </trkpt>
      <trkpt lat="45.94294" lon="4.8272">
        <ele>265</ele>
        <time>2017-05-03T09:37:26Z</time>
      </trkpt>
      <trkpt lat="45.94294" lon="4.82713">
        <ele>265</ele>
        <time>2017-05-03T09:37:27Z</time>
      </trkpt>
      <trkpt lat="45.94294" lon="4.82706">
        <ele>265</ele>
        <time>2017-05-03T09:37:28Z</time>
      </trkpt>
      <trkpt lat="45.94294" lon="4.82699">
        <ele>265</ele>
        <time>2017-05-03T09:37:29Z</time>
      </trkpt>
      <trkpt lat="45.94295" lon="4.82692">
        <ele>265</ele>
        <time>2017-05-03T09:37:30Z</time>
      </trkpt>
      <trkpt lat="45.94294" lon="4.82684">
        <ele>265</ele>
        <time>2017-05-03T09:37:31Z</time>
      </trkpt>
      <trkpt lat="45.94294" lon="4.82677">
        <ele>265</ele>
        <time>2017-05-03T09:37:32Z</time>
      </trkpt>
      <trkpt lat="45.94294" lon="4.82669">
        <ele>265</ele>
        <time>2017-05-03T09:37:33Z</time>
      </trkpt>
      <trkpt lat="45.94295" lon="4.82662">
        <ele>265</ele>
        <time>2017-05-03T09:37:34Z</time>
      </trkpt>
      <trkpt lat="45.94295" lon="4.82655">
        <ele>265</ele>
        <time>2017-05-03T09:37:35Z</time>
      </trkpt>
      <trkpt lat="45.94295" lon="4.82647">
        <ele>265</ele>
        <time>2017-05-03T09:37:36Z</time>
      </trkpt>
      <trkpt lat="45.94295" lon="4.82639">
        <ele>265</ele>
        <time>2017-05-03T09:37:37Z</time>
      </trkpt>
      <trkpt lat="45.94295" lon="4.8263">
        <ele>265</ele>
        <time>2017-05-03T09:37:38Z</time>
      </trkpt>
      <trkpt lat="45.94295" lon="4.82621">
        <ele>265</ele>
        <time>2017-05-03T09:37:39Z</time>
      </trkpt>
      <trkpt lat="45.94296" lon="4.82612">
        <ele>265</ele>
        <time>2017-05-03T09:37:40Z</time>
      </trkpt>
      <trkpt lat="45.94296" lon="4.82603">
        <ele>265</ele>
        <time>2017-05-03T09:37:41Z</time>
      </trkpt>
      <trkpt lat="45.94296" lon="4.82594">
        <ele>265</ele>
        <time>2017-05-03T09:37:42Z</time>
      </trkpt>
      <trkpt lat="45.94296" lon="4.82586">
        <ele>265</ele>
        <time>2017-05-03T09:37:43Z</time>
      </trkpt>
      <trkpt lat="45.94296" lon="4.82577">
        <ele>264</ele>
        <time>2017-05-03T09:37:44Z</time>
      </trkpt>
      <trkpt lat="45.94296" lon="4.82568">
        <ele>264</ele>
        <time>2017-05-03T09:37:45Z</time>
      </trkpt>
      <trkpt lat="45.94297" lon="4.8256">
        <ele>264</ele>
        <time>2017-05-03T09:37:46Z</time>
      </trkpt>
      <trkpt lat="45.94297" lon="4.82551">
        <ele>264</ele>
        <time>2017-05-03T09:37:47Z</time>
      </trkpt>
      <trkpt lat="45.94297" lon="4.82543">
        <ele>264</ele>
        <time>2017-05-03T09:37:48Z</time>
      </trkpt>
      <trkpt lat="45.94297" lon="4.82536">
        <ele>264</ele>
        <time>2017-05-03T09:37:49Z</time>
      </trkpt>
      <trkpt lat="45.94296" lon="4.82528">
        <ele>264</ele>
        <time>2017-05-03T09:37:50Z</time>
      </trkpt>
      <trkpt lat="45.94296" lon="4.82519">
        <ele>264</ele>
        <time>2017-05-03T09:37:51Z</time>
      </trkpt>
      <trkpt lat="45.94296" lon="4.82511">
        <ele>264</ele>
        <time>2017-05-03T09:37:52Z</time>
      </trkpt>
      <trkpt lat="45.94296" lon="4.82502">
        <ele>264</ele>
        <time>2017-05-03T09:37:53Z</time>
      </trkpt>
      <trkpt lat="45.94296" lon="4.82493">
        <ele>264</ele>
        <time>2017-05-03T09:37:54Z</time>
      </trkpt>
      <trkpt lat="45.94296" lon="4.82484">
        <ele>264</ele>
        <time>2017-05-03T09:37:55Z</time>
      </trkpt>
      <trkpt lat="45.94295" lon="4.82475">
        <ele>264</ele>
        <time>2017-05-03T09:37:56Z</time>
      </trkpt>
      <trkpt lat="45.94294" lon="4.82465">
        <ele>264</ele>
        <time>2017-05-03T09:37:57Z</time>
      </trkpt>
      <trkpt lat="45.94294" lon="4.82456">
        <ele>264</ele>
        <time>2017-05-03T09:37:58Z</time>
      </trkpt>
      <trkpt lat="45.94294" lon="4.82447">
        <ele>264</ele>
        <time>2017-05-03T09:37:59Z</time>
      </trkpt>
      <trkpt lat="45.94293" lon="4.82437">
        <ele>264</ele>
        <time>2017-05-03T09:38:00Z</time>
      </trkpt>
      <trkpt lat="45.94293" lon="4.82427">
        <ele>264</ele>
        <time>2017-05-03T09:38:01Z</time>
      </trkpt>
      <trkpt lat="45.94292" lon="4.82417">
        <ele>264</ele>
        <time>2017-05-03T09:38:02Z</time>
      </trkpt>
      <trkpt lat="45.94292" lon="4.82406">
        <ele>264</ele>
        <time>2017-05-03T09:38:03Z</time>
      </trkpt>
      <trkpt lat="45.94291" lon="4.82396">
        <ele>264</ele>
        <time>2017-05-03T09:38:04Z</time>
      </trkpt>
      <trkpt lat="45.94291" lon="4.82385">
        <ele>264</ele>
        <time>2017-05-03T09:38:05Z</time>
      </trkpt>
      <trkpt lat="45.9429" lon="4.82374">
        <ele>264</ele>
        <time>2017-05-03T09:38:06Z</time>
      </trkpt>
      <trkpt lat="45.94289" lon="4.82363">
        <ele>264</ele>
        <time>2017-05-03T09:38:07Z</time>
      </trkpt>
      <trkpt lat="45.94289" lon="4.82353">
        <ele>264</ele>
        <time>2017-05-03T09:38:08Z</time>
      </trkpt>
      <trkpt lat="45.94289" lon="4.82342">
        <ele>264</ele>
        <time>2017-05-03T09:38:09Z</time>
      </trkpt>
      <trkpt lat="45.94288" lon="4.82332">
        <ele>265</ele>
        <time>2017-05-03T09:38:10Z</time>
      </trkpt>
      <trkpt lat="45.94288" lon="4.82322">
        <ele>265</ele>
        <time>2017-05-03T09:38:11Z</time>
      </trkpt>
      <trkpt lat="45.94287" lon="4.82312">
        <ele>265</ele>
        <time>2017-05-03T09:38:12Z</time>
      </trkpt>
      <trkpt lat="45.94286" lon="4.82302">
        <ele>265</ele>
        <time>2017-05-03T09:38:13Z</time>
      </trkpt>
      <trkpt lat="45.94285" lon="4.82292">
        <ele>265</ele>
        <time>2017-05-03T09:38:14Z</time>
      </trkpt>
      <trkpt lat="45.94285" lon="4.82283">
        <ele>265</ele>
        <time>2017-05-03T09:38:15Z</time>
      </trkpt>
      <trkpt lat="45.94285" lon="4.82274">
        <ele>265</ele>
        <time>2017-05-03T09:38:16Z</time>
      </trkpt>
      <trkpt lat="45.94285" lon="4.82265">
        <ele>265</ele>
        <time>2017-05-03T09:38:17Z</time>
      </trkpt>
      <trkpt lat="45.94284" lon="4.82255">
        <ele>265</ele>
        <time>2017-05-03T09:38:18Z</time>
      </trkpt>
      <trkpt lat="45.94284" lon="4.82245">
        <ele>264</ele>
        <time>2017-05-03T09:38:19Z</time>
      </trkpt>
      <trkpt lat="45.94283" lon="4.82235">
        <ele>264</ele>
        <time>2017-05-03T09:38:20Z</time>
      </trkpt>
      <trkpt lat="45.94283" lon="4.82225">
        <ele>264</ele>
        <time>2017-05-03T09:38:21Z</time>
      </trkpt>
      <trkpt lat="45.94282" lon="4.82214">
        <ele>264</ele>
        <time>2017-05-03T09:38:22Z</time>
      </trkpt>
      <trkpt lat="45.94281" lon="4.82204">
        <ele>264</ele>
        <time>2017-05-03T09:38:23Z</time>
      </trkpt>
      <trkpt lat="45.9428" lon="4.82193">
        <ele>264</ele>
        <time>2017-05-03T09:38:24Z</time>
      </trkpt>
      <trkpt lat="45.94278" lon="4.82183">
        <ele>264</ele>
        <time>2017-05-03T09:38:25Z</time>
      </trkpt>
      <trkpt lat="45.94276" lon="4.82172">
        <ele>264</ele>
        <time>2017-05-03T09:38:26Z</time>
      </trkpt>
      <trkpt lat="45.94274" lon="4.82163">
        <ele>263</ele>
        <time>2017-05-03T09:38:27Z</time>
      </trkpt>
      <trkpt lat="45.94273" lon="4.82153">
        <ele>263</ele>
        <time>2017-05-03T09:38:28Z</time>
      </trkpt>
      <trkpt lat="45.94271" lon="4.82144">
        <ele>263</ele>
        <time>2017-05-03T09:38:29Z</time>
      </trkpt>
      <trkpt lat="45.94269" lon="4.82135">
        <ele>263</ele>
        <time>2017-05-03T09:38:30Z</time>
      </trkpt>
      <trkpt lat="45.94267" lon="4.82127">
        <ele>263</ele>
        <time>2017-05-03T09:38:31Z</time>
      </trkpt>
      <trkpt lat="45.94266" lon="4.82119">
        <ele>263</ele>
        <time>2017-05-03T09:38:32Z</time>
      </trkpt>
      <trkpt lat="45.94264" lon="4.82111">
        <ele>263</ele>
        <time>2017-05-03T09:38:33Z</time>
      </trkpt>
      <trkpt lat="45.94262" lon="4.82103">
        <ele>262</ele>
        <time>2017-05-03T09:38:34Z</time>
      </trkpt>
      <trkpt lat="45.9426" lon="4.82096">
        <ele>262</ele>
        <time>2017-05-03T09:38:35Z</time>
      </trkpt>
      <trkpt lat="45.94259" lon="4.82088">
        <ele>262</ele>
        <time>2017-05-03T09:38:36Z</time>
      </trkpt>
      <trkpt lat="45.94257" lon="4.82081">
        <ele>262</ele>
        <time>2017-05-03T09:38:37Z</time>
      </trkpt>
      <trkpt lat="45.94255" lon="4.82073">
        <ele>262</ele>
        <time>2017-05-03T09:38:38Z</time>
      </trkpt>
      <trkpt lat="45.94254" lon="4.82064">
        <ele>262</ele>
        <time>2017-05-03T09:38:39Z</time>
      </trkpt>
      <trkpt lat="45.94252" lon="4.82056">
        <ele>262</ele>
        <time>2017-05-03T09:38:40Z</time>
      </trkpt>
      <trkpt lat="45.9425" lon="4.82048">
        <ele>263</ele>
        <time>2017-05-03T09:38:41Z</time>
      </trkpt>
      <trkpt lat="45.94248" lon="4.82039">
        <ele>263</ele>
        <time>2017-05-03T09:38:42Z</time>
      </trkpt>
      <trkpt lat="45.94246" lon="4.82031">
        <ele>263</ele>
        <time>2017-05-03T09:38:43Z</time>
      </trkpt>
      <trkpt lat="45.94244" lon="4.82023">
        <ele>263</ele>
        <time>2017-05-03T09:38:44Z</time>
      </trkpt>
      <trkpt lat="45.94242" lon="4.82015">
        <ele>263</ele>
        <time>2017-05-03T09:38:45Z</time>
      </trkpt>
      <trkpt lat="45.94241" lon="4.82007">
        <ele>263</ele>
        <time>2017-05-03T09:38:46Z</time>
      </trkpt>
      <trkpt lat="45.9424" lon="4.81999">
        <ele>263</ele>
        <time>2017-05-03T09:38:47Z</time>
      </trkpt>
      <trkpt lat="45.94238" lon="4.81991">
        <ele>263</ele>
        <time>2017-05-03T09:38:48Z</time>
      </trkpt>
      <trkpt lat="45.94236" lon="4.81982">
        <ele>263</ele>
        <time>2017-05-03T09:38:49Z</time>
      </trkpt>
      <trkpt lat="45.94234" lon="4.81974">
        <ele>264</ele>
        <time>2017-05-03T09:38:50Z</time>
      </trkpt>
      <trkpt lat="45.94232" lon="4.81966">
        <ele>264</ele>
        <time>2017-05-03T09:38:51Z</time>
      </trkpt>
      <trkpt lat="45.9423" lon="4.81958">
        <ele>264</ele>
        <time>2017-05-03T09:38:52Z</time>
      </trkpt>
      <trkpt lat="45.94228" lon="4.81949">
        <ele>264</ele>
        <time>2017-05-03T09:38:53Z</time>
      </trkpt>
      <trkpt lat="45.94226" lon="4.8194">
        <ele>264</ele>
        <time>2017-05-03T09:38:54Z</time>
      </trkpt>
      <trkpt lat="45.94224" lon="4.81932">
        <ele>264</ele>
        <time>2017-05-03T09:38:55Z</time>
      </trkpt>
      <trkpt lat="45.94223" lon="4.81923">
        <ele>264</ele>
        <time>2017-05-03T09:38:56Z</time>
      </trkpt>
      <trkpt lat="45.94221" lon="4.81914">
        <ele>264</ele>
        <time>2017-05-03T09:38:57Z</time>
      </trkpt>
      <trkpt lat="45.9422" lon="4.81906">
        <ele>265</ele>
        <time>2017-05-03T09:38:58Z</time>
      </trkpt>
      <trkpt lat="45.94218" lon="4.81897">
        <ele>265</ele>
        <time>2017-05-03T09:38:59Z</time>
      </trkpt>
      <trkpt lat="45.94217" lon="4.81889">
        <ele>265</ele>
        <time>2017-05-03T09:39:00Z</time>
      </trkpt>
      <trkpt lat="45.94216" lon="4.81881">
        <ele>265</ele>
        <time>2017-05-03T09:39:01Z</time>
      </trkpt>
      <trkpt lat="45.94215" lon="4.81874">
        <ele>265</ele>
        <time>2017-05-03T09:39:02Z</time>
      </trkpt>
      <trkpt lat="45.94214" lon="4.81867">
        <ele>265</ele>
        <time>2017-05-03T09:39:03Z</time>
      </trkpt>
      <trkpt lat="45.94212" lon="4.8186">
        <ele>265</ele>
        <time>2017-05-03T09:39:04Z</time>
      </trkpt>
      <trkpt lat="45.94211" lon="4.81852">
        <ele>265</ele>
        <time>2017-05-03T09:39:05Z</time>
      </trkpt>
      <trkpt lat="45.94209" lon="4.81846">
        <ele>265</ele>
        <time>2017-05-03T09:39:06Z</time>
      </trkpt>
      <trkpt lat="45.94208" lon="4.81839">
        <ele>266</ele>
        <time>2017-05-03T09:39:07Z</time>
      </trkpt>
      <trkpt lat="45.94206" lon="4.81832">
        <ele>266</ele>
        <time>2017-05-03T09:39:08Z</time>
      </trkpt>
      <trkpt lat="45.94205" lon="4.81825">
        <ele>266</ele>
        <time>2017-05-03T09:39:09Z</time>
      </trkpt>
      <trkpt lat="45.94204" lon="4.81818">
        <ele>266</ele>
        <time>2017-05-03T09:39:10Z</time>
      </trkpt>
      <trkpt lat="45.94204" lon="4.81811">
        <ele>266</ele>
        <time>2017-05-03T09:39:11Z</time>
      </trkpt>
      <trkpt lat="45.94204" lon="4.81804">
        <ele>266</ele>
        <time>2017-05-03T09:39:12Z</time>
      </trkpt>
      <trkpt lat="45.94205" lon="4.81797">
        <ele>266</ele>
        <time>2017-05-03T09:39:13Z</time>
      </trkpt>
      <trkpt lat="45.94206" lon="4.8179">
        <ele>266</ele>
        <time>2017-05-03T09:39:14Z</time>
      </trkpt>
      <trkpt lat="45.94207" lon="4.81783">
        <ele>266</ele>
        <time>2017-05-03T09:39:15Z</time>
      </trkpt>
      <trkpt lat="45.94208" lon="4.81777">
        <ele>265</ele>
        <time>2017-05-03T09:39:16Z</time>
      </trkpt>
      <trkpt lat="45.9421" lon="4.81771">
        <ele>265</ele>
        <time>2017-05-03T09:39:17Z</time>
      </trkpt>
      <trkpt lat="45.94213" lon="4.81765">
        <ele>265</ele>
        <time>2017-05-03T09:39:18Z</time>
      </trkpt>
      <trkpt lat="45.94216" lon="4.81758">
        <ele>265</ele>
        <time>2017-05-03T09:39:19Z</time>
      </trkpt>
      <trkpt lat="45.94219" lon="4.81751">
        <ele>265</ele>
        <time>2017-05-03T09:39:20Z</time>
      </trkpt>
      <trkpt lat="45.9422" lon="4.81744">
        <ele>265</ele>
        <time>2017-05-03T09:39:21Z</time>
      </trkpt>
      <trkpt lat="45.94221" lon="4.81736">
        <ele>265</ele>
        <time>2017-05-03T09:39:22Z</time>
      </trkpt>
      <trkpt lat="45.94219" lon="4.81729">
        <ele>266</ele>
        <time>2017-05-03T09:39:23Z</time>
      </trkpt>
      <trkpt lat="45.94216" lon="4.81721">
        <ele>266</ele>
        <time>2017-05-03T09:39:24Z</time>
      </trkpt>
      <trkpt lat="45.94212" lon="4.81715">
        <ele>266</ele>
        <time>2017-05-03T09:39:25Z</time>
      </trkpt>
      <trkpt lat="45.94207" lon="4.81711">
        <ele>266</ele>
        <time>2017-05-03T09:39:26Z</time>
      </trkpt>
      <trkpt lat="45.94202" lon="4.81709">
        <ele>266</ele>
        <time>2017-05-03T09:39:27Z</time>
      </trkpt>
      <trkpt lat="45.94197" lon="4.81706">
        <ele>267</ele>
        <time>2017-05-03T09:39:28Z</time>
      </trkpt>
      <trkpt lat="45.94192" lon="4.81702">
        <ele>267</ele>
        <time>2017-05-03T09:39:29Z</time>
      </trkpt>
      <trkpt lat="45.94188" lon="4.81697">
        <ele>267</ele>
        <time>2017-05-03T09:39:30Z</time>
      </trkpt>
      <trkpt lat="45.94184" lon="4.8169">
        <ele>267</ele>
        <time>2017-05-03T09:39:31Z</time>
      </trkpt>
      <trkpt lat="45.94181" lon="4.81682">
        <ele>268</ele>
        <time>2017-05-03T09:39:32Z</time>
      </trkpt>
      <trkpt lat="45.94178" lon="4.81672">
        <ele>268</ele>
        <time>2017-05-03T09:39:33Z</time>
      </trkpt>
      <trkpt lat="45.94176" lon="4.81661">
        <ele>268</ele>
        <time>2017-05-03T09:39:34Z</time>
      </trkpt>
      <trkpt lat="45.94174" lon="4.8165">
        <ele>268</ele>
        <time>2017-05-03T09:39:35Z</time>
      </trkpt>
      <trkpt lat="45.94172" lon="4.8164">
        <ele>268</ele>
        <time>2017-05-03T09:39:36Z</time>
      </trkpt>
      <trkpt lat="45.9417" lon="4.81629">
        <ele>267</ele>
        <time>2017-05-03T09:39:37Z</time>
      </trkpt>
      <trkpt lat="45.94167" lon="4.81618">
        <ele>267</ele>
        <time>2017-05-03T09:39:38Z</time>
      </trkpt>
      <trkpt lat="45.94166" lon="4.81607">
        <ele>267</ele>
        <time>2017-05-03T09:39:39Z</time>
      </trkpt>
      <trkpt lat="45.94164" lon="4.81596">
        <ele>267</ele>
        <time>2017-05-03T09:39:40Z</time>
      </trkpt>
      <trkpt lat="45.94162" lon="4.81584">
        <ele>267</ele>
        <time>2017-05-03T09:39:41Z</time>
      </trkpt>
      <trkpt lat="45.94161" lon="4.81572">
        <ele>266</ele>
        <time>2017-05-03T09:39:42Z</time>
      </trkpt>
      <trkpt lat="45.9416" lon="4.81561">
        <ele>265</ele>
        <time>2017-05-03T09:39:43Z</time>
      </trkpt>
      <trkpt lat="45.94159" lon="4.8155">
        <ele>264</ele>
        <time>2017-05-03T09:39:44Z</time>
      </trkpt>
      <trkpt lat="45.94159" lon="4.81539">
        <ele>264</ele>
        <time>2017-05-03T09:39:45Z</time>
      </trkpt>
      <trkpt lat="45.94159" lon="4.81527">
        <ele>264</ele>
        <time>2017-05-03T09:39:46Z</time>
      </trkpt>
      <trkpt lat="45.94158" lon="4.81515">
        <ele>263</ele>
        <time>2017-05-03T09:39:47Z</time>
      </trkpt>
      <trkpt lat="45.94159" lon="4.81503">
        <ele>263</ele>
        <time>2017-05-03T09:39:48Z</time>
      </trkpt>
      <trkpt lat="45.94159" lon="4.81491">
        <ele>260</ele>
        <time>2017-05-03T09:39:49Z</time>
      </trkpt>
      <trkpt lat="45.9416" lon="4.81479">
        <ele>259</ele>
        <time>2017-05-03T09:39:50Z</time>
      </trkpt>
      <trkpt lat="45.94161" lon="4.81467">
        <ele>258</ele>
        <time>2017-05-03T09:39:51Z</time>
      </trkpt>
      <trkpt lat="45.94162" lon="4.81454">
        <ele>257</ele>
        <time>2017-05-03T09:39:52Z</time>
      </trkpt>
      <trkpt lat="45.94162" lon="4.8144">
        <ele>256</ele>
        <time>2017-05-03T09:39:53Z</time>
      </trkpt>
      <trkpt lat="45.94163" lon="4.81427">
        <ele>256</ele>
        <time>2017-05-03T09:39:54Z</time>
      </trkpt>
      <trkpt lat="45.94164" lon="4.81412">
        <ele>255</ele>
        <time>2017-05-03T09:39:55Z</time>
      </trkpt>
      <trkpt lat="45.94166" lon="4.81397">
        <ele>252</ele>
        <time>2017-05-03T09:39:56Z</time>
      </trkpt>
      <trkpt lat="45.94167" lon="4.81382">
        <ele>258</ele>
        <time>2017-05-03T09:39:57Z</time>
      </trkpt>
      <trkpt lat="45.94169" lon="4.81367">
        <ele>257</ele>
        <time>2017-05-03T09:39:58Z</time>
      </trkpt>
      <trkpt lat="45.94168" lon="4.81352">
        <ele>256</ele>
        <time>2017-05-03T09:39:59Z</time>
      </trkpt>
      <trkpt lat="45.94168" lon="4.81335">
        <ele>253</ele>
        <time>2017-05-03T09:40:00Z</time>
      </trkpt>
      <trkpt lat="45.94168" lon="4.81318">
        <ele>254</ele>
        <time>2017-05-03T09:40:01Z</time>
      </trkpt>
      <trkpt lat="45.94166" lon="4.81301">
        <ele>248</ele>
        <time>2017-05-03T09:40:02Z</time>
      </trkpt>
      <trkpt lat="45.94165" lon="4.81286">
        <ele>247</ele>
        <time>2017-05-03T09:40:03Z</time>
      </trkpt>
      <trkpt lat="45.94162" lon="4.8127">
        <ele>247</ele>
        <time>2017-05-03T09:40:04Z</time>
      </trkpt>
      <trkpt lat="45.94159" lon="4.81254">
        <ele>249</ele>
        <time>2017-05-03T09:40:05Z</time>
      </trkpt>
      <trkpt lat="45.94156" lon="4.81238">
        <ele>246</ele>
        <time>2017-05-03T09:40:06Z</time>
      </trkpt>
      <trkpt lat="45.94154" lon="4.8122">
        <ele>245</ele>
        <time>2017-05-03T09:40:07Z</time>
      </trkpt>
      <trkpt lat="45.94148" lon="4.81203">
        <ele>244</ele>
        <time>2017-05-03T09:40:08Z</time>
      </trkpt>
      <trkpt lat="45.94143" lon="4.81187">
        <ele>244</ele>
        <time>2017-05-03T09:40:09Z</time>
      </trkpt>
      <trkpt lat="45.94137" lon="4.81171">
        <ele>244</ele>
        <time>2017-05-03T09:40:10Z</time>
      </trkpt>
      <trkpt lat="45.94131" lon="4.81155">
        <ele>243</ele>
        <time>2017-05-03T09:40:11Z</time>
      </trkpt>
      <trkpt lat="45.94125" lon="4.81141">
        <ele>243</ele>
        <time>2017-05-03T09:40:12Z</time>
      </trkpt>
      <trkpt lat="45.94118" lon="4.81127">
        <ele>243</ele>
        <time>2017-05-03T09:40:13Z</time>
      </trkpt>
      <trkpt lat="45.94111" lon="4.81114">
        <ele>242</ele>
        <time>2017-05-03T09:40:14Z</time>
      </trkpt>
      <trkpt lat="45.94104" lon="4.81101">
        <ele>241</ele>
        <time>2017-05-03T09:40:15Z</time>
      </trkpt>
      <trkpt lat="45.94097" lon="4.81087">
        <ele>240</ele>
        <time>2017-05-03T09:40:16Z</time>
      </trkpt>
      <trkpt lat="45.94091" lon="4.81072">
        <ele>241</ele>
        <time>2017-05-03T09:40:17Z</time>
      </trkpt>
      <trkpt lat="45.94086" lon="4.81057">
        <ele>243</ele>
        <time>2017-05-03T09:40:18Z</time>
      </trkpt>
      <trkpt lat="45.94082" lon="4.8104">
        <ele>234</ele>
        <time>2017-05-03T09:40:19Z</time>
      </trkpt>
      <trkpt lat="45.94078" lon="4.81024">
        <ele>234</ele>
        <time>2017-05-03T09:40:20Z</time>
      </trkpt>
      <trkpt lat="45.94075" lon="4.81008">
        <ele>236</ele>
        <time>2017-05-03T09:40:21Z</time>
      </trkpt>
      <trkpt lat="45.94073" lon="4.80991">
        <ele>236</ele>
        <time>2017-05-03T09:40:22Z</time>
      </trkpt>
      <trkpt lat="45.94071" lon="4.80975">
        <ele>233</ele>
        <time>2017-05-03T09:40:23Z</time>
      </trkpt>
      <trkpt lat="45.94069" lon="4.80959">
        <ele>232</ele>
        <time>2017-05-03T09:40:24Z</time>
      </trkpt>
      <trkpt lat="45.94066" lon="4.80943">
        <ele>233</ele>
        <time>2017-05-03T09:40:25Z</time>
      </trkpt>
      <trkpt lat="45.94064" lon="4.80926">
        <ele>233</ele>
        <time>2017-05-03T09:40:26Z</time>
      </trkpt>
      <trkpt lat="45.94062" lon="4.8091">
        <ele>232</ele>
        <time>2017-05-03T09:40:27Z</time>
      </trkpt>
      <trkpt lat="45.94059" lon="4.80894">
        <ele>231</ele>
        <time>2017-05-03T09:40:28Z</time>
      </trkpt>
      <trkpt lat="45.94057" lon="4.80877">
        <ele>230</ele>
        <time>2017-05-03T09:40:29Z</time>
      </trkpt>
      <trkpt lat="45.94055" lon="4.80861">
        <ele>230</ele>
        <time>2017-05-03T09:40:30Z</time>
      </trkpt>
      <trkpt lat="45.94054" lon="4.80844">
        <ele>231</ele>
        <time>2017-05-03T09:40:31Z</time>
      </trkpt>
      <trkpt lat="45.94052" lon="4.80828">
        <ele>230</ele>
        <time>2017-05-03T09:40:32Z</time>
      </trkpt>
      <trkpt lat="45.9405" lon="4.80812">
        <ele>229</ele>
        <time>2017-05-03T09:40:33Z</time>
      </trkpt>
      <trkpt lat="45.94048" lon="4.80796">
        <ele>229</ele>
        <time>2017-05-03T09:40:34Z</time>
      </trkpt>
      <trkpt lat="45.94046" lon="4.80781">
        <ele>228</ele>
        <time>2017-05-03T09:40:35Z</time>
      </trkpt>
      <trkpt lat="45.94044" lon="4.80766">
        <ele>228</ele>
        <time>2017-05-03T09:40:36Z</time>
      </trkpt>
      <trkpt lat="45.94041" lon="4.8075">
        <ele>228</ele>
        <time>2017-05-03T09:40:37Z</time>
      </trkpt>
      <trkpt lat="45.94039" lon="4.80735">
        <ele>226</ele>
        <time>2017-05-03T09:40:38Z</time>
      </trkpt>
      <trkpt lat="45.94036" lon="4.8072">
        <ele>226</ele>
        <time>2017-05-03T09:40:39Z</time>
      </trkpt>
      <trkpt lat="45.94034" lon="4.80704">
        <ele>226</ele>
        <time>2017-05-03T09:40:40Z</time>
      </trkpt>
      <trkpt lat="45.94033" lon="4.80687">
        <ele>225</ele>
        <time>2017-05-03T09:40:41Z</time>
      </trkpt>
      <trkpt lat="45.94031" lon="4.80671">
        <ele>225</ele>
        <time>2017-05-03T09:40:42Z</time>
      </trkpt>
      <trkpt lat="45.9403" lon="4.80655">
        <ele>225</ele>
        <time>2017-05-03T09:40:43Z</time>
      </trkpt>
      <trkpt lat="45.94029" lon="4.80638">
        <ele>225</ele>
        <time>2017-05-03T09:40:44Z</time>
      </trkpt>
      <trkpt lat="45.94029" lon="4.80623">
        <ele>225</ele>
        <time>2017-05-03T09:40:45Z</time>
      </trkpt>
      <trkpt lat="45.94028" lon="4.80608">
        <ele>225</ele>
        <time>2017-05-03T09:40:46Z</time>
      </trkpt>
      <trkpt lat="45.94027" lon="4.80593">
        <ele>224</ele>
        <time>2017-05-03T09:40:47Z</time>
      </trkpt>
      <trkpt lat="45.94026" lon="4.80578">
        <ele>224</ele>
        <time>2017-05-03T09:40:48Z</time>
      </trkpt>
      <trkpt lat="45.94025" lon="4.80564">
        <ele>225</ele>
        <time>2017-05-03T09:40:49Z</time>
      </trkpt>
      <trkpt lat="45.94024" lon="4.80549">
        <ele>225</ele>
        <time>2017-05-03T09:40:50Z</time>
      </trkpt>
      <trkpt lat="45.94024" lon="4.80535">
        <ele>225</ele>
        <time>2017-05-03T09:40:51Z</time>
      </trkpt>
      <trkpt lat="45.94023" lon="4.8052">
        <ele>224</ele>
        <time>2017-05-03T09:40:52Z</time>
      </trkpt>
      <trkpt lat="45.94023" lon="4.80506">
        <ele>224</ele>
        <time>2017-05-03T09:40:53Z</time>
      </trkpt>
      <trkpt lat="45.94023" lon="4.80491">
        <ele>223</ele>
        <time>2017-05-03T09:40:54Z</time>
      </trkpt>
      <trkpt lat="45.94022" lon="4.80476">
        <ele>223</ele>
        <time>2017-05-03T09:40:55Z</time>
      </trkpt>
      <trkpt lat="45.9402" lon="4.80462">
        <ele>223</ele>
        <time>2017-05-03T09:40:56Z</time>
      </trkpt>
      <trkpt lat="45.94017" lon="4.80449">
        <ele>223</ele>
        <time>2017-05-03T09:40:57Z</time>
      </trkpt>
      <trkpt lat="45.94014" lon="4.80435">
        <ele>222</ele>
        <time>2017-05-03T09:40:58Z</time>
      </trkpt>
      <trkpt lat="45.9401" lon="4.80423">
        <ele>219</ele>
        <time>2017-05-03T09:40:59Z</time>
      </trkpt>
      <trkpt lat="45.94006" lon="4.8041">
        <ele>217</ele>
        <time>2017-05-03T09:41:00Z</time>
      </trkpt>
      <trkpt lat="45.94002" lon="4.80396">
        <ele>217</ele>
        <time>2017-05-03T09:41:01Z</time>
      </trkpt>
      <trkpt lat="45.93998" lon="4.80381">
        <ele>208</ele>
        <time>2017-05-03T09:41:02Z</time>
      </trkpt>
      <trkpt lat="45.93994" lon="4.80367">
        <ele>207</ele>
        <time>2017-05-03T09:41:03Z</time>
      </trkpt>
      <trkpt lat="45.9399" lon="4.80352">
        <ele>206</ele>
        <time>2017-05-03T09:41:04Z</time>
      </trkpt>
      <trkpt lat="45.93988" lon="4.80337">
        <ele>206</ele>
        <time>2017-05-03T09:41:05Z</time>
      </trkpt>
      <trkpt lat="45.93986" lon="4.80322">
        <ele>204</ele>
        <time>2017-05-03T09:41:06Z</time>
      </trkpt>
      <trkpt lat="45.93982" lon="4.80308">
        <ele>203</ele>
        <time>2017-05-03T09:41:07Z</time>
      </trkpt>
      <trkpt lat="45.93978" lon="4.80293">
        <ele>203</ele>
        <time>2017-05-03T09:41:08Z</time>
      </trkpt>
      <trkpt lat="45.93974" lon="4.80279">
        <ele>203</ele>
        <time>2017-05-03T09:41:09Z</time>
      </trkpt>
      <trkpt lat="45.9397" lon="4.80265">
        <ele>202</ele>
        <time>2017-05-03T09:41:10Z</time>
      </trkpt>
      <trkpt lat="45.93967" lon="4.80252">
        <ele>202</ele>
        <time>2017-05-03T09:41:11Z</time>
      </trkpt>
      <trkpt lat="45.93964" lon="4.80239">
        <ele>204</ele>
        <time>2017-05-03T09:41:12Z</time>
      </trkpt>
      <trkpt lat="45.93961" lon="4.80225">
        <ele>205</ele>
        <time>2017-05-03T09:41:13Z</time>
      </trkpt>
      <trkpt lat="45.93958" lon="4.80213">
        <ele>205</ele>
        <time>2017-05-03T09:41:14Z</time>
      </trkpt>
      <trkpt lat="45.93956" lon="4.802">
        <ele>205</ele>
        <time>2017-05-03T09:41:15Z</time>
      </trkpt>
      <trkpt lat="45.93953" lon="4.80189">
        <ele>206</ele>
        <time>2017-05-03T09:41:16Z</time>
      </trkpt>
      <trkpt lat="45.93951" lon="4.80178">
        <ele>206</ele>
        <time>2017-05-03T09:41:17Z</time>
      </trkpt>
      <trkpt lat="45.93949" lon="4.80167">
        <ele>208</ele>
        <time>2017-05-03T09:41:18Z</time>
      </trkpt>
      <trkpt lat="45.93948" lon="4.80156">
        <ele>208</ele>
        <time>2017-05-03T09:41:19Z</time>
      </trkpt>
      <trkpt lat="45.93946" lon="4.80145">
        <ele>208</ele>
        <time>2017-05-03T09:41:20Z</time>
      </trkpt>
      <trkpt lat="45.93945" lon="4.80135">
        <ele>209</ele>
        <time>2017-05-03T09:41:21Z</time>
      </trkpt>
      <trkpt lat="45.93944" lon="4.80124">
        <ele>209</ele>
        <time>2017-05-03T09:41:22Z</time>
      </trkpt>
      <trkpt lat="45.93943" lon="4.80113">
        <ele>209</ele>
        <time>2017-05-03T09:41:23Z</time>
      </trkpt>
      <trkpt lat="45.93942" lon="4.80103">
        <ele>209</ele>
        <time>2017-05-03T09:41:24Z</time>
      </trkpt>
      <trkpt lat="45.93942" lon="4.80093">
        <ele>208</ele>
        <time>2017-05-03T09:41:25Z</time>
      </trkpt>
      <trkpt lat="45.93943" lon="4.80084">
        <ele>208</ele>
        <time>2017-05-03T09:41:26Z</time>
      </trkpt>
      <trkpt lat="45.93943" lon="4.80073">
        <ele>208</ele>
        <time>2017-05-03T09:41:27Z</time>
      </trkpt>
      <trkpt lat="45.93945" lon="4.80063">
        <ele>208</ele>
        <time>2017-05-03T09:41:28Z</time>
      </trkpt>
      <trkpt lat="45.93945" lon="4.80053">
        <ele>208</ele>
        <time>2017-05-03T09:41:29Z</time>
      </trkpt>
      <trkpt lat="45.93947" lon="4.80043">
        <ele>208</ele>
        <time>2017-05-03T09:41:30Z</time>
      </trkpt>
      <trkpt lat="45.93947" lon="4.80032">
        <ele>207</ele>
        <time>2017-05-03T09:41:31Z</time>
      </trkpt>
      <trkpt lat="45.93949" lon="4.80021">
        <ele>207</ele>
        <time>2017-05-03T09:41:32Z</time>
      </trkpt>
      <trkpt lat="45.9395" lon="4.8001">
        <ele>207</ele>
        <time>2017-05-03T09:41:33Z</time>
      </trkpt>
      <trkpt lat="45.93952" lon="4.79999">
        <ele>205</ele>
        <time>2017-05-03T09:41:34Z</time>
      </trkpt>
      <trkpt lat="45.93953" lon="4.79986">
        <ele>205</ele>
        <time>2017-05-03T09:41:35Z</time>
      </trkpt>
      <trkpt lat="45.93954" lon="4.79975">
        <ele>205</ele>
        <time>2017-05-03T09:41:36Z</time>
      </trkpt>
      <trkpt lat="45.93955" lon="4.79964">
        <ele>205</ele>
        <time>2017-05-03T09:41:37Z</time>
      </trkpt>
      <trkpt lat="45.93957" lon="4.79953">
        <ele>205</ele>
        <time>2017-05-03T09:41:38Z</time>
      </trkpt>
      <trkpt lat="45.93959" lon="4.79942">
        <ele>205</ele>
        <time>2017-05-03T09:41:39Z</time>
      </trkpt>
      <trkpt lat="45.9396" lon="4.79932">
        <ele>205</ele>
        <time>2017-05-03T09:41:40Z</time>
      </trkpt>
      <trkpt lat="45.93962" lon="4.79922">
        <ele>206</ele>
        <time>2017-05-03T09:41:41Z</time>
      </trkpt>
      <trkpt lat="45.93963" lon="4.79912">
        <ele>206</ele>
        <time>2017-05-03T09:41:42Z</time>
      </trkpt>
      <trkpt lat="45.93965" lon="4.79902">
        <ele>206</ele>
        <time>2017-05-03T09:41:43Z</time>
      </trkpt>
      <trkpt lat="45.93966" lon="4.79892">
        <ele>206</ele>
        <time>2017-05-03T09:41:44Z</time>
      </trkpt>
      <trkpt lat="45.93968" lon="4.79883">
        <ele>206</ele>
        <time>2017-05-03T09:41:45Z</time>
      </trkpt>
      <trkpt lat="45.93969" lon="4.79873">
        <ele>206</ele>
        <time>2017-05-03T09:41:46Z</time>
      </trkpt>
      <trkpt lat="45.9397" lon="4.79865">
        <ele>206</ele>
        <time>2017-05-03T09:41:47Z</time>
      </trkpt>
      <trkpt lat="45.93971" lon="4.79855">
        <ele>206</ele>
        <time>2017-05-03T09:41:48Z</time>
      </trkpt>
      <trkpt lat="45.93972" lon="4.79845">
        <ele>207</ele>
        <time>2017-05-03T09:41:49Z</time>
      </trkpt>
      <trkpt lat="45.93974" lon="4.79835">
        <ele>207</ele>
        <time>2017-05-03T09:41:50Z</time>
      </trkpt>
      <trkpt lat="45.93974" lon="4.79824">
        <ele>207</ele>
        <time>2017-05-03T09:41:51Z</time>
      </trkpt>
      <trkpt lat="45.93974" lon="4.79814">
        <ele>207</ele>
        <time>2017-05-03T09:41:52Z</time>
      </trkpt>
      <trkpt lat="45.93975" lon="4.79804">
        <ele>207</ele>
        <time>2017-05-03T09:41:53Z</time>
      </trkpt>
      <trkpt lat="45.93975" lon="4.79794">
        <ele>207</ele>
        <time>2017-05-03T09:41:54Z</time>
      </trkpt>
      <trkpt lat="45.93975" lon="4.79785">
        <ele>206</ele>
        <time>2017-05-03T09:41:55Z</time>
      </trkpt>
      <trkpt lat="45.93975" lon="4.79775">
        <ele>206</ele>
        <time>2017-05-03T09:41:56Z</time>
      </trkpt>
      <trkpt lat="45.93975" lon="4.79765">
        <ele>207</ele>
        <time>2017-05-03T09:41:57Z</time>
      </trkpt>
      <trkpt lat="45.93975" lon="4.79756">
        <ele>207</ele>
        <time>2017-05-03T09:41:58Z</time>
      </trkpt>
      <trkpt lat="45.93974" lon="4.79747">
        <ele>207</ele>
        <time>2017-05-03T09:41:59Z</time>
      </trkpt>
      <trkpt lat="45.93973" lon="4.79739">
        <ele>207</ele>
        <time>2017-05-03T09:42:00Z</time>
      </trkpt>
      <trkpt lat="45.93973" lon="4.7973">
        <ele>207</ele>
        <time>2017-05-03T09:42:01Z</time>
      </trkpt>
      <trkpt lat="45.93972" lon="4.79721">
        <ele>207</ele>
        <time>2017-05-03T09:42:02Z</time>
      </trkpt>
      <trkpt lat="45.93971" lon="4.79713">
        <ele>207</ele>
        <time>2017-05-03T09:42:03Z</time>
      </trkpt>
      <trkpt lat="45.9397" lon="4.79704">
        <ele>207</ele>
        <time>2017-05-03T09:42:04Z</time>
      </trkpt>
      <trkpt lat="45.9397" lon="4.79696">
        <ele>207</ele>
        <time>2017-05-03T09:42:05Z</time>
      </trkpt>
      <trkpt lat="45.93969" lon="4.79688">
        <ele>207</ele>
        <time>2017-05-03T09:42:06Z</time>
      </trkpt>
      <trkpt lat="45.93968" lon="4.79679">
        <ele>207</ele>
        <time>2017-05-03T09:42:07Z</time>
      </trkpt>
      <trkpt lat="45.93967" lon="4.7967">
        <ele>207</ele>
        <time>2017-05-03T09:42:08Z</time>
      </trkpt>
      <trkpt lat="45.93966" lon="4.79661">
        <ele>208</ele>
        <time>2017-05-03T09:42:09Z</time>
      </trkpt>
      <trkpt lat="45.93965" lon="4.79652">
        <ele>207</ele>
        <time>2017-05-03T09:42:10Z</time>
      </trkpt>
      <trkpt lat="45.93964" lon="4.79642">
        <ele>207</ele>
        <time>2017-05-03T09:42:11Z</time>
      </trkpt>
      <trkpt lat="45.93963" lon="4.79632">
        <ele>207</ele>
        <time>2017-05-03T09:42:12Z</time>
      </trkpt>
      <trkpt lat="45.93962" lon="4.79622">
        <ele>207</ele>
        <time>2017-05-03T09:42:13Z</time>
      </trkpt>
      <trkpt lat="45.93961" lon="4.79611">
        <ele>207</ele>
        <time>2017-05-03T09:42:14Z</time>
      </trkpt>
      <trkpt lat="45.9396" lon="4.796">
        <ele>207</ele>
        <time>2017-05-03T09:42:15Z</time>
      </trkpt>
      <trkpt lat="45.93959" lon="4.79589">
        <ele>207</ele>
        <time>2017-05-03T09:42:16Z</time>
      </trkpt>
      <trkpt lat="45.93958" lon="4.79577">
        <ele>205</ele>
        <time>2017-05-03T09:42:17Z</time>
      </trkpt>
      <trkpt lat="45.93957" lon="4.79566">
        <ele>205</ele>
        <time>2017-05-03T09:42:18Z</time>
      </trkpt>
      <trkpt lat="45.93956" lon="4.79554">
        <ele>205</ele>
        <time>2017-05-03T09:42:19Z</time>
      </trkpt>
      <trkpt lat="45.93956" lon="4.79541">
        <ele>205</ele>
        <time>2017-05-03T09:42:20Z</time>
      </trkpt>
      <trkpt lat="45.93955" lon="4.79529">
        <ele>205</ele>
        <time>2017-05-03T09:42:21Z</time>
      </trkpt>
      <trkpt lat="45.93955" lon="4.79516">
        <ele>204</ele>
        <time>2017-05-03T09:42:22Z</time>
      </trkpt>
      <trkpt lat="45.93955" lon="4.79503">
        <ele>204</ele>
        <time>2017-05-03T09:42:23Z</time>
      </trkpt>
      <trkpt lat="45.93955" lon="4.79491">
        <ele>203</ele>
        <time>2017-05-03T09:42:24Z</time>
      </trkpt>
      <trkpt lat="45.93954" lon="4.79478">
        <ele>203</ele>
        <time>2017-05-03T09:42:25Z</time>
      </trkpt>
      <trkpt lat="45.93954" lon="4.79465">
        <ele>203</ele>
        <time>2017-05-03T09:42:26Z</time>
      </trkpt>
      <trkpt lat="45.93954" lon="4.79452">
        <ele>203</ele>
        <time>2017-05-03T09:42:27Z</time>
      </trkpt>
      <trkpt lat="45.93954" lon="4.79439">
        <ele>202</ele>
        <time>2017-05-03T09:42:28Z</time>
      </trkpt>
      <trkpt lat="45.93954" lon="4.79426">
        <ele>202</ele>
        <time>2017-05-03T09:42:29Z</time>
      </trkpt>
      <trkpt lat="45.93953" lon="4.79413">
        <ele>201</ele>
        <time>2017-05-03T09:42:30Z</time>
      </trkpt>
      <trkpt lat="45.93953" lon="4.794">
        <ele>201</ele>
        <time>2017-05-03T09:42:31Z</time>
      </trkpt>
      <trkpt lat="45.93953" lon="4.79387">
        <ele>201</ele>
        <time>2017-05-03T09:42:32Z</time>
      </trkpt>
      <trkpt lat="45.93953" lon="4.79374">
        <ele>201</ele>
        <time>2017-05-03T09:42:33Z</time>
      </trkpt>
      <trkpt lat="45.93953" lon="4.79361">
        <ele>201</ele>
        <time>2017-05-03T09:42:34Z</time>
      </trkpt>
      <trkpt lat="45.93952" lon="4.79348">
        <ele>200</ele>
        <time>2017-05-03T09:42:35Z</time>
      </trkpt>
      <trkpt lat="45.93952" lon="4.79335">
        <ele>200</ele>
        <time>2017-05-03T09:42:36Z</time>
      </trkpt>
      <trkpt lat="45.93952" lon="4.79322">
        <ele>199</ele>
        <time>2017-05-03T09:42:37Z</time>
      </trkpt>
      <trkpt lat="45.93952" lon="4.79309">
        <ele>198</ele>
        <time>2017-05-03T09:42:38Z</time>
      </trkpt>
      <trkpt lat="45.93952" lon="4.79296">
        <ele>198</ele>
        <time>2017-05-03T09:42:39Z</time>
      </trkpt>
      <trkpt lat="45.93952" lon="4.79284">
        <ele>198</ele>
        <time>2017-05-03T09:42:40Z</time>
      </trkpt>
      <trkpt lat="45.93952" lon="4.79271">
        <ele>198</ele>
        <time>2017-05-03T09:42:41Z</time>
      </trkpt>
      <trkpt lat="45.93952" lon="4.79259">
        <ele>198</ele>
        <time>2017-05-03T09:42:42Z</time>
      </trkpt>
      <trkpt lat="45.93952" lon="4.79247">
        <ele>197</ele>
        <time>2017-05-03T09:42:43Z</time>
      </trkpt>
      <trkpt lat="45.93952" lon="4.79234">
        <ele>197</ele>
        <time>2017-05-03T09:42:44Z</time>
      </trkpt>
      <trkpt lat="45.93951" lon="4.79222">
        <ele>197</ele>
        <time>2017-05-03T09:42:45Z</time>
      </trkpt>
      <trkpt lat="45.93951" lon="4.7921">
        <ele>197</ele>
        <time>2017-05-03T09:42:46Z</time>
      </trkpt>
      <trkpt lat="45.93951" lon="4.79198">
        <ele>197</ele>
        <time>2017-05-03T09:42:47Z</time>
      </trkpt>
      <trkpt lat="45.93951" lon="4.79186">
        <ele>197</ele>
        <time>2017-05-03T09:42:48Z</time>
      </trkpt>
      <trkpt lat="45.93951" lon="4.79175">
        <ele>197</ele>
        <time>2017-05-03T09:42:49Z</time>
      </trkpt>
      <trkpt lat="45.93951" lon="4.79163">
        <ele>197</ele>
        <time>2017-05-03T09:42:50Z</time>
      </trkpt>
      <trkpt lat="45.93951" lon="4.79152">
        <ele>197</ele>
        <time>2017-05-03T09:42:51Z</time>
      </trkpt>
      <trkpt lat="45.93951" lon="4.79141">
        <ele>197</ele>
        <time>2017-05-03T09:42:52Z</time>
      </trkpt>
      <trkpt lat="45.93951" lon="4.7913">
        <ele>197</ele>
        <time>2017-05-03T09:42:53Z</time>
      </trkpt>
      <trkpt lat="45.9395" lon="4.79118">
        <ele>197</ele>
        <time>2017-05-03T09:42:54Z</time>
      </trkpt>
      <trkpt lat="45.9395" lon="4.79107">
        <ele>197</ele>
        <time>2017-05-03T09:42:55Z</time>
      </trkpt>
      <trkpt lat="45.93949" lon="4.79096">
        <ele>196</ele>
        <time>2017-05-03T09:42:56Z</time>
      </trkpt>
      <trkpt lat="45.93949" lon="4.79085">
        <ele>196</ele>
        <time>2017-05-03T09:42:57Z</time>
      </trkpt>
      <trkpt lat="45.93948" lon="4.79075">
        <ele>196</ele>
        <time>2017-05-03T09:42:58Z</time>
      </trkpt>
      <trkpt lat="45.93947" lon="4.79064">
        <ele>196</ele>
        <time>2017-05-03T09:42:59Z</time>
      </trkpt>
      <trkpt lat="45.93947" lon="4.79054">
        <ele>196</ele>
        <time>2017-05-03T09:43:00Z</time>
      </trkpt>
      <trkpt lat="45.93946" lon="4.79044">
        <ele>196</ele>
        <time>2017-05-03T09:43:01Z</time>
      </trkpt>
      <trkpt lat="45.93946" lon="4.79034">
        <ele>195</ele>
        <time>2017-05-03T09:43:02Z</time>
      </trkpt>
      <trkpt lat="45.93946" lon="4.79023">
        <ele>195</ele>
        <time>2017-05-03T09:43:03Z</time>
      </trkpt>
      <trkpt lat="45.93946" lon="4.79013">
        <ele>195</ele>
        <time>2017-05-03T09:43:04Z</time>
      </trkpt>
      <trkpt lat="45.93945" lon="4.79004">
        <ele>195</ele>
        <time>2017-05-03T09:43:05Z</time>
      </trkpt>
      <trkpt lat="45.93945" lon="4.78994">
        <ele>194</ele>
        <time>2017-05-03T09:43:06Z</time>
      </trkpt>
      <trkpt lat="45.93944" lon="4.78984">
        <ele>194</ele>
        <time>2017-05-03T09:43:07Z</time>
      </trkpt>
      <trkpt lat="45.93944" lon="4.78974">
        <ele>194</ele>
        <time>2017-05-03T09:43:08Z</time>
      </trkpt>
      <trkpt lat="45.93944" lon="4.78963">
        <ele>194</ele>
        <time>2017-05-03T09:43:09Z</time>
      </trkpt>
      <trkpt lat="45.93943" lon="4.78953">
        <ele>194</ele>
        <time>2017-05-03T09:43:10Z</time>
      </trkpt>
      <trkpt lat="45.93943" lon="4.78943">
        <ele>194</ele>
        <time>2017-05-03T09:43:11Z</time>
      </trkpt>
      <trkpt lat="45.93943" lon="4.78933">
        <ele>194</ele>
        <time>2017-05-03T09:43:12Z</time>
      </trkpt>
      <trkpt lat="45.93943" lon="4.78923">
        <ele>193</ele>
        <time>2017-05-03T09:43:13Z</time>
      </trkpt>
      <trkpt lat="45.93943" lon="4.78913">
        <ele>193</ele>
        <time>2017-05-03T09:43:14Z</time>
      </trkpt>
      <trkpt lat="45.93943" lon="4.78902">
        <ele>193</ele>
        <time>2017-05-03T09:43:15Z</time>
      </trkpt>
      <trkpt lat="45.93942" lon="4.78891">
        <ele>194</ele>
        <time>2017-05-03T09:43:16Z</time>
      </trkpt>
      <trkpt lat="45.93942" lon="4.78879">
        <ele>194</ele>
        <time>2017-05-03T09:43:17Z</time>
      </trkpt>
      <trkpt lat="45.93942" lon="4.78868">
        <ele>194</ele>
        <time>2017-05-03T09:43:18Z</time>
      </trkpt>
      <trkpt lat="45.93941" lon="4.78856">
        <ele>194</ele>
        <time>2017-05-03T09:43:19Z</time>
      </trkpt>
      <trkpt lat="45.9394" lon="4.78845">
        <ele>193</ele>
        <time>2017-05-03T09:43:20Z</time>
      </trkpt>
      <trkpt lat="45.9394" lon="4.78834">
        <ele>193</ele>
        <time>2017-05-03T09:43:21Z</time>
      </trkpt>
      <trkpt lat="45.93939" lon="4.78822">
        <ele>194</ele>
        <time>2017-05-03T09:43:22Z</time>
      </trkpt>
      <trkpt lat="45.93939" lon="4.78811">
        <ele>194</ele>
        <time>2017-05-03T09:43:23Z</time>
      </trkpt>
      <trkpt lat="45.93939" lon="4.78801">
        <ele>194</ele>
        <time>2017-05-03T09:43:24Z</time>
      </trkpt>
      <trkpt lat="45.93939" lon="4.7879">
        <ele>194</ele>
        <time>2017-05-03T09:43:25Z</time>
      </trkpt>
      <trkpt lat="45.93938" lon="4.78781">
        <ele>194</ele>
        <time>2017-05-03T09:43:26Z</time>
      </trkpt>
      <trkpt lat="45.93938" lon="4.78771">
        <ele>194</ele>
        <time>2017-05-03T09:43:27Z</time>
      </trkpt>
      <trkpt lat="45.93939" lon="4.78762">
        <ele>193</ele>
        <time>2017-05-03T09:43:28Z</time>
      </trkpt>
      <trkpt lat="45.93939" lon="4.78753">
        <ele>193</ele>
        <time>2017-05-03T09:43:29Z</time>
      </trkpt>
      <trkpt lat="45.93939" lon="4.78744">
        <ele>193</ele>
        <time>2017-05-03T09:43:30Z</time>
      </trkpt>
      <trkpt lat="45.93939" lon="4.78735">
        <ele>194</ele>
        <time>2017-05-03T09:43:31Z</time>
      </trkpt>
      <trkpt lat="45.93939" lon="4.78727">
        <ele>194</ele>
        <time>2017-05-03T09:43:32Z</time>
      </trkpt>
      <trkpt lat="45.93938" lon="4.78718">
        <ele>194</ele>
        <time>2017-05-03T09:43:33Z</time>
      </trkpt>
      <trkpt lat="45.93938" lon="4.78708">
        <ele>194</ele>
        <time>2017-05-03T09:43:34Z</time>
      </trkpt>
      <trkpt lat="45.93939" lon="4.78699">
        <ele>194</ele>
        <time>2017-05-03T09:43:35Z</time>
      </trkpt>
      <trkpt lat="45.93939" lon="4.78689">
        <ele>194</ele>
        <time>2017-05-03T09:43:36Z</time>
      </trkpt>
      <trkpt lat="45.9394" lon="4.7868">
        <ele>194</ele>
        <time>2017-05-03T09:43:37Z</time>
      </trkpt>
      <trkpt lat="45.9394" lon="4.78671">
        <ele>193</ele>
        <time>2017-05-03T09:43:38Z</time>
      </trkpt>
      <trkpt lat="45.9394" lon="4.78662">
        <ele>194</ele>
        <time>2017-05-03T09:43:39Z</time>
      </trkpt>
      <trkpt lat="45.9394" lon="4.78653">
        <ele>195</ele>
        <time>2017-05-03T09:43:40Z</time>
      </trkpt>
      <trkpt lat="45.9394" lon="4.78645">
        <ele>195</ele>
        <time>2017-05-03T09:43:41Z</time>
      </trkpt>
      <trkpt lat="45.9394" lon="4.78637">
        <ele>195</ele>
        <time>2017-05-03T09:43:42Z</time>
      </trkpt>
      <trkpt lat="45.93939" lon="4.78629">
        <ele>196</ele>
        <time>2017-05-03T09:43:43Z</time>
      </trkpt>
      <trkpt lat="45.93939" lon="4.78622">
        <ele>196</ele>
        <time>2017-05-03T09:43:44Z</time>
      </trkpt>
      <trkpt lat="45.93939" lon="4.78614">
        <ele>196</ele>
        <time>2017-05-03T09:43:45Z</time>
      </trkpt>
      <trkpt lat="45.93938" lon="4.78607">
        <ele>196</ele>
        <time>2017-05-03T09:43:46Z</time>
      </trkpt>
      <trkpt lat="45.93938" lon="4.78599">
        <ele>196</ele>
        <time>2017-05-03T09:43:47Z</time>
      </trkpt>
      <trkpt lat="45.93938" lon="4.78591">
        <ele>195</ele>
        <time>2017-05-03T09:43:48Z</time>
      </trkpt>
      <trkpt lat="45.93938" lon="4.78583">
        <ele>196</ele>
        <time>2017-05-03T09:43:49Z</time>
      </trkpt>
      <trkpt lat="45.93937" lon="4.78571">
        <ele>196</ele>
        <time>2017-05-03T09:43:51Z</time>
      </trkpt>
      <trkpt lat="45.93936" lon="4.78565">
        <ele>197</ele>
        <time>2017-05-03T09:43:52Z</time>
      </trkpt>
      <trkpt lat="45.93936" lon="4.78558">
        <ele>197</ele>
        <time>2017-05-03T09:43:53Z</time>
      </trkpt>
      <trkpt lat="45.93937" lon="4.78552">
        <ele>197</ele>
        <time>2017-05-03T09:43:54Z</time>
      </trkpt>
      <trkpt lat="45.93938" lon="4.78545">
        <ele>197</ele>
        <time>2017-05-03T09:43:55Z</time>
      </trkpt>
      <trkpt lat="45.93938" lon="4.78538">
        <ele>197</ele>
        <time>2017-05-03T09:43:56Z</time>
      </trkpt>
      <trkpt lat="45.93939" lon="4.78532">
        <ele>197</ele>
        <time>2017-05-03T09:43:57Z</time>
      </trkpt>
      <trkpt lat="45.93939" lon="4.78525">
        <ele>197</ele>
        <time>2017-05-03T09:43:58Z</time>
      </trkpt>
      <trkpt lat="45.93939" lon="4.78519">
        <ele>197</ele>
        <time>2017-05-03T09:43:59Z</time>
      </trkpt>
      <trkpt lat="45.93939" lon="4.78512">
        <ele>197</ele>
        <time>2017-05-03T09:44:00Z</time>
      </trkpt>
      <trkpt lat="45.93941" lon="4.78501">
        <ele>197</ele>
        <time>2017-05-03T09:44:02Z</time>
      </trkpt>
      <trkpt lat="45.93942" lon="4.78494">
        <ele>197</ele>
        <time>2017-05-03T09:44:03Z</time>
      </trkpt>
      <trkpt lat="45.93944" lon="4.78482">
        <ele>197</ele>
        <time>2017-05-03T09:44:05Z</time>
      </trkpt>
      <trkpt lat="45.93945" lon="4.78475">
        <ele>197</ele>
        <time>2017-05-03T09:44:06Z</time>
      </trkpt>
      <trkpt lat="45.93946" lon="4.78468">
        <ele>197</ele>
        <time>2017-05-03T09:44:07Z</time>
      </trkpt>
      <trkpt lat="45.93946" lon="4.7846">
        <ele>197</ele>
        <time>2017-05-03T09:44:08Z</time>
      </trkpt>
      <trkpt lat="45.93947" lon="4.78453">
        <ele>197</ele>
        <time>2017-05-03T09:44:09Z</time>
      </trkpt>
      <trkpt lat="45.93948" lon="4.78446">
        <ele>197</ele>
        <time>2017-05-03T09:44:10Z</time>
      </trkpt>
      <trkpt lat="45.93948" lon="4.7844">
        <ele>197</ele>
        <time>2017-05-03T09:44:11Z</time>
      </trkpt>
      <trkpt lat="45.93949" lon="4.78432">
        <ele>197</ele>
        <time>2017-05-03T09:44:12Z</time>
      </trkpt>
      <trkpt lat="45.9395" lon="4.78425">
        <ele>197</ele>
        <time>2017-05-03T09:44:13Z</time>
      </trkpt>
      <trkpt lat="45.93951" lon="4.78419">
        <ele>197</ele>
        <time>2017-05-03T09:44:14Z</time>
      </trkpt>
      <trkpt lat="45.93951" lon="4.78406">
        <ele>196</ele>
        <time>2017-05-03T09:44:16Z</time>
      </trkpt>
      <trkpt lat="45.93952" lon="4.78401">
        <ele>196</ele>
        <time>2017-05-03T09:44:17Z</time>
      </trkpt>
      <trkpt lat="45.93953" lon="4.78389">
        <ele>196</ele>
        <time>2017-05-03T09:44:19Z</time>
      </trkpt>
      <trkpt lat="45.93954" lon="4.78383">
        <ele>196</ele>
        <time>2017-05-03T09:44:20Z</time>
      </trkpt>
      <trkpt lat="45.93956" lon="4.78372">
        <ele>196</ele>
        <time>2017-05-03T09:44:22Z</time>
      </trkpt>
      <trkpt lat="45.93957" lon="4.78367">
        <ele>196</ele>
        <time>2017-05-03T09:44:23Z</time>
      </trkpt>
      <trkpt lat="45.93958" lon="4.78355">
        <ele>196</ele>
        <time>2017-05-03T09:44:25Z</time>
      </trkpt>
      <trkpt lat="45.93959" lon="4.78349">
        <ele>196</ele>
        <time>2017-05-03T09:44:26Z</time>
      </trkpt>
      <trkpt lat="45.9396" lon="4.78337">
        <ele>196</ele>
        <time>2017-05-03T09:44:28Z</time>
      </trkpt>
      <trkpt lat="45.93961" lon="4.78331">
        <ele>195</ele>
        <time>2017-05-03T09:44:29Z</time>
      </trkpt>
      <trkpt lat="45.93962" lon="4.78318">
        <ele>195</ele>
        <time>2017-05-03T09:44:31Z</time>
      </trkpt>
      <trkpt lat="45.93962" lon="4.78311">
        <ele>195</ele>
        <time>2017-05-03T09:44:32Z</time>
      </trkpt>
      <trkpt lat="45.93963" lon="4.78304">
        <ele>195</ele>
        <time>2017-05-03T09:44:33Z</time>
      </trkpt>
      <trkpt lat="45.93964" lon="4.78298">
        <ele>195</ele>
        <time>2017-05-03T09:44:34Z</time>
      </trkpt>
      <trkpt lat="45.93965" lon="4.78291">
        <ele>195</ele>
        <time>2017-05-03T09:44:35Z</time>
      </trkpt>
      <trkpt lat="45.93966" lon="4.78284">
        <ele>195</ele>
        <time>2017-05-03T09:44:36Z</time>
      </trkpt>
      <trkpt lat="45.93967" lon="4.78277">
        <ele>195</ele>
        <time>2017-05-03T09:44:37Z</time>
      </trkpt>
      <trkpt lat="45.93968" lon="4.7827">
        <ele>196</ele>
        <time>2017-05-03T09:44:38Z</time>
      </trkpt>
      <trkpt lat="45.93968" lon="4.78263">
        <ele>196</ele>
        <time>2017-05-03T09:44:39Z</time>
      </trkpt>
      <trkpt lat="45.9397" lon="4.78256">
        <ele>196</ele>
        <time>2017-05-03T09:44:40Z</time>
      </trkpt>
      <trkpt lat="45.93971" lon="4.78249">
        <ele>196</ele>
        <time>2017-05-03T09:44:41Z</time>
      </trkpt>
      <trkpt lat="45.93972" lon="4.78243">
        <ele>196</ele>
        <time>2017-05-03T09:44:42Z</time>
      </trkpt>
      <trkpt lat="45.93973" lon="4.7823">
        <ele>196</ele>
        <time>2017-05-03T09:44:44Z</time>
      </trkpt>
      <trkpt lat="45.93974" lon="4.78224">
        <ele>196</ele>
        <time>2017-05-03T09:44:45Z</time>
      </trkpt>
      <trkpt lat="45.93977" lon="4.78213">
        <ele>197</ele>
        <time>2017-05-03T09:44:47Z</time>
      </trkpt>
      <trkpt lat="45.93978" lon="4.78207">
        <ele>197</ele>
        <time>2017-05-03T09:44:48Z</time>
      </trkpt>
      <trkpt lat="45.9398" lon="4.78198">
        <ele>197</ele>
        <time>2017-05-03T09:44:50Z</time>
      </trkpt>
      <trkpt lat="45.93981" lon="4.78194">
        <ele>197</ele>
        <time>2017-05-03T09:44:51Z</time>
      </trkpt>
      <trkpt lat="45.93985" lon="4.78185">
        <ele>198</ele>
        <time>2017-05-03T09:44:54Z</time>
      </trkpt>
      <trkpt lat="45.93986" lon="4.78183">
        <ele>198</ele>
        <time>2017-05-03T09:44:55Z</time>
      </trkpt>
      <trkpt lat="45.9399" lon="4.78171">
        <ele>199</ele>
        <time>2017-05-03T09:44:59Z</time>
      </trkpt>
      <trkpt lat="45.93991" lon="4.78168">
        <ele>199</ele>
        <time>2017-05-03T09:45:00Z</time>
      </trkpt>
      <trkpt lat="45.93991" lon="4.78155">
        <ele>199</ele>
        <time>2017-05-03T09:45:03Z</time>
      </trkpt>
      <trkpt lat="45.93992" lon="4.7815">
        <ele>198</ele>
        <time>2017-05-03T09:45:04Z</time>
      </trkpt>
      <trkpt lat="45.93995" lon="4.78138">
        <ele>198</ele>
        <time>2017-05-03T09:45:06Z</time>
      </trkpt>
      <trkpt lat="45.93996" lon="4.78131">
        <ele>197</ele>
        <time>2017-05-03T09:45:07Z</time>
      </trkpt>
      <trkpt lat="45.93997" lon="4.78124">
        <ele>197</ele>
        <time>2017-05-03T09:45:08Z</time>
      </trkpt>
      <trkpt lat="45.93998" lon="4.78117">
        <ele>197</ele>
        <time>2017-05-03T09:45:09Z</time>
      </trkpt>
      <trkpt lat="45.94" lon="4.7811">
        <ele>197</ele>
        <time>2017-05-03T09:45:10Z</time>
      </trkpt>
      <trkpt lat="45.94001" lon="4.78103">
        <ele>202</ele>
        <time>2017-05-03T09:45:11Z</time>
      </trkpt>
      <trkpt lat="45.94002" lon="4.78096">
        <ele>201</ele>
        <time>2017-05-03T09:45:12Z</time>
      </trkpt>
      <trkpt lat="45.94003" lon="4.78088">
        <ele>200</ele>
        <time>2017-05-03T09:45:13Z</time>
      </trkpt>
      <trkpt lat="45.94004" lon="4.78081">
        <ele>200</ele>
        <time>2017-05-03T09:45:14Z</time>
      </trkpt>
      <trkpt lat="45.94006" lon="4.78074">
        <ele>200</ele>
        <time>2017-05-03T09:45:15Z</time>
      </trkpt>
      <trkpt lat="45.94007" lon="4.78067">
        <ele>201</ele>
        <time>2017-05-03T09:45:16Z</time>
      </trkpt>
      <trkpt lat="45.94009" lon="4.78061">
        <ele>201</ele>
        <time>2017-05-03T09:45:17Z</time>
      </trkpt>
      <trkpt lat="45.94011" lon="4.78054">
        <ele>201</ele>
        <time>2017-05-03T09:45:18Z</time>
      </trkpt>
      <trkpt lat="45.94013" lon="4.78048">
        <ele>201</ele>
        <time>2017-05-03T09:45:19Z</time>
      </trkpt>
      <trkpt lat="45.94014" lon="4.78041">
        <ele>201</ele>
        <time>2017-05-03T09:45:20Z</time>
      </trkpt>
      <trkpt lat="45.94015" lon="4.78034">
        <ele>201</ele>
        <time>2017-05-03T09:45:21Z</time>
      </trkpt>
      <trkpt lat="45.94017" lon="4.78027">
        <ele>201</ele>
        <time>2017-05-03T09:45:22Z</time>
      </trkpt>
      <trkpt lat="45.94018" lon="4.7802">
        <ele>201</ele>
        <time>2017-05-03T09:45:23Z</time>
      </trkpt>
      <trkpt lat="45.94019" lon="4.78012">
        <ele>200</ele>
        <time>2017-05-03T09:45:24Z</time>
      </trkpt>
      <trkpt lat="45.94021" lon="4.78003">
        <ele>200</ele>
        <time>2017-05-03T09:45:25Z</time>
      </trkpt>
      <trkpt lat="45.94022" lon="4.77995">
        <ele>200</ele>
        <time>2017-05-03T09:45:26Z</time>
      </trkpt>
      <trkpt lat="45.94023" lon="4.77987">
        <ele>200</ele>
        <time>2017-05-03T09:45:27Z</time>
      </trkpt>
      <trkpt lat="45.94024" lon="4.77978">
        <ele>200</ele>
        <time>2017-05-03T09:45:28Z</time>
      </trkpt>
      <trkpt lat="45.94025" lon="4.77969">
        <ele>200</ele>
        <time>2017-05-03T09:45:29Z</time>
      </trkpt>
      <trkpt lat="45.94027" lon="4.7796">
        <ele>200</ele>
        <time>2017-05-03T09:45:30Z</time>
      </trkpt>
      <trkpt lat="45.94029" lon="4.77953">
        <ele>200</ele>
        <time>2017-05-03T09:45:31Z</time>
      </trkpt>
      <trkpt lat="45.94029" lon="4.77946">
        <ele>200</ele>
        <time>2017-05-03T09:45:32Z</time>
      </trkpt>
      <trkpt lat="45.94027" lon="4.7794">
        <ele>200</ele>
        <time>2017-05-03T09:45:33Z</time>
      </trkpt>
      <trkpt lat="45.94019" lon="4.77935">
        <ele>199</ele>
        <time>2017-05-03T09:45:35Z</time>
      </trkpt>
      <trkpt lat="45.94014" lon="4.77935">
        <ele>198</ele>
        <time>2017-05-03T09:45:36Z</time>
      </trkpt>
      <trkpt lat="45.94008" lon="4.77935">
        <ele>198</ele>
        <time>2017-05-03T09:45:37Z</time>
      </trkpt>
      <trkpt lat="45.94003" lon="4.77936">
        <ele>198</ele>
        <time>2017-05-03T09:45:38Z</time>
      </trkpt>
      <trkpt lat="45.93996" lon="4.77939">
        <ele>192</ele>
        <time>2017-05-03T09:45:39Z</time>
      </trkpt>
      <trkpt lat="45.93989" lon="4.77943">
        <ele>192</ele>
        <time>2017-05-03T09:45:40Z</time>
      </trkpt>
      <trkpt lat="45.93982" lon="4.77948">
        <ele>191</ele>
        <time>2017-05-03T09:45:41Z</time>
      </trkpt>
      <trkpt lat="45.93975" lon="4.77952">
        <ele>191</ele>
        <time>2017-05-03T09:45:42Z</time>
      </trkpt>
      <trkpt lat="45.93968" lon="4.77957">
        <ele>191</ele>
        <time>2017-05-03T09:45:43Z</time>
      </trkpt>
      <trkpt lat="45.9396" lon="4.77962">
        <ele>190</ele>
        <time>2017-05-03T09:45:44Z</time>
      </trkpt>
      <trkpt lat="45.93953" lon="4.77967">
        <ele>190</ele>
        <time>2017-05-03T09:45:45Z</time>
      </trkpt>
      <trkpt lat="45.93947" lon="4.77973">
        <ele>189</ele>
        <time>2017-05-03T09:45:46Z</time>
      </trkpt>
      <trkpt lat="45.9394" lon="4.77978">
        <ele>189</ele>
        <time>2017-05-03T09:45:47Z</time>
      </trkpt>
      <trkpt lat="45.93933" lon="4.77983">
        <ele>188</ele>
        <time>2017-05-03T09:45:48Z</time>
      </trkpt>
      <trkpt lat="45.93929" lon="4.7799">
        <ele>188</ele>
        <time>2017-05-03T09:45:49Z</time>
      </trkpt>
      <trkpt lat="45.93923" lon="4.77997">
        <ele>187</ele>
        <time>2017-05-03T09:45:50Z</time>
      </trkpt>
      <trkpt lat="45.93918" lon="4.78001">
        <ele>186</ele>
        <time>2017-05-03T09:45:51Z</time>
      </trkpt>
      <trkpt lat="45.93914" lon="4.78003">
        <ele>186</ele>
        <time>2017-05-03T09:45:52Z</time>
      </trkpt>
      <trkpt lat="45.93909" lon="4.78007">
        <ele>185</ele>
        <time>2017-05-03T09:45:53Z</time>
      </trkpt>
      <trkpt lat="45.93906" lon="4.78011">
        <ele>185</ele>
        <time>2017-05-03T09:45:54Z</time>
      </trkpt>
      <trkpt lat="45.93898" lon="4.78013">
        <ele>185</ele>
        <time>2017-05-03T09:45:56Z</time>
      </trkpt>
      <trkpt lat="45.93894" lon="4.78012">
        <ele>184</ele>
        <time>2017-05-03T09:45:57Z</time>
      </trkpt>
      <trkpt lat="45.93886" lon="4.78009">
        <ele>184</ele>
        <time>2017-05-03T09:45:58Z</time>
      </trkpt>
      <trkpt lat="45.93882" lon="4.78006">
        <ele>184</ele>
        <time>2017-05-03T09:45:59Z</time>
      </trkpt>
      <trkpt lat="45.93876" lon="4.78007">
        <ele>183</ele>
        <time>2017-05-03T09:46:01Z</time>
      </trkpt>
      <trkpt lat="45.93872" lon="4.78008">
        <ele>183</ele>
        <time>2017-05-03T09:46:02Z</time>
      </trkpt>
      <trkpt lat="45.93864" lon="4.78004">
        <ele>183</ele>
        <time>2017-05-03T09:46:04Z</time>
      </trkpt>
      <trkpt lat="45.93861" lon="4.78001">
        <ele>182</ele>
        <time>2017-05-03T09:46:05Z</time>
      </trkpt>
      <trkpt lat="45.93856" lon="4.77997">
        <ele>179</ele>
        <time>2017-05-03T09:46:06Z</time>
      </trkpt>
      <trkpt lat="45.93851" lon="4.77993">
        <ele>179</ele>
        <time>2017-05-03T09:46:07Z</time>
      </trkpt>
      <trkpt lat="45.93847" lon="4.77989">
        <ele>179</ele>
        <time>2017-05-03T09:46:08Z</time>
      </trkpt>
      <trkpt lat="45.93844" lon="4.77984">
        <ele>178</ele>
        <time>2017-05-03T09:46:09Z</time>
      </trkpt>
      <trkpt lat="45.93841" lon="4.77979">
        <ele>178</ele>
        <time>2017-05-03T09:46:10Z</time>
      </trkpt>
      <trkpt lat="45.93837" lon="4.77974">
        <ele>178</ele>
        <time>2017-05-03T09:46:11Z</time>
      </trkpt>
      <trkpt lat="45.93834" lon="4.7797">
        <ele>177</ele>
        <time>2017-05-03T09:46:12Z</time>
      </trkpt>
      <trkpt lat="45.9383" lon="4.77965">
        <ele>171</ele>
        <time>2017-05-03T09:46:13Z</time>
      </trkpt>
      <trkpt lat="45.93825" lon="4.7796">
        <ele>171</ele>
        <time>2017-05-03T09:46:14Z</time>
      </trkpt>
      <trkpt lat="45.93821" lon="4.77955">
        <ele>170</ele>
        <time>2017-05-03T09:46:15Z</time>
      </trkpt>
      <trkpt lat="45.93817" lon="4.7795">
        <ele>169</ele>
        <time>2017-05-03T09:46:16Z</time>
      </trkpt>
      <trkpt lat="45.93813" lon="4.77945">
        <ele>169</ele>
        <time>2017-05-03T09:46:17Z</time>
      </trkpt>
      <trkpt lat="45.93809" lon="4.7794">
        <ele>169</ele>
        <time>2017-05-03T09:46:18Z</time>
      </trkpt>
      <trkpt lat="45.93805" lon="4.77936">
        <ele>169</ele>
        <time>2017-05-03T09:46:19Z</time>
      </trkpt>
      <trkpt lat="45.93801" lon="4.77931">
        <ele>168</ele>
        <time>2017-05-03T09:46:20Z</time>
      </trkpt>
      <trkpt lat="45.93797" lon="4.77926">
        <ele>168</ele>
        <time>2017-05-03T09:46:21Z</time>
      </trkpt>
      <trkpt lat="45.93791" lon="4.77919">
        <ele>168</ele>
        <time>2017-05-03T09:46:23Z</time>
      </trkpt>
      <trkpt lat="45.93788" lon="4.77915">
        <ele>166</ele>
        <time>2017-05-03T09:46:24Z</time>
      </trkpt>
      <trkpt lat="45.93782" lon="4.77907">
        <ele>166</ele>
        <time>2017-05-03T09:46:26Z</time>
      </trkpt>
      <trkpt lat="45.93779" lon="4.77904">
        <ele>166</ele>
        <time>2017-05-03T09:46:27Z</time>
      </trkpt>
      <trkpt lat="45.93772" lon="4.77895">
        <ele>166</ele>
        <time>2017-05-03T09:46:29Z</time>
      </trkpt>
      <trkpt lat="45.93768" lon="4.77891">
        <ele>166</ele>
        <time>2017-05-03T09:46:30Z</time>
      </trkpt>
      <trkpt lat="45.93764" lon="4.77886">
        <ele>166</ele>
        <time>2017-05-03T09:46:31Z</time>
      </trkpt>
      <trkpt lat="45.9376" lon="4.7788">
        <ele>166</ele>
        <time>2017-05-03T09:46:32Z</time>
      </trkpt>
      <trkpt lat="45.93756" lon="4.77874">
        <ele>166</ele>
        <time>2017-05-03T09:46:33Z</time>
      </trkpt>
      <trkpt lat="45.93752" lon="4.77869">
        <ele>166</ele>
        <time>2017-05-03T09:46:34Z</time>
      </trkpt>
      <trkpt lat="45.93748" lon="4.77864">
        <ele>167</ele>
        <time>2017-05-03T09:46:35Z</time>
      </trkpt>
      <trkpt lat="45.93744" lon="4.77859">
        <ele>167</ele>
        <time>2017-05-03T09:46:36Z</time>
      </trkpt>
      <trkpt lat="45.9374" lon="4.77854">
        <ele>167</ele>
        <time>2017-05-03T09:46:37Z</time>
      </trkpt>
      <trkpt lat="45.93736" lon="4.77849">
        <ele>167</ele>
        <time>2017-05-03T09:46:38Z</time>
      </trkpt>
      <trkpt lat="45.93732" lon="4.77844">
        <ele>167</ele>
        <time>2017-05-03T09:46:39Z</time>
      </trkpt>
      <trkpt lat="45.93728" lon="4.77839">
        <ele>167</ele>
        <time>2017-05-03T09:46:40Z</time>
      </trkpt>
      <trkpt lat="45.93724" lon="4.77834">
        <ele>167</ele>
        <time>2017-05-03T09:46:41Z</time>
      </trkpt>
      <trkpt lat="45.9372" lon="4.77828">
        <ele>168</ele>
        <time>2017-05-03T09:46:42Z</time>
      </trkpt>
      <trkpt lat="45.93716" lon="4.77823">
        <ele>169</ele>
        <time>2017-05-03T09:46:43Z</time>
      </trkpt>
      <trkpt lat="45.93711" lon="4.77817">
        <ele>169</ele>
        <time>2017-05-03T09:46:44Z</time>
      </trkpt>
      <trkpt lat="45.93707" lon="4.77811">
        <ele>169</ele>
        <time>2017-05-03T09:46:45Z</time>
      </trkpt>
      <trkpt lat="45.93703" lon="4.77805">
        <ele>169</ele>
        <time>2017-05-03T09:46:46Z</time>
      </trkpt>
      <trkpt lat="45.93698" lon="4.77799">
        <ele>169</ele>
        <time>2017-05-03T09:46:47Z</time>
      </trkpt>
      <trkpt lat="45.93694" lon="4.77793">
        <ele>169</ele>
        <time>2017-05-03T09:46:48Z</time>
      </trkpt>
      <trkpt lat="45.93689" lon="4.77787">
        <ele>170</ele>
        <time>2017-05-03T09:46:49Z</time>
      </trkpt>
      <trkpt lat="45.93685" lon="4.77781">
        <ele>170</ele>
        <time>2017-05-03T09:46:50Z</time>
      </trkpt>
      <trkpt lat="45.93679" lon="4.77774">
        <ele>170</ele>
        <time>2017-05-03T09:46:51Z</time>
      </trkpt>
      <trkpt lat="45.93675" lon="4.77767">
        <ele>170</ele>
        <time>2017-05-03T09:46:52Z</time>
      </trkpt>
      <trkpt lat="45.9367" lon="4.77759">
        <ele>170</ele>
        <time>2017-05-03T09:46:53Z</time>
      </trkpt>
      <trkpt lat="45.93665" lon="4.77752">
        <ele>171</ele>
        <time>2017-05-03T09:46:54Z</time>
      </trkpt>
      <trkpt lat="45.9366" lon="4.77743">
        <ele>170</ele>
        <time>2017-05-03T09:46:55Z</time>
      </trkpt>
      <trkpt lat="45.93655" lon="4.77735">
        <ele>170</ele>
        <time>2017-05-03T09:46:56Z</time>
      </trkpt>
      <trkpt lat="45.9365" lon="4.77726">
        <ele>170</ele>
        <time>2017-05-03T09:46:57Z</time>
      </trkpt>
      <trkpt lat="45.93645" lon="4.77717">
        <ele>170</ele>
        <time>2017-05-03T09:46:58Z</time>
      </trkpt>
      <trkpt lat="45.93639" lon="4.77707">
        <ele>170</ele>
        <time>2017-05-03T09:46:59Z</time>
      </trkpt>
      <trkpt lat="45.93634" lon="4.77698">
        <ele>169</ele>
        <time>2017-05-03T09:47:00Z</time>
      </trkpt>
      <trkpt lat="45.93629" lon="4.77688">
        <ele>169</ele>
        <time>2017-05-03T09:47:01Z</time>
      </trkpt>
      <trkpt lat="45.93624" lon="4.77677">
        <ele>169</ele>
        <time>2017-05-03T09:47:02Z</time>
      </trkpt>
      <trkpt lat="45.93619" lon="4.77667">
        <ele>169</ele>
        <time>2017-05-03T09:47:03Z</time>
      </trkpt>
      <trkpt lat="45.93614" lon="4.77657">
        <ele>169</ele>
        <time>2017-05-03T09:47:04Z</time>
      </trkpt>
      <trkpt lat="45.9361" lon="4.77647">
        <ele>169</ele>
        <time>2017-05-03T09:47:05Z</time>
      </trkpt>
      <trkpt lat="45.93606" lon="4.77637">
        <ele>169</ele>
        <time>2017-05-03T09:47:06Z</time>
      </trkpt>
      <trkpt lat="45.93602" lon="4.77626">
        <ele>169</ele>
        <time>2017-05-03T09:47:07Z</time>
      </trkpt>
      <trkpt lat="45.93599" lon="4.77617">
        <ele>170</ele>
        <time>2017-05-03T09:47:08Z</time>
      </trkpt>
      <trkpt lat="45.93595" lon="4.77607">
        <ele>170</ele>
        <time>2017-05-03T09:47:09Z</time>
      </trkpt>
      <trkpt lat="45.93592" lon="4.77598">
        <ele>170</ele>
        <time>2017-05-03T09:47:10Z</time>
      </trkpt>
      <trkpt lat="45.93589" lon="4.77589">
        <ele>170</ele>
        <time>2017-05-03T09:47:11Z</time>
      </trkpt>
      <trkpt lat="45.93586" lon="4.7758">
        <ele>170</ele>
        <time>2017-05-03T09:47:12Z</time>
      </trkpt>
      <trkpt lat="45.93584" lon="4.77572">
        <ele>170</ele>
        <time>2017-05-03T09:47:13Z</time>
      </trkpt>
      <trkpt lat="45.93581" lon="4.77563">
        <ele>169</ele>
        <time>2017-05-03T09:47:14Z</time>
      </trkpt>
      <trkpt lat="45.93579" lon="4.77554">
        <ele>169</ele>
        <time>2017-05-03T09:47:15Z</time>
      </trkpt>
      <trkpt lat="45.93576" lon="4.77545">
        <ele>169</ele>
        <time>2017-05-03T09:47:16Z</time>
      </trkpt>
      <trkpt lat="45.93574" lon="4.77537">
        <ele>169</ele>
        <time>2017-05-03T09:47:17Z</time>
      </trkpt>
      <trkpt lat="45.93572" lon="4.77529">
        <ele>169</ele>
        <time>2017-05-03T09:47:18Z</time>
      </trkpt>
      <trkpt lat="45.9357" lon="4.77521">
        <ele>169</ele>
        <time>2017-05-03T09:47:19Z</time>
      </trkpt>
      <trkpt lat="45.93568" lon="4.77513">
        <ele>169</ele>
        <time>2017-05-03T09:47:20Z</time>
      </trkpt>
      <trkpt lat="45.93567" lon="4.77505">
        <ele>169</ele>
        <time>2017-05-03T09:47:21Z</time>
      </trkpt>
      <trkpt lat="45.93565" lon="4.77498">
        <ele>169</ele>
        <time>2017-05-03T09:47:22Z</time>
      </trkpt>
      <trkpt lat="45.93564" lon="4.7749">
        <ele>169</ele>
        <time>2017-05-03T09:47:23Z</time>
      </trkpt>
      <trkpt lat="45.93562" lon="4.77482">
        <ele>169</ele>
        <time>2017-05-03T09:47:24Z</time>
      </trkpt>
      <trkpt lat="45.9356" lon="4.77475">
        <ele>169</ele>
        <time>2017-05-03T09:47:25Z</time>
      </trkpt>
      <trkpt lat="45.93559" lon="4.77467">
        <ele>169</ele>
        <time>2017-05-03T09:47:26Z</time>
      </trkpt>
      <trkpt lat="45.93557" lon="4.7746">
        <ele>169</ele>
        <time>2017-05-03T09:47:27Z</time>
      </trkpt>
      <trkpt lat="45.93556" lon="4.77452">
        <ele>169</ele>
        <time>2017-05-03T09:47:28Z</time>
      </trkpt>
      <trkpt lat="45.93554" lon="4.77444">
        <ele>169</ele>
        <time>2017-05-03T09:47:29Z</time>
      </trkpt>
      <trkpt lat="45.93552" lon="4.77437">
        <ele>169</ele>
        <time>2017-05-03T09:47:30Z</time>
      </trkpt>
      <trkpt lat="45.9355" lon="4.77429">
        <ele>170</ele>
        <time>2017-05-03T09:47:31Z</time>
      </trkpt>
      <trkpt lat="45.93548" lon="4.7742">
        <ele>170</ele>
        <time>2017-05-03T09:47:32Z</time>
      </trkpt>
      <trkpt lat="45.93547" lon="4.77412">
        <ele>170</ele>
        <time>2017-05-03T09:47:33Z</time>
      </trkpt>
      <trkpt lat="45.93545" lon="4.77404">
        <ele>170</ele>
        <time>2017-05-03T09:47:34Z</time>
      </trkpt>
      <trkpt lat="45.93543" lon="4.77396">
        <ele>170</ele>
        <time>2017-05-03T09:47:35Z</time>
      </trkpt>
      <trkpt lat="45.93542" lon="4.77388">
        <ele>170</ele>
        <time>2017-05-03T09:47:36Z</time>
      </trkpt>
      <trkpt lat="45.9354" lon="4.77381">
        <ele>170</ele>
        <time>2017-05-03T09:47:37Z</time>
      </trkpt>
      <trkpt lat="45.93538" lon="4.77372">
        <ele>170</ele>
        <time>2017-05-03T09:47:38Z</time>
      </trkpt>
      <trkpt lat="45.93537" lon="4.77364">
        <ele>170</ele>
        <time>2017-05-03T09:47:39Z</time>
      </trkpt>
      <trkpt lat="45.93535" lon="4.77356">
        <ele>170</ele>
        <time>2017-05-03T09:47:40Z</time>
      </trkpt>
      <trkpt lat="45.93533" lon="4.77348">
        <ele>170</ele>
        <time>2017-05-03T09:47:41Z</time>
      </trkpt>
      <trkpt lat="45.93531" lon="4.7734">
        <ele>170</ele>
        <time>2017-05-03T09:47:42Z</time>
      </trkpt>
      <trkpt lat="45.93529" lon="4.77332">
        <ele>170</ele>
        <time>2017-05-03T09:47:43Z</time>
      </trkpt>
      <trkpt lat="45.93528" lon="4.77325">
        <ele>170</ele>
        <time>2017-05-03T09:47:44Z</time>
      </trkpt>
      <trkpt lat="45.93526" lon="4.77318">
        <ele>170</ele>
        <time>2017-05-03T09:47:45Z</time>
      </trkpt>
      <trkpt lat="45.93525" lon="4.77311">
        <ele>170</ele>
        <time>2017-05-03T09:47:46Z</time>
      </trkpt>
      <trkpt lat="45.93523" lon="4.77304">
        <ele>170</ele>
        <time>2017-05-03T09:47:47Z</time>
      </trkpt>
      <trkpt lat="45.93522" lon="4.77298">
        <ele>170</ele>
        <time>2017-05-03T09:47:48Z</time>
      </trkpt>
      <trkpt lat="45.9352" lon="4.77291">
        <ele>170</ele>
        <time>2017-05-03T09:47:49Z</time>
      </trkpt>
      <trkpt lat="45.93518" lon="4.77284">
        <ele>170</ele>
        <time>2017-05-03T09:47:50Z</time>
      </trkpt>
      <trkpt lat="45.93517" lon="4.77276">
        <ele>170</ele>
        <time>2017-05-03T09:47:51Z</time>
      </trkpt>
      <trkpt lat="45.93515" lon="4.77269">
        <ele>170</ele>
        <time>2017-05-03T09:47:52Z</time>
      </trkpt>
      <trkpt lat="45.93513" lon="4.77261">
        <ele>170</ele>
        <time>2017-05-03T09:47:53Z</time>
      </trkpt>
      <trkpt lat="45.93512" lon="4.77254">
        <ele>170</ele>
        <time>2017-05-03T09:47:54Z</time>
      </trkpt>
      <trkpt lat="45.9351" lon="4.77245">
        <ele>169</ele>
        <time>2017-05-03T09:47:55Z</time>
      </trkpt>
      <trkpt lat="45.93508" lon="4.77236">
        <ele>169</ele>
        <time>2017-05-03T09:47:56Z</time>
      </trkpt>
      <trkpt lat="45.93506" lon="4.77227">
        <ele>169</ele>
        <time>2017-05-03T09:47:57Z</time>
      </trkpt>
      <trkpt lat="45.93504" lon="4.77218">
        <ele>169</ele>
        <time>2017-05-03T09:47:58Z</time>
      </trkpt>
      <trkpt lat="45.93502" lon="4.7721">
        <ele>169</ele>
        <time>2017-05-03T09:47:59Z</time>
      </trkpt>
      <trkpt lat="45.935" lon="4.77201">
        <ele>169</ele>
        <time>2017-05-03T09:48:00Z</time>
      </trkpt>
      <trkpt lat="45.93498" lon="4.77193">
        <ele>169</ele>
        <time>2017-05-03T09:48:01Z</time>
      </trkpt>
      <trkpt lat="45.93496" lon="4.77185">
        <ele>169</ele>
        <time>2017-05-03T09:48:02Z</time>
      </trkpt>
      <trkpt lat="45.93494" lon="4.77178">
        <ele>169</ele>
        <time>2017-05-03T09:48:03Z</time>
      </trkpt>
      <trkpt lat="45.93492" lon="4.7717">
        <ele>169</ele>
        <time>2017-05-03T09:48:04Z</time>
      </trkpt>
      <trkpt lat="45.93491" lon="4.77163">
        <ele>169</ele>
        <time>2017-05-03T09:48:05Z</time>
      </trkpt>
      <trkpt lat="45.93489" lon="4.77155">
        <ele>169</ele>
        <time>2017-05-03T09:48:06Z</time>
      </trkpt>
      <trkpt lat="45.93488" lon="4.77148">
        <ele>169</ele>
        <time>2017-05-03T09:48:07Z</time>
      </trkpt>
      <trkpt lat="45.93487" lon="4.77141">
        <ele>169</ele>
        <time>2017-05-03T09:48:08Z</time>
      </trkpt>
      <trkpt lat="45.93485" lon="4.77134">
        <ele>169</ele>
        <time>2017-05-03T09:48:09Z</time>
      </trkpt>
      <trkpt lat="45.93484" lon="4.77127">
        <ele>169</ele>
        <time>2017-05-03T09:48:10Z</time>
      </trkpt>
      <trkpt lat="45.93482" lon="4.7712">
        <ele>169</ele>
        <time>2017-05-03T09:48:11Z</time>
      </trkpt>
      <trkpt lat="45.93481" lon="4.77112">
        <ele>169</ele>
        <time>2017-05-03T09:48:12Z</time>
      </trkpt>
      <trkpt lat="45.93479" lon="4.77104">
        <ele>169</ele>
        <time>2017-05-03T09:48:13Z</time>
      </trkpt>
      <trkpt lat="45.93478" lon="4.77095">
        <ele>169</ele>
        <time>2017-05-03T09:48:14Z</time>
      </trkpt>
      <trkpt lat="45.93476" lon="4.77087">
        <ele>169</ele>
        <time>2017-05-03T09:48:15Z</time>
      </trkpt>
      <trkpt lat="45.93475" lon="4.77078">
        <ele>170</ele>
        <time>2017-05-03T09:48:16Z</time>
      </trkpt>
      <trkpt lat="45.93473" lon="4.7707">
        <ele>170</ele>
        <time>2017-05-03T09:48:17Z</time>
      </trkpt>
      <trkpt lat="45.93472" lon="4.77061">
        <ele>170</ele>
        <time>2017-05-03T09:48:18Z</time>
      </trkpt>
      <trkpt lat="45.9347" lon="4.77052">
        <ele>170</ele>
        <time>2017-05-03T09:48:19Z</time>
      </trkpt>
      <trkpt lat="45.93469" lon="4.77044">
        <ele>170</ele>
        <time>2017-05-03T09:48:20Z</time>
      </trkpt>
      <trkpt lat="45.93467" lon="4.77035">
        <ele>170</ele>
        <time>2017-05-03T09:48:21Z</time>
      </trkpt>
      <trkpt lat="45.93466" lon="4.77026">
        <ele>170</ele>
        <time>2017-05-03T09:48:22Z</time>
      </trkpt>
      <trkpt lat="45.93464" lon="4.77018">
        <ele>170</ele>
        <time>2017-05-03T09:48:23Z</time>
      </trkpt>
      <trkpt lat="45.93463" lon="4.77009">
        <ele>170</ele>
        <time>2017-05-03T09:48:24Z</time>
      </trkpt>
      <trkpt lat="45.93462" lon="4.77002">
        <ele>170</ele>
        <time>2017-05-03T09:48:25Z</time>
      </trkpt>
      <trkpt lat="45.9346" lon="4.76994">
        <ele>170</ele>
        <time>2017-05-03T09:48:26Z</time>
      </trkpt>
      <trkpt lat="45.93459" lon="4.76987">
        <ele>170</ele>
        <time>2017-05-03T09:48:27Z</time>
      </trkpt>
      <trkpt lat="45.93458" lon="4.7698">
        <ele>170</ele>
        <time>2017-05-03T09:48:28Z</time>
      </trkpt>
      <trkpt lat="45.93458" lon="4.76973">
        <ele>170</ele>
        <time>2017-05-03T09:48:29Z</time>
      </trkpt>
      <trkpt lat="45.93457" lon="4.76966">
        <ele>170</ele>
        <time>2017-05-03T09:48:30Z</time>
      </trkpt>
      <trkpt lat="45.93456" lon="4.76959">
        <ele>170</ele>
        <time>2017-05-03T09:48:31Z</time>
      </trkpt>
      <trkpt lat="45.93455" lon="4.76952">
        <ele>170</ele>
        <time>2017-05-03T09:48:32Z</time>
      </trkpt>
      <trkpt lat="45.93454" lon="4.76944">
        <ele>170</ele>
        <time>2017-05-03T09:48:33Z</time>
      </trkpt>
      <trkpt lat="45.93452" lon="4.76935">
        <ele>170</ele>
        <time>2017-05-03T09:48:34Z</time>
      </trkpt>
      <trkpt lat="45.93451" lon="4.76928">
        <ele>170</ele>
        <time>2017-05-03T09:48:35Z</time>
      </trkpt>
      <trkpt lat="45.93449" lon="4.76919">
        <ele>170</ele>
        <time>2017-05-03T09:48:36Z</time>
      </trkpt>
      <trkpt lat="45.93447" lon="4.76911">
        <ele>170</ele>
        <time>2017-05-03T09:48:37Z</time>
      </trkpt>
      <trkpt lat="45.93445" lon="4.76904">
        <ele>170</ele>
        <time>2017-05-03T09:48:38Z</time>
      </trkpt>
      <trkpt lat="45.93443" lon="4.76896">
        <ele>170</ele>
        <time>2017-05-03T09:48:39Z</time>
      </trkpt>
      <trkpt lat="45.93441" lon="4.76889">
        <ele>170</ele>
        <time>2017-05-03T09:48:40Z</time>
      </trkpt>
      <trkpt lat="45.93439" lon="4.76882">
        <ele>170</ele>
        <time>2017-05-03T09:48:41Z</time>
      </trkpt>
      <trkpt lat="45.93437" lon="4.76875">
        <ele>171</ele>
        <time>2017-05-03T09:48:42Z</time>
      </trkpt>
      <trkpt lat="45.93435" lon="4.76869">
        <ele>171</ele>
        <time>2017-05-03T09:48:43Z</time>
      </trkpt>
      <trkpt lat="45.93432" lon="4.76863">
        <ele>171</ele>
        <time>2017-05-03T09:48:44Z</time>
      </trkpt>
      <trkpt lat="45.93429" lon="4.76857">
        <ele>171</ele>
        <time>2017-05-03T09:48:45Z</time>
      </trkpt>
      <trkpt lat="45.93426" lon="4.7685">
        <ele>171</ele>
        <time>2017-05-03T09:48:46Z</time>
      </trkpt>
      <trkpt lat="45.93423" lon="4.76843">
        <ele>171</ele>
        <time>2017-05-03T09:48:47Z</time>
      </trkpt>
      <trkpt lat="45.9342" lon="4.76837">
        <ele>172</ele>
        <time>2017-05-03T09:48:48Z</time>
      </trkpt>
      <trkpt lat="45.93416" lon="4.7683">
        <ele>172</ele>
        <time>2017-05-03T09:48:49Z</time>
      </trkpt>
      <trkpt lat="45.93412" lon="4.76824">
        <ele>172</ele>
        <time>2017-05-03T09:48:50Z</time>
      </trkpt>
      <trkpt lat="45.93408" lon="4.76818">
        <ele>172</ele>
        <time>2017-05-03T09:48:51Z</time>
      </trkpt>
      <trkpt lat="45.93404" lon="4.76811">
        <ele>172</ele>
        <time>2017-05-03T09:48:52Z</time>
      </trkpt>
      <trkpt lat="45.934" lon="4.76806">
        <ele>172</ele>
        <time>2017-05-03T09:48:53Z</time>
      </trkpt>
      <trkpt lat="45.93395" lon="4.768">
        <ele>172</ele>
        <time>2017-05-03T09:48:54Z</time>
      </trkpt>
      <trkpt lat="45.93391" lon="4.76796">
        <ele>172</ele>
        <time>2017-05-03T09:48:55Z</time>
      </trkpt>
      <trkpt lat="45.93387" lon="4.76791">
        <ele>172</ele>
        <time>2017-05-03T09:48:56Z</time>
      </trkpt>
      <trkpt lat="45.93383" lon="4.76787">
        <ele>172</ele>
        <time>2017-05-03T09:48:57Z</time>
      </trkpt>
      <trkpt lat="45.93379" lon="4.76782">
        <ele>172</ele>
        <time>2017-05-03T09:48:58Z</time>
      </trkpt>
      <trkpt lat="45.93375" lon="4.76778">
        <ele>172</ele>
        <time>2017-05-03T09:48:59Z</time>
      </trkpt>
      <trkpt lat="45.9337" lon="4.76773">
        <ele>172</ele>
        <time>2017-05-03T09:49:00Z</time>
      </trkpt>
      <trkpt lat="45.93365" lon="4.76768">
        <ele>172</ele>
        <time>2017-05-03T09:49:01Z</time>
      </trkpt>
      <trkpt lat="45.9336" lon="4.76763">
        <ele>172</ele>
        <time>2017-05-03T09:49:02Z</time>
      </trkpt>
      <trkpt lat="45.93356" lon="4.76759">
        <ele>172</ele>
        <time>2017-05-03T09:49:03Z</time>
      </trkpt>
      <trkpt lat="45.93351" lon="4.76753">
        <ele>172</ele>
        <time>2017-05-03T09:49:04Z</time>
      </trkpt>
      <trkpt lat="45.93346" lon="4.76748">
        <ele>172</ele>
        <time>2017-05-03T09:49:05Z</time>
      </trkpt>
      <trkpt lat="45.9334" lon="4.76743">
        <ele>173</ele>
        <time>2017-05-03T09:49:06Z</time>
      </trkpt>
      <trkpt lat="45.93335" lon="4.76738">
        <ele>172</ele>
        <time>2017-05-03T09:49:07Z</time>
      </trkpt>
      <trkpt lat="45.93331" lon="4.76733">
        <ele>172</ele>
        <time>2017-05-03T09:49:08Z</time>
      </trkpt>
      <trkpt lat="45.93326" lon="4.76729">
        <ele>172</ele>
        <time>2017-05-03T09:49:09Z</time>
      </trkpt>
      <trkpt lat="45.93322" lon="4.76725">
        <ele>172</ele>
        <time>2017-05-03T09:49:10Z</time>
      </trkpt>
      <trkpt lat="45.93318" lon="4.76721">
        <ele>172</ele>
        <time>2017-05-03T09:49:11Z</time>
      </trkpt>
      <trkpt lat="45.93313" lon="4.76717">
        <ele>172</ele>
        <time>2017-05-03T09:49:12Z</time>
      </trkpt>
      <trkpt lat="45.93309" lon="4.76714">
        <ele>172</ele>
        <time>2017-05-03T09:49:13Z</time>
      </trkpt>
      <trkpt lat="45.93305" lon="4.7671">
        <ele>172</ele>
        <time>2017-05-03T09:49:14Z</time>
      </trkpt>
      <trkpt lat="45.933" lon="4.76705">
        <ele>172</ele>
        <time>2017-05-03T09:49:15Z</time>
      </trkpt>
      <trkpt lat="45.93296" lon="4.76701">
        <ele>172</ele>
        <time>2017-05-03T09:49:16Z</time>
      </trkpt>
      <trkpt lat="45.93291" lon="4.76696">
        <ele>172</ele>
        <time>2017-05-03T09:49:17Z</time>
      </trkpt>
      <trkpt lat="45.93287" lon="4.76692">
        <ele>172</ele>
        <time>2017-05-03T09:49:18Z</time>
      </trkpt>
      <trkpt lat="45.93283" lon="4.76688">
        <ele>172</ele>
        <time>2017-05-03T09:49:19Z</time>
      </trkpt>
      <trkpt lat="45.93278" lon="4.76683">
        <ele>172</ele>
        <time>2017-05-03T09:49:20Z</time>
      </trkpt>
      <trkpt lat="45.93273" lon="4.76679">
        <ele>172</ele>
        <time>2017-05-03T09:49:21Z</time>
      </trkpt>
      <trkpt lat="45.93268" lon="4.76675">
        <ele>172</ele>
        <time>2017-05-03T09:49:22Z</time>
      </trkpt>
      <trkpt lat="45.93264" lon="4.76671">
        <ele>172</ele>
        <time>2017-05-03T09:49:23Z</time>
      </trkpt>
      <trkpt lat="45.93259" lon="4.76667">
        <ele>172</ele>
        <time>2017-05-03T09:49:24Z</time>
      </trkpt>
      <trkpt lat="45.93254" lon="4.76663">
        <ele>172</ele>
        <time>2017-05-03T09:49:25Z</time>
      </trkpt>
      <trkpt lat="45.93249" lon="4.76659">
        <ele>172</ele>
        <time>2017-05-03T09:49:26Z</time>
      </trkpt>
      <trkpt lat="45.93245" lon="4.76655">
        <ele>171</ele>
        <time>2017-05-03T09:49:27Z</time>
      </trkpt>
      <trkpt lat="45.93241" lon="4.76651">
        <ele>171</ele>
        <time>2017-05-03T09:49:28Z</time>
      </trkpt>
      <trkpt lat="45.93238" lon="4.76648">
        <ele>171</ele>
        <time>2017-05-03T09:49:29Z</time>
      </trkpt>
      <trkpt lat="45.93234" lon="4.76644">
        <ele>171</ele>
        <time>2017-05-03T09:49:30Z</time>
      </trkpt>
      <trkpt lat="45.9323" lon="4.76639">
        <ele>171</ele>
        <time>2017-05-03T09:49:31Z</time>
      </trkpt>
      <trkpt lat="45.93225" lon="4.76635">
        <ele>171</ele>
        <time>2017-05-03T09:49:32Z</time>
      </trkpt>
      <trkpt lat="45.93221" lon="4.7663">
        <ele>170</ele>
        <time>2017-05-03T09:49:33Z</time>
      </trkpt>
      <trkpt lat="45.93216" lon="4.76626">
        <ele>170</ele>
        <time>2017-05-03T09:49:34Z</time>
      </trkpt>
      <trkpt lat="45.93211" lon="4.76621">
        <ele>170</ele>
        <time>2017-05-03T09:49:35Z</time>
      </trkpt>
      <trkpt lat="45.93208" lon="4.76615">
        <ele>170</ele>
        <time>2017-05-03T09:49:36Z</time>
      </trkpt>
      <trkpt lat="45.93202" lon="4.7661">
        <ele>170</ele>
        <time>2017-05-03T09:49:37Z</time>
      </trkpt>
      <trkpt lat="45.93198" lon="4.76604">
        <ele>170</ele>
        <time>2017-05-03T09:49:38Z</time>
      </trkpt>
      <trkpt lat="45.93193" lon="4.76599">
        <ele>170</ele>
        <time>2017-05-03T09:49:39Z</time>
      </trkpt>
      <trkpt lat="45.93189" lon="4.76594">
        <ele>170</ele>
        <time>2017-05-03T09:49:40Z</time>
      </trkpt>
      <trkpt lat="45.93185" lon="4.76589">
        <ele>171</ele>
        <time>2017-05-03T09:49:41Z</time>
      </trkpt>
      <trkpt lat="45.9318" lon="4.76584">
        <ele>171</ele>
        <time>2017-05-03T09:49:42Z</time>
      </trkpt>
      <trkpt lat="45.93177" lon="4.7658">
        <ele>170</ele>
        <time>2017-05-03T09:49:43Z</time>
      </trkpt>
      <trkpt lat="45.93173" lon="4.76576">
        <ele>170</ele>
        <time>2017-05-03T09:49:44Z</time>
      </trkpt>
      <trkpt lat="45.93169" lon="4.76572">
        <ele>170</ele>
        <time>2017-05-03T09:49:45Z</time>
      </trkpt>
      <trkpt lat="45.93165" lon="4.76568">
        <ele>170</ele>
        <time>2017-05-03T09:49:46Z</time>
      </trkpt>
      <trkpt lat="45.93161" lon="4.76563">
        <ele>170</ele>
        <time>2017-05-03T09:49:47Z</time>
      </trkpt>
      <trkpt lat="45.93157" lon="4.7656">
        <ele>170</ele>
        <time>2017-05-03T09:49:48Z</time>
      </trkpt>
      <trkpt lat="45.93153" lon="4.76556">
        <ele>170</ele>
        <time>2017-05-03T09:49:49Z</time>
      </trkpt>
      <trkpt lat="45.9315" lon="4.76552">
        <ele>170</ele>
        <time>2017-05-03T09:49:50Z</time>
      </trkpt>
      <trkpt lat="45.93144" lon="4.76544">
        <ele>170</ele>
        <time>2017-05-03T09:49:52Z</time>
      </trkpt>
      <trkpt lat="45.93141" lon="4.7654">
        <ele>170</ele>
        <time>2017-05-03T09:49:53Z</time>
      </trkpt>
      <trkpt lat="45.93134" lon="4.76534">
        <ele>170</ele>
        <time>2017-05-03T09:49:55Z</time>
      </trkpt>
      <trkpt lat="45.93129" lon="4.76529">
        <ele>170</ele>
        <time>2017-05-03T09:49:56Z</time>
      </trkpt>
      <trkpt lat="45.93124" lon="4.76525">
        <ele>170</ele>
        <time>2017-05-03T09:49:57Z</time>
      </trkpt>
      <trkpt lat="45.93119" lon="4.76522">
        <ele>170</ele>
        <time>2017-05-03T09:49:58Z</time>
      </trkpt>
      <trkpt lat="45.93115" lon="4.76518">
        <ele>170</ele>
        <time>2017-05-03T09:49:59Z</time>
      </trkpt>
      <trkpt lat="45.93111" lon="4.76515">
        <ele>170</ele>
        <time>2017-05-03T09:50:00Z</time>
      </trkpt>
      <trkpt lat="45.93107" lon="4.76511">
        <ele>170</ele>
        <time>2017-05-03T09:50:01Z</time>
      </trkpt>
      <trkpt lat="45.93103" lon="4.76508">
        <ele>170</ele>
        <time>2017-05-03T09:50:02Z</time>
      </trkpt>
      <trkpt lat="45.93095" lon="4.76501">
        <ele>170</ele>
        <time>2017-05-03T09:50:04Z</time>
      </trkpt>
      <trkpt lat="45.93092" lon="4.76497">
        <ele>170</ele>
        <time>2017-05-03T09:50:05Z</time>
      </trkpt>
      <trkpt lat="45.93087" lon="4.76493">
        <ele>170</ele>
        <time>2017-05-03T09:50:06Z</time>
      </trkpt>
      <trkpt lat="45.93082" lon="4.76488">
        <ele>170</ele>
        <time>2017-05-03T09:50:07Z</time>
      </trkpt>
      <trkpt lat="45.93077" lon="4.76484">
        <ele>169</ele>
        <time>2017-05-03T09:50:08Z</time>
      </trkpt>
      <trkpt lat="45.93073" lon="4.7648">
        <ele>169</ele>
        <time>2017-05-03T09:50:09Z</time>
      </trkpt>
      <trkpt lat="45.93068" lon="4.76476">
        <ele>169</ele>
        <time>2017-05-03T09:50:10Z</time>
      </trkpt>
      <trkpt lat="45.93063" lon="4.76472">
        <ele>169</ele>
        <time>2017-05-03T09:50:11Z</time>
      </trkpt>
      <trkpt lat="45.93058" lon="4.76468">
        <ele>169</ele>
        <time>2017-05-03T09:50:12Z</time>
      </trkpt>
      <trkpt lat="45.93053" lon="4.76465">
        <ele>169</ele>
        <time>2017-05-03T09:50:13Z</time>
      </trkpt>
      <trkpt lat="45.93048" lon="4.7646">
        <ele>169</ele>
        <time>2017-05-03T09:50:14Z</time>
      </trkpt>
      <trkpt lat="45.93043" lon="4.76456">
        <ele>169</ele>
        <time>2017-05-03T09:50:15Z</time>
      </trkpt>
      <trkpt lat="45.93038" lon="4.76451">
        <ele>169</ele>
        <time>2017-05-03T09:50:16Z</time>
      </trkpt>
      <trkpt lat="45.93034" lon="4.76446">
        <ele>169</ele>
        <time>2017-05-03T09:50:17Z</time>
      </trkpt>
      <trkpt lat="45.93029" lon="4.76441">
        <ele>169</ele>
        <time>2017-05-03T09:50:18Z</time>
      </trkpt>
      <trkpt lat="45.93025" lon="4.76437">
        <ele>169</ele>
        <time>2017-05-03T09:50:19Z</time>
      </trkpt>
      <trkpt lat="45.9302" lon="4.76434">
        <ele>169</ele>
        <time>2017-05-03T09:50:20Z</time>
      </trkpt>
      <trkpt lat="45.93015" lon="4.76429">
        <ele>169</ele>
        <time>2017-05-03T09:50:21Z</time>
      </trkpt>
      <trkpt lat="45.9301" lon="4.76425">
        <ele>169</ele>
        <time>2017-05-03T09:50:22Z</time>
      </trkpt>
      <trkpt lat="45.93005" lon="4.7642">
        <ele>169</ele>
        <time>2017-05-03T09:50:23Z</time>
      </trkpt>
      <trkpt lat="45.93" lon="4.76415">
        <ele>169</ele>
        <time>2017-05-03T09:50:24Z</time>
      </trkpt>
      <trkpt lat="45.92995" lon="4.76411">
        <ele>169</ele>
        <time>2017-05-03T09:50:25Z</time>
      </trkpt>
      <trkpt lat="45.9299" lon="4.76407">
        <ele>169</ele>
        <time>2017-05-03T09:50:26Z</time>
      </trkpt>
      <trkpt lat="45.92986" lon="4.76402">
        <ele>169</ele>
        <time>2017-05-03T09:50:27Z</time>
      </trkpt>
      <trkpt lat="45.92981" lon="4.76397">
        <ele>169</ele>
        <time>2017-05-03T09:50:28Z</time>
      </trkpt>
      <trkpt lat="45.92977" lon="4.76392">
        <ele>169</ele>
        <time>2017-05-03T09:50:29Z</time>
      </trkpt>
      <trkpt lat="45.92973" lon="4.76388">
        <ele>169</ele>
        <time>2017-05-03T09:50:30Z</time>
      </trkpt>
      <trkpt lat="45.92968" lon="4.76383">
        <ele>169</ele>
        <time>2017-05-03T09:50:31Z</time>
      </trkpt>
      <trkpt lat="45.92963" lon="4.76378">
        <ele>169</ele>
        <time>2017-05-03T09:50:32Z</time>
      </trkpt>
      <trkpt lat="45.92958" lon="4.76373">
        <ele>169</ele>
        <time>2017-05-03T09:50:33Z</time>
      </trkpt>
      <trkpt lat="45.92954" lon="4.76368">
        <ele>169</ele>
        <time>2017-05-03T09:50:34Z</time>
      </trkpt>
      <trkpt lat="45.92949" lon="4.76362">
        <ele>169</ele>
        <time>2017-05-03T09:50:35Z</time>
      </trkpt>
      <trkpt lat="45.92944" lon="4.76357">
        <ele>169</ele>
        <time>2017-05-03T09:50:36Z</time>
      </trkpt>
      <trkpt lat="45.92939" lon="4.76352">
        <ele>169</ele>
        <time>2017-05-03T09:50:37Z</time>
      </trkpt>
      <trkpt lat="45.92934" lon="4.76345">
        <ele>169</ele>
        <time>2017-05-03T09:50:38Z</time>
      </trkpt>
      <trkpt lat="45.92929" lon="4.7634">
        <ele>169</ele>
        <time>2017-05-03T09:50:39Z</time>
      </trkpt>
      <trkpt lat="45.92925" lon="4.76335">
        <ele>169</ele>
        <time>2017-05-03T09:50:40Z</time>
      </trkpt>
      <trkpt lat="45.9292" lon="4.7633">
        <ele>169</ele>
        <time>2017-05-03T09:50:41Z</time>
      </trkpt>
      <trkpt lat="45.92916" lon="4.76326">
        <ele>169</ele>
        <time>2017-05-03T09:50:42Z</time>
      </trkpt>
      <trkpt lat="45.92911" lon="4.76322">
        <ele>169</ele>
        <time>2017-05-03T09:50:43Z</time>
      </trkpt>
      <trkpt lat="45.92906" lon="4.76318">
        <ele>169</ele>
        <time>2017-05-03T09:50:44Z</time>
      </trkpt>
      <trkpt lat="45.92901" lon="4.76314">
        <ele>169</ele>
        <time>2017-05-03T09:50:45Z</time>
      </trkpt>
      <trkpt lat="45.92896" lon="4.76309">
        <ele>169</ele>
        <time>2017-05-03T09:50:46Z</time>
      </trkpt>
      <trkpt lat="45.92891" lon="4.76303">
        <ele>169</ele>
        <time>2017-05-03T09:50:47Z</time>
      </trkpt>
      <trkpt lat="45.92885" lon="4.76297">
        <ele>169</ele>
        <time>2017-05-03T09:50:48Z</time>
      </trkpt>
      <trkpt lat="45.9288" lon="4.7629">
        <ele>169</ele>
        <time>2017-05-03T09:50:49Z</time>
      </trkpt>
      <trkpt lat="45.92874" lon="4.76283">
        <ele>169</ele>
        <time>2017-05-03T09:50:50Z</time>
      </trkpt>
      <trkpt lat="45.92869" lon="4.76278">
        <ele>169</ele>
        <time>2017-05-03T09:50:51Z</time>
      </trkpt>
      <trkpt lat="45.92863" lon="4.76272">
        <ele>169</ele>
        <time>2017-05-03T09:50:52Z</time>
      </trkpt>
      <trkpt lat="45.92859" lon="4.76267">
        <ele>169</ele>
        <time>2017-05-03T09:50:53Z</time>
      </trkpt>
      <trkpt lat="45.92854" lon="4.76262">
        <ele>169</ele>
        <time>2017-05-03T09:50:54Z</time>
      </trkpt>
      <trkpt lat="45.9285" lon="4.76258">
        <ele>169</ele>
        <time>2017-05-03T09:50:55Z</time>
      </trkpt>
      <trkpt lat="45.92845" lon="4.76254">
        <ele>169</ele>
        <time>2017-05-03T09:50:56Z</time>
      </trkpt>
      <trkpt lat="45.9284" lon="4.7625">
        <ele>169</ele>
        <time>2017-05-03T09:50:57Z</time>
      </trkpt>
      <trkpt lat="45.92836" lon="4.76246">
        <ele>169</ele>
        <time>2017-05-03T09:50:58Z</time>
      </trkpt>
      <trkpt lat="45.92831" lon="4.76241">
        <ele>169</ele>
        <time>2017-05-03T09:50:59Z</time>
      </trkpt>
      <trkpt lat="45.92826" lon="4.76237">
        <ele>168</ele>
        <time>2017-05-03T09:51:00Z</time>
      </trkpt>
      <trkpt lat="45.92821" lon="4.76233">
        <ele>168</ele>
        <time>2017-05-03T09:51:01Z</time>
      </trkpt>
      <trkpt lat="45.92815" lon="4.76228">
        <ele>168</ele>
        <time>2017-05-03T09:51:02Z</time>
      </trkpt>
      <trkpt lat="45.9281" lon="4.76223">
        <ele>168</ele>
        <time>2017-05-03T09:51:03Z</time>
      </trkpt>
      <trkpt lat="45.92806" lon="4.76218">
        <ele>168</ele>
        <time>2017-05-03T09:51:04Z</time>
      </trkpt>
      <trkpt lat="45.92801" lon="4.76214">
        <ele>168</ele>
        <time>2017-05-03T09:51:05Z</time>
      </trkpt>
      <trkpt lat="45.92796" lon="4.7621">
        <ele>168</ele>
        <time>2017-05-03T09:51:06Z</time>
      </trkpt>
      <trkpt lat="45.92791" lon="4.76204">
        <ele>168</ele>
        <time>2017-05-03T09:51:07Z</time>
      </trkpt>
      <trkpt lat="45.92786" lon="4.76197">
        <ele>168</ele>
        <time>2017-05-03T09:51:08Z</time>
      </trkpt>
      <trkpt lat="45.92782" lon="4.76189">
        <ele>168</ele>
        <time>2017-05-03T09:51:09Z</time>
      </trkpt>
      <trkpt lat="45.92778" lon="4.76185">
        <ele>168</ele>
        <time>2017-05-03T09:51:10Z</time>
      </trkpt>
      <trkpt lat="45.92774" lon="4.76181">
        <ele>167</ele>
        <time>2017-05-03T09:51:11Z</time>
      </trkpt>
      <trkpt lat="45.92769" lon="4.76177">
        <ele>167</ele>
        <time>2017-05-03T09:51:12Z</time>
      </trkpt>
      <trkpt lat="45.92765" lon="4.76174">
        <ele>167</ele>
        <time>2017-05-03T09:51:13Z</time>
      </trkpt>
      <trkpt lat="45.9276" lon="4.76171">
        <ele>167</ele>
        <time>2017-05-03T09:51:14Z</time>
      </trkpt>
      <trkpt lat="45.92755" lon="4.76167">
        <ele>167</ele>
        <time>2017-05-03T09:51:15Z</time>
      </trkpt>
      <trkpt lat="45.9275" lon="4.76164">
        <ele>167</ele>
        <time>2017-05-03T09:51:16Z</time>
      </trkpt>
      <trkpt lat="45.92746" lon="4.76161">
        <ele>167</ele>
        <time>2017-05-03T09:51:17Z</time>
      </trkpt>
      <trkpt lat="45.92742" lon="4.76157">
        <ele>168</ele>
        <time>2017-05-03T09:51:18Z</time>
      </trkpt>
      <trkpt lat="45.92737" lon="4.76154">
        <ele>168</ele>
        <time>2017-05-03T09:51:19Z</time>
      </trkpt>
      <trkpt lat="45.92732" lon="4.76151">
        <ele>168</ele>
        <time>2017-05-03T09:51:20Z</time>
      </trkpt>
      <trkpt lat="45.92727" lon="4.76148">
        <ele>168</ele>
        <time>2017-05-03T09:51:21Z</time>
      </trkpt>
      <trkpt lat="45.92722" lon="4.76144">
        <ele>168</ele>
        <time>2017-05-03T09:51:22Z</time>
      </trkpt>
      <trkpt lat="45.92717" lon="4.76142">
        <ele>168</ele>
        <time>2017-05-03T09:51:23Z</time>
      </trkpt>
      <trkpt lat="45.92713" lon="4.76138">
        <ele>168</ele>
        <time>2017-05-03T09:51:24Z</time>
      </trkpt>
      <trkpt lat="45.92708" lon="4.76134">
        <ele>169</ele>
        <time>2017-05-03T09:51:25Z</time>
      </trkpt>
      <trkpt lat="45.92703" lon="4.7613">
        <ele>169</ele>
        <time>2017-05-03T09:51:26Z</time>
      </trkpt>
      <trkpt lat="45.92699" lon="4.76127">
        <ele>169</ele>
        <time>2017-05-03T09:51:27Z</time>
      </trkpt>
      <trkpt lat="45.92695" lon="4.76123">
        <ele>169</ele>
        <time>2017-05-03T09:51:28Z</time>
      </trkpt>
      <trkpt lat="45.9269" lon="4.7612">
        <ele>169</ele>
        <time>2017-05-03T09:51:29Z</time>
      </trkpt>
      <trkpt lat="45.92686" lon="4.76116">
        <ele>169</ele>
        <time>2017-05-03T09:51:30Z</time>
      </trkpt>
      <trkpt lat="45.92682" lon="4.76111">
        <ele>169</ele>
        <time>2017-05-03T09:51:31Z</time>
      </trkpt>
      <trkpt lat="45.92678" lon="4.76108">
        <ele>169</ele>
        <time>2017-05-03T09:51:32Z</time>
      </trkpt>
      <trkpt lat="45.92673" lon="4.76104">
        <ele>169</ele>
        <time>2017-05-03T09:51:33Z</time>
      </trkpt>
      <trkpt lat="45.92669" lon="4.76101">
        <ele>169</ele>
        <time>2017-05-03T09:51:34Z</time>
      </trkpt>
      <trkpt lat="45.92664" lon="4.76096">
        <ele>170</ele>
        <time>2017-05-03T09:51:35Z</time>
      </trkpt>
      <trkpt lat="45.92659" lon="4.76092">
        <ele>170</ele>
        <time>2017-05-03T09:51:36Z</time>
      </trkpt>
      <trkpt lat="45.92655" lon="4.76087">
        <ele>170</ele>
        <time>2017-05-03T09:51:37Z</time>
      </trkpt>
      <trkpt lat="45.9265" lon="4.76083">
        <ele>170</ele>
        <time>2017-05-03T09:51:38Z</time>
      </trkpt>
      <trkpt lat="45.92646" lon="4.76079">
        <ele>170</ele>
        <time>2017-05-03T09:51:39Z</time>
      </trkpt>
      <trkpt lat="45.92642" lon="4.76074">
        <ele>170</ele>
        <time>2017-05-03T09:51:40Z</time>
      </trkpt>
      <trkpt lat="45.92637" lon="4.7607">
        <ele>170</ele>
        <time>2017-05-03T09:51:41Z</time>
      </trkpt>
      <trkpt lat="45.92632" lon="4.76068">
        <ele>170</ele>
        <time>2017-05-03T09:51:42Z</time>
      </trkpt>
      <trkpt lat="45.92627" lon="4.76065">
        <ele>170</ele>
        <time>2017-05-03T09:51:43Z</time>
      </trkpt>
      <trkpt lat="45.92622" lon="4.76061">
        <ele>171</ele>
        <time>2017-05-03T09:51:44Z</time>
      </trkpt>
      <trkpt lat="45.92618" lon="4.76058">
        <ele>171</ele>
        <time>2017-05-03T09:51:45Z</time>
      </trkpt>
      <trkpt lat="45.92613" lon="4.76054">
        <ele>171</ele>
        <time>2017-05-03T09:51:46Z</time>
      </trkpt>
      <trkpt lat="45.92608" lon="4.7605">
        <ele>171</ele>
        <time>2017-05-03T09:51:47Z</time>
      </trkpt>
      <trkpt lat="45.92603" lon="4.76046">
        <ele>171</ele>
        <time>2017-05-03T09:51:48Z</time>
      </trkpt>
      <trkpt lat="45.92599" lon="4.76043">
        <ele>171</ele>
        <time>2017-05-03T09:51:49Z</time>
      </trkpt>
      <trkpt lat="45.92594" lon="4.7604">
        <ele>171</ele>
        <time>2017-05-03T09:51:50Z</time>
      </trkpt>
      <trkpt lat="45.92589" lon="4.76036">
        <ele>171</ele>
        <time>2017-05-03T09:51:51Z</time>
      </trkpt>
      <trkpt lat="45.92584" lon="4.76033">
        <ele>171</ele>
        <time>2017-05-03T09:51:52Z</time>
      </trkpt>
      <trkpt lat="45.92579" lon="4.7603">
        <ele>172</ele>
        <time>2017-05-03T09:51:53Z</time>
      </trkpt>
      <trkpt lat="45.92575" lon="4.76027">
        <ele>172</ele>
        <time>2017-05-03T09:51:54Z</time>
      </trkpt>
      <trkpt lat="45.9257" lon="4.76024">
        <ele>172</ele>
        <time>2017-05-03T09:51:55Z</time>
      </trkpt>
      <trkpt lat="45.92563" lon="4.76018">
        <ele>172</ele>
        <time>2017-05-03T09:51:57Z</time>
      </trkpt>
      <trkpt lat="45.92558" lon="4.76015">
        <ele>172</ele>
        <time>2017-05-03T09:51:58Z</time>
      </trkpt>
      <trkpt lat="45.92554" lon="4.76013">
        <ele>172</ele>
        <time>2017-05-03T09:51:59Z</time>
      </trkpt>
      <trkpt lat="45.9255" lon="4.7601">
        <ele>172</ele>
        <time>2017-05-03T09:52:00Z</time>
      </trkpt>
      <trkpt lat="45.92545" lon="4.76007">
        <ele>172</ele>
        <time>2017-05-03T09:52:01Z</time>
      </trkpt>
      <trkpt lat="45.9254" lon="4.76003">
        <ele>172</ele>
        <time>2017-05-03T09:52:02Z</time>
      </trkpt>
      <trkpt lat="45.92534" lon="4.76">
        <ele>172</ele>
        <time>2017-05-03T09:52:03Z</time>
      </trkpt>
      <trkpt lat="45.92529" lon="4.75996">
        <ele>172</ele>
        <time>2017-05-03T09:52:04Z</time>
      </trkpt>
      <trkpt lat="45.92524" lon="4.75993">
        <ele>172</ele>
        <time>2017-05-03T09:52:05Z</time>
      </trkpt>
      <trkpt lat="45.92519" lon="4.7599">
        <ele>172</ele>
        <time>2017-05-03T09:52:06Z</time>
      </trkpt>
      <trkpt lat="45.92514" lon="4.75986">
        <ele>172</ele>
        <time>2017-05-03T09:52:07Z</time>
      </trkpt>
      <trkpt lat="45.92509" lon="4.75982">
        <ele>172</ele>
        <time>2017-05-03T09:52:08Z</time>
      </trkpt>
      <trkpt lat="45.92504" lon="4.75979">
        <ele>172</ele>
        <time>2017-05-03T09:52:09Z</time>
      </trkpt>
      <trkpt lat="45.92499" lon="4.75975">
        <ele>172</ele>
        <time>2017-05-03T09:52:10Z</time>
      </trkpt>
      <trkpt lat="45.92493" lon="4.75971">
        <ele>172</ele>
        <time>2017-05-03T09:52:11Z</time>
      </trkpt>
      <trkpt lat="45.92488" lon="4.75968">
        <ele>172</ele>
        <time>2017-05-03T09:52:12Z</time>
      </trkpt>
      <trkpt lat="45.92482" lon="4.75964">
        <ele>172</ele>
        <time>2017-05-03T09:52:13Z</time>
      </trkpt>
      <trkpt lat="45.92478" lon="4.7596">
        <ele>172</ele>
        <time>2017-05-03T09:52:14Z</time>
      </trkpt>
      <trkpt lat="45.92472" lon="4.75957">
        <ele>172</ele>
        <time>2017-05-03T09:52:15Z</time>
      </trkpt>
      <trkpt lat="45.92467" lon="4.75954">
        <ele>172</ele>
        <time>2017-05-03T09:52:16Z</time>
      </trkpt>
      <trkpt lat="45.92462" lon="4.75951">
        <ele>172</ele>
        <time>2017-05-03T09:52:17Z</time>
      </trkpt>
      <trkpt lat="45.92456" lon="4.75947">
        <ele>172</ele>
        <time>2017-05-03T09:52:18Z</time>
      </trkpt>
      <trkpt lat="45.9245" lon="4.75944">
        <ele>172</ele>
        <time>2017-05-03T09:52:19Z</time>
      </trkpt>
      <trkpt lat="45.92445" lon="4.7594">
        <ele>172</ele>
        <time>2017-05-03T09:52:20Z</time>
      </trkpt>
      <trkpt lat="45.92439" lon="4.75935">
        <ele>172</ele>
        <time>2017-05-03T09:52:21Z</time>
      </trkpt>
      <trkpt lat="45.92433" lon="4.75931">
        <ele>172</ele>
        <time>2017-05-03T09:52:22Z</time>
      </trkpt>
      <trkpt lat="45.92427" lon="4.75927">
        <ele>172</ele>
        <time>2017-05-03T09:52:23Z</time>
      </trkpt>
      <trkpt lat="45.9242" lon="4.75923">
        <ele>172</ele>
        <time>2017-05-03T09:52:24Z</time>
      </trkpt>
      <trkpt lat="45.92414" lon="4.75919">
        <ele>172</ele>
        <time>2017-05-03T09:52:25Z</time>
      </trkpt>
      <trkpt lat="45.92408" lon="4.75914">
        <ele>172</ele>
        <time>2017-05-03T09:52:26Z</time>
      </trkpt>
      <trkpt lat="45.92401" lon="4.7591">
        <ele>172</ele>
        <time>2017-05-03T09:52:27Z</time>
      </trkpt>
      <trkpt lat="45.92395" lon="4.75905">
        <ele>173</ele>
        <time>2017-05-03T09:52:28Z</time>
      </trkpt>
      <trkpt lat="45.92389" lon="4.75901">
        <ele>173</ele>
        <time>2017-05-03T09:52:29Z</time>
      </trkpt>
      <trkpt lat="45.92383" lon="4.75896">
        <ele>173</ele>
        <time>2017-05-03T09:52:30Z</time>
      </trkpt>
      <trkpt lat="45.92376" lon="4.75892">
        <ele>173</ele>
        <time>2017-05-03T09:52:31Z</time>
      </trkpt>
      <trkpt lat="45.9237" lon="4.75888">
        <ele>173</ele>
        <time>2017-05-03T09:52:32Z</time>
      </trkpt>
      <trkpt lat="45.92364" lon="4.75885">
        <ele>173</ele>
        <time>2017-05-03T09:52:33Z</time>
      </trkpt>
      <trkpt lat="45.92358" lon="4.75881">
        <ele>173</ele>
        <time>2017-05-03T09:52:34Z</time>
      </trkpt>
      <trkpt lat="45.92352" lon="4.75877">
        <ele>173</ele>
        <time>2017-05-03T09:52:35Z</time>
      </trkpt>
      <trkpt lat="45.92346" lon="4.75874">
        <ele>173</ele>
        <time>2017-05-03T09:52:36Z</time>
      </trkpt>
      <trkpt lat="45.92341" lon="4.75871">
        <ele>173</ele>
        <time>2017-05-03T09:52:37Z</time>
      </trkpt>
      <trkpt lat="45.92336" lon="4.75868">
        <ele>173</ele>
        <time>2017-05-03T09:52:38Z</time>
      </trkpt>
      <trkpt lat="45.92331" lon="4.75865">
        <ele>173</ele>
        <time>2017-05-03T09:52:39Z</time>
      </trkpt>
      <trkpt lat="45.92326" lon="4.75862">
        <ele>173</ele>
        <time>2017-05-03T09:52:40Z</time>
      </trkpt>
      <trkpt lat="45.92321" lon="4.75859">
        <ele>173</ele>
        <time>2017-05-03T09:52:41Z</time>
      </trkpt>
      <trkpt lat="45.92317" lon="4.75857">
        <ele>173</ele>
        <time>2017-05-03T09:52:42Z</time>
      </trkpt>
      <trkpt lat="45.92309" lon="4.75851">
        <ele>173</ele>
        <time>2017-05-03T09:52:44Z</time>
      </trkpt>
      <trkpt lat="45.92304" lon="4.75848">
        <ele>173</ele>
        <time>2017-05-03T09:52:45Z</time>
      </trkpt>
      <trkpt lat="45.923" lon="4.75845">
        <ele>173</ele>
        <time>2017-05-03T09:52:46Z</time>
      </trkpt>
      <trkpt lat="45.92295" lon="4.75842">
        <ele>173</ele>
        <time>2017-05-03T09:52:47Z</time>
      </trkpt>
      <trkpt lat="45.92291" lon="4.75839">
        <ele>173</ele>
        <time>2017-05-03T09:52:48Z</time>
      </trkpt>
      <trkpt lat="45.92285" lon="4.75835">
        <ele>173</ele>
        <time>2017-05-03T09:52:49Z</time>
      </trkpt>
      <trkpt lat="45.9228" lon="4.75832">
        <ele>174</ele>
        <time>2017-05-03T09:52:50Z</time>
      </trkpt>
      <trkpt lat="45.92276" lon="4.75828">
        <ele>174</ele>
        <time>2017-05-03T09:52:51Z</time>
      </trkpt>
      <trkpt lat="45.92271" lon="4.75823">
        <ele>174</ele>
        <time>2017-05-03T09:52:52Z</time>
      </trkpt>
      <trkpt lat="45.92267" lon="4.75817">
        <ele>174</ele>
        <time>2017-05-03T09:52:53Z</time>
      </trkpt>
      <trkpt lat="45.92264" lon="4.75811">
        <ele>174</ele>
        <time>2017-05-03T09:52:54Z</time>
      </trkpt>
      <trkpt lat="45.92261" lon="4.75804">
        <ele>174</ele>
        <time>2017-05-03T09:52:55Z</time>
      </trkpt>
      <trkpt lat="45.92259" lon="4.75797">
        <ele>174</ele>
        <time>2017-05-03T09:52:56Z</time>
      </trkpt>
      <trkpt lat="45.92257" lon="4.75789">
        <ele>174</ele>
        <time>2017-05-03T09:52:57Z</time>
      </trkpt>
      <trkpt lat="45.92256" lon="4.75781">
        <ele>174</ele>
        <time>2017-05-03T09:52:58Z</time>
      </trkpt>
      <trkpt lat="45.92255" lon="4.75773">
        <ele>174</ele>
        <time>2017-05-03T09:52:59Z</time>
      </trkpt>
      <trkpt lat="45.92253" lon="4.75764">
        <ele>174</ele>
        <time>2017-05-03T09:53:00Z</time>
      </trkpt>
      <trkpt lat="45.92252" lon="4.75756">
        <ele>174</ele>
        <time>2017-05-03T09:53:01Z</time>
      </trkpt>
      <trkpt lat="45.9225" lon="4.75748">
        <ele>174</ele>
        <time>2017-05-03T09:53:02Z</time>
      </trkpt>
      <trkpt lat="45.92248" lon="4.7574">
        <ele>174</ele>
        <time>2017-05-03T09:53:03Z</time>
      </trkpt>
      <trkpt lat="45.92246" lon="4.75732">
        <ele>174</ele>
        <time>2017-05-03T09:53:04Z</time>
      </trkpt>
      <trkpt lat="45.92244" lon="4.75725">
        <ele>174</ele>
        <time>2017-05-03T09:53:05Z</time>
      </trkpt>
      <trkpt lat="45.92241" lon="4.75717">
        <ele>174</ele>
        <time>2017-05-03T09:53:06Z</time>
      </trkpt>
      <trkpt lat="45.92238" lon="4.7571">
        <ele>174</ele>
        <time>2017-05-03T09:53:07Z</time>
      </trkpt>
      <trkpt lat="45.92234" lon="4.75703">
        <ele>174</ele>
        <time>2017-05-03T09:53:08Z</time>
      </trkpt>
      <trkpt lat="45.92229" lon="4.75697">
        <ele>174</ele>
        <time>2017-05-03T09:53:09Z</time>
      </trkpt>
      <trkpt lat="45.92225" lon="4.75693">
        <ele>174</ele>
        <time>2017-05-03T09:53:10Z</time>
      </trkpt>
      <trkpt lat="45.9222" lon="4.75688">
        <ele>174</ele>
        <time>2017-05-03T09:53:11Z</time>
      </trkpt>
      <trkpt lat="45.92215" lon="4.75684">
        <ele>174</ele>
        <time>2017-05-03T09:53:12Z</time>
      </trkpt>
      <trkpt lat="45.92212" lon="4.7568">
        <ele>174</ele>
        <time>2017-05-03T09:53:13Z</time>
      </trkpt>
      <trkpt lat="45.92208" lon="4.75676">
        <ele>174</ele>
        <time>2017-05-03T09:53:14Z</time>
      </trkpt>
      <trkpt lat="45.92203" lon="4.75671">
        <ele>174</ele>
        <time>2017-05-03T09:53:15Z</time>
      </trkpt>
      <trkpt lat="45.92199" lon="4.75667">
        <ele>174</ele>
        <time>2017-05-03T09:53:16Z</time>
      </trkpt>
      <trkpt lat="45.92195" lon="4.75662">
        <ele>174</ele>
        <time>2017-05-03T09:53:17Z</time>
      </trkpt>
      <trkpt lat="45.9219" lon="4.75658">
        <ele>174</ele>
        <time>2017-05-03T09:53:18Z</time>
      </trkpt>
      <trkpt lat="45.92185" lon="4.75654">
        <ele>174</ele>
        <time>2017-05-03T09:53:19Z</time>
      </trkpt>
      <trkpt lat="45.9218" lon="4.75649">
        <ele>174</ele>
        <time>2017-05-03T09:53:20Z</time>
      </trkpt>
      <trkpt lat="45.92175" lon="4.75643">
        <ele>174</ele>
        <time>2017-05-03T09:53:21Z</time>
      </trkpt>
      <trkpt lat="45.9217" lon="4.75638">
        <ele>174</ele>
        <time>2017-05-03T09:53:22Z</time>
      </trkpt>
      <trkpt lat="45.92165" lon="4.75633">
        <ele>174</ele>
        <time>2017-05-03T09:53:23Z</time>
      </trkpt>
      <trkpt lat="45.9216" lon="4.75628">
        <ele>174</ele>
        <time>2017-05-03T09:53:24Z</time>
      </trkpt>
      <trkpt lat="45.92155" lon="4.75624">
        <ele>174</ele>
        <time>2017-05-03T09:53:25Z</time>
      </trkpt>
      <trkpt lat="45.9215" lon="4.75619">
        <ele>174</ele>
        <time>2017-05-03T09:53:26Z</time>
      </trkpt>
      <trkpt lat="45.92145" lon="4.75614">
        <ele>174</ele>
        <time>2017-05-03T09:53:27Z</time>
      </trkpt>
      <trkpt lat="45.9214" lon="4.7561">
        <ele>174</ele>
        <time>2017-05-03T09:53:28Z</time>
      </trkpt>
      <trkpt lat="45.92136" lon="4.75605">
        <ele>174</ele>
        <time>2017-05-03T09:53:29Z</time>
      </trkpt>
      <trkpt lat="45.92132" lon="4.75601">
        <ele>174</ele>
        <time>2017-05-03T09:53:30Z</time>
      </trkpt>
      <trkpt lat="45.92128" lon="4.75597">
        <ele>174</ele>
        <time>2017-05-03T09:53:31Z</time>
      </trkpt>
      <trkpt lat="45.92124" lon="4.75593">
        <ele>174</ele>
        <time>2017-05-03T09:53:32Z</time>
      </trkpt>
      <trkpt lat="45.92121" lon="4.75588">
        <ele>174</ele>
        <time>2017-05-03T09:53:33Z</time>
      </trkpt>
      <trkpt lat="45.92117" lon="4.75578">
        <ele>174</ele>
        <time>2017-05-03T09:53:35Z</time>
      </trkpt>
      <trkpt lat="45.92117" lon="4.75572">
        <ele>174</ele>
        <time>2017-05-03T09:53:36Z</time>
      </trkpt>
      <trkpt lat="45.9212" lon="4.75561">
        <ele>174</ele>
        <time>2017-05-03T09:53:38Z</time>
      </trkpt>
      <trkpt lat="45.92122" lon="4.75556">
        <ele>174</ele>
        <time>2017-05-03T09:53:39Z</time>
      </trkpt>
      <trkpt lat="45.92125" lon="4.7555">
        <ele>174</ele>
        <time>2017-05-03T09:53:40Z</time>
      </trkpt>
      <trkpt lat="45.92129" lon="4.75544">
        <ele>174</ele>
        <time>2017-05-03T09:53:41Z</time>
      </trkpt>
      <trkpt lat="45.92131" lon="4.75537">
        <ele>174</ele>
        <time>2017-05-03T09:53:42Z</time>
      </trkpt>
      <trkpt lat="45.92135" lon="4.75531">
        <ele>174</ele>
        <time>2017-05-03T09:53:43Z</time>
      </trkpt>
      <trkpt lat="45.92137" lon="4.75524">
        <ele>174</ele>
        <time>2017-05-03T09:53:44Z</time>
      </trkpt>
      <trkpt lat="45.9214" lon="4.75517">
        <ele>174</ele>
        <time>2017-05-03T09:53:45Z</time>
      </trkpt>
      <trkpt lat="45.92144" lon="4.7551">
        <ele>174</ele>
        <time>2017-05-03T09:53:46Z</time>
      </trkpt>
      <trkpt lat="45.92146" lon="4.75503">
        <ele>175</ele>
        <time>2017-05-03T09:53:47Z</time>
      </trkpt>
      <trkpt lat="45.92149" lon="4.75495">
        <ele>175</ele>
        <time>2017-05-03T09:53:48Z</time>
      </trkpt>
      <trkpt lat="45.92151" lon="4.75488">
        <ele>176</ele>
        <time>2017-05-03T09:53:49Z</time>
      </trkpt>
      <trkpt lat="45.92154" lon="4.75482">
        <ele>176</ele>
        <time>2017-05-03T09:53:50Z</time>
      </trkpt>
      <trkpt lat="45.92157" lon="4.75475">
        <ele>176</ele>
        <time>2017-05-03T09:53:51Z</time>
      </trkpt>
      <trkpt lat="45.92159" lon="4.7547">
        <ele>176</ele>
        <time>2017-05-03T09:53:52Z</time>
      </trkpt>
      <trkpt lat="45.92162" lon="4.75464">
        <ele>176</ele>
        <time>2017-05-03T09:53:53Z</time>
      </trkpt>
      <trkpt lat="45.92164" lon="4.75458">
        <ele>176</ele>
        <time>2017-05-03T09:53:54Z</time>
      </trkpt>
      <trkpt lat="45.92167" lon="4.75452">
        <ele>176</ele>
        <time>2017-05-03T09:53:55Z</time>
      </trkpt>
      <trkpt lat="45.92169" lon="4.75446">
        <ele>176</ele>
        <time>2017-05-03T09:53:56Z</time>
      </trkpt>
      <trkpt lat="45.92171" lon="4.7544">
        <ele>177</ele>
        <time>2017-05-03T09:53:57Z</time>
      </trkpt>
      <trkpt lat="45.92173" lon="4.75435">
        <ele>177</ele>
        <time>2017-05-03T09:53:58Z</time>
      </trkpt>
      <trkpt lat="45.92176" lon="4.75428">
        <ele>177</ele>
        <time>2017-05-03T09:53:59Z</time>
      </trkpt>
      <trkpt lat="45.92178" lon="4.75422">
        <ele>177</ele>
        <time>2017-05-03T09:54:00Z</time>
      </trkpt>
      <trkpt lat="45.92181" lon="4.75416">
        <ele>177</ele>
        <time>2017-05-03T09:54:01Z</time>
      </trkpt>
      <trkpt lat="45.92184" lon="4.75409">
        <ele>177</ele>
        <time>2017-05-03T09:54:02Z</time>
      </trkpt>
      <trkpt lat="45.92186" lon="4.75402">
        <ele>177</ele>
        <time>2017-05-03T09:54:03Z</time>
      </trkpt>
      <trkpt lat="45.92188" lon="4.75396">
        <ele>177</ele>
        <time>2017-05-03T09:54:04Z</time>
      </trkpt>
      <trkpt lat="45.92191" lon="4.75389">
        <ele>177</ele>
        <time>2017-05-03T09:54:05Z</time>
      </trkpt>
      <trkpt lat="45.92194" lon="4.75382">
        <ele>177</ele>
        <time>2017-05-03T09:54:06Z</time>
      </trkpt>
      <trkpt lat="45.92197" lon="4.75375">
        <ele>177</ele>
        <time>2017-05-03T09:54:07Z</time>
      </trkpt>
      <trkpt lat="45.922" lon="4.75368">
        <ele>177</ele>
        <time>2017-05-03T09:54:08Z</time>
      </trkpt>
      <trkpt lat="45.92202" lon="4.75362">
        <ele>177</ele>
        <time>2017-05-03T09:54:09Z</time>
      </trkpt>
      <trkpt lat="45.92204" lon="4.75354">
        <ele>177</ele>
        <time>2017-05-03T09:54:10Z</time>
      </trkpt>
      <trkpt lat="45.92206" lon="4.75346">
        <ele>177</ele>
        <time>2017-05-03T09:54:11Z</time>
      </trkpt>
      <trkpt lat="45.92208" lon="4.75337">
        <ele>177</ele>
        <time>2017-05-03T09:54:12Z</time>
      </trkpt>
      <trkpt lat="45.92209" lon="4.75327">
        <ele>176</ele>
        <time>2017-05-03T09:54:13Z</time>
      </trkpt>
      <trkpt lat="45.92211" lon="4.75318">
        <ele>176</ele>
        <time>2017-05-03T09:54:14Z</time>
      </trkpt>
      <trkpt lat="45.92212" lon="4.75309">
        <ele>176</ele>
        <time>2017-05-03T09:54:15Z</time>
      </trkpt>
      <trkpt lat="45.92213" lon="4.75299">
        <ele>176</ele>
        <time>2017-05-03T09:54:16Z</time>
      </trkpt>
      <trkpt lat="45.92213" lon="4.7529">
        <ele>176</ele>
        <time>2017-05-03T09:54:17Z</time>
      </trkpt>
      <trkpt lat="45.92214" lon="4.7528">
        <ele>176</ele>
        <time>2017-05-03T09:54:18Z</time>
      </trkpt>
      <trkpt lat="45.92214" lon="4.7527">
        <ele>176</ele>
        <time>2017-05-03T09:54:19Z</time>
      </trkpt>
      <trkpt lat="45.92214" lon="4.75261">
        <ele>176</ele>
        <time>2017-05-03T09:54:20Z</time>
      </trkpt>
      <trkpt lat="45.92215" lon="4.75251">
        <ele>175</ele>
        <time>2017-05-03T09:54:21Z</time>
      </trkpt>
      <trkpt lat="45.92216" lon="4.75241">
        <ele>175</ele>
        <time>2017-05-03T09:54:22Z</time>
      </trkpt>
      <trkpt lat="45.92217" lon="4.75231">
        <ele>175</ele>
        <time>2017-05-03T09:54:23Z</time>
      </trkpt>
      <trkpt lat="45.92218" lon="4.75221">
        <ele>175</ele>
        <time>2017-05-03T09:54:24Z</time>
      </trkpt>
      <trkpt lat="45.92219" lon="4.75211">
        <ele>175</ele>
        <time>2017-05-03T09:54:25Z</time>
      </trkpt>
      <trkpt lat="45.92221" lon="4.75202">
        <ele>175</ele>
        <time>2017-05-03T09:54:26Z</time>
      </trkpt>
      <trkpt lat="45.92223" lon="4.75192">
        <ele>175</ele>
        <time>2017-05-03T09:54:27Z</time>
      </trkpt>
      <trkpt lat="45.92225" lon="4.75183">
        <ele>175</ele>
        <time>2017-05-03T09:54:28Z</time>
      </trkpt>
      <trkpt lat="45.92228" lon="4.75174">
        <ele>175</ele>
        <time>2017-05-03T09:54:29Z</time>
      </trkpt>
      <trkpt lat="45.92232" lon="4.75166">
        <ele>174</ele>
        <time>2017-05-03T09:54:30Z</time>
      </trkpt>
      <trkpt lat="45.92235" lon="4.75157">
        <ele>174</ele>
        <time>2017-05-03T09:54:31Z</time>
      </trkpt>
      <trkpt lat="45.92239" lon="4.7515">
        <ele>174</ele>
        <time>2017-05-03T09:54:32Z</time>
      </trkpt>
      <trkpt lat="45.92244" lon="4.75143">
        <ele>174</ele>
        <time>2017-05-03T09:54:33Z</time>
      </trkpt>
      <trkpt lat="45.92248" lon="4.75136">
        <ele>174</ele>
        <time>2017-05-03T09:54:34Z</time>
      </trkpt>
      <trkpt lat="45.92252" lon="4.7513">
        <ele>174</ele>
        <time>2017-05-03T09:54:35Z</time>
      </trkpt>
      <trkpt lat="45.92257" lon="4.75124">
        <ele>174</ele>
        <time>2017-05-03T09:54:36Z</time>
      </trkpt>
      <trkpt lat="45.92262" lon="4.75118">
        <ele>174</ele>
        <time>2017-05-03T09:54:37Z</time>
      </trkpt>
      <trkpt lat="45.92267" lon="4.75113">
        <ele>174</ele>
        <time>2017-05-03T09:54:38Z</time>
      </trkpt>
      <trkpt lat="45.92272" lon="4.75108">
        <ele>174</ele>
        <time>2017-05-03T09:54:39Z</time>
      </trkpt>
      <trkpt lat="45.92276" lon="4.75103">
        <ele>173</ele>
        <time>2017-05-03T09:54:40Z</time>
      </trkpt>
      <trkpt lat="45.9228" lon="4.75098">
        <ele>173</ele>
        <time>2017-05-03T09:54:41Z</time>
      </trkpt>
      <trkpt lat="45.92283" lon="4.75093">
        <ele>173</ele>
        <time>2017-05-03T09:54:42Z</time>
      </trkpt>
      <trkpt lat="45.92289" lon="4.75088">
        <ele>173</ele>
        <time>2017-05-03T09:54:43Z</time>
      </trkpt>
      <trkpt lat="45.92293" lon="4.75083">
        <ele>172</ele>
        <time>2017-05-03T09:54:44Z</time>
      </trkpt>
      <trkpt lat="45.92298" lon="4.75078">
        <ele>172</ele>
        <time>2017-05-03T09:54:45Z</time>
      </trkpt>
      <trkpt lat="45.92302" lon="4.75072">
        <ele>172</ele>
        <time>2017-05-03T09:54:46Z</time>
      </trkpt>
      <trkpt lat="45.92306" lon="4.75066">
        <ele>172</ele>
        <time>2017-05-03T09:54:47Z</time>
      </trkpt>
      <trkpt lat="45.9231" lon="4.75059">
        <ele>172</ele>
        <time>2017-05-03T09:54:48Z</time>
      </trkpt>
      <trkpt lat="45.92315" lon="4.75052">
        <ele>172</ele>
        <time>2017-05-03T09:54:49Z</time>
      </trkpt>
      <trkpt lat="45.92319" lon="4.75045">
        <ele>172</ele>
        <time>2017-05-03T09:54:50Z</time>
      </trkpt>
      <trkpt lat="45.92323" lon="4.75037">
        <ele>171</ele>
        <time>2017-05-03T09:54:51Z</time>
      </trkpt>
      <trkpt lat="45.92327" lon="4.7503">
        <ele>171</ele>
        <time>2017-05-03T09:54:52Z</time>
      </trkpt>
      <trkpt lat="45.9233" lon="4.75023">
        <ele>171</ele>
        <time>2017-05-03T09:54:53Z</time>
      </trkpt>
      <trkpt lat="45.92334" lon="4.75016">
        <ele>170</ele>
        <time>2017-05-03T09:54:54Z</time>
      </trkpt>
      <trkpt lat="45.92338" lon="4.75009">
        <ele>170</ele>
        <time>2017-05-03T09:54:55Z</time>
      </trkpt>
      <trkpt lat="45.92341" lon="4.75002">
        <ele>170</ele>
        <time>2017-05-03T09:54:56Z</time>
      </trkpt>
      <trkpt lat="45.92344" lon="4.74995">
        <ele>170</ele>
        <time>2017-05-03T09:54:57Z</time>
      </trkpt>
      <trkpt lat="45.92347" lon="4.74988">
        <ele>170</ele>
        <time>2017-05-03T09:54:58Z</time>
      </trkpt>
      <trkpt lat="45.9235" lon="4.74982">
        <ele>170</ele>
        <time>2017-05-03T09:54:59Z</time>
      </trkpt>
      <trkpt lat="45.92353" lon="4.74975">
        <ele>170</ele>
        <time>2017-05-03T09:55:00Z</time>
      </trkpt>
      <trkpt lat="45.92355" lon="4.74969">
        <ele>170</ele>
        <time>2017-05-03T09:55:01Z</time>
      </trkpt>
      <trkpt lat="45.92358" lon="4.74963">
        <ele>170</ele>
        <time>2017-05-03T09:55:02Z</time>
      </trkpt>
      <trkpt lat="45.9236" lon="4.74957">
        <ele>170</ele>
        <time>2017-05-03T09:55:03Z</time>
      </trkpt>
      <trkpt lat="45.92362" lon="4.7495">
        <ele>170</ele>
        <time>2017-05-03T09:55:04Z</time>
      </trkpt>
      <trkpt lat="45.92365" lon="4.74943">
        <ele>170</ele>
        <time>2017-05-03T09:55:05Z</time>
      </trkpt>
      <trkpt lat="45.92368" lon="4.74936">
        <ele>170</ele>
        <time>2017-05-03T09:55:06Z</time>
      </trkpt>
      <trkpt lat="45.92371" lon="4.74928">
        <ele>170</ele>
        <time>2017-05-03T09:55:07Z</time>
      </trkpt>
      <trkpt lat="45.92374" lon="4.7492">
        <ele>170</ele>
        <time>2017-05-03T09:55:08Z</time>
      </trkpt>
      <trkpt lat="45.92377" lon="4.74912">
        <ele>171</ele>
        <time>2017-05-03T09:55:09Z</time>
      </trkpt>
      <trkpt lat="45.9238" lon="4.74905">
        <ele>171</ele>
        <time>2017-05-03T09:55:10Z</time>
      </trkpt>
      <trkpt lat="45.92382" lon="4.74898">
        <ele>171</ele>
        <time>2017-05-03T09:55:11Z</time>
      </trkpt>
      <trkpt lat="45.92385" lon="4.74891">
        <ele>171</ele>
        <time>2017-05-03T09:55:12Z</time>
      </trkpt>
      <trkpt lat="45.92388" lon="4.74884">
        <ele>171</ele>
        <time>2017-05-03T09:55:13Z</time>
      </trkpt>
      <trkpt lat="45.92391" lon="4.74878">
        <ele>171</ele>
        <time>2017-05-03T09:55:14Z</time>
      </trkpt>
      <trkpt lat="45.92393" lon="4.74872">
        <ele>171</ele>
        <time>2017-05-03T09:55:15Z</time>
      </trkpt>
      <trkpt lat="45.92395" lon="4.74866">
        <ele>171</ele>
        <time>2017-05-03T09:55:16Z</time>
      </trkpt>
      <trkpt lat="45.92399" lon="4.74859">
        <ele>171</ele>
        <time>2017-05-03T09:55:17Z</time>
      </trkpt>
      <trkpt lat="45.92401" lon="4.74852">
        <ele>171</ele>
        <time>2017-05-03T09:55:18Z</time>
      </trkpt>
      <trkpt lat="45.92403" lon="4.74845">
        <ele>171</ele>
        <time>2017-05-03T09:55:19Z</time>
      </trkpt>
      <trkpt lat="45.92405" lon="4.74837">
        <ele>171</ele>
        <time>2017-05-03T09:55:20Z</time>
      </trkpt>
      <trkpt lat="45.92407" lon="4.74829">
        <ele>171</ele>
        <time>2017-05-03T09:55:21Z</time>
      </trkpt>
      <trkpt lat="45.92408" lon="4.74821">
        <ele>171</ele>
        <time>2017-05-03T09:55:22Z</time>
      </trkpt>
      <trkpt lat="45.9241" lon="4.74813">
        <ele>171</ele>
        <time>2017-05-03T09:55:23Z</time>
      </trkpt>
      <trkpt lat="45.92412" lon="4.74805">
        <ele>171</ele>
        <time>2017-05-03T09:55:24Z</time>
      </trkpt>
      <trkpt lat="45.92414" lon="4.74797">
        <ele>171</ele>
        <time>2017-05-03T09:55:25Z</time>
      </trkpt>
      <trkpt lat="45.92416" lon="4.74788">
        <ele>171</ele>
        <time>2017-05-03T09:55:26Z</time>
      </trkpt>
      <trkpt lat="45.92418" lon="4.7478">
        <ele>171</ele>
        <time>2017-05-03T09:55:27Z</time>
      </trkpt>
      <trkpt lat="45.9242" lon="4.74771">
        <ele>171</ele>
        <time>2017-05-03T09:55:28Z</time>
      </trkpt>
      <trkpt lat="45.92422" lon="4.74763">
        <ele>171</ele>
        <time>2017-05-03T09:55:29Z</time>
      </trkpt>
      <trkpt lat="45.92424" lon="4.74756">
        <ele>172</ele>
        <time>2017-05-03T09:55:30Z</time>
      </trkpt>
      <trkpt lat="45.92426" lon="4.74749">
        <ele>172</ele>
        <time>2017-05-03T09:55:31Z</time>
      </trkpt>
      <trkpt lat="45.92428" lon="4.74742">
        <ele>171</ele>
        <time>2017-05-03T09:55:32Z</time>
      </trkpt>
      <trkpt lat="45.9243" lon="4.74735">
        <ele>171</ele>
        <time>2017-05-03T09:55:33Z</time>
      </trkpt>
      <trkpt lat="45.92433" lon="4.74728">
        <ele>171</ele>
        <time>2017-05-03T09:55:34Z</time>
      </trkpt>
      <trkpt lat="45.92435" lon="4.74722">
        <ele>171</ele>
        <time>2017-05-03T09:55:35Z</time>
      </trkpt>
      <trkpt lat="45.92437" lon="4.74716">
        <ele>171</ele>
        <time>2017-05-03T09:55:36Z</time>
      </trkpt>
      <trkpt lat="45.9244" lon="4.74709">
        <ele>171</ele>
        <time>2017-05-03T09:55:37Z</time>
      </trkpt>
      <trkpt lat="45.92443" lon="4.74703">
        <ele>171</ele>
        <time>2017-05-03T09:55:38Z</time>
      </trkpt>
      <trkpt lat="45.92445" lon="4.74697">
        <ele>171</ele>
        <time>2017-05-03T09:55:39Z</time>
      </trkpt>
      <trkpt lat="45.92448" lon="4.7469">
        <ele>171</ele>
        <time>2017-05-03T09:55:40Z</time>
      </trkpt>
      <trkpt lat="45.92451" lon="4.74684">
        <ele>171</ele>
        <time>2017-05-03T09:55:41Z</time>
      </trkpt>
      <trkpt lat="45.92454" lon="4.74677">
        <ele>171</ele>
        <time>2017-05-03T09:55:42Z</time>
      </trkpt>
      <trkpt lat="45.92457" lon="4.74671">
        <ele>171</ele>
        <time>2017-05-03T09:55:43Z</time>
      </trkpt>
      <trkpt lat="45.92461" lon="4.74665">
        <ele>171</ele>
        <time>2017-05-03T09:55:44Z</time>
      </trkpt>
      <trkpt lat="45.92465" lon="4.74658">
        <ele>171</ele>
        <time>2017-05-03T09:55:45Z</time>
      </trkpt>
      <trkpt lat="45.9247" lon="4.74652">
        <ele>171</ele>
        <time>2017-05-03T09:55:46Z</time>
      </trkpt>
      <trkpt lat="45.92474" lon="4.74645">
        <ele>171</ele>
        <time>2017-05-03T09:55:47Z</time>
      </trkpt>
      <trkpt lat="45.92478" lon="4.74635">
        <ele>171</ele>
        <time>2017-05-03T09:55:48Z</time>
      </trkpt>
      <trkpt lat="45.92484" lon="4.74629">
        <ele>171</ele>
        <time>2017-05-03T09:55:49Z</time>
      </trkpt>
      <trkpt lat="45.92488" lon="4.74624">
        <ele>171</ele>
        <time>2017-05-03T09:55:50Z</time>
      </trkpt>
      <trkpt lat="45.92492" lon="4.74618">
        <ele>171</ele>
        <time>2017-05-03T09:55:51Z</time>
      </trkpt>
      <trkpt lat="45.92496" lon="4.74612">
        <ele>171</ele>
        <time>2017-05-03T09:55:52Z</time>
      </trkpt>
      <trkpt lat="45.925" lon="4.74607">
        <ele>171</ele>
        <time>2017-05-03T09:55:53Z</time>
      </trkpt>
      <trkpt lat="45.92504" lon="4.74602">
        <ele>171</ele>
        <time>2017-05-03T09:55:54Z</time>
      </trkpt>
      <trkpt lat="45.92508" lon="4.74597">
        <ele>171</ele>
        <time>2017-05-03T09:55:55Z</time>
      </trkpt>
      <trkpt lat="45.92512" lon="4.74591">
        <ele>171</ele>
        <time>2017-05-03T09:55:56Z</time>
      </trkpt>
      <trkpt lat="45.92516" lon="4.74587">
        <ele>171</ele>
        <time>2017-05-03T09:55:57Z</time>
      </trkpt>
      <trkpt lat="45.9252" lon="4.74582">
        <ele>171</ele>
        <time>2017-05-03T09:55:58Z</time>
      </trkpt>
      <trkpt lat="45.92525" lon="4.74577">
        <ele>171</ele>
        <time>2017-05-03T09:55:59Z</time>
      </trkpt>
      <trkpt lat="45.92529" lon="4.74571">
        <ele>171</ele>
        <time>2017-05-03T09:56:00Z</time>
      </trkpt>
      <trkpt lat="45.92533" lon="4.74566">
        <ele>171</ele>
        <time>2017-05-03T09:56:01Z</time>
      </trkpt>
      <trkpt lat="45.92537" lon="4.74559">
        <ele>171</ele>
        <time>2017-05-03T09:56:02Z</time>
      </trkpt>
      <trkpt lat="45.92541" lon="4.74553">
        <ele>171</ele>
        <time>2017-05-03T09:56:03Z</time>
      </trkpt>
      <trkpt lat="45.92545" lon="4.74546">
        <ele>170</ele>
        <time>2017-05-03T09:56:04Z</time>
      </trkpt>
      <trkpt lat="45.92549" lon="4.74539">
        <ele>170</ele>
        <time>2017-05-03T09:56:05Z</time>
      </trkpt>
      <trkpt lat="45.92553" lon="4.74533">
        <ele>170</ele>
        <time>2017-05-03T09:56:06Z</time>
      </trkpt>
      <trkpt lat="45.92556" lon="4.74526">
        <ele>170</ele>
        <time>2017-05-03T09:56:07Z</time>
      </trkpt>
      <trkpt lat="45.9256" lon="4.7452">
        <ele>170</ele>
        <time>2017-05-03T09:56:08Z</time>
      </trkpt>
      <trkpt lat="45.92563" lon="4.74513">
        <ele>170</ele>
        <time>2017-05-03T09:56:09Z</time>
      </trkpt>
      <trkpt lat="45.92566" lon="4.74507">
        <ele>170</ele>
        <time>2017-05-03T09:56:10Z</time>
      </trkpt>
      <trkpt lat="45.92569" lon="4.745">
        <ele>170</ele>
        <time>2017-05-03T09:56:11Z</time>
      </trkpt>
      <trkpt lat="45.92572" lon="4.74494">
        <ele>170</ele>
        <time>2017-05-03T09:56:12Z</time>
      </trkpt>
      <trkpt lat="45.92575" lon="4.74489">
        <ele>170</ele>
        <time>2017-05-03T09:56:13Z</time>
      </trkpt>
      <trkpt lat="45.92578" lon="4.74483">
        <ele>170</ele>
        <time>2017-05-03T09:56:14Z</time>
      </trkpt>
      <trkpt lat="45.92581" lon="4.74478">
        <ele>170</ele>
        <time>2017-05-03T09:56:15Z</time>
      </trkpt>
      <trkpt lat="45.92585" lon="4.74472">
        <ele>170</ele>
        <time>2017-05-03T09:56:16Z</time>
      </trkpt>
      <trkpt lat="45.92588" lon="4.74466">
        <ele>170</ele>
        <time>2017-05-03T09:56:17Z</time>
      </trkpt>
      <trkpt lat="45.92591" lon="4.7446">
        <ele>170</ele>
        <time>2017-05-03T09:56:18Z</time>
      </trkpt>
      <trkpt lat="45.92595" lon="4.74453">
        <ele>170</ele>
        <time>2017-05-03T09:56:19Z</time>
      </trkpt>
      <trkpt lat="45.92599" lon="4.74446">
        <ele>170</ele>
        <time>2017-05-03T09:56:20Z</time>
      </trkpt>
      <trkpt lat="45.92603" lon="4.74439">
        <ele>170</ele>
        <time>2017-05-03T09:56:21Z</time>
      </trkpt>
      <trkpt lat="45.92607" lon="4.74433">
        <ele>170</ele>
        <time>2017-05-03T09:56:22Z</time>
      </trkpt>
      <trkpt lat="45.92611" lon="4.74425">
        <ele>170</ele>
        <time>2017-05-03T09:56:23Z</time>
      </trkpt>
      <trkpt lat="45.92614" lon="4.74418">
        <ele>170</ele>
        <time>2017-05-03T09:56:24Z</time>
      </trkpt>
      <trkpt lat="45.92618" lon="4.74412">
        <ele>170</ele>
        <time>2017-05-03T09:56:25Z</time>
      </trkpt>
      <trkpt lat="45.92622" lon="4.74405">
        <ele>170</ele>
        <time>2017-05-03T09:56:26Z</time>
      </trkpt>
      <trkpt lat="45.92625" lon="4.74399">
        <ele>170</ele>
        <time>2017-05-03T09:56:27Z</time>
      </trkpt>
      <trkpt lat="45.92628" lon="4.74393">
        <ele>170</ele>
        <time>2017-05-03T09:56:28Z</time>
      </trkpt>
      <trkpt lat="45.92632" lon="4.74387">
        <ele>170</ele>
        <time>2017-05-03T09:56:29Z</time>
      </trkpt>
      <trkpt lat="45.92635" lon="4.74382">
        <ele>170</ele>
        <time>2017-05-03T09:56:30Z</time>
      </trkpt>
      <trkpt lat="45.92638" lon="4.74376">
        <ele>170</ele>
        <time>2017-05-03T09:56:31Z</time>
      </trkpt>
      <trkpt lat="45.92641" lon="4.74371">
        <ele>171</ele>
        <time>2017-05-03T09:56:32Z</time>
      </trkpt>
      <trkpt lat="45.92644" lon="4.74365">
        <ele>171</ele>
        <time>2017-05-03T09:56:33Z</time>
      </trkpt>
      <trkpt lat="45.92647" lon="4.7436">
        <ele>171</ele>
        <time>2017-05-03T09:56:34Z</time>
      </trkpt>
      <trkpt lat="45.9265" lon="4.74353">
        <ele>171</ele>
        <time>2017-05-03T09:56:35Z</time>
      </trkpt>
      <trkpt lat="45.92653" lon="4.74347">
        <ele>171</ele>
        <time>2017-05-03T09:56:36Z</time>
      </trkpt>
      <trkpt lat="45.92656" lon="4.7434">
        <ele>171</ele>
        <time>2017-05-03T09:56:37Z</time>
      </trkpt>
      <trkpt lat="45.92659" lon="4.74334">
        <ele>171</ele>
        <time>2017-05-03T09:56:38Z</time>
      </trkpt>
      <trkpt lat="45.92663" lon="4.74327">
        <ele>171</ele>
        <time>2017-05-03T09:56:39Z</time>
      </trkpt>
      <trkpt lat="45.92666" lon="4.74321">
        <ele>171</ele>
        <time>2017-05-03T09:56:40Z</time>
      </trkpt>
      <trkpt lat="45.9267" lon="4.74314">
        <ele>171</ele>
        <time>2017-05-03T09:56:41Z</time>
      </trkpt>
      <trkpt lat="45.92673" lon="4.74307">
        <ele>171</ele>
        <time>2017-05-03T09:56:42Z</time>
      </trkpt>
      <trkpt lat="45.92677" lon="4.74301">
        <ele>171</ele>
        <time>2017-05-03T09:56:43Z</time>
      </trkpt>
      <trkpt lat="45.9268" lon="4.74294">
        <ele>171</ele>
        <time>2017-05-03T09:56:44Z</time>
      </trkpt>
      <trkpt lat="45.92684" lon="4.74288">
        <ele>171</ele>
        <time>2017-05-03T09:56:45Z</time>
      </trkpt>
      <trkpt lat="45.92687" lon="4.74282">
        <ele>171</ele>
        <time>2017-05-03T09:56:46Z</time>
      </trkpt>
      <trkpt lat="45.9269" lon="4.74277">
        <ele>171</ele>
        <time>2017-05-03T09:56:47Z</time>
      </trkpt>
      <trkpt lat="45.92693" lon="4.74271">
        <ele>171</ele>
        <time>2017-05-03T09:56:48Z</time>
      </trkpt>
      <trkpt lat="45.92696" lon="4.74266">
        <ele>171</ele>
        <time>2017-05-03T09:56:49Z</time>
      </trkpt>
      <trkpt lat="45.92699" lon="4.74261">
        <ele>171</ele>
        <time>2017-05-03T09:56:50Z</time>
      </trkpt>
      <trkpt lat="45.92702" lon="4.74256">
        <ele>171</ele>
        <time>2017-05-03T09:56:51Z</time>
      </trkpt>
      <trkpt lat="45.92705" lon="4.7425">
        <ele>171</ele>
        <time>2017-05-03T09:56:52Z</time>
      </trkpt>
      <trkpt lat="45.92708" lon="4.74245">
        <ele>171</ele>
        <time>2017-05-03T09:56:53Z</time>
      </trkpt>
      <trkpt lat="45.92711" lon="4.7424">
        <ele>171</ele>
        <time>2017-05-03T09:56:54Z</time>
      </trkpt>
      <trkpt lat="45.92715" lon="4.74235">
        <ele>171</ele>
        <time>2017-05-03T09:56:55Z</time>
      </trkpt>
      <trkpt lat="45.92719" lon="4.74229">
        <ele>171</ele>
        <time>2017-05-03T09:56:56Z</time>
      </trkpt>
      <trkpt lat="45.92723" lon="4.74224">
        <ele>171</ele>
        <time>2017-05-03T09:56:57Z</time>
      </trkpt>
      <trkpt lat="45.92727" lon="4.74218">
        <ele>171</ele>
        <time>2017-05-03T09:56:58Z</time>
      </trkpt>
      <trkpt lat="45.92731" lon="4.74212">
        <ele>171</ele>
        <time>2017-05-03T09:56:59Z</time>
      </trkpt>
      <trkpt lat="45.92736" lon="4.74206">
        <ele>171</ele>
        <time>2017-05-03T09:57:00Z</time>
      </trkpt>
      <trkpt lat="45.92741" lon="4.742">
        <ele>171</ele>
        <time>2017-05-03T09:57:01Z</time>
      </trkpt>
      <trkpt lat="45.92745" lon="4.74194">
        <ele>171</ele>
        <time>2017-05-03T09:57:02Z</time>
      </trkpt>
      <trkpt lat="45.9275" lon="4.74188">
        <ele>172</ele>
        <time>2017-05-03T09:57:03Z</time>
      </trkpt>
      <trkpt lat="45.92755" lon="4.74182">
        <ele>172</ele>
        <time>2017-05-03T09:57:04Z</time>
      </trkpt>
      <trkpt lat="45.92761" lon="4.74176">
        <ele>172</ele>
        <time>2017-05-03T09:57:05Z</time>
      </trkpt>
      <trkpt lat="45.92766" lon="4.7417">
        <ele>172</ele>
        <time>2017-05-03T09:57:06Z</time>
      </trkpt>
      <trkpt lat="45.92771" lon="4.74165">
        <ele>172</ele>
        <time>2017-05-03T09:57:07Z</time>
      </trkpt>
      <trkpt lat="45.92776" lon="4.74159">
        <ele>172</ele>
        <time>2017-05-03T09:57:08Z</time>
      </trkpt>
      <trkpt lat="45.92781" lon="4.74154">
        <ele>172</ele>
        <time>2017-05-03T09:57:09Z</time>
      </trkpt>
      <trkpt lat="45.92786" lon="4.7415">
        <ele>172</ele>
        <time>2017-05-03T09:57:10Z</time>
      </trkpt>
      <trkpt lat="45.92791" lon="4.74145">
        <ele>172</ele>
        <time>2017-05-03T09:57:11Z</time>
      </trkpt>
      <trkpt lat="45.92795" lon="4.7414">
        <ele>172</ele>
        <time>2017-05-03T09:57:12Z</time>
      </trkpt>
      <trkpt lat="45.928" lon="4.74135">
        <ele>172</ele>
        <time>2017-05-03T09:57:13Z</time>
      </trkpt>
      <trkpt lat="45.92805" lon="4.7413">
        <ele>172</ele>
        <time>2017-05-03T09:57:14Z</time>
      </trkpt>
      <trkpt lat="45.9281" lon="4.74124">
        <ele>172</ele>
        <time>2017-05-03T09:57:15Z</time>
      </trkpt>
      <trkpt lat="45.92815" lon="4.7412">
        <ele>172</ele>
        <time>2017-05-03T09:57:16Z</time>
      </trkpt>
      <trkpt lat="45.9282" lon="4.74114">
        <ele>172</ele>
        <time>2017-05-03T09:57:17Z</time>
      </trkpt>
      <trkpt lat="45.92825" lon="4.74108">
        <ele>171</ele>
        <time>2017-05-03T09:57:18Z</time>
      </trkpt>
      <trkpt lat="45.9283" lon="4.74103">
        <ele>171</ele>
        <time>2017-05-03T09:57:19Z</time>
      </trkpt>
      <trkpt lat="45.92835" lon="4.74097">
        <ele>171</ele>
        <time>2017-05-03T09:57:20Z</time>
      </trkpt>
      <trkpt lat="45.9284" lon="4.74091">
        <ele>171</ele>
        <time>2017-05-03T09:57:21Z</time>
      </trkpt>
      <trkpt lat="45.92845" lon="4.74086">
        <ele>171</ele>
        <time>2017-05-03T09:57:22Z</time>
      </trkpt>
      <trkpt lat="45.92849" lon="4.7408">
        <ele>172</ele>
        <time>2017-05-03T09:57:23Z</time>
      </trkpt>
      <trkpt lat="45.92853" lon="4.74075">
        <ele>172</ele>
        <time>2017-05-03T09:57:24Z</time>
      </trkpt>
      <trkpt lat="45.92857" lon="4.74069">
        <ele>172</ele>
        <time>2017-05-03T09:57:25Z</time>
      </trkpt>
      <trkpt lat="45.92861" lon="4.74065">
        <ele>172</ele>
        <time>2017-05-03T09:57:26Z</time>
      </trkpt>
      <trkpt lat="45.92865" lon="4.7406">
        <ele>172</ele>
        <time>2017-05-03T09:57:27Z</time>
      </trkpt>
      <trkpt lat="45.92869" lon="4.74056">
        <ele>172</ele>
        <time>2017-05-03T09:57:28Z</time>
      </trkpt>
      <trkpt lat="45.92873" lon="4.74052">
        <ele>172</ele>
        <time>2017-05-03T09:57:29Z</time>
      </trkpt>
      <trkpt lat="45.92878" lon="4.74049">
        <ele>172</ele>
        <time>2017-05-03T09:57:30Z</time>
      </trkpt>
      <trkpt lat="45.92884" lon="4.74048">
        <ele>172</ele>
        <time>2017-05-03T09:57:31Z</time>
      </trkpt>
      <trkpt lat="45.92889" lon="4.74049">
        <ele>172</ele>
        <time>2017-05-03T09:57:32Z</time>
      </trkpt>
      <trkpt lat="45.92895" lon="4.74049">
        <ele>172</ele>
        <time>2017-05-03T09:57:33Z</time>
      </trkpt>
      <trkpt lat="45.929" lon="4.74047">
        <ele>172</ele>
        <time>2017-05-03T09:57:34Z</time>
      </trkpt>
      <trkpt lat="45.92905" lon="4.74044">
        <ele>172</ele>
        <time>2017-05-03T09:57:35Z</time>
      </trkpt>
      <trkpt lat="45.92909" lon="4.74039">
        <ele>172</ele>
        <time>2017-05-03T09:57:36Z</time>
      </trkpt>
      <trkpt lat="45.92913" lon="4.74032">
        <ele>172</ele>
        <time>2017-05-03T09:57:37Z</time>
      </trkpt>
      <trkpt lat="45.92915" lon="4.74026">
        <ele>172</ele>
        <time>2017-05-03T09:57:38Z</time>
      </trkpt>
      <trkpt lat="45.92916" lon="4.74018">
        <ele>172</ele>
        <time>2017-05-03T09:57:39Z</time>
      </trkpt>
      <trkpt lat="45.92916" lon="4.74011">
        <ele>172</ele>
        <time>2017-05-03T09:57:40Z</time>
      </trkpt>
      <trkpt lat="45.92914" lon="4.74004">
        <ele>172</ele>
        <time>2017-05-03T09:57:41Z</time>
      </trkpt>
      <trkpt lat="45.92911" lon="4.73998">
        <ele>172</ele>
        <time>2017-05-03T09:57:42Z</time>
      </trkpt>
      <trkpt lat="45.92908" lon="4.73993">
        <ele>172</ele>
        <time>2017-05-03T09:57:43Z</time>
      </trkpt>
      <trkpt lat="45.92903" lon="4.73989">
        <ele>172</ele>
        <time>2017-05-03T09:57:44Z</time>
      </trkpt>
      <trkpt lat="45.92899" lon="4.73985">
        <ele>172</ele>
        <time>2017-05-03T09:57:45Z</time>
      </trkpt>
      <trkpt lat="45.92895" lon="4.73981">
        <ele>172</ele>
        <time>2017-05-03T09:57:46Z</time>
      </trkpt>
      <trkpt lat="45.92891" lon="4.73975">
        <ele>172</ele>
        <time>2017-05-03T09:57:47Z</time>
      </trkpt>
      <trkpt lat="45.92889" lon="4.73969">
        <ele>172</ele>
        <time>2017-05-03T09:57:48Z</time>
      </trkpt>
      <trkpt lat="45.92887" lon="4.73961">
        <ele>172</ele>
        <time>2017-05-03T09:57:49Z</time>
      </trkpt>
      <trkpt lat="45.92887" lon="4.73953">
        <ele>172</ele>
        <time>2017-05-03T09:57:50Z</time>
      </trkpt>
      <trkpt lat="45.92887" lon="4.73945">
        <ele>172</ele>
        <time>2017-05-03T09:57:51Z</time>
      </trkpt>
      <trkpt lat="45.92888" lon="4.73938">
        <ele>172</ele>
        <time>2017-05-03T09:57:52Z</time>
      </trkpt>
      <trkpt lat="45.92887" lon="4.7393">
        <ele>172</ele>
        <time>2017-05-03T09:57:53Z</time>
      </trkpt>
      <trkpt lat="45.92887" lon="4.73922">
        <ele>172</ele>
        <time>2017-05-03T09:57:54Z</time>
      </trkpt>
      <trkpt lat="45.92886" lon="4.73914">
        <ele>173</ele>
        <time>2017-05-03T09:57:55Z</time>
      </trkpt>
      <trkpt lat="45.92884" lon="4.73906">
        <ele>173</ele>
        <time>2017-05-03T09:57:56Z</time>
      </trkpt>
      <trkpt lat="45.92882" lon="4.73897">
        <ele>173</ele>
        <time>2017-05-03T09:57:57Z</time>
      </trkpt>
      <trkpt lat="45.92879" lon="4.73889">
        <ele>173</ele>
        <time>2017-05-03T09:57:58Z</time>
      </trkpt>
      <trkpt lat="45.92877" lon="4.7388">
        <ele>173</ele>
        <time>2017-05-03T09:57:59Z</time>
      </trkpt>
      <trkpt lat="45.92875" lon="4.73872">
        <ele>173</ele>
        <time>2017-05-03T09:58:00Z</time>
      </trkpt>
      <trkpt lat="45.92872" lon="4.73863">
        <ele>173</ele>
        <time>2017-05-03T09:58:01Z</time>
      </trkpt>
      <trkpt lat="45.9287" lon="4.73854">
        <ele>173</ele>
        <time>2017-05-03T09:58:02Z</time>
      </trkpt>
      <trkpt lat="45.92868" lon="4.73845">
        <ele>173</ele>
        <time>2017-05-03T09:58:03Z</time>
      </trkpt>
      <trkpt lat="45.92867" lon="4.73836">
        <ele>173</ele>
        <time>2017-05-03T09:58:04Z</time>
      </trkpt>
      <trkpt lat="45.92864" lon="4.73827">
        <ele>173</ele>
        <time>2017-05-03T09:58:05Z</time>
      </trkpt>
      <trkpt lat="45.92861" lon="4.73818">
        <ele>173</ele>
        <time>2017-05-03T09:58:06Z</time>
      </trkpt>
      <trkpt lat="45.92857" lon="4.73809">
        <ele>173</ele>
        <time>2017-05-03T09:58:07Z</time>
      </trkpt>
      <trkpt lat="45.92853" lon="4.73802">
        <ele>173</ele>
        <time>2017-05-03T09:58:08Z</time>
      </trkpt>
      <trkpt lat="45.92848" lon="4.73796">
        <ele>173</ele>
        <time>2017-05-03T09:58:09Z</time>
      </trkpt>
      <trkpt lat="45.92843" lon="4.73791">
        <ele>173</ele>
        <time>2017-05-03T09:58:10Z</time>
      </trkpt>
      <trkpt lat="45.92837" lon="4.73786">
        <ele>173</ele>
        <time>2017-05-03T09:58:11Z</time>
      </trkpt>
      <trkpt lat="45.92832" lon="4.73782">
        <ele>173</ele>
        <time>2017-05-03T09:58:12Z</time>
      </trkpt>
      <trkpt lat="45.92826" lon="4.73778">
        <ele>173</ele>
        <time>2017-05-03T09:58:13Z</time>
      </trkpt>
      <trkpt lat="45.92822" lon="4.73775">
        <ele>173</ele>
        <time>2017-05-03T09:58:14Z</time>
      </trkpt>
      <trkpt lat="45.92817" lon="4.73773">
        <ele>173</ele>
        <time>2017-05-03T09:58:15Z</time>
      </trkpt>
      <trkpt lat="45.9281" lon="4.73768">
        <ele>173</ele>
        <time>2017-05-03T09:58:17Z</time>
      </trkpt>
      <trkpt lat="45.92806" lon="4.73766">
        <ele>173</ele>
        <time>2017-05-03T09:58:18Z</time>
      </trkpt>
      <trkpt lat="45.92799" lon="4.73762">
        <ele>173</ele>
        <time>2017-05-03T09:58:20Z</time>
      </trkpt>
      <trkpt lat="45.92796" lon="4.7376">
        <ele>173</ele>
        <time>2017-05-03T09:58:21Z</time>
      </trkpt>
      <trkpt lat="45.92789" lon="4.73755">
        <ele>173</ele>
        <time>2017-05-03T09:58:23Z</time>
      </trkpt>
      <trkpt lat="45.92787" lon="4.73751">
        <ele>173</ele>
        <time>2017-05-03T09:58:24Z</time>
      </trkpt>
      <trkpt lat="45.92782" lon="4.73743">
        <ele>172</ele>
        <time>2017-05-03T09:58:26Z</time>
      </trkpt>
      <trkpt lat="45.92779" lon="4.73738">
        <ele>172</ele>
        <time>2017-05-03T09:58:27Z</time>
      </trkpt>
      <trkpt lat="45.92772" lon="4.73732">
        <ele>172</ele>
        <time>2017-05-03T09:58:29Z</time>
      </trkpt>
      <trkpt lat="45.92768" lon="4.7373">
        <ele>172</ele>
        <time>2017-05-03T09:58:30Z</time>
      </trkpt>
      <trkpt lat="45.9276" lon="4.73727">
        <ele>172</ele>
        <time>2017-05-03T09:58:32Z</time>
      </trkpt>
      <trkpt lat="45.92756" lon="4.73726">
        <ele>172</ele>
        <time>2017-05-03T09:58:33Z</time>
      </trkpt>
      <trkpt lat="45.92748" lon="4.73723">
        <ele>173</ele>
        <time>2017-05-03T09:58:35Z</time>
      </trkpt>
      <trkpt lat="45.92744" lon="4.73721">
        <ele>173</ele>
        <time>2017-05-03T09:58:36Z</time>
      </trkpt>
      <trkpt lat="45.92739" lon="4.7372">
        <ele>173</ele>
        <time>2017-05-03T09:58:37Z</time>
      </trkpt>
      <trkpt lat="45.92734" lon="4.73719">
        <ele>173</ele>
        <time>2017-05-03T09:58:38Z</time>
      </trkpt>
      <trkpt lat="45.92729" lon="4.73718">
        <ele>173</ele>
        <time>2017-05-03T09:58:39Z</time>
      </trkpt>
      <trkpt lat="45.92724" lon="4.73717">
        <ele>173</ele>
        <time>2017-05-03T09:58:40Z</time>
      </trkpt>
      <trkpt lat="45.92719" lon="4.73715">
        <ele>173</ele>
        <time>2017-05-03T09:58:41Z</time>
      </trkpt>
      <trkpt lat="45.92715" lon="4.73714">
        <ele>173</ele>
        <time>2017-05-03T09:58:42Z</time>
      </trkpt>
      <trkpt lat="45.92706" lon="4.73713">
        <ele>173</ele>
        <time>2017-05-03T09:58:44Z</time>
      </trkpt>
      <trkpt lat="45.92702" lon="4.73712">
        <ele>173</ele>
        <time>2017-05-03T09:58:45Z</time>
      </trkpt>
      <trkpt lat="45.92693" lon="4.73711">
        <ele>173</ele>
        <time>2017-05-03T09:58:47Z</time>
      </trkpt>
      <trkpt lat="45.92689" lon="4.7371">
        <ele>173</ele>
        <time>2017-05-03T09:58:48Z</time>
      </trkpt>
      <trkpt lat="45.92684" lon="4.73709">
        <ele>173</ele>
        <time>2017-05-03T09:58:49Z</time>
      </trkpt>
      <trkpt lat="45.92679" lon="4.73708">
        <ele>173</ele>
        <time>2017-05-03T09:58:50Z</time>
      </trkpt>
      <trkpt lat="45.92674" lon="4.73706">
        <ele>174</ele>
        <time>2017-05-03T09:58:51Z</time>
      </trkpt>
      <trkpt lat="45.92669" lon="4.73704">
        <ele>174</ele>
        <time>2017-05-03T09:58:52Z</time>
      </trkpt>
      <trkpt lat="45.92664" lon="4.73701">
        <ele>173</ele>
        <time>2017-05-03T09:58:53Z</time>
      </trkpt>
      <trkpt lat="45.9266" lon="4.73699">
        <ele>173</ele>
        <time>2017-05-03T09:58:54Z</time>
      </trkpt>
      <trkpt lat="45.92656" lon="4.73695">
        <ele>173</ele>
        <time>2017-05-03T09:58:55Z</time>
      </trkpt>
      <trkpt lat="45.92652" lon="4.73691">
        <ele>173</ele>
        <time>2017-05-03T09:58:56Z</time>
      </trkpt>
      <trkpt lat="45.92648" lon="4.73687">
        <ele>173</ele>
        <time>2017-05-03T09:58:57Z</time>
      </trkpt>
      <trkpt lat="45.92645" lon="4.73682">
        <ele>173</ele>
        <time>2017-05-03T09:58:58Z</time>
      </trkpt>
      <trkpt lat="45.92639" lon="4.73673">
        <ele>173</ele>
        <time>2017-05-03T09:59:00Z</time>
      </trkpt>
      <trkpt lat="45.92637" lon="4.73668">
        <ele>173</ele>
        <time>2017-05-03T09:59:01Z</time>
      </trkpt>
      <trkpt lat="45.92635" lon="4.73662">
        <ele>173</ele>
        <time>2017-05-03T09:59:02Z</time>
      </trkpt>
      <trkpt lat="45.92632" lon="4.73656">
        <ele>173</ele>
        <time>2017-05-03T09:59:03Z</time>
      </trkpt>
      <trkpt lat="45.92629" lon="4.73649">
        <ele>173</ele>
        <time>2017-05-03T09:59:04Z</time>
      </trkpt>
      <trkpt lat="45.92626" lon="4.73643">
        <ele>173</ele>
        <time>2017-05-03T09:59:05Z</time>
      </trkpt>
      <trkpt lat="45.92622" lon="4.73637">
        <ele>173</ele>
        <time>2017-05-03T09:59:06Z</time>
      </trkpt>
      <trkpt lat="45.92618" lon="4.73633">
        <ele>173</ele>
        <time>2017-05-03T09:59:07Z</time>
      </trkpt>
      <trkpt lat="45.92614" lon="4.73629">
        <ele>173</ele>
        <time>2017-05-03T09:59:08Z</time>
      </trkpt>
      <trkpt lat="45.92608" lon="4.73628">
        <ele>173</ele>
        <time>2017-05-03T09:59:09Z</time>
      </trkpt>
      <trkpt lat="45.92603" lon="4.73626">
        <ele>173</ele>
        <time>2017-05-03T09:59:10Z</time>
      </trkpt>
      <trkpt lat="45.92597" lon="4.73624">
        <ele>173</ele>
        <time>2017-05-03T09:59:11Z</time>
      </trkpt>
      <trkpt lat="45.92591" lon="4.73624">
        <ele>173</ele>
        <time>2017-05-03T09:59:12Z</time>
      </trkpt>
      <trkpt lat="45.92585" lon="4.73624">
        <ele>172</ele>
        <time>2017-05-03T09:59:13Z</time>
      </trkpt>
      <trkpt lat="45.92579" lon="4.73624">
        <ele>173</ele>
        <time>2017-05-03T09:59:14Z</time>
      </trkpt>
      <trkpt lat="45.92574" lon="4.73626">
        <ele>173</ele>
        <time>2017-05-03T09:59:15Z</time>
      </trkpt>
      <trkpt lat="45.92568" lon="4.73626">
        <ele>173</ele>
        <time>2017-05-03T09:59:16Z</time>
      </trkpt>
      <trkpt lat="45.92564" lon="4.73628">
        <ele>173</ele>
        <time>2017-05-03T09:59:17Z</time>
      </trkpt>
      <trkpt lat="45.92559" lon="4.7363">
        <ele>173</ele>
        <time>2017-05-03T09:59:18Z</time>
      </trkpt>
      <trkpt lat="45.92554" lon="4.73632">
        <ele>173</ele>
        <time>2017-05-03T09:59:19Z</time>
      </trkpt>
      <trkpt lat="45.92549" lon="4.73632">
        <ele>173</ele>
        <time>2017-05-03T09:59:20Z</time>
      </trkpt>
      <trkpt lat="45.92542" lon="4.73633">
        <ele>173</ele>
        <time>2017-05-03T09:59:21Z</time>
      </trkpt>
      <trkpt lat="45.92537" lon="4.73634">
        <ele>173</ele>
        <time>2017-05-03T09:59:22Z</time>
      </trkpt>
      <trkpt lat="45.92532" lon="4.73636">
        <ele>173</ele>
        <time>2017-05-03T09:59:23Z</time>
      </trkpt>
      <trkpt lat="45.92524" lon="4.73637">
        <ele>173</ele>
        <time>2017-05-03T09:59:25Z</time>
      </trkpt>
      <trkpt lat="45.92519" lon="4.73638">
        <ele>173</ele>
        <time>2017-05-03T09:59:26Z</time>
      </trkpt>
      <trkpt lat="45.92511" lon="4.7364">
        <ele>174</ele>
        <time>2017-05-03T09:59:28Z</time>
      </trkpt>
      <trkpt lat="45.92506" lon="4.7364">
        <ele>174</ele>
        <time>2017-05-03T09:59:29Z</time>
      </trkpt>
      <trkpt lat="45.92497" lon="4.7364">
        <ele>174</ele>
        <time>2017-05-03T09:59:31Z</time>
      </trkpt>
      <trkpt lat="45.92493" lon="4.7364">
        <ele>174</ele>
        <time>2017-05-03T09:59:32Z</time>
      </trkpt>
      <trkpt lat="45.92485" lon="4.73641">
        <ele>174</ele>
        <time>2017-05-03T09:59:34Z</time>
      </trkpt>
      <trkpt lat="45.9248" lon="4.73642">
        <ele>174</ele>
        <time>2017-05-03T09:59:35Z</time>
      </trkpt>
      <trkpt lat="45.92473" lon="4.73648">
        <ele>174</ele>
        <time>2017-05-03T09:59:37Z</time>
      </trkpt>
      <trkpt lat="45.9247" lon="4.73652">
        <ele>174</ele>
        <time>2017-05-03T09:59:38Z</time>
      </trkpt>
      <trkpt lat="45.92468" lon="4.73662">
        <ele>174</ele>
        <time>2017-05-03T09:59:40Z</time>
      </trkpt>
      <trkpt lat="45.92468" lon="4.73667">
        <ele>174</ele>
        <time>2017-05-03T09:59:41Z</time>
      </trkpt>
      <trkpt lat="45.92467" lon="4.73676">
        <ele>174</ele>
        <time>2017-05-03T09:59:43Z</time>
      </trkpt>
      <trkpt lat="45.92466" lon="4.7368">
        <ele>174</ele>
        <time>2017-05-03T09:59:44Z</time>
      </trkpt>
      <trkpt lat="45.92464" lon="4.73689">
        <ele>174</ele>
        <time>2017-05-03T09:59:46Z</time>
      </trkpt>
      <trkpt lat="45.92463" lon="4.73693">
        <ele>174</ele>
        <time>2017-05-03T09:59:47Z</time>
      </trkpt>
      <trkpt lat="45.92461" lon="4.737">
        <ele>174</ele>
        <time>2017-05-03T09:59:50Z</time>
      </trkpt>
      <trkpt lat="45.92461" lon="4.73701">
        <ele>174</ele>
        <time>2017-05-03T09:59:51Z</time>
      </trkpt>
      <trkpt lat="45.9246" lon="4.73701">
        <ele>174</ele>
        <time>2017-05-03T10:00:28.822Z</time>
      </trkpt>
    </trkseg>
  </trk>
</gpx>